# Wetter Temperatur Luftdruck Luftfeuchtigkeit Sichtweite Windgeschwindigkeit Windrichtung Zeit
1 Clouds 27 1014 44 16093 6.2 90 21:18 02.04.2020
2 Clouds 27 1015 42 16093 3.1 360 20:42 02.04.2020
3 Clouds 27 1015 42 16093 3.1 360 20:23 02.04.2020
4 Clouds 26 1015 42 16093 3.1 360 19:55 02.04.2020
5 Clouds 26 1015 44 16093 3.1 70 19:37 02.04.2020
6 Clouds 26 1015 44 16093 3.1 70 19:18 02.04.2020
7 Clouds 26 1016 42 16093 2.1 0 18:41 02.04.2020
8 Clouds 26 1016 42 16093 2.1 0 18:21 02.04.2020
9 Clouds 26 1016 42 16093 2.1 0 18:21 02.04.2020
10 Clouds 25 1016 42 16093 2.1 0 17:57 02.04.2020
11 Clouds 25 1016 47 16093 3.1 70 17:39 02.04.2020
12 Clouds 25 1016 47 16093 3.1 70 17:20 02.04.2020
13 Clouds 25 1016 47 16093 3.1 70 16:56 02.04.2020
14 Clouds 24 1016 57 16093 3.1 30 16:38 02.04.2020
15 Clouds 24 1016 57 16093 3.1 30 16:20 02.04.2020
16 Clouds 23 1016 57 16093 3.1 30 15:54 02.04.2020
17 Clouds 22 1015 60 16093 2.1 0 15:36 02.04.2020
18 Clouds 22 1015 60 16093 2.1 0 15:18 02.04.2020
19 Clouds 20 1015 68 16093 1.5 10 14:40 02.04.2020
20 Clouds 19 1015 68 16093 1.5 10 14:21 02.04.2020
21 Clouds 18 1015 68 16093 1.5 10 13:58 02.04.2020
22 Clouds 18 1014 82 16093 1.5 0 13:39 02.04.2020
23 Clouds 17 1014 82 16093 1.5 0 13:21 02.04.2020
24 Clouds 18 1014 82 16093 1.5 0 12:56 02.04.2020
25 Clouds 18 1013 82 16093 4.78 34 12:38 02.04.2020
26 Clouds 18 1013 82 16093 5.08 38 12:19 02.04.2020
27 Clouds 18 1013 82 16093 5.08 38 12:19 02.04.2020
28 Clouds 19 1013 82 16093 2.1 320 11:57 02.04.2020
29 Clouds 19 1013 82 16093 2.1 320 11:38 02.04.2020
30 Clouds 19 1013 82 16093 2.1 320 11:19 02.04.2020
31 Clouds 20 1013 82 16093 2.1 320 10:55 02.04.2020
32 Clouds 20 1013 73 16093 2.1 330 10:37 02.04.2020
33 Clouds 20 1013 73 16093 2.1 330 10:37 02.04.2020
34 Clouds 20 1013 73 16093 2.1 330 10:19 02.04.2020
35 Clouds 21 1013 68 16093 5.08 38 09:43 02.04.2020
36 Clouds 20 1013 68 16093 4.65 33 09:25 02.04.2020
37 Clouds 21 1013 68 16093 4.86 43 08:59 02.04.2020
38 Clouds 21 1013 73 16093 2.1 20 08:40 02.04.2020
39 Clouds 21 1013 73 16093 2.1 20 08:22 02.04.2020
40 Clouds 21 1013 73 16093 1.5 20 07:45 02.04.2020
41 Clouds 21 1013 73 16093 1.5 20 07:20 02.04.2020
42 Clouds 21 1013 73 16093 1.5 20 06:58 02.04.2020
43 Clouds 21 1013 69 16093 2.6 20 06:21 02.04.2020
44 Clear 22 1013 64 16093 2.6 40 05:45 02.04.2020
45 Clear 22 1012 64 16093 2.6 50 04:35 02.04.2020
46 Clouds 24 1010 54 16093 4.1 40 01:51 02.04.2020
47 Clouds 28 1009 35 16093 3.1 0 00:48 02.04.2020
48 Clouds 28 1009 35 16093 3.1 0 00:27 02.04.2020
49 Clouds 29 1009 35 16093 3.1 0 23:55 01.04.2020
50 Clouds 29 1008 30 16093 3.1 300 23:37 01.04.2020
51 Clouds 30 1008 30 16093 3.1 300 23:18 01.04.2020
52 Clouds 30 1008 29 16093 4.1 270 22:40 01.04.2020
53 Clouds 30 1008 29 16093 4.1 270 22:22 01.04.2020
54 Clouds 30 1008 29 16093 4.1 270 21:55 01.04.2020
55 Clouds 29 1009 33 16093 5.1 270 21:37 01.04.2020
56 Clouds 29 1009 33 16093 5.1 270 21:18 01.04.2020
57 Clouds 29 1009 33 16093 5.1 270 20:54 01.04.2020
58 Clouds 29 1009 33 16093 5.1 270 20:54 01.04.2020
59 Clouds 29 1009 45 16093 6.2 320 20:36 01.04.2020
60 Clouds 28 1009 45 16093 6.2 320 20:18 01.04.2020
61 Clouds 28 1010 58 16093 5.7 320 19:42 01.04.2020
62 Clouds 28 1010 58 16093 5.7 320 19:22 01.04.2020
63 Clouds 27 1010 58 16093 5.7 320 18:56 01.04.2020
64 Clouds 27 1010 58 16093 5.7 320 18:56 01.04.2020
65 Clouds 27 1010 61 16093 5.1 300 18:38 01.04.2020
66 Clouds 27 1010 61 16093 5.1 300 18:38 01.04.2020
67 Clouds 27 1010 61 16093 5.1 300 18:20 01.04.2020
68 Clouds 26 1010 61 16093 5.1 300 17:55 01.04.2020
69 Rain 26 1010 78 16093 3.1 280 17:36 01.04.2020
70 Rain 26 1010 78 16093 3.1 280 17:18 01.04.2020
71 Rain 26 1010 78 16093 3.1 280 17:18 01.04.2020
72 Rain 25 1010 88 6437 3.1 240 16:42 01.04.2020
73 Rain 25 1010 88 6437 3.1 240 16:42 01.04.2020
74 Rain 24 1010 88 6437 3.1 240 16:24 01.04.2020
75 Rain 24 1010 88 6437 3.1 240 15:59 01.04.2020
76 Rain 24 1010 88 16093 3.1 290 15:41 01.04.2020
77 Rain 23 1010 88 16093 3.1 290 15:21 01.04.2020
78 Rain 23 1010 88 16093 3.1 290 14:57 01.04.2020
79 Rain 23 1009 88 16093 3.6 260 14:38 01.04.2020
80 Rain 23 1009 88 16093 3.6 260 14:38 01.04.2020
81 Rain 22 1009 88 16093 3.6 260 14:19 01.04.2020
82 Rain 22 1009 88 16093 3.6 260 14:19 01.04.2020
83 Rain 22 1009 88 16093 3.6 260 13:58 01.04.2020
84 Rain 22 1009 88 9656 3.6 290 13:38 01.04.2020
85 Rain 22 1009 88 9656 3.6 290 13:19 01.04.2020
86 Rain 23 1009 88 9656 3.6 290 12:55 01.04.2020
87 Rain 23 1008 88 9656 5.1 280 12:36 01.04.2020
88 Clouds 24 1008 83 16093 5.1 250 12:18 01.04.2020
89 Clouds 24 1007 83 16093 4.6 240 11:42 01.04.2020
90 Clouds 24 1007 83 16093 4.6 240 11:23 01.04.2020
91 Clear 24 1007 83 16093 4.6 230 10:58 01.04.2020
92 Clear 24 1007 83 16093 4.6 230 10:38 01.04.2020
93 Clear 24 1007 83 16093 4.6 230 10:19 01.04.2020
94 Clear 24 1007 83 16093 4.6 230 09:57 01.04.2020
95 Clear 24 1008 83 16093 5.1 240 09:39 01.04.2020
96 Clear 24 1008 83 16093 5.1 240 09:18 01.04.2020
97 Clouds 24 1009 88 16093 3.6 230 08:41 01.04.2020
98 Clouds 24 1009 88 16093 3.6 230 08:18 01.04.2020
99 Clouds 24 1009 88 16093 3.6 240 07:44 01.04.2020
100 Clouds 24 1009 88 16093 3.6 240 07:21 01.04.2020
101 Clouds 24 1010 88 16093 3.6 250 06:48 01.04.2020
102 Clouds 24 1010 88 16093 3.6 250 06:26 01.04.2020
103 Clouds 25 1010 88 16093 3.6 250 05:58 01.04.2020
104 Clouds 25 1011 78 16093 5.1 250 04:33 01.04.2020
105 Clouds 26 1010 69 16093 5.1 250 03:32 01.04.2020
106 Clouds 26 1010 69 16093 5.1 250 02:56 01.04.2020
107 Clouds 28 1010 61 16093 6.2 240 01:59 01.04.2020
108 Clouds 28 1009 54 16093 5.1 260 01:39 01.04.2020
109 Clouds 29 1009 54 16093 5.1 260 01:18 01.04.2020
110 Clouds 30 1009 48 16093 7.2 260 00:46 01.04.2020
111 Clouds 31 1009 48 16093 7.2 260 00:21 01.04.2020
112 Clouds 31 1009 43 16093 5.1 260 23:42 31.03.2020
113 Clouds 32 1009 43 16093 5.1 260 23:23 31.03.2020
114 Clouds 32 1010 41 16093 7.2 240 22:58 31.03.2020
115 Clouds 32 1010 41 16093 7.2 240 22:37 31.03.2020
116 Clouds 32 1010 41 16093 7.2 240 22:19 31.03.2020
117 Clouds 31 1011 43 16093 4.1 250 21:56 31.03.2020
118 Clouds 31 1011 43 16093 4.1 250 21:38 31.03.2020
119 Clouds 32 1011 43 16093 4.1 250 21:19 31.03.2020
120 Clouds 32 1012 46 16093 5.7 230 20:55 31.03.2020
121 Clouds 31 1012 46 16093 5.7 230 20:36 31.03.2020
122 Clouds 31 1012 46 16093 5.7 230 20:18 31.03.2020
123 Clouds 31 1013 45 16093 4.6 200 19:42 31.03.2020
124 Clouds 31 1013 45 16093 4.6 200 19:23 31.03.2020
125 Clouds 30 1013 45 16093 4.6 200 18:58 31.03.2020
126 Clouds 30 1014 51 16093 4.1 210 18:39 31.03.2020
127 Clouds 30 1014 51 16093 4.1 210 18:18 31.03.2020
128 Clouds 29 1014 54 16093 5.1 160 17:55 31.03.2020
129 Clouds 29 1014 54 16093 5.1 160 17:37 31.03.2020
130 Clouds 28 1014 54 16093 5.1 160 17:18 31.03.2020
131 Clouds 28 1014 69 16093 4.6 190 16:40 31.03.2020
132 Clouds 27 1014 69 16093 4.6 190 16:19 31.03.2020
133 Clouds 27 1014 69 16093 4.6 190 15:57 31.03.2020
134 Clouds 26 1015 74 16093 3.1 210 15:39 31.03.2020
135 Clouds 26 1015 74 16093 3.1 210 15:20 31.03.2020
136 Clouds 25 1015 74 16093 3.1 210 14:57 31.03.2020
137 Clouds 24 1015 88 16093 3.06 205 14:38 31.03.2020
138 Clouds 23 1015 88 16093 3.06 205 14:20 31.03.2020
139 Clouds 23 1015 94 16093 3.21 205 13:43 31.03.2020
140 Clouds 22 1015 94 16093 3.21 205 13:19 31.03.2020
141 Clouds 22 1015 94 16093 3.21 205 13:19 31.03.2020
142 Clouds 23 1015 94 16093 3.21 205 12:56 31.03.2020
143 Clouds 23 1014 94 16093 3.21 205 12:38 31.03.2020
144 Clouds 22 1014 94 16093 2.63 196 12:19 31.03.2020
145 Clouds 23 1015 88 16093 2.63 196 11:39 31.03.2020
146 Clouds 23 1015 88 16093 2.63 196 11:20 31.03.2020
147 Clouds 23 1015 88 16093 2.63 196 10:58 31.03.2020
148 Clouds 23 1015 88 16093 1.5 270 10:40 31.03.2020
149 Clouds 23 1015 88 16093 1.5 270 10:21 31.03.2020
150 Clouds 23 1015 88 16093 1.5 270 09:56 31.03.2020
151 Clouds 23 1015 88 16093 2.63 196 09:37 31.03.2020
152 Clouds 23 1015 88 16093 2.7 166 09:19 31.03.2020
153 Clouds 23 1015 88 16093 2.7 166 08:56 31.03.2020
154 Clouds 23 1015 88 16093 2.7 166 08:38 31.03.2020
155 Clouds 23 1015 88 16093 2.7 166 08:19 31.03.2020
156 Clouds 24 1015 88 16093 2.7 166 07:55 31.03.2020
157 Clouds 24 1015 88 16093 2.7 166 07:55 31.03.2020
158 Clear 24 1016 88 16093 1.5 160 07:37 31.03.2020
159 Clear 24 1016 88 16093 1.5 160 07:18 31.03.2020
160 Clouds 24 1017 88 16093 1.5 150 06:42 31.03.2020
161 Clouds 24 1017 88 16093 1.5 150 05:57 31.03.2020
162 Clouds 25 1017 83 16093 2.6 130 05:38 31.03.2020
163 Clouds 25 1017 78 16093 3.6 140 03:27 31.03.2020
164 Clouds 26 1017 78 16093 4.6 140 01:52 31.03.2020
165 Clouds 26 1016 74 16093 5.7 130 01:33 31.03.2020
166 Clouds 26 1016 74 16093 5.7 130 01:33 31.03.2020
167 Clouds 28 1017 69 16093 5.7 120 00:46 31.03.2020
168 Clouds 28 1017 69 16093 5.7 120 00:24 31.03.2020
169 Clouds 29 1017 62 16093 5.1 140 23:41 30.03.2020
170 Clouds 29 1017 62 16093 5.1 140 23:20 30.03.2020
171 Clouds 29 1017 62 16093 5.1 140 22:58 30.03.2020
172 Clouds 30 1017 58 16093 4.6 130 22:39 30.03.2020
173 Clouds 30 1017 58 16093 4.6 130 22:20 30.03.2020
174 Clouds 30 1017 58 16093 4.6 130 21:58 30.03.2020
175 Clouds 30 1018 55 16093 4.6 120 21:39 30.03.2020
176 Clouds 30 1018 55 16093 4.6 120 21:39 30.03.2020
177 Clouds 30 1018 55 16093 4.6 120 21:20 30.03.2020
178 Clouds 30 1018 55 16093 4.6 120 21:20 30.03.2020
179 Clouds 30 1018 55 16093 4.6 120 20:59 30.03.2020
180 Clouds 30 1019 58 16093 3.61 137 20:39 30.03.2020
181 Clouds 30 1019 58 16093 3.61 137 20:39 30.03.2020
182 Clouds 30 1019 58 16093 3.61 137 20:20 30.03.2020
183 Clouds 30 1019 58 16093 3.61 137 19:57 30.03.2020
184 Clouds 30 1020 58 16093 4.1 150 19:39 30.03.2020
185 Clouds 30 1020 58 16093 4.1 150 19:20 30.03.2020
186 Clouds 29 1021 58 16093 3.6 140 18:43 30.03.2020
187 Clouds 29 1021 58 16093 3.6 140 18:25 30.03.2020
188 Clouds 29 1021 58 16093 3.6 140 17:58 30.03.2020
189 Clouds 29 1021 58 16093 3.1 120 17:39 30.03.2020
190 Clouds 28 1021 58 16093 3.1 120 17:21 30.03.2020
191 Clouds 28 1021 58 16093 3.1 120 16:59 30.03.2020
192 Clouds 28 1021 65 16093 2.1 0 16:40 30.03.2020
193 Clouds 28 1021 65 16093 2.1 0 16:20 30.03.2020
194 Clouds 28 1021 65 16093 2.1 0 16:20 30.03.2020
195 Clouds 28 1021 65 16093 2.1 0 16:20 30.03.2020
196 Clouds 27 1021 65 16093 2.1 0 15:56 30.03.2020
197 Clouds 27 1021 74 16093 2.6 120 15:38 30.03.2020
198 Clouds 27 1021 74 16093 2.6 120 15:38 30.03.2020
199 Clouds 26 1021 74 16093 2.6 120 15:20 30.03.2020
200 Clouds 25 1021 74 16093 2.6 120 14:56 30.03.2020
201 Clouds 25 1021 78 16093 2.1 90 14:37 30.03.2020
202 Clouds 24 1021 78 16093 2.1 90 14:18 30.03.2020
203 Clouds 23 1021 78 16093 2.1 90 13:55 30.03.2020
204 Clouds 23 1020 83 16093 2.1 130 13:37 30.03.2020
205 Clouds 23 1020 83 16093 2.1 130 13:19 30.03.2020
206 Clouds 23 1019 83 16093 2.6 120 12:44 30.03.2020
207 Clouds 23 1019 83 16093 2.6 120 12:21 30.03.2020
208 Clouds 23 1019 83 16093 2.6 120 12:21 30.03.2020
209 Clouds 24 1019 83 16093 2.6 120 11:57 30.03.2020
210 Clouds 23 1019 83 16093 3.1 120 11:39 30.03.2020
211 Clouds 24 1019 83 16093 3.1 120 11:21 30.03.2020
212 Clouds 23 1019 83 16093 3.54 132 10:42 30.03.2020
213 Clouds 23 1019 83 16093 3.54 132 10:23 30.03.2020
214 Clouds 24 1019 83 16093 3.54 132 09:59 30.03.2020
215 Clouds 24 1019 83 16093 2.6 100 09:40 30.03.2020
216 Clouds 24 1019 83 16093 2.6 100 09:19 30.03.2020
217 Clouds 24 1019 83 16093 2.6 100 08:54 30.03.2020
218 Clouds 24 1020 78 16093 3.6 110 08:36 30.03.2020
219 Clouds 24 1020 78 16093 3.6 110 08:18 30.03.2020
220 Clouds 24 1021 74 16093 4.6 80 07:41 30.03.2020
221 Clouds 24 1021 74 16093 4.6 80 07:20 30.03.2020
222 Clouds 24 1021 78 16093 4.6 80 06:39 30.03.2020
223 Clouds 25 1021 78 16093 4.6 80 06:19 30.03.2020
224 Clouds 25 1021 74 16093 3.6 100 05:39 30.03.2020
225 Clouds 25 1021 74 16093 4.1 100 04:29 30.03.2020
226 Clouds 25 1021 74 16093 4.1 100 03:53 30.03.2020
227 Clouds 25 1020 65 16093 3.6 100 02:44 30.03.2020
228 Clouds 26 1020 65 16093 3.6 100 01:55 30.03.2020
229 Clouds 27 1019 65 16093 3.6 140 00:57 30.03.2020
230 Clouds 28 1019 61 16093 4.1 110 00:27 30.03.2020
231 Clouds 28 1019 61 16093 4.1 110 23:55 29.03.2020
232 Clouds 29 1019 58 16093 5.1 130 23:36 29.03.2020
233 Clouds 29 1019 58 16093 5.1 130 23:18 29.03.2020
234 Clouds 29 1020 62 16093 4.6 160 22:40 29.03.2020
235 Clouds 29 1020 62 16093 4.6 160 22:20 29.03.2020
236 Clouds 29 1020 62 16093 4.6 160 21:59 29.03.2020
237 Clouds 29 1021 58 16093 4.6 110 21:38 29.03.2020
238 Clouds 30 1021 58 16093 4.6 110 21:20 29.03.2020
239 Clouds 30 1021 58 16093 4.6 110 20:55 29.03.2020
240 Clouds 30 1021 58 16093 4.6 110 20:55 29.03.2020
241 Clouds 30 1021 62 16093 5.1 150 20:37 29.03.2020
242 Clouds 29 1021 62 16093 5.1 150 20:19 29.03.2020
243 Clouds 29 1021 62 16093 5.1 150 19:56 29.03.2020
244 Clouds 29 1022 62 16093 6.2 150 19:38 29.03.2020
245 Clouds 29 1022 62 16093 6.2 150 19:38 29.03.2020
246 Clouds 29 1022 62 16093 6.2 150 19:19 29.03.2020
247 Clouds 29 1022 62 16093 5.7 130 18:57 29.03.2020
248 Clouds 29 1022 62 16093 5.7 130 18:38 29.03.2020
249 Clouds 29 1022 62 16093 5.7 130 18:18 29.03.2020
250 Clouds 29 1022 65 16093 6.7 120 17:55 29.03.2020
251 Clouds 28 1022 65 16093 6.7 120 17:37 29.03.2020
252 Clouds 28 1022 65 16093 6.7 120 17:18 29.03.2020
253 Clouds 28 1022 65 16093 6.7 120 16:55 29.03.2020
254 Clouds 27 1022 74 16093 5.1 130 16:36 29.03.2020
255 Clouds 27 1022 74 16093 5.1 130 16:18 29.03.2020
256 Clouds 26 1021 74 16093 5.1 130 15:41 29.03.2020
257 Clouds 26 1021 74 16093 5.1 130 15:23 29.03.2020
258 Clouds 26 1021 74 16093 5.1 130 15:23 29.03.2020
259 Clouds 25 1021 74 16093 5.1 130 14:57 29.03.2020
260 Clouds 25 1020 78 16093 3.1 120 14:39 29.03.2020
261 Clouds 24 1020 78 16093 3.1 120 14:20 29.03.2020
262 Clouds 23 1020 78 16093 3.1 120 13:57 29.03.2020
263 Clouds 23 1020 78 16093 2.6 110 13:57 29.03.2020
264 Clouds 23 1020 78 16093 2.6 110 13:39 29.03.2020
265 Clouds 23 1020 78 16093 2.6 110 13:19 29.03.2020
266 Clouds 23 1019 83 16093 2.6 120 12:55 29.03.2020
267 Clouds 23 1019 83 16093 2.6 120 12:37 29.03.2020
268 Clouds 23 1019 83 16093 2.6 120 12:18 29.03.2020
269 Clouds 24 1018 78 16093 4.6 110 11:40 29.03.2020
270 Clouds 24 1018 78 16093 4.6 110 11:21 29.03.2020
271 Clouds 24 1018 78 16093 4.6 110 10:59 29.03.2020
272 Clouds 24 1018 83 16093 6.2 100 10:38 29.03.2020
273 Clouds 24 1018 83 16093 6.2 100 10:18 29.03.2020
274 Clouds 24 1018 83 16093 6.2 100 10:18 29.03.2020
275 Clouds 24 1018 78 16093 4.6 110 09:41 29.03.2020
276 Clouds 24 1018 78 16093 4.6 110 09:20 29.03.2020
277 Clouds 24 1018 78 16093 4.6 110 08:54 29.03.2020
278 Clouds 24 1018 74 16093 4.6 100 08:30 29.03.2020
279 Clouds 24 1018 74 16093 4.6 100 07:59 29.03.2020
280 Clouds 24 1019 78 16093 3.6 100 07:40 29.03.2020
281 Clouds 24 1019 83 16093 3.1 100 07:20 29.03.2020
282 Clouds 24 1019 78 16093 2.1 110 05:41 29.03.2020
283 Clouds 24 1019 78 16093 2.6 110 03:58 29.03.2020
284 Clouds 25 1019 69 16093 3.1 120 03:28 29.03.2020
285 Clouds 25 1018 69 16093 3.6 110 01:51 29.03.2020
286 Clouds 25 1018 69 16093 3.6 110 01:23 29.03.2020
287 Clouds 25 1018 69 16093 3.6 110 00:55 29.03.2020
288 Clouds 25 1018 65 16093 4.6 130 00:32 29.03.2020
289 Clouds 26 1018 61 16093 5.7 120 23:43 28.03.2020
290 Clouds 26 1018 61 16093 5.7 120 23:43 28.03.2020
291 Clouds 27 1018 61 16093 5.7 120 23:24 28.03.2020
292 Clouds 27 1018 61 16093 5.7 120 22:59 28.03.2020
293 Clouds 27 1018 57 16093 4.1 140 22:38 28.03.2020
294 -273 0 0 0 0 0 22:20 28.03.2020
295 Clouds 28 1018 57 16093 4.1 140 21:54 28.03.2020
296 Clouds 28 1018 57 16093 6.2 110 21:36 28.03.2020
297 Clouds 28 1018 57 16093 6.2 110 21:18 28.03.2020
298 Clouds 28 1018 58 16093 5.7 110 20:41 28.03.2020
299 Clouds 28 1018 58 16093 5.7 110 20:23 28.03.2020
300 Clouds 28 1018 58 16093 5.7 110 19:57 28.03.2020
301 Clouds 28 1019 54 16093 6.2 110 19:39 28.03.2020
302 Clouds 28 1019 54 16093 6.2 110 19:20 28.03.2020
303 Clouds 28 1019 54 16093 6.2 110 18:58 28.03.2020
304 Clouds 28 1020 54 16093 4.6 130 18:38 28.03.2020
305 Clouds 28 1020 54 16093 4.6 130 18:19 28.03.2020
306 Clouds 28 1020 54 16093 6.2 120 17:39 28.03.2020
307 Clouds 28 1020 54 16093 6.2 120 17:20 28.03.2020
308 Clouds 27 1020 57 16093 6.2 110 16:43 28.03.2020
309 Clouds 27 1020 57 16093 6.2 110 16:20 28.03.2020
310 Clouds 27 1020 57 16093 6.2 110 16:20 28.03.2020
311 Clouds 27 1020 57 16093 6.2 110 16:20 28.03.2020
312 Clouds 27 1020 57 16093 6.2 110 15:59 28.03.2020
313 Clouds 26 1019 61 16093 5.7 120 15:39 28.03.2020
314 Clouds 26 1019 61 16093 5.7 120 15:19 28.03.2020
315 Clouds 26 1019 61 16093 5.7 120 14:55 28.03.2020
316 Clouds 25 1019 69 16093 4.6 110 14:37 28.03.2020
317 Clouds 25 1019 69 16093 4.6 110 14:18 28.03.2020
318 Clouds 23 1018 78 16093 2.6 110 13:40 28.03.2020
319 Clouds 23 1018 78 16093 2.6 110 13:21 28.03.2020
320 Clouds 22 1017 78 16093 2.1 100 12:40 28.03.2020
321 Clouds 22 1017 78 16093 2.1 100 12:22 28.03.2020
322 Clear 22 1017 78 16093 2.6 100 11:43 28.03.2020
323 Clear 22 1017 78 16093 2.6 100 11:23 28.03.2020
324 Clear 22 1017 78 16093 2.6 100 10:58 28.03.2020
325 Clouds 22 1017 73 16093 2.6 100 10:38 28.03.2020
326 Clouds 22 1017 73 16093 2.6 100 10:18 28.03.2020
327 Clear 22 1017 73 16093 2.1 100 09:42 28.03.2020
328 Clear 22 1017 73 16093 2.1 100 09:23 28.03.2020
329 Clear 22 1017 73 16093 2.1 100 08:55 28.03.2020
330 Clear 22 1017 69 16093 2.6 100 08:37 28.03.2020
331 Clear 23 1017 69 16093 2.6 100 08:18 28.03.2020
332 Clear 22 1018 73 16093 4.6 100 07:41 28.03.2020
333 Clear 23 1018 73 16093 4.6 100 06:58 28.03.2020
334 Clouds 23 1018 69 16093 4.1 90 06:34 28.03.2020
335 Clouds 23 1019 73 16093 4.1 100 05:42 28.03.2020
336 Clouds 23 1019 73 16093 4.1 100 05:21 28.03.2020
337 Clouds 24 1019 69 16093 4.6 90 04:40 28.03.2020
338 Clouds 24 1018 69 16093 5.1 100 03:34 28.03.2020
339 Clouds 25 1018 65 16093 4.6 80 01:53 28.03.2020
340 Clouds 25 1017 65 16093 4.6 100 01:25 28.03.2020
341 Clouds 25 1017 65 16093 4.6 100 00:56 28.03.2020
342 Clouds 26 1017 61 16093 4.1 90 00:36 28.03.2020
343 Clouds 27 1017 54 16093 5.7 90 23:55 27.03.2020
344 Clouds 27 1017 54 16093 5.7 90 23:37 27.03.2020
345 Clouds 27 1017 54 16093 5.7 90 23:37 27.03.2020
346 Clouds 27 1017 54 16093 5.7 90 23:18 27.03.2020
347 Clouds 28 1016 58 16093 5.1 90 22:55 27.03.2020
348 Clouds 28 1016 58 16093 5.1 90 22:37 27.03.2020
349 Clouds 28 1016 58 16093 5.1 90 22:37 27.03.2020
350 Clouds 28 1016 58 16093 5.1 90 22:18 27.03.2020
351 Clouds 29 1016 58 16093 4.1 110 21:43 27.03.2020
352 Clouds 29 1016 58 16093 4.1 110 21:24 27.03.2020
353 Clouds 29 1016 58 16093 4.1 110 20:58 27.03.2020
354 Clouds 30 1017 55 16093 5.7 110 20:40 27.03.2020
355 Clouds 30 1017 55 16093 5.7 110 20:20 27.03.2020
356 Clouds 30 1017 55 16093 5.7 110 19:57 27.03.2020
357 Clouds 30 1017 55 16093 3.6 100 19:39 27.03.2020
358 Clouds 30 1017 55 16093 3.6 100 19:20 27.03.2020
359 Clouds 30 1017 51 16093 4.1 110 18:44 27.03.2020
360 Clouds 30 1017 51 16093 4.1 110 18:24 27.03.2020
361 Clouds 30 1017 51 16093 4.1 110 17:58 27.03.2020
362 Clouds 29 1018 54 16093 4.1 100 17:39 27.03.2020
363 Clouds 29 1018 54 16093 4.1 100 17:19 27.03.2020
364 Clouds 29 1018 58 16093 1.5 0 16:44 27.03.2020
365 Clouds 28 1018 58 16093 1.5 0 16:25 27.03.2020
366 Clouds 28 1018 58 16093 1.5 0 15:56 27.03.2020
367 Clouds 28 1017 61 16093 1.5 110 15:38 27.03.2020
368 Clouds 27 1017 61 16093 1.5 110 15:19 27.03.2020
369 Clouds 26 1017 74 16093 3.8 96 14:43 27.03.2020
370 Clouds 26 1017 74 16093 3.8 96 14:24 27.03.2020
371 Clouds 25 1017 74 16093 2.11 68 13:55 27.03.2020
372 Clouds 23 1016 83 16093 2.11 68 13:37 27.03.2020
373 Clouds 22 1016 83 16093 1.8 64 13:18 27.03.2020
374 Clouds 22 1016 83 16093 1.8 64 12:43 27.03.2020
375 Clouds 21 1016 83 16093 1.8 64 12:19 27.03.2020
376 Clouds 21 1016 83 16093 1.8 64 11:57 27.03.2020
377 Clouds 22 1015 83 16093 1.8 64 11:39 27.03.2020
378 Clouds 21 1015 83 16093 1.8 64 11:21 27.03.2020
379 Clear 21 1015 83 16093 0.35 350 10:42 27.03.2020
380 Clear 21 1015 83 16093 0.35 350 10:23 27.03.2020
381 Clear 21 1015 83 16093 0.35 350 09:59 27.03.2020
382 Clouds 21 1016 83 16093 0.35 350 09:41 27.03.2020
383 Clouds 21 1016 83 16093 0.35 350 09:23 27.03.2020
384 Clouds 22 1016 83 16093 0.35 350 08:59 27.03.2020
385 Clouds 22 1016 83 16093 0.35 350 08:40 27.03.2020
386 Clouds 22 1016 83 16093 0.17 321 08:22 27.03.2020
387 Clouds 22 1016 83 16093 1.22 212 07:59 27.03.2020
388 Clouds 22 1017 78 16093 1.22 212 07:41 27.03.2020
389 Clouds 23 1017 78 16093 1.22 212 07:21 27.03.2020
390 Clouds 23 1017 78 16093 1.22 212 06:40 27.03.2020
391 Clouds 23 1017 73 16093 1.5 120 05:51 27.03.2020
392 Clouds 24 1017 78 16093 1.5 0 03:34 27.03.2020
393 Clear 25 1016 78 16093 2.1 160 01:56 27.03.2020
394 Clouds 25 1016 74 16093 2.6 140 01:19 27.03.2020
395 Clouds 26 1015 61 16093 4.1 140 00:42 27.03.2020
396 Clouds 26 1015 61 16093 4.1 140 00:19 27.03.2020
397 Clouds 27 1015 62 16093 4.1 130 23:40 26.03.2020
398 Clouds 27 1015 62 16093 4.1 130 23:18 26.03.2020
399 Clouds 28 1015 54 16093 4.6 120 22:57 26.03.2020
400 Clouds 28 1015 54 16093 4.6 120 22:36 26.03.2020
401 Clouds 28 1015 54 16093 4.6 120 22:18 26.03.2020
402 Clouds 29 1015 54 16093 5.1 80 21:40 26.03.2020
403 Clouds 28 1015 54 16093 5.1 80 21:21 26.03.2020
404 Clouds 29 1015 54 16093 5.1 80 20:59 26.03.2020
405 Clouds 29 1016 58 16093 4.1 70 20:39 26.03.2020
406 Clouds 29 1016 58 16093 4.1 70 20:21 26.03.2020
407 Clouds 29 1016 58 16093 4.1 70 19:58 26.03.2020
408 Clouds 30 1016 38 16093 2.6 360 19:40 26.03.2020
409 Clouds 30 1016 38 16093 2.6 360 19:21 26.03.2020
410 Clouds 30 1016 38 16093 2.6 360 18:58 26.03.2020
411 Clouds 29 1017 45 16093 3.1 0 18:40 26.03.2020
412 Clouds 29 1017 45 16093 3.1 0 18:21 26.03.2020
413 Clouds 29 1017 51 16093 3.14 39 17:45 26.03.2020
414 Clouds 29 1017 51 16093 4.12 351 17:20 26.03.2020
415 Clouds 28 1017 61 16093 4.1 330 16:57 26.03.2020
416 Clouds 27 1017 61 16093 4.1 330 16:38 26.03.2020
417 Clouds 27 1017 61 16093 4.1 330 16:38 26.03.2020
418 Clouds 27 1017 61 16093 4.1 330 16:19 26.03.2020
419 Clouds 27 1017 61 16093 4.1 330 15:55 26.03.2020
420 Clouds 26 1017 78 16093 3.1 300 15:37 26.03.2020
421 Clouds 25 1017 78 16093 3.1 300 15:18 26.03.2020
422 Clouds 24 1017 88 16093 2.6 340 14:43 26.03.2020
423 Clouds 24 1017 88 16093 2.6 340 14:24 26.03.2020
424 Clouds 23 1017 88 16093 2.6 340 13:55 26.03.2020
425 Clouds 22 1016 88 16093 1.5 0 13:37 26.03.2020
426 Clouds 22 1016 88 16093 1.5 0 13:19 26.03.2020
427 Clouds 22 1015 94 16093 1.5 300 12:38 26.03.2020
428 Clouds 21 1015 94 16093 1.5 300 12:20 26.03.2020
429 Clouds 21 1015 94 16093 2.6 300 11:46 26.03.2020
430 Clouds 21 1015 94 16093 2.6 300 11:23 26.03.2020
431 Clouds 22 1015 94 16093 2.6 300 10:57 26.03.2020
432 Clear 22 1014 94 16093 1.5 290 10:39 26.03.2020
433 Clear 22 1014 94 16093 1.5 290 10:19 26.03.2020
434 Clear 22 1015 88 16093 2.1 300 09:44 26.03.2020
435 Clear 22 1015 88 16093 2.1 300 09:21 26.03.2020
436 Clear 22 1015 88 16093 2.1 300 08:57 26.03.2020
437 Clear 22 1015 88 16093 2.6 290 08:38 26.03.2020
438 Clear 22 1015 88 16093 2.6 290 08:19 26.03.2020
439 Clear 22 1015 88 16093 2.6 280 07:45 26.03.2020
440 Clear 22 1015 88 16093 2.6 280 07:23 26.03.2020
441 Clear 23 1015 88 16093 2.6 280 06:57 26.03.2020
442 Clear 23 1016 83 16093 2.6 280 06:32 26.03.2020
443 Clear 23 1016 73 16093 3.6 270 05:29 26.03.2020
444 Clear 25 1015 61 16093 2.6 260 03:45 26.03.2020
445 Clear 25 1015 61 16093 2.6 260 02:56 26.03.2020
446 Clouds 26 1015 61 16093 3.6 250 01:51 26.03.2020
447 Clouds 27 1014 51 16093 3.6 260 01:18 26.03.2020
448 Clouds 28 1014 45 16093 5.7 250 00:23 26.03.2020
449 Clouds 29 1014 40 16093 4.6 270 23:42 25.03.2020
450 Clouds 29 1014 40 16093 4.6 270 23:22 25.03.2020
451 Clouds 30 1014 38 16093 2.6 270 22:42 25.03.2020
452 Clouds 31 1014 38 16093 2.6 270 22:22 25.03.2020
453 Clouds 31 1014 38 16093 2.6 270 21:59 25.03.2020
454 Clouds 30 1014 54 16093 4.1 130 21:40 25.03.2020
455 Clouds 30 1014 54 16093 4.1 130 21:22 25.03.2020
456 Clouds 30 1014 54 16093 4.1 130 20:57 25.03.2020
457 Clouds 30 1015 43 16093 2.6 210 20:37 25.03.2020
458 Clouds 30 1015 43 16093 2.6 210 20:18 25.03.2020
459 Clouds 30 1016 43 16093 3.6 230 19:43 25.03.2020
460 Clouds 29 1016 43 16093 3.6 230 19:23 25.03.2020
461 Clouds 29 1016 43 16093 3.6 230 18:59 25.03.2020
462 Clouds 29 1017 45 16093 2.6 230 18:40 25.03.2020
463 Clouds 29 1017 45 16093 2.6 230 18:40 25.03.2020
464 Clouds 30 1017 45 16093 2.6 230 18:22 25.03.2020
465 Clouds 29 1017 45 16093 3.1 0 17:57 25.03.2020
466 Clouds 29 1017 45 16093 3.1 0 17:39 25.03.2020
467 Clouds 29 1017 45 16093 3.1 0 17:21 25.03.2020
468 Clouds 28 1018 61 16093 4.1 210 16:55 25.03.2020
469 Clouds 28 1018 61 16093 4.1 210 16:36 25.03.2020
470 Clouds 28 1018 61 16093 4.1 210 16:18 25.03.2020
471 Clouds 27 1018 69 16093 4.1 190 15:41 25.03.2020
472 Clouds 27 1018 69 16093 4.1 190 15:20 25.03.2020
473 Clouds 26 1018 69 16093 4.1 190 14:55 25.03.2020
474 Clouds 25 1017 78 16093 2.1 220 14:37 25.03.2020
475 Clouds 25 1017 78 16093 2.1 220 14:18 25.03.2020
476 Clouds 23 1017 83 16093 1.5 220 13:42 25.03.2020
477 Clouds 22 1017 83 16093 1.5 220 13:22 25.03.2020
478 Clouds 22 1016 83 16093 1.5 210 12:38 25.03.2020
479 Clouds 22 1016 83 16093 1.5 210 12:19 25.03.2020
480 Clouds 22 1016 83 16093 1.5 210 11:56 25.03.2020
481 Clouds 22 1016 88 16093 3.1 0 11:37 25.03.2020
482 Clouds 22 1016 88 16093 3.1 0 11:19 25.03.2020
483 Clouds 22 1016 88 16093 3.1 0 10:56 25.03.2020
484 Clouds 22 1016 88 16093 1.5 240 10:38 25.03.2020
485 Clouds 22 1016 88 16093 1.5 240 10:18 25.03.2020
486 Clouds 22 1016 83 16093 2.1 210 09:43 25.03.2020
487 Clouds 22 1016 83 16093 2.1 210 09:24 25.03.2020
488 Clouds 22 1016 83 16093 2.1 210 08:57 25.03.2020
489 Clouds 22 1017 83 16093 1.5 190 08:39 25.03.2020
490 Clouds 22 1017 83 16093 1.5 190 08:19 25.03.2020
491 Clouds 23 1018 78 16093 2.6 210 07:41 25.03.2020
492 Clouds 22 1018 78 16093 2.6 210 07:22 25.03.2020
493 Clear 23 1018 78 16093 3.02 179 06:50 25.03.2020
494 Clear 22 1018 78 16093 3.02 179 06:28 25.03.2020
495 Clear 22 1018 78 16093 3.02 179 06:28 25.03.2020
496 Clouds 22 1019 78 16093 3.02 179 05:56 25.03.2020
497 Clouds 23 1019 78 16093 3.02 179 05:30 25.03.2020
498 Clouds 24 1019 73 16093 1.5 150 04:39 25.03.2020
499 Clear 24 1019 73 16093 2.1 170 03:36 25.03.2020
500 Clear 25 1018 69 16093 3.6 160 02:40 25.03.2020
501 Clouds 25 1018 65 16093 4.6 140 01:23 25.03.2020
502 Clouds 25 1018 61 16093 4.6 150 00:49 25.03.2020
503 Clouds 26 1018 61 16093 4.6 150 00:24 25.03.2020
504 Clouds 27 1018 58 16093 4.6 140 23:45 24.03.2020
505 Clouds 27 1018 58 16093 4.6 140 23:26 24.03.2020
506 Clouds 28 1018 58 16093 4.6 140 22:57 24.03.2020
507 Clouds 28 1018 48 16093 6.7 120 22:38 24.03.2020
508 Clouds 28 1018 48 16093 6.7 120 22:19 24.03.2020
509 Clouds 28 1018 48 16093 6.7 120 21:56 24.03.2020
510 Clouds 28 1018 51 16093 4.6 160 21:37 24.03.2020
511 Clouds 28 1018 51 16093 4.6 160 21:18 24.03.2020
512 Clouds 28 1018 51 16093 4.6 160 20:56 24.03.2020
513 Clouds 29 1019 51 16093 6.2 110 20:38 24.03.2020
514 Clouds 29 1019 51 16093 6.2 110 20:19 24.03.2020
515 Clouds 29 1020 51 16093 5.7 140 19:41 24.03.2020
516 Clouds 29 1020 51 16093 5.7 140 19:19 24.03.2020
517 Clouds 28 1020 51 16093 5.7 140 18:56 24.03.2020
518 Clouds 28 1021 57 16093 5.1 150 18:37 24.03.2020
519 Clouds 28 1021 57 16093 5.1 150 18:18 24.03.2020
520 Clouds 28 1021 57 16093 5.1 150 18:18 24.03.2020
521 Clouds 27 1022 69 16093 3.1 160 17:42 24.03.2020
522 Clouds 27 1022 69 16093 3.1 160 17:23 24.03.2020
523 Clouds 27 1021 54 16093 6.2 190 16:58 24.03.2020
524 Clouds 28 1021 61 16093 6.2 180 16:40 24.03.2020
525 Clouds 28 1021 61 16093 6.2 180 16:22 24.03.2020
526 Clouds 27 1021 61 16093 6.2 180 15:59 24.03.2020
527 Clouds 27 1021 65 16093 4.1 160 15:39 24.03.2020
528 Clouds 27 1021 65 16093 4.1 160 15:20 24.03.2020
529 -273 0 0 0 0 0 15:20 24.03.2020
530 Clouds 25 1021 73 16093 2.6 130 14:43 24.03.2020
531 Clouds 25 1021 73 16093 2.6 130 14:21 24.03.2020
532 Clouds 25 1021 73 16093 2.6 130 13:55 24.03.2020
533 Clouds 24 1021 78 16093 1.5 150 13:36 24.03.2020
534 Clouds 24 1021 78 16093 1.5 150 13:18 24.03.2020
535 Clouds 23 1020 78 16093 2.1 140 12:41 24.03.2020
536 Clouds 23 1020 78 16093 2.1 140 12:22 24.03.2020
537 Clouds 24 1020 73 16093 1.5 130 11:41 24.03.2020
538 Clouds 23 1020 73 16093 1.5 130 11:20 24.03.2020
539 Clouds 23 1020 78 16093 1.5 140 10:55 24.03.2020
540 Clouds 23 1020 78 16093 1.5 140 10:36 24.03.2020
541 Clouds 22 1020 78 16093 1.5 140 10:18 24.03.2020
542 Clouds 23 1020 73 16093 1.5 140 09:43 24.03.2020
543 Clouds 22 1020 73 16093 1.5 140 09:24 24.03.2020
544 Clouds 23 1021 73 16093 5.22 146 08:40 24.03.2020
545 Clouds 23 1021 73 16093 5 144 08:21 24.03.2020
546 Clouds 23 1021 73 16093 5 135 07:52 24.03.2020
547 Clouds 23 1022 73 16093 5 135 07:25 24.03.2020
548 Clouds 23 1022 73 16093 5 135 06:59 24.03.2020
549 Clouds 23 1022 69 16093 1.5 120 06:34 24.03.2020
550 Clouds 23 1022 73 16093 1.5 120 05:30 24.03.2020
551 Clouds 24 1022 73 16093 3.6 110 04:50 24.03.2020
552 Clouds 24 1022 73 16093 3.1 110 03:19 24.03.2020
553 Clouds 24 1022 69 16093 3.6 120 02:25 24.03.2020
554 Clouds 25 1022 69 16093 4.6 120 00:53 24.03.2020
555 Clouds 26 1022 61 16093 4.6 110 00:26 24.03.2020
556 Clear 26 1022 65 16093 4.1 140 23:55 23.03.2020
557 Clouds 27 1021 57 16093 4.6 120 23:36 23.03.2020
558 Clouds 27 1021 57 16093 4.6 120 23:18 23.03.2020
559 Clouds 28 1021 54 16093 4.6 150 22:42 23.03.2020
560 Clouds 28 1021 54 16093 4.6 150 22:22 23.03.2020
561 Clouds 28 1021 54 16093 4.6 150 21:54 23.03.2020
562 Clear 28 1022 54 16093 6.2 130 21:36 23.03.2020
563 Clear 28 1022 54 16093 6.2 130 21:18 23.03.2020
564 Clouds 28 1022 54 16093 5.7 120 20:41 23.03.2020
565 Clouds 28 1022 54 16093 5.7 120 20:23 23.03.2020
566 Clouds 28 1022 54 16093 5.7 120 19:55 23.03.2020
567 Clouds 28 1022 54 16093 5.7 120 19:55 23.03.2020
568 Clouds 28 1022 54 16093 5.7 120 19:55 23.03.2020
569 Clouds 28 1023 58 16093 5.1 140 19:37 23.03.2020
570 Clouds 28 1023 58 16093 5.1 140 19:18 23.03.2020
571 Clouds 28 1024 51 16093 4.1 150 18:43 23.03.2020
572 Clouds 28 1024 51 16093 4.1 150 18:24 23.03.2020
573 Clouds 27 1024 51 16093 4.6 120 17:58 23.03.2020
574 Rain 27 1024 61 16093 3.1 150 17:39 23.03.2020
575 Rain 27 1024 61 16093 3.1 150 17:19 23.03.2020
576 Clouds 26 1024 69 16093 3.1 110 16:43 23.03.2020
577 Rain 26 1024 69 16093 8.2 110 16:25 23.03.2020
578 Rain 26 1024 69 9656 2.6 0 15:44 23.03.2020
579 Clouds 26 1024 65 16093 2.1 140 15:21 23.03.2020
580 Clouds 26 1024 65 16093 2.1 140 14:57 23.03.2020
581 Clouds 25 1023 65 16093 3.1 110 14:37 23.03.2020
582 Clouds 25 1023 65 16093 3.1 110 14:18 23.03.2020
583 Clouds 24 1023 65 16093 3.1 110 13:54 23.03.2020
584 Clouds 24 1023 65 16093 3.1 110 13:54 23.03.2020
585 Clouds 23 1023 78 16093 2.1 110 13:36 23.03.2020
586 Clouds 23 1023 78 16093 2.1 110 13:36 23.03.2020
587 Clouds 22 1023 78 16093 2.1 110 13:18 23.03.2020
588 Clouds 23 1022 73 16093 4.79 129 12:41 23.03.2020
589 Clouds 23 1022 73 16093 4.79 129 12:22 23.03.2020
590 Clouds 23 1023 73 16093 2.1 120 11:55 23.03.2020
591 Clouds 23 1022 73 16093 2.1 120 11:37 23.03.2020
592 Clouds 23 1022 73 16093 2.1 120 11:18 23.03.2020
593 Clouds 23 1022 73 16093 2.1 120 10:41 23.03.2020
594 Clouds 23 1022 73 16093 2.1 120 10:23 23.03.2020
595 Clouds 23 1022 73 16093 2.1 120 09:59 23.03.2020
596 Clouds 23 1022 73 16093 3.6 110 09:40 23.03.2020
597 Clouds 23 1022 73 16093 3.6 110 09:19 23.03.2020
598 Clouds 23 1023 69 16093 3.6 110 08:38 23.03.2020
599 Clouds 23 1023 69 16093 3.6 110 08:19 23.03.2020
600 Clear 23 1023 69 16093 3.6 100 07:51 23.03.2020
601 Clear 23 1023 69 16093 3.6 100 07:33 23.03.2020
602 Clear 23 1023 69 16093 3.6 100 06:55 23.03.2020
603 Clouds 24 1023 69 16093 5.1 100 06:33 23.03.2020
604 Clouds 24 1023 69 16093 4.6 100 05:44 23.03.2020
605 Clouds 24 1023 65 16093 5.1 90 03:54 23.03.2020
606 Clouds 24 1023 69 16093 4.6 90 02:44 23.03.2020
607 Clouds 25 1023 61 16093 4.6 90 01:42 23.03.2020
608 Clouds 25 1022 61 16093 4.6 110 00:46 23.03.2020
609 Clouds 25 1022 61 16093 4.6 110 00:26 23.03.2020
610 Clouds 26 1022 61 16093 5.1 120 23:42 22.03.2020
611 Clouds 26 1022 61 16093 5.1 120 23:24 22.03.2020
612 Clouds 27 1021 65 16093 6.2 130 22:41 22.03.2020
613 Clouds 27 1021 65 16093 6.2 130 22:20 22.03.2020
614 Clouds 28 1021 61 16093 5.1 100 21:41 22.03.2020
615 Clouds 28 1021 61 16093 5.1 100 21:23 22.03.2020
616 Clouds 28 1022 54 16093 5.7 140 20:59 22.03.2020
617 Clouds 28 1022 54 16093 6.2 110 20:40 22.03.2020
618 Clouds 29 1022 54 16093 6.2 110 20:22 22.03.2020
619 Clouds 28 1022 54 16093 6.2 110 19:56 22.03.2020
620 Clouds 28 1023 58 16093 6.2 110 19:38 22.03.2020
621 Clouds 28 1023 58 16093 6.2 110 19:19 22.03.2020
622 Clouds 28 1023 58 16093 6.2 110 18:57 22.03.2020
623 Clouds 28 1024 54 16093 4.6 110 18:39 22.03.2020
624 Clouds 28 1024 54 16093 4.6 110 18:20 22.03.2020
625 Clouds 28 1024 54 16093 4.6 110 17:57 22.03.2020
626 Clouds 28 1024 51 16093 5.1 120 17:38 22.03.2020
627 Clouds 28 1024 51 16093 5.1 120 17:20 22.03.2020
628 Clouds 27 1024 51 16093 5.1 120 16:57 22.03.2020
629 Clouds 27 1024 51 16093 5.1 120 16:57 22.03.2020
630 Clouds 27 1024 54 16093 5.1 110 16:39 22.03.2020
631 Clouds 27 1024 54 16093 5.1 110 16:20 22.03.2020
632 Clouds 27 1023 61 16093 3.1 50 15:40 22.03.2020
633 Clouds 26 1023 61 16093 3.1 50 15:19 22.03.2020
634 Clouds 25 1023 61 16093 4.6 110 14:46 22.03.2020
635 Clouds 25 1023 61 16093 4.6 110 14:18 22.03.2020
636 Clouds 23 1022 69 16093 3.6 100 13:43 22.03.2020
637 Clouds 23 1022 69 16093 3.6 100 13:20 22.03.2020
638 Clouds 22 1022 69 16093 3.6 100 12:57 22.03.2020
639 Clouds 22 1022 78 16093 5.55 96 12:38 22.03.2020
640 Clouds 22 1022 78 16093 5.55 96 12:18 22.03.2020
641 Clouds 22 1021 73 16093 5.55 96 11:43 22.03.2020
642 Clouds 22 1021 73 16093 5.55 96 11:25 22.03.2020
643 Clouds 22 1021 73 16093 5.48 108 10:58 22.03.2020
644 Clouds 22 1021 73 16093 5.48 108 10:39 22.03.2020
645 Clouds 22 1021 73 16093 5.48 108 10:21 22.03.2020
646 Clouds 22 1022 78 16093 2.6 110 09:43 22.03.2020
647 Clouds 22 1022 78 16093 2.6 110 09:43 22.03.2020
648 Clouds 22 1022 78 16093 2.6 110 09:24 22.03.2020
649 Clouds 23 1022 73 16093 2.6 90 08:48 22.03.2020
650 Clouds 23 1022 73 16093 2.6 90 08:48 22.03.2020
651 Clouds 23 1022 73 16093 2.6 90 08:29 22.03.2020
652 Clouds 23 1022 73 16093 2.6 90 07:54 22.03.2020
653 Clouds 23 1023 73 16093 3.1 110 07:36 22.03.2020
654 Clouds 23 1023 78 16093 3.6 90 06:41 22.03.2020
655 Clear 23 1023 73 16093 4.1 90 05:41 22.03.2020
656 Clear 23 1024 69 16093 4.1 90 04:34 22.03.2020
657 Clouds 24 1023 65 16093 4.6 80 01:36 22.03.2020
658 Clouds 25 1022 61 16093 4.6 90 00:49 22.03.2020
659 Clouds 25 1022 61 16093 4.6 90 00:30 22.03.2020
660 Clear 26 1022 54 16093 5.1 90 23:45 21.03.2020
661 Clear 27 1022 54 16093 5.1 90 23:21 21.03.2020
662 Clear 27 1022 54 16093 5.1 90 22:58 21.03.2020
663 Clouds 27 1022 54 16093 6.2 90 22:37 21.03.2020
664 Clouds 27 1022 54 16093 6.2 90 22:19 21.03.2020
665 Clouds 28 1022 54 16093 6.2 90 21:57 21.03.2020
666 Clouds 28 1023 51 16093 5.7 80 21:38 21.03.2020
667 Clouds 28 1023 51 16093 5.7 80 21:19 21.03.2020
668 Clouds 28 1023 51 16093 5.7 80 20:42 21.03.2020
669 Clouds 28 1023 51 16093 5.7 80 20:22 21.03.2020
670 Clouds 28 1023 51 16093 5.7 80 19:55 21.03.2020
671 Clouds 28 1024 54 16093 5.7 80 19:36 21.03.2020
672 Clouds 28 1024 54 16093 5.7 80 19:18 21.03.2020
673 Clouds 28 1024 54 16093 5.7 80 19:18 21.03.2020
674 Clouds 28 1025 57 16093 4.1 110 18:41 21.03.2020
675 Clouds 28 1025 57 16093 4.1 110 18:20 21.03.2020
676 Clouds 28 1025 57 16093 4.1 110 17:58 21.03.2020
677 Clouds 28 1025 61 16093 5.7 80 17:40 21.03.2020
678 Clouds 28 1025 61 16093 5.7 80 17:22 21.03.2020
679 Clouds 27 1025 54 16093 5.7 110 16:42 21.03.2020
680 Clouds 27 1025 54 16093 5.7 110 16:23 21.03.2020
681 Clouds 27 1025 54 16093 5.7 110 15:58 21.03.2020
682 Clouds 27 1025 61 16093 5.7 120 15:40 21.03.2020
683 Clouds 26 1025 61 16093 5.7 120 15:21 21.03.2020
684 Clouds 26 1025 65 16093 5.1 120 14:56 21.03.2020
685 Clouds 25 1024 65 16093 6.2 110 14:37 21.03.2020
686 Clouds 25 1024 65 16093 6.2 110 14:19 21.03.2020
687 Clear 24 1024 78 16093 3.6 110 13:57 21.03.2020
688 Clouds 24 1023 73 16093 4.1 110 13:38 21.03.2020
689 Clouds 24 1023 73 16093 4.1 110 13:20 21.03.2020
690 Clouds 23 1024 73 16093 4.1 140 12:54 21.03.2020
691 Clouds 23 1023 83 16093 2.6 100 12:36 21.03.2020
692 Clouds 23 1023 83 16093 2.6 100 12:18 21.03.2020
693 Clouds 23 1024 78 16093 2.1 120 11:54 21.03.2020
694 Clouds 23 1023 73 16093 4.6 110 11:36 21.03.2020
695 Clouds 23 1023 73 16093 4.6 110 11:18 21.03.2020
696 Clouds 23 1022 78 16093 3.6 90 10:55 21.03.2020
697 Clouds 23 1022 78 16093 3.6 90 10:55 21.03.2020
698 Rain 23 1022 78 16093 5.1 120 10:37 21.03.2020
699 Rain 24 1022 78 16093 5.1 120 10:18 21.03.2020
700 Clouds 24 1022 78 16093 4.1 90 09:40 21.03.2020
701 Clouds 24 1023 78 16093 4.6 100 09:21 21.03.2020
702 Clouds 24 1023 78 16093 4.6 100 08:56 21.03.2020
703 Clouds 24 1023 83 16093 3.6 110 08:38 21.03.2020
704 Clouds 24 1023 83 16093 3.6 110 08:20 21.03.2020
705 Clouds 24 1024 78 16093 3.6 120 07:39 21.03.2020
706 Clouds 24 1024 78 16093 3.6 120 07:20 21.03.2020
707 Clouds 24 1024 78 16093 3.6 120 07:20 21.03.2020
708 Clouds 24 1023 83 16093 5.1 90 06:45 21.03.2020
709 Clouds 24 1024 73 16093 6.2 100 06:25 21.03.2020
710 Clouds 24 1025 73 16093 5.1 100 05:41 21.03.2020
711 Clouds 24 1025 73 16093 6.2 80 04:34 21.03.2020
712 Clouds 24 1024 69 16093 4.6 70 02:38 21.03.2020
713 Clouds 24 1024 69 16093 4.6 70 01:54 21.03.2020
714 Clouds 25 1024 69 16093 4.6 100 01:28 21.03.2020
715 Clouds 25 1024 61 16093 4.1 100 00:43 21.03.2020
716 Clouds 25 1024 61 16093 4.1 100 00:43 21.03.2020
717 Clouds 25 1024 61 16093 4.1 100 00:24 21.03.2020
718 Clouds 26 1024 57 16093 4.6 80 23:45 20.03.2020
719 Clouds 27 1024 57 16093 4.6 80 23:22 20.03.2020
720 Clouds 27 1024 57 16093 5.1 110 22:44 20.03.2020
721 Clouds 27 1024 57 16093 5.1 110 22:25 20.03.2020
722 Clouds 28 1024 57 16093 5.1 110 21:59 20.03.2020
723 Clouds 28 1024 54 16093 4.6 130 21:41 20.03.2020
724 Clouds 28 1024 54 16093 4.6 130 21:20 20.03.2020
725 Clouds 28 1024 54 16093 4.6 130 20:59 20.03.2020
726 Clouds 28 1025 51 16093 5.1 120 20:41 20.03.2020
727 Clouds 28 1025 51 16093 5.1 120 20:21 20.03.2020
728 Clouds 28 1025 51 16093 5.1 120 19:58 20.03.2020
729 Clouds 28 1024 58 16093 4.1 120 19:39 20.03.2020
730 Clouds 28 1025 54 16093 8.2 110 19:18 20.03.2020
731 Clouds 28 1025 61 16093 6.7 80 18:39 20.03.2020
732 Clouds 28 1025 61 16093 6.7 80 18:39 20.03.2020
733 Clouds 28 1025 61 16093 6.7 80 18:20 20.03.2020
734 Clouds 28 1026 54 16093 7.7 100 17:56 20.03.2020
735 Clouds 28 1026 54 16093 7.2 100 17:38 20.03.2020
736 Clouds 27 1026 54 16093 7.2 100 17:19 20.03.2020
737 Clouds 27 1026 54 16093 7.2 100 17:19 20.03.2020
738 Clouds 27 1026 54 16093 7.7 110 16:43 20.03.2020
739 Clouds 27 1026 54 16093 7.7 110 16:21 20.03.2020
740 Clouds 27 1026 54 16093 7.7 110 15:58 20.03.2020
741 Clouds 27 1026 57 16093 6.2 120 15:39 20.03.2020
742 Clouds 26 1026 65 16093 7.2 100 15:20 20.03.2020
743 Clouds 26 1026 65 16093 5.7 100 14:42 20.03.2020
744 Clouds 25 1026 65 16093 5.7 100 14:21 20.03.2020
745 Clear 25 1025 69 16093 4.6 110 13:51 20.03.2020
746 Clouds 24 1025 69 16093 6.7 100 13:26 20.03.2020
747 Clouds 24 1025 69 16093 6.7 100 12:59 20.03.2020
748 Clouds 24 1025 73 16093 5.7 100 12:38 20.03.2020
749 Clouds 24 1025 73 16093 5.7 100 12:20 20.03.2020
750 Clouds 24 1024 73 16093 6.2 100 11:41 20.03.2020
751 Clouds 24 1024 73 16093 6.2 100 11:21 20.03.2020
752 Clouds 24 1024 73 16093 6.2 100 10:59 20.03.2020
753 Clouds 24 1024 73 16093 5.1 120 10:41 20.03.2020
754 Clouds 24 1024 73 16093 5.7 100 10:20 20.03.2020
755 Clouds 24 1023 73 16093 5.7 90 09:47 20.03.2020
756 Clouds 24 1024 73 16093 6.2 100 09:21 20.03.2020
757 Clouds 24 1024 73 16093 6.2 100 08:59 20.03.2020
758 Clouds 24 1024 78 16093 4.6 80 08:40 20.03.2020
759 Rain 24 1025 83 16093 4.1 120 08:19 20.03.2020
760 Clouds 24 1025 69 16093 5.1 110 07:45 20.03.2020
761 Clouds 24 1025 78 16093 6.2 110 07:26 20.03.2020
762 Clouds 24 1025 83 16093 5.7 100 06:47 20.03.2020
763 Clouds 24 1025 83 16093 6.7 100 06:29 20.03.2020
764 Clouds 24 1025 78 16093 4.1 70 04:49 20.03.2020
765 Clouds 24 1025 69 16093 6.7 90 03:19 20.03.2020
766 Clouds 24 1024 78 16093 3.6 60 01:51 20.03.2020
767 Clouds 25 1024 61 16093 5.7 100 00:46 20.03.2020
768 Clouds 25 1024 61 16093 5.7 100 00:25 20.03.2020
769 Clouds 26 1023 69 16093 4.1 70 23:44 19.03.2020
770 Clouds 26 1024 57 16093 6.2 90 23:25 19.03.2020
771 Clouds 26 1024 54 16093 6.2 90 22:56 19.03.2020
772 Clouds 27 1024 51 16093 7.2 110 22:37 19.03.2020
773 Clouds 27 1024 51 16093 7.2 110 22:18 19.03.2020
774 Clouds 27 1024 51 16093 8.2 100 21:41 19.03.2020
775 Clouds 28 1024 51 16093 8.2 100 21:20 19.03.2020
776 Clouds 28 1024 51 16093 8.2 100 20:56 19.03.2020
777 Clouds 27 1024 57 16093 7.7 110 20:38 19.03.2020
778 Clouds 28 1024 57 16093 7.7 110 20:19 19.03.2020
779 Clouds 28 1024 57 16093 7.7 110 19:55 19.03.2020
780 Clouds 28 1025 58 16093 8.2 130 19:36 19.03.2020
781 Clouds 28 1025 58 16093 8.2 130 19:18 19.03.2020
782 Clouds 28 1026 58 16093 6.7 90 18:42 19.03.2020
783 Clouds 28 1026 58 16093 6.7 90 18:22 19.03.2020
784 Clouds 28 1025 65 16093 6.2 80 17:56 19.03.2020
785 Clouds 28 1026 57 16093 8.7 100 17:38 19.03.2020
786 Clouds 27 1026 57 16093 8.7 100 17:18 19.03.2020
787 Clouds 28 1026 54 16093 6.7 100 16:43 19.03.2020
788 Clouds 27 1026 58 16093 7.7 110 16:22 19.03.2020
789 Clouds 27 1026 61 16093 7.2 100 15:44 19.03.2020
790 Clouds 27 1026 61 16093 7.7 100 15:25 19.03.2020
791 Clouds 26 1025 61 16093 8.2 110 14:55 19.03.2020
792 Clouds 26 1025 69 16093 6.7 110 14:37 19.03.2020
793 Clouds 25 1025 69 16093 6.7 110 14:18 19.03.2020
794 Clouds 24 1024 73 16093 5.7 110 13:39 19.03.2020
795 Clouds 24 1024 73 16093 5.7 110 13:18 19.03.2020
796 Clouds 24 1024 73 16093 6.2 110 12:42 19.03.2020
797 Clouds 24 1024 73 16093 5.1 100 12:24 19.03.2020
798 Clouds 24 1024 78 16093 3.6 100 11:59 19.03.2020
799 Clouds 24 1023 73 16093 5.1 100 11:41 19.03.2020
800 Clouds 24 1023 73 16093 5.1 100 11:22 19.03.2020
801 Clouds 23 1023 73 16093 5.1 110 10:44 19.03.2020
802 Clouds 23 1023 73 16093 5.1 110 10:22 19.03.2020
803 Clouds 24 1023 73 16093 5.1 110 09:58 19.03.2020
804 Clouds 23 1023 73 16093 7.2 100 09:40 19.03.2020
805 Clouds 24 1023 73 16093 7.2 100 09:20 19.03.2020
806 Clouds 23 1024 73 16093 4.6 100 08:46 19.03.2020
807 Clouds 24 1024 73 16093 4.6 100 08:22 19.03.2020
808 Clouds 24 1023 78 16093 5.1 80 07:48 19.03.2020
809 Clouds 24 1023 73 16093 4.6 80 07:30 19.03.2020
810 Clouds 24 1024 78 16093 5.1 80 06:51 19.03.2020
811 Clouds 24 1024 78 16093 4.6 60 05:53 19.03.2020
812 Clouds 24 1025 73 16093 4.6 80 05:22 19.03.2020
813 Clouds 23 1025 73 16093 4.1 80 04:41 19.03.2020
814 Clouds 23 1024 83 16093 2.6 70 03:36 19.03.2020
815 Clouds 24 1024 73 16093 2.6 70 01:45 19.03.2020
816 Clouds 24 1023 54 16093 4.6 90 00:38 19.03.2020
817 Clouds 25 1023 54 16093 4.1 90 23:58 18.03.2020
818 Clouds 25 1023 54 16093 4.1 90 23:39 18.03.2020
819 Clouds 26 1023 54 16093 4.1 90 23:18 18.03.2020
820 Clouds 27 1023 54 16093 5.7 80 22:42 18.03.2020
821 Clouds 27 1023 54 16093 5.7 80 22:22 18.03.2020
822 Clouds 27 1023 54 16093 5.7 80 21:54 18.03.2020
823 Clouds 27 1023 51 16093 6.7 90 21:36 18.03.2020
824 Clouds 27 1023 51 16093 6.7 90 21:18 18.03.2020
825 Clouds 28 1023 51 16093 6.7 90 20:54 18.03.2020
826 Clouds 28 1024 51 16093 6.2 100 20:36 18.03.2020
827 Clouds 28 1024 51 16093 6.2 100 20:18 18.03.2020
828 Clouds 28 1024 48 16093 5.7 80 19:40 18.03.2020
829 Clouds 28 1024 48 16093 5.7 80 19:21 18.03.2020
830 Clouds 27 1025 51 16093 5.7 100 18:56 18.03.2020
831 Clouds 28 1025 51 16093 5.7 100 18:38 18.03.2020
832 Clouds 27 1025 51 16093 5.7 100 18:19 18.03.2020
833 Clouds 27 1025 48 16093 5.7 90 17:54 18.03.2020
834 Clouds 27 1025 48 16093 5.7 90 17:36 18.03.2020
835 Clouds 27 1025 48 16093 5.7 90 17:18 18.03.2020
836 Clouds 26 1025 54 16093 7.2 110 16:42 18.03.2020
837 Clouds 26 1025 54 16093 7.2 110 16:20 18.03.2020
838 Clouds 26 1025 54 16093 7.2 110 15:56 18.03.2020
839 Clouds 26 1024 57 16093 5.1 90 15:37 18.03.2020
840 Clouds 26 1024 57 16093 5.1 90 15:19 18.03.2020
841 Clouds 25 1024 61 16093 4.6 100 14:42 18.03.2020
842 Clouds 25 1024 61 16093 4.6 100 14:21 18.03.2020
843 Clouds 25 1024 61 16093 4.6 100 14:21 18.03.2020
844 Clouds 23 1023 73 16093 4.1 80 13:41 18.03.2020
845 Clouds 23 1023 73 16093 2.1 90 13:19 18.03.2020
846 Clouds 23 1023 73 16093 4.1 120 12:54 18.03.2020
847 Clouds 22 1023 69 16093 2.6 100 12:36 18.03.2020
848 Clouds 22 1023 69 16093 2.6 100 12:18 18.03.2020
849 Clouds 22 1023 69 16093 2.6 100 12:18 18.03.2020
850 Clouds 22 1022 69 16093 2.6 90 11:38 18.03.2020
851 Clouds 22 1022 69 16093 2.6 90 11:19 18.03.2020
852 Clouds 22 1021 78 16093 3.1 70 10:56 18.03.2020
853 Clouds 23 1022 64 16093 4.6 90 10:37 18.03.2020
854 Clouds 23 1022 64 16093 4.6 90 10:18 18.03.2020
855 Clouds 23 1022 64 16093 4.6 90 10:18 18.03.2020
856 Clouds 23 1022 64 16093 4.6 90 10:18 18.03.2020
857 Clouds 23 1022 69 16093 4.1 80 09:42 18.03.2020
858 Clouds 23 1022 69 16093 4.1 80 09:23 18.03.2020
859 Clouds 23 1022 69 16093 4.1 80 08:55 18.03.2020
860 Clouds 23 1022 69 16093 4.1 80 08:55 18.03.2020
861 Clouds 23 1022 78 16093 3.1 90 08:36 18.03.2020
862 Clouds 23 1022 73 16093 5.1 90 08:18 18.03.2020
863 Clouds 23 1023 73 16093 4.1 90 07:40 18.03.2020
864 Clouds 23 1023 73 16093 4.1 90 07:22 18.03.2020
865 Clouds 23 1023 78 16093 5.1 90 06:42 18.03.2020
866 Clouds 23 1023 69 16093 4.6 90 05:47 18.03.2020
867 Clouds 23 1023 69 16093 4.6 90 05:19 18.03.2020
868 Clouds 24 1023 73 16093 5.1 90 03:53 18.03.2020
869 Clouds 24 1022 69 16093 5.1 70 02:37 18.03.2020
870 Clouds 24 1022 69 16093 5.1 70 02:37 18.03.2020
871 Clouds 24 1022 69 16093 4.6 80 01:46 18.03.2020
872 Clouds 24 1022 69 16093 4.6 80 01:20 18.03.2020
873 Clouds 25 1022 61 16093 5.1 120 00:23 18.03.2020
874 Clouds 26 1022 57 16093 4.1 110 23:43 17.03.2020
875 Clouds 26 1022 57 16093 4.1 110 23:23 17.03.2020
876 Clear 27 1022 61 16093 4.6 100 22:47 17.03.2020
877 Clouds 27 1022 57 16093 4.6 140 22:28 17.03.2020
878 Clouds 27 1022 57 16093 4.6 140 21:57 17.03.2020
879 Clouds 28 1022 54 16093 6.2 110 21:37 17.03.2020
880 Clouds 28 1022 54 16093 6.2 110 21:19 17.03.2020
881 Clouds 28 1022 57 16093 4.1 120 20:38 17.03.2020
882 Clouds 28 1022 54 16093 4.6 120 20:20 17.03.2020
883 Clouds 28 1022 54 16093 4.6 120 19:54 17.03.2020
884 Clouds 28 1023 58 16093 5.7 100 19:36 17.03.2020
885 Clouds 28 1023 58 16093 5.7 100 19:18 17.03.2020
886 Clouds 28 1024 57 16093 5.1 120 18:54 17.03.2020
887 Clouds 28 1024 57 16093 5.1 120 18:36 17.03.2020
888 Clouds 28 1024 57 16093 5.1 120 18:36 17.03.2020
889 Clouds 28 1024 57 16093 5.1 120 18:18 17.03.2020
890 Clouds 28 1024 58 16093 6.2 90 17:39 17.03.2020
891 Clouds 27 1024 61 16093 6.7 110 17:20 17.03.2020
892 Clouds 26 1024 57 16093 6.2 110 16:44 17.03.2020
893 Clouds 26 1024 57 16093 6.2 110 16:20 17.03.2020
894 Clouds 26 1024 57 16093 6.2 110 15:56 17.03.2020
895 Clouds 26 1023 69 16093 7.7 100 15:38 17.03.2020
896 Clouds 26 1023 57 16093 6.2 120 15:18 17.03.2020
897 Rain 25 1023 69 16093 6.2 120 14:41 17.03.2020
898 Rain 25 1023 69 16093 6.2 90 14:18 17.03.2020
899 Rain 24 1023 78 16093 4.6 100 13:43 17.03.2020
900 Clouds 24 1022 73 16093 6.7 80 13:24 17.03.2020
901 Clouds 23 1022 83 16093 7.54 80 12:48 17.03.2020
902 Clouds 23 1021 88 16093 7.54 80 12:26 17.03.2020
903 Clouds 23 1021 69 16093 4.1 90 11:59 17.03.2020
904 Clouds 23 1021 94 16093 2.6 80 11:40 17.03.2020
905 Rain 23 1021 73 16093 3.6 80 11:22 17.03.2020
906 Clear 23 1021 88 16093 1.5 60 10:55 17.03.2020
907 Clouds 23 1021 73 16093 2.6 90 10:36 17.03.2020
908 Clouds 23 1021 73 16093 2.6 90 10:18 17.03.2020
909 Clouds 23 1021 73 16093 4.1 70 09:45 17.03.2020
910 Clouds 23 1021 69 16093 2.6 90 09:20 17.03.2020
911 Clouds 23 1021 69 16093 2.6 90 08:58 17.03.2020
912 Clouds 23 1022 69 16093 2.6 90 08:40 17.03.2020
913 Clouds 23 1022 69 16093 2.6 90 08:18 17.03.2020
914 Clouds 23 1022 69 16093 5.1 70 07:49 17.03.2020
915 Clouds 23 1022 73 16093 3.1 90 07:21 17.03.2020
916 Clouds 23 1022 69 16093 4.6 80 06:49 17.03.2020
917 Clouds 23 1022 69 16093 4.6 100 06:25 17.03.2020
918 Clouds 23 1023 69 16093 4.1 70 05:26 17.03.2020
919 Clouds 24 1022 73 16093 3.1 70 03:34 17.03.2020
920 Clouds 24 1022 65 16093 4.6 60 02:31 17.03.2020
921 Clouds 24 1022 73 16093 4.1 100 01:38 17.03.2020
922 Clouds 24 1022 61 16093 5.7 70 00:53 17.03.2020
923 Clouds 25 1021 57 16093 4.6 80 00:19 17.03.2020
924 Clouds 26 1021 54 16093 6.2 60 23:38 16.03.2020
925 Clouds 26 1021 54 16093 6.2 60 23:19 16.03.2020
926 Clouds 27 1021 48 16093 6.2 80 22:38 16.03.2020
927 Clouds 27 1021 48 16093 6.2 80 22:20 16.03.2020
928 Clouds 27 1022 51 16093 6.7 90 21:45 16.03.2020
929 Clouds 27 1022 51 16093 6.7 90 21:27 16.03.2020
930 Clouds 28 1022 51 16093 6.7 90 20:59 16.03.2020
931 Clouds 28 1022 48 16093 8.2 90 20:39 16.03.2020
932 Clouds 28 1022 48 16093 8.2 90 20:20 16.03.2020
933 Clouds 28 1023 51 16093 4.6 80 19:46 16.03.2020
934 Clouds 28 1023 51 16093 4.6 80 19:25 16.03.2020
935 Clouds 28 1023 51 16093 4.6 80 18:59 16.03.2020
936 Clouds 28 1023 48 16093 6.2 60 18:39 16.03.2020
937 Clouds 28 1023 48 16093 6.2 60 18:20 16.03.2020
938 Clouds 28 1023 51 16093 4.6 80 17:46 16.03.2020
939 Clouds 28 1023 51 16093 4.6 80 17:25 16.03.2020
940 Clouds 27 1023 51 16093 4.6 80 16:57 16.03.2020
941 Clouds 27 1023 51 16093 5.1 90 16:39 16.03.2020
942 Clouds 27 1023 51 16093 5.1 90 16:39 16.03.2020
943 Clouds 27 1023 51 16093 5.1 90 16:20 16.03.2020
944 Clouds 26 1023 54 16093 5.7 90 15:43 16.03.2020
945 Clouds 26 1023 54 16093 5.7 90 15:23 16.03.2020
946 Clouds 25 1022 69 16093 3.6 70 14:47 16.03.2020
947 Clouds 24 1022 69 16093 3.6 70 14:23 16.03.2020
948 Clouds 23 1023 65 16093 2.1 90 13:48 16.03.2020
949 Clouds 22 1022 73 16093 5.7 87 13:28 16.03.2020
950 Clouds 22 1022 73 16093 5.81 83 12:58 16.03.2020
951 Clouds 21 1021 77 16093 5.81 83 12:39 16.03.2020
952 Clouds 21 1021 77 16093 5.81 83 12:20 16.03.2020
953 Clouds 21 1021 78 16093 5.81 83 11:43 16.03.2020
954 Clouds 21 1021 78 16093 5.81 83 11:25 16.03.2020
955 Clouds 22 1021 77 16093 5.87 86 10:45 16.03.2020
956 Clouds 21 1021 77 16093 5.87 86 10:24 16.03.2020
957 Clouds 21 1021 77 16093 5.87 86 09:59 16.03.2020
958 Clouds 22 1021 73 16093 5.87 86 09:38 16.03.2020
959 Clouds 22 1021 73 16093 5.87 86 09:19 16.03.2020
960 Clouds 22 1021 93 16093 5.87 86 08:43 16.03.2020
961 Clouds 22 1022 78 16093 5.71 83 08:23 16.03.2020
962 Clouds 23 1021 78 16093 5.57 90 07:43 16.03.2020
963 Clouds 22 1022 64 16093 5.57 90 07:21 16.03.2020
964 Clouds 23 1022 78 16093 2.1 70 06:41 16.03.2020
965 Clear 23 1023 64 16093 2.1 60 06:22 16.03.2020
966 Clear 23 1023 64 16093 4.1 90 04:26 16.03.2020
967 Clear 24 1023 73 16093 3.6 90 01:47 16.03.2020
968 Clouds 25 1022 61 16093 4.6 90 00:45 16.03.2020
969 Clouds 25 1022 61 16093 4.6 90 00:27 16.03.2020
970 Clouds 26 1022 54 16093 3.6 80 23:40 15.03.2020
971 Clouds 27 1022 54 16093 3.6 80 23:19 15.03.2020
972 Clouds 27 1021 54 16093 4.6 120 22:42 15.03.2020
973 Clouds 28 1021 54 16093 4.6 120 22:21 15.03.2020
974 Clouds 28 1022 54 16093 5.1 140 21:39 15.03.2020
975 Clouds 28 1022 54 16093 5.1 140 21:21 15.03.2020
976 Clouds 28 1022 54 16093 5.1 140 20:58 15.03.2020
977 Clouds 28 1022 51 16093 5.1 100 20:40 15.03.2020
978 Clouds 28 1022 51 16093 5.1 100 20:19 15.03.2020
979 Clouds 28 1022 51 16093 5.1 100 19:55 15.03.2020
980 Clouds 28 1023 54 16093 4.6 130 19:37 15.03.2020
981 Clouds 28 1023 54 16093 4.6 130 19:18 15.03.2020
982 Clouds 28 1024 54 16093 6.7 100 18:42 15.03.2020
983 Clouds 28 1024 54 16093 6.7 100 18:24 15.03.2020
984 Clouds 28 1024 54 16093 6.7 100 17:59 15.03.2020
985 Clouds 28 1024 54 16093 4.1 70 17:39 15.03.2020
986 Clouds 27 1024 54 16093 4.1 70 17:20 15.03.2020
987 Clouds 27 1024 54 16093 4.6 100 16:55 15.03.2020
988 Clouds 27 1024 54 16093 4.6 100 16:37 15.03.2020
989 Clouds 27 1024 54 16093 4.6 100 16:18 15.03.2020
990 Clouds 26 1024 61 16093 4.1 110 15:42 15.03.2020
991 Clouds 26 1024 61 16093 4.1 110 15:22 15.03.2020
992 Clouds 25 1024 69 16093 4.1 120 14:47 15.03.2020
993 Clouds 25 1023 65 16093 3.1 110 14:28 15.03.2020
994 Clouds 24 1023 65 16093 3.1 110 13:59 15.03.2020
995 Clouds 23 1023 69 16093 3.1 100 13:39 15.03.2020
996 Clouds 23 1023 69 16093 3.1 100 13:21 15.03.2020
997 Clouds 22 1023 69 16093 3.1 100 12:57 15.03.2020
998 Clouds 22 1022 73 16093 3.1 100 12:38 15.03.2020
999 Clouds 22 1022 73 16093 3.1 100 12:20 15.03.2020
1000 Clouds 23 1022 88 16093 2.6 110 11:40 15.03.2020
1001 Clouds 23 1022 73 16093 2.6 100 11:22 15.03.2020
1002 Clouds 23 1022 73 16093 3.1 90 10:56 15.03.2020
1003 Clouds 23 1022 73 16093 3.1 90 10:38 15.03.2020
1004 Clouds 23 1022 73 16093 3.1 90 10:20 15.03.2020
1005 Clouds 23 1022 78 16093 3.6 90 09:41 15.03.2020
1006 Clouds 23 1022 78 16093 3.6 90 09:22 15.03.2020
1007 Clouds 23 1022 78 16093 3.6 90 08:54 15.03.2020
1008 Clouds 23 1023 73 16093 3.6 90 08:36 15.03.2020
1009 Clouds 23 1023 73 16093 3.6 90 08:18 15.03.2020
1010 Clouds 23 1023 73 16093 4.1 90 07:44 15.03.2020
1011 Clouds 23 1023 73 16093 4.1 90 06:54 15.03.2020
1012 Clouds 23 1024 83 16093 2.1 90 06:24 15.03.2020
1013 Clouds 24 1024 73 16093 3.6 80 05:21 15.03.2020
1014 Clouds 24 1024 73 16093 4.6 80 04:43 15.03.2020
1015 Clouds 24 1024 73 16093 4.6 80 04:25 15.03.2020
1016 Clouds 24 1024 73 16093 4.6 80 03:54 15.03.2020
1017 Clouds 24 1023 83 16093 2.1 60 02:44 15.03.2020
1018 Clouds 24 1023 69 16093 4.1 90 01:35 15.03.2020
1019 Clouds 25 1022 65 16093 5.1 100 00:46 15.03.2020
1020 Clouds 25 1022 65 16093 5.1 100 00:27 15.03.2020
1021 Clouds 26 1023 69 14484 5.1 100 23:55 14.03.2020
1022 Clouds 26 1022 61 16093 4.6 70 23:37 14.03.2020
1023 Clouds 26 1022 61 16093 4.6 70 23:37 14.03.2020
1024 Clouds 27 1022 61 16093 4.6 70 23:18 14.03.2020
1025 Clouds 27 1022 57 16093 5.7 100 22:44 14.03.2020
1026 Clouds 27 1022 57 16093 5.7 100 22:26 14.03.2020
1027 Clouds 27 1022 57 16093 5.7 100 21:57 14.03.2020
1028 Clouds 28 1022 57 16093 6.2 130 21:36 14.03.2020
1029 Clouds 28 1022 57 16093 6.2 130 21:18 14.03.2020
1030 Clouds 28 1022 57 16093 6.2 130 20:59 14.03.2020
1031 Clouds 28 1023 54 16093 6.2 120 20:40 14.03.2020
1032 Clouds 28 1023 54 16093 6.2 120 20:19 14.03.2020
1033 Clouds 28 1023 54 16093 6.7 110 19:44 14.03.2020
1034 Clouds 28 1023 54 16093 6.2 110 19:25 14.03.2020
1035 Clouds 28 1023 69 16093 4.6 80 18:56 14.03.2020
1036 Clouds 28 1024 58 16093 6.2 110 18:37 14.03.2020
1037 Clouds 28 1024 58 16093 6.2 110 18:19 14.03.2020
1038 Clouds 27 1024 58 16093 6.7 100 17:39 14.03.2020
1039 Clouds 27 1024 58 16093 6.7 100 17:20 14.03.2020
1040 Clouds 27 1024 69 16093 5.1 100 16:41 14.03.2020
1041 Clouds 27 1024 57 16093 6.7 110 16:23 14.03.2020
1042 Clouds 27 1024 57 16093 6.7 110 16:23 14.03.2020
1043 Clouds 26 1024 57 16093 6.7 110 15:59 14.03.2020
1044 Clouds 26 1024 65 16093 7.2 110 15:27 14.03.2020
1045 Clouds 26 1024 65 16093 7.2 110 14:59 14.03.2020
1046 Clouds 25 1023 65 16093 5.7 90 14:37 14.03.2020
1047 Clouds 25 1023 65 16093 5.7 90 14:19 14.03.2020
1048 Clouds 24 1023 65 16093 5.7 90 13:54 14.03.2020
1049 Clear 23 1023 78 16093 2.6 90 13:36 14.03.2020
1050 Clear 23 1023 78 16093 2.6 90 13:18 14.03.2020
1051 Clouds 23 1022 73 16093 3.1 80 12:42 14.03.2020
1052 Clouds 23 1022 73 16093 3.1 80 12:23 14.03.2020
1053 Clouds 23 1022 69 16093 4.6 90 11:43 14.03.2020
1054 Clouds 23 1022 69 16093 4.6 90 11:24 14.03.2020
1055 Clouds 23 1022 88 16093 3.6 110 10:47 14.03.2020
1056 Clouds 23 1021 73 16093 4.1 110 10:28 14.03.2020
1057 Clouds 23 1021 73 16093 4.1 110 09:59 14.03.2020
1058 Clouds 23 1021 83 16093 3.1 100 09:40 14.03.2020
1059 Clouds 23 1021 73 16093 4.1 100 09:21 14.03.2020
1060 Clouds 23 1022 88 16093 2.1 100 08:46 14.03.2020
1061 Clouds 23 1022 88 16093 2.1 100 08:26 14.03.2020
1062 Rain 23 1022 73 16093 1.5 40 07:40 14.03.2020
1063 Rain 23 1022 73 16093 1.5 40 07:21 14.03.2020
1064 Clouds 23 1022 73 16093 1.5 40 06:55 14.03.2020
1065 Clouds 23 1023 73 16093 4.1 80 06:34 14.03.2020
1066 Clouds 24 1023 69 16093 4.6 80 04:55 14.03.2020
1067 Clouds 24 1023 78 16093 4.6 60 03:37 14.03.2020
1068 Clouds 24 1022 65 16093 4.1 40 02:53 14.03.2020
1069 Clear 24 1021 69 16093 4.6 70 01:46 14.03.2020
1070 Clear 25 1020 69 16093 4.6 60 00:34 14.03.2020
1071 Clouds 26 1020 51 16093 5.1 60 23:42 13.03.2020
1072 Clouds 26 1020 51 16093 5.1 60 23:23 13.03.2020
1073 Smoke 27 1020 51 16093 4.1 100 22:45 13.03.2020
1074 Smoke 27 1020 51 16093 4.1 100 22:22 13.03.2020
1075 Clouds 27 1020 48 16093 4.6 90 21:41 13.03.2020
1076 Clouds 28 1020 48 16093 4.6 90 21:19 13.03.2020
1077 Clouds 28 1020 54 16093 4.1 60 20:43 13.03.2020
1078 Clouds 27 1020 54 16093 4.1 60 20:23 13.03.2020
1079 Clouds 27 1020 54 16093 4.1 60 19:59 13.03.2020
1080 Clouds 28 1020 45 16093 4.6 80 19:40 13.03.2020
1081 Clouds 27 1020 45 16093 4.6 80 19:22 13.03.2020
1082 Clouds 27 1021 48 16093 6.2 80 18:44 13.03.2020
1083 Clouds 27 1021 48 16093 6.2 80 18:23 13.03.2020
1084 Clouds 27 1021 51 16093 6.2 80 17:43 13.03.2020
1085 Clouds 27 1021 51 16093 6.2 80 17:21 13.03.2020
1086 Clouds 27 1022 58 14484 4.6 90 16:59 13.03.2020
1087 Clouds 27 1021 54 16093 4.6 80 16:39 13.03.2020
1088 Clouds 26 1021 54 16093 4.6 80 16:20 13.03.2020
1089 Clouds 26 1021 61 16093 4.1 70 15:46 13.03.2020
1090 Clouds 26 1021 57 16093 3.1 60 15:23 13.03.2020
1091 Clouds 25 1021 57 16093 3.1 60 14:59 13.03.2020
1092 Clouds 24 1021 64 16093 2.1 80 14:40 13.03.2020
1093 Clouds 24 1021 64 16093 2.1 80 14:21 13.03.2020
1094 Clouds 22 1021 64 16093 2.1 80 13:55 13.03.2020
1095 Clouds 21 1020 73 16093 4.17 93 13:36 13.03.2020
1096 Clouds 20 1020 73 16093 4.64 92 13:18 13.03.2020
1097 Clouds 20 1019 82 16093 4.64 92 12:39 13.03.2020
1098 Clouds 20 1019 82 16093 4.64 92 12:39 13.03.2020
1099 Clouds 20 1019 82 16093 4.64 92 12:20 13.03.2020
1100 Clouds 20 1019 82 16093 4.64 92 11:57 13.03.2020
1101 Clouds 20 1019 77 16093 4.64 92 11:37 13.03.2020
1102 Clouds 20 1019 77 16093 3.54 96 11:19 13.03.2020
1103 Clouds 20 1018 73 16093 3.54 96 10:47 13.03.2020
1104 Clouds 20 1018 73 16093 3.54 96 10:26 13.03.2020
1105 Clouds 21 1018 73 16093 3.54 96 09:56 13.03.2020
1106 Clouds 21 1019 68 16093 3.54 96 09:38 13.03.2020
1107 Clouds 21 1019 68 16093 3.54 96 09:19 13.03.2020
1108 Clouds 21 1019 68 16093 3.54 96 09:19 13.03.2020
1109 Clouds 22 1018 68 16093 2.1 100 08:41 13.03.2020
1110 Clouds 22 1018 68 16093 2.1 100 08:22 13.03.2020
1111 Clouds 22 1019 68 16093 3.1 100 07:45 13.03.2020
1112 Clouds 22 1019 68 16093 3.1 100 07:27 13.03.2020
1113 Clouds 22 1018 68 16093 3.1 110 06:46 13.03.2020
1114 Clouds 22 1018 68 16093 3.1 110 06:23 13.03.2020
1115 Clouds 22 1019 64 16093 4.6 90 05:46 13.03.2020
1116 Clouds 22 1019 64 16093 4.6 90 05:19 13.03.2020
1117 Clouds 23 1019 64 16093 4.6 90 04:35 13.03.2020
1118 Clouds 23 1018 60 16093 4.1 80 02:58 13.03.2020
1119 Clouds 23 1017 60 16093 5.1 60 01:41 13.03.2020
1120 Clouds 23 1017 60 16093 5.1 60 01:18 13.03.2020
1121 Clouds 24 1017 57 16093 7.7 90 00:43 13.03.2020
1122 Clouds 24 1017 57 16093 7.7 90 00:20 13.03.2020
1123 Clouds 25 1017 47 16093 4.1 70 23:45 12.03.2020
1124 Clouds 26 1017 47 16093 4.1 70 23:26 12.03.2020
1125 Clouds 26 1017 42 16093 4.6 50 22:55 12.03.2020
1126 Clouds 26 1017 42 16093 4.6 50 22:37 12.03.2020
1127 Clouds 26 1017 42 16093 4.6 50 22:37 12.03.2020
1128 Clouds 26 1017 42 16093 4.6 50 22:18 12.03.2020
1129 Clouds 27 1017 39 16093 5.1 80 21:42 12.03.2020
1130 Clouds 27 1017 39 16093 5.1 80 21:23 12.03.2020
1131 Clouds 27 1017 39 16093 5.1 80 20:55 12.03.2020
1132 Clear 27 1017 45 16093 6.2 90 20:36 12.03.2020
1133 Clear 27 1017 45 16093 6.2 90 20:18 12.03.2020
1134 Clouds 27 1018 45 16093 4.6 80 19:39 12.03.2020
1135 Clouds 27 1018 45 16093 4.6 80 19:19 12.03.2020
1136 Clouds 27 1018 51 16093 3.6 110 18:42 12.03.2020
1137 Clouds 27 1018 51 16093 3.6 110 18:23 12.03.2020
1138 Clouds 27 1018 57 16093 4.1 120 17:56 12.03.2020
1139 Clouds 26 1019 54 16093 3.1 40 17:37 12.03.2020
1140 Clouds 26 1019 54 16093 3.1 40 17:18 12.03.2020
1141 Rain 25 1019 47 16093 2.6 110 16:43 12.03.2020
1142 Rain 25 1019 47 16093 2.6 110 16:23 12.03.2020
1143 Rain 24 1019 47 16093 2.6 110 15:59 12.03.2020
1144 Rain 23 1019 60 16093 1.5 300 15:39 12.03.2020
1145 Rain 22 1019 60 16093 1.5 300 15:21 12.03.2020
1146 Rain 21 1019 73 16093 5.1 30 14:38 12.03.2020
1147 Rain 21 1019 73 16093 5.1 30 14:19 12.03.2020
1148 Rain 20 1018 73 16093 1.5 350 13:40 12.03.2020
1149 Rain 20 1018 83 16093 2.6 10 13:22 12.03.2020
1150 Rain 19 1018 93 11265 3.02 77 12:55 12.03.2020
1151 Rain 20 1017 77 16093 1.5 340 12:37 12.03.2020
1152 Rain 20 1017 77 16093 1.5 340 12:18 12.03.2020
1153 Rain 20 1016 82 16093 3.02 77 11:56 12.03.2020
1154 Rain 19 1017 77 16093 3.02 77 11:37 12.03.2020
1155 Rain 19 1017 77 16093 3.43 110 11:19 12.03.2020
1156 Rain 20 1017 83 16093 2.6 360 10:55 12.03.2020
1157 Rain 20 1017 83 16093 2.6 360 10:55 12.03.2020
1158 Rain 20 1017 83 16093 2.6 360 10:37 12.03.2020
1159 Clouds 20 1017 77 16093 1.5 330 10:18 12.03.2020
1160 Clouds 20 1017 77 16093 2.1 280 09:42 12.03.2020
1161 Clouds 20 1017 77 16093 3.43 110 09:23 12.03.2020
1162 Clouds 21 1017 88 16093 3.43 110 08:40 12.03.2020
1163 Clouds 21 1018 64 16093 2.6 100 08:19 12.03.2020
1164 Clouds 22 1018 64 16093 2.6 100 07:52 12.03.2020
1165 Clouds 22 1017 83 16093 2.1 50 07:23 12.03.2020
1166 Clouds 22 1019 73 16093 3.6 100 06:38 12.03.2020
1167 Clouds 22 1019 64 16093 2.1 110 05:40 12.03.2020
1168 Clouds 23 1019 69 16093 4.1 110 03:54 12.03.2020
1169 Clouds 23 1019 64 16093 4.6 90 02:34 12.03.2020
1170 Clouds 23 1018 64 16093 5.1 100 01:30 12.03.2020
1171 Clouds 24 1019 60 16093 5.7 90 00:42 12.03.2020
1172 Clouds 24 1019 60 16093 5.7 90 23:59 11.03.2020
1173 Clouds 24 1019 57 16093 6.2 90 23:40 11.03.2020
1174 Clouds 25 1019 57 16093 6.2 90 23:22 11.03.2020
1175 Clouds 25 1019 61 16093 8.2 90 22:45 11.03.2020
1176 Clouds 25 1019 61 16093 8.2 90 22:25 11.03.2020
1177 Clouds 25 1019 44 16093 6.7 90 21:58 11.03.2020
1178 Clouds 25 1019 54 16093 7.2 120 21:40 11.03.2020
1179 Clouds 25 1019 54 16093 7.2 120 21:22 11.03.2020
1180 Clouds 26 1019 54 16093 7.2 120 20:57 11.03.2020
1181 Clouds 26 1020 50 16093 4.6 100 20:38 11.03.2020
1182 Clouds 25 1020 50 16093 4.6 100 20:19 11.03.2020
1183 Clouds 26 1021 51 16093 4.6 120 19:43 11.03.2020
1184 Clouds 26 1021 51 16093 4.6 120 19:25 11.03.2020
1185 Clouds 26 1021 51 16093 4.6 120 18:57 11.03.2020
1186 Clouds 26 1022 57 16093 5.7 80 18:38 11.03.2020
1187 Clouds 26 1022 57 16093 5.7 80 18:20 11.03.2020
1188 Clouds 25 1022 57 16093 5.7 80 17:56 11.03.2020
1189 Clouds 25 1022 65 16093 2.1 330 17:37 11.03.2020
1190 Clouds 26 1022 65 16093 2.1 330 17:19 11.03.2020
1191 Rain 25 1023 73 16093 3.1 60 16:45 11.03.2020
1192 Rain 25 1023 73 16093 3.1 60 16:21 11.03.2020
1193 Rain 24 1022 83 16093 3.1 20 15:44 11.03.2020
1194 Rain 23 1023 83 9656 1.5 0 15:24 11.03.2020
1195 Rain 22 1022 69 16093 3.6 20 14:57 11.03.2020
1196 Rain 22 1022 73 16093 8.07 84 14:39 11.03.2020
1197 Rain 22 1022 73 16093 8.07 84 14:21 11.03.2020
1198 Clouds 21 1021 73 16093 2.6 0 13:44 11.03.2020
1199 Clouds 21 1021 73 16093 2.6 0 13:26 11.03.2020
1200 Clouds 21 1021 73 16093 2.6 0 12:58 11.03.2020
1201 Clouds 21 1021 73 16093 2.6 130 12:39 11.03.2020
1202 Clouds 21 1021 77 16093 6.99 91 12:19 11.03.2020
1203 Rain 21 1021 73 16093 2.6 360 11:41 11.03.2020
1204 Rain 21 1021 73 16093 2.6 360 11:23 11.03.2020
1205 Rain 21 1021 73 16093 2.6 360 10:56 11.03.2020
1206 Rain 21 1021 83 16093 2.1 80 10:37 11.03.2020
1207 Rain 21 1021 83 16093 6.91 101 10:18 11.03.2020
1208 Clouds 21 1022 73 16093 1.5 30 09:41 11.03.2020
1209 Clouds 21 1022 73 16093 1.5 30 09:23 11.03.2020
1210 Clouds 21 1022 68 16093 3.1 90 08:44 11.03.2020
1211 Clouds 21 1022 68 16093 3.1 90 08:44 11.03.2020
1212 Clouds 21 1022 68 16093 3.1 90 08:26 11.03.2020
1213 Clear 22 1023 64 16093 3.6 90 07:48 11.03.2020
1214 Clear 21 1023 64 16093 3.6 90 07:22 11.03.2020
1215 Rain 22 1024 64 16093 2.1 90 06:53 11.03.2020
1216 Rain 22 1024 64 16093 2.1 90 06:35 11.03.2020
1217 Rain 22 1024 64 16093 4.1 90 05:33 11.03.2020
1218 Clouds 23 1024 64 16093 5.7 70 03:34 11.03.2020
1219 Clouds 23 1024 60 16093 6.2 90 01:56 11.03.2020
1220 Clouds 23 1024 53 16093 6.7 80 01:25 11.03.2020
1221 Clouds 23 1024 53 16093 6.7 100 00:45 11.03.2020
1222 Clouds 24 1024 60 16093 8.2 80 23:50 10.03.2020
1223 Clouds 24 1024 60 16093 8.2 80 23:29 10.03.2020
1224 Rain 25 1024 60 16093 8.2 80 22:59 10.03.2020
1225 Rain 24 1024 47 16093 6.7 90 22:38 10.03.2020
1226 Rain 25 1024 47 16093 6.7 90 22:19 10.03.2020
1227 Rain 25 1024 47 16093 6.7 90 21:56 10.03.2020
1228 Rain 25 1024 47 16093 6.7 90 21:38 10.03.2020
1229 Rain 25 1024 47 16093 6.7 90 21:19 10.03.2020
1230 Clouds 25 1024 47 16093 6.7 90 20:56 10.03.2020
1231 Clouds 26 1025 44 16093 9.8 100 20:38 10.03.2020
1232 Clouds 26 1025 44 16093 9.8 100 20:18 10.03.2020
1233 Clouds 26 1025 44 16093 9.8 100 19:55 10.03.2020
1234 Clouds 26 1026 50 16093 8.7 110 19:36 10.03.2020
1235 Clouds 26 1026 50 16093 8.7 110 19:18 10.03.2020
1236 Clouds 26 1026 47 16093 8.7 110 18:42 10.03.2020
1237 Clouds 26 1026 47 16093 8.7 110 18:23 10.03.2020
1238 Clouds 26 1027 47 16093 9.3 110 17:56 10.03.2020
1239 Clouds 26 1027 47 16093 9.3 110 17:38 10.03.2020
1240 Clouds 25 1027 47 16093 9.3 110 17:20 10.03.2020
1241 Clouds 25 1027 50 16093 8.7 90 16:38 10.03.2020
1242 Clouds 25 1027 50 16093 8.7 90 16:38 10.03.2020
1243 Clouds 25 1027 50 16093 8.7 90 16:18 10.03.2020
1244 Rain 25 1027 50 16093 8.7 90 15:55 10.03.2020
1245 Rain 24 1027 53 16093 7.7 100 15:36 10.03.2020
1246 Rain 24 1027 53 16093 7.7 100 15:18 10.03.2020
1247 Clouds 23 1026 69 16093 5.7 80 14:40 10.03.2020
1248 Clouds 23 1027 57 16093 6.2 100 14:19 10.03.2020
1249 Rain 22 1027 57 16093 6.2 100 13:54 10.03.2020
1250 Rain 22 1026 68 16093 2.6 90 13:36 10.03.2020
1251 Rain 22 1026 68 16093 2.6 90 13:18 10.03.2020
1252 Rain 21 1027 77 12874 3.1 120 12:39 10.03.2020
1253 Rain 21 1027 64 16093 3.6 90 12:19 10.03.2020
1254 Rain 21 1026 82 16093 9.21 100 11:43 10.03.2020
1255 Rain 21 1025 72 16093 5.1 60 11:25 10.03.2020
1256 Rain 21 1026 60 16093 3.6 90 10:59 10.03.2020
1257 Rain 21 1026 60 16093 4.6 100 10:41 10.03.2020
1258 Rain 21 1026 60 16093 4.6 100 10:22 10.03.2020
1259 Clouds 21 1026 60 16093 4.6 100 09:56 10.03.2020
1260 Clouds 21 1026 60 16093 5.1 110 09:37 10.03.2020
1261 Clouds 21 1026 60 16093 5.1 110 09:18 10.03.2020
1262 Rain 21 1027 60 16093 5.1 90 08:45 10.03.2020
1263 Rain 21 1027 60 16093 5.1 90 08:26 10.03.2020
1264 Clouds 22 1027 60 16093 7.2 100 07:46 10.03.2020
1265 Clouds 22 1027 60 16093 7.2 100 07:28 10.03.2020
1266 Rain 22 1028 56 16093 7.7 100 06:42 10.03.2020
1267 Rain 22 1028 56 16093 7.7 100 06:23 10.03.2020
1268 Clouds 22 1028 60 16093 6.2 100 05:38 10.03.2020
1269 Rain 22 1028 56 16093 7.7 100 04:35 10.03.2020
1270 Rain 22 1027 56 16093 8.2 90 03:34 10.03.2020
1271 Clouds 22 1027 53 16093 8.2 90 02:18 10.03.2020
1272 Clouds 22 1027 53 16093 6.2 100 00:54 10.03.2020
1273 Clouds 23 1027 49 16093 7.7 100 00:30 10.03.2020
1274 Clouds 23 1027 64 16093 8.2 100 23:57 09.03.2020
1275 Clouds 23 1027 60 16093 8.2 100 23:38 09.03.2020
1276 Clouds 23 1027 60 16093 8.2 100 23:20 09.03.2020
1277 Clouds 24 1027 50 16093 10.3 100 22:40 09.03.2020
1278 Clouds 24 1027 50 16093 10.3 100 22:22 09.03.2020
1279 Rain 24 1027 50 16093 10.3 100 21:57 09.03.2020
1280 Rain 24 1028 56 16093 10.3 110 21:38 09.03.2020
1281 Rain 24 1028 56 16093 10.3 110 21:20 09.03.2020
1282 Rain 24 1028 56 16093 10.3 110 20:55 09.03.2020
1283 Clouds 24 1028 53 16093 9.8 80 20:36 09.03.2020
1284 Clouds 24 1028 53 16093 9.8 80 20:18 09.03.2020
1285 Clouds 24 1029 53 16093 10.3 100 19:42 09.03.2020
1286 Clouds 24 1029 53 16093 10.3 100 19:20 09.03.2020
1287 Clouds 24 1029 44 16093 12.9 90 18:57 09.03.2020
1288 Clouds 24 1030 53 16093 12.9 80 18:38 09.03.2020
1289 Clouds 24 1030 53 16093 12.9 80 18:19 09.03.2020
1290 Rain 24 1030 53 16093 12.9 80 17:57 09.03.2020
1291 Rain 24 1030 53 16093 11.3 90 17:37 09.03.2020
1292 Rain 23 1030 53 16093 11.3 90 17:19 09.03.2020
1293 Rain 23 1030 53 16093 8.7 100 16:57 09.03.2020
1294 Rain 23 1030 53 16093 8.7 100 16:39 09.03.2020
1295 Rain 23 1031 60 16093 8.2 80 16:20 09.03.2020
1296 Rain 22 1030 49 16093 9.8 80 15:57 09.03.2020
1297 Rain 22 1030 49 16093 9.8 80 15:38 09.03.2020
1298 Rain 22 1030 49 16093 9.8 80 15:19 09.03.2020
1299 Rain 22 1031 56 12874 9.3 90 14:41 09.03.2020
1300 Rain 22 1031 56 12874 9.3 90 14:41 09.03.2020
1301 Rain 21 1030 49 16093 8.7 80 14:23 09.03.2020
1302 Drizzle 21 1028 64 16093 10.8 80 13:59 09.03.2020
1303 Drizzle 21 1028 64 16093 10.8 80 13:40 09.03.2020
1304 Clouds 21 1029 49 16093 6.2 80 13:22 09.03.2020
1305 Clouds 21 1028 64 16093 4.6 60 12:59 09.03.2020
1306 Clouds 21 1028 64 16093 4.6 60 12:40 09.03.2020
1307 Clouds 21 1028 46 16093 6.2 70 12:20 09.03.2020
1308 Rain 21 1028 46 16093 5.7 70 11:41 09.03.2020
1309 Rain 21 1028 46 16093 5.7 70 11:21 09.03.2020
1310 Clouds 21 1027 49 16093 6.2 80 10:58 09.03.2020
1311 Clouds 21 1027 49 16093 6.2 80 10:40 09.03.2020
1312 Clouds 21 1027 49 16093 6.2 80 10:20 09.03.2020
1313 Clouds 21 1026 64 16093 7.7 70 09:44 09.03.2020
1314 Rain 21 1026 64 16093 6.2 60 09:24 09.03.2020
1315 Clouds 21 1028 56 16093 5.7 80 08:59 09.03.2020
1316 Clouds 21 1028 56 16093 5.7 80 08:39 09.03.2020
1317 Clouds 20 1028 40 16093 6.7 80 08:21 09.03.2020
1318 Clouds 21 1028 43 16093 9.3 70 07:39 09.03.2020
1319 Clouds 21 1029 46 16093 7.2 100 07:21 09.03.2020
1320 Clouds 21 1029 52 16093 9.8 90 06:43 09.03.2020
1321 Clouds 21 1029 46 16093 7.2 80 06:23 09.03.2020
1322 Clouds 21 1029 43 16093 7.7 80 05:46 09.03.2020
1323 Clouds 21 1029 40 16093 8.7 80 05:00 09.03.2020
1324 Clouds 21 1029 40 16093 8.7 80 04:40 09.03.2020
1325 Clouds 21 1029 40 16093 8.7 80 04:21 09.03.2020
1326 Clouds 21 1029 52 16093 8.7 80 02:58 09.03.2020
1327 Clouds 21 1029 43 16093 8.7 80 00:46 09.03.2020
1328 Clouds 21 1029 43 16093 8.7 80 00:28 09.03.2020
1329 Clouds 21 1028 43 16093 8.2 70 00:00 09.03.2020
1330 Clouds 22 1028 43 16093 8.2 70 23:41 08.03.2020
1331 Clouds 22 1028 40 16093 7.7 70 23:21 08.03.2020
1332 Clouds 22 1028 43 16093 8.2 70 22:55 08.03.2020
1333 Clouds 22 1028 43 16093 8.2 70 22:37 08.03.2020
1334 Clouds 22 1028 43 16093 8.2 70 22:18 08.03.2020
1335 Clouds 22 1027 53 16093 7.2 70 21:42 08.03.2020
1336 Clouds 23 1027 53 16093 7.2 70 21:23 08.03.2020
1337 Clouds 22 1028 46 16093 7.2 60 20:59 08.03.2020
1338 Clouds 22 1028 46 16093 7.2 60 20:39 08.03.2020
1339 Clouds 22 1028 46 16093 7.2 60 20:20 08.03.2020
1340 Clouds 22 1028 40 16093 8.2 70 19:41 08.03.2020
1341 Clouds 22 1028 40 16093 8.2 70 19:21 08.03.2020
1342 Clear 22 1029 43 16093 10.8 80 18:59 08.03.2020
1343 Clouds 22 1030 38 16093 6.7 60 18:40 08.03.2020
1344 Clouds 21 1030 38 16093 6.7 60 18:21 08.03.2020
1345 Clouds 21 1030 43 16093 9.3 80 17:55 08.03.2020
1346 Clouds 21 1031 40 16093 8.7 60 17:37 08.03.2020
1347 Clouds 21 1030 46 16093 9.8 80 17:18 08.03.2020
1348 Clouds 21 1029 52 16093 9.3 60 16:42 08.03.2020
1349 Clouds 21 1029 40 16093 8.7 70 16:23 08.03.2020
1350 Clouds 21 1029 40 16093 8.7 70 15:55 08.03.2020
1351 Clouds 21 1029 43 16093 7.7 70 15:37 08.03.2020
1352 Clouds 21 1029 43 16093 7.7 70 15:18 08.03.2020
1353 Clouds 21 1028 43 16093 5.1 60 14:40 08.03.2020
1354 Clouds 20 1028 43 16093 5.1 60 14:21 08.03.2020
1355 Clouds 20 1028 43 16093 5.1 60 13:56 08.03.2020
1356 Clouds 20 1028 43 16093 5.1 60 13:56 08.03.2020
1357 Clouds 20 1028 49 16093 9.3 70 13:37 08.03.2020
1358 Clouds 20 1028 49 16093 9.3 70 13:18 08.03.2020
1359 Clouds 20 1026 56 16093 6.2 60 12:38 08.03.2020
1360 Clouds 20 1026 56 16093 6.2 60 12:19 08.03.2020
1361 Clouds 19 1025 45 16093 5.1 50 11:44 08.03.2020
1362 Clouds 19 1025 45 16093 5.1 50 11:25 08.03.2020
1363 Clouds 19 1025 52 16093 5.1 60 10:59 08.03.2020
1364 Clouds 19 1025 52 16093 5.1 60 10:59 08.03.2020
1365 Clouds 19 1025 45 16093 6.2 60 10:41 08.03.2020
1366 Clouds 19 1025 45 16093 6.2 60 10:22 08.03.2020
1367 Clouds 19 1025 45 16093 9.8 70 09:40 08.03.2020
1368 Clouds 19 1025 45 16093 9.8 70 09:22 08.03.2020
1369 Clouds 19 1026 42 16093 4.6 50 08:49 08.03.2020
1370 Clouds 19 1026 42 16093 4.6 50 08:27 08.03.2020
1371 Clouds 19 1026 42 16093 4.6 50 07:51 08.03.2020
1372 Clouds 19 1026 45 16093 5.1 50 07:29 08.03.2020
1373 Clouds 19 1027 42 16093 6.7 30 06:58 08.03.2020
1374 Clouds 19 1026 45 16093 6.2 60 06:37 08.03.2020
1375 Clouds 19 1026 45 16093 6.2 60 06:18 08.03.2020
1376 Clouds 20 1026 45 16093 6.2 40 05:18 08.03.2020
1377 Clouds 20 1026 49 16093 6.7 50 03:50 08.03.2020
1378 Clouds 20 1025 56 16093 7.2 50 02:28 08.03.2020
1379 Clouds 20 1024 46 16093 6.7 40 01:22 08.03.2020
1380 Clouds 20 1024 43 16093 6.7 30 00:44 08.03.2020
1381 Clouds 20 1024 43 16093 6.7 30 00:25 08.03.2020
1382 Clouds 21 1023 46 16093 5.7 30 23:44 07.03.2020
1383 Clouds 21 1023 46 16093 5.7 30 23:23 07.03.2020
1384 Clouds 21 1023 49 16093 5.7 50 22:40 07.03.2020
1385 Clouds 22 1023 49 16093 5.7 50 22:21 07.03.2020
1386 Clouds 22 1023 43 16093 7.2 40 21:49 07.03.2020
1387 Clouds 22 1023 43 16093 7.2 40 21:25 07.03.2020
1388 Clouds 22 1023 40 16093 6.7 30 20:42 07.03.2020
1389 Clouds 23 1023 40 16093 6.7 30 20:24 07.03.2020
1390 Clouds 23 1023 40 16093 6.7 40 19:59 07.03.2020
1391 Clouds 23 1023 40 16093 6.7 40 19:41 07.03.2020
1392 Clouds 23 1023 40 16093 6.7 40 19:21 07.03.2020
1393 Clear 22 1023 49 16093 6.7 40 18:43 07.03.2020
1394 Clouds 22 1024 43 16093 4.1 30 18:25 07.03.2020
1395 Clouds 21 1024 43 16093 5.1 340 17:56 07.03.2020
1396 Clouds 21 1024 43 16093 5.1 340 17:38 07.03.2020
1397 Clouds 21 1024 43 16093 5.1 340 17:18 07.03.2020
1398 Clouds 20 1024 42 16093 6.2 340 16:43 07.03.2020
1399 Clouds 20 1024 42 16093 6.2 340 16:23 07.03.2020
1400 Clouds 20 1024 42 16093 6.2 340 16:23 07.03.2020
1401 Clouds 19 1024 42 16093 7.7 340 15:58 07.03.2020
1402 Clouds 18 1024 42 16093 7.7 340 15:40 07.03.2020
1403 Clouds 18 1024 42 16093 7.7 340 15:21 07.03.2020
1404 Clouds 17 1023 39 16093 5.1 330 14:58 07.03.2020
1405 Clouds 17 1023 39 16093 5.1 330 14:39 07.03.2020
1406 -273 0 0 0 0 0 14:21 07.03.2020
1407 Clouds 15 1022 44 16093 4.1 340 13:40 07.03.2020
1408 Clouds 14 1022 44 16093 4.1 340 13:21 07.03.2020
1409 Clear 15 1021 44 16093 4.6 350 12:44 07.03.2020
1410 Clear 15 1021 44 16093 4.6 350 12:23 07.03.2020
1411 Clear 15 1020 42 16093 4.1 350 11:59 07.03.2020
1412 Clear 15 1020 42 16093 4.1 350 11:40 07.03.2020
1413 Clear 15 1020 42 16093 4.1 350 11:22 07.03.2020
1414 Clear 16 1020 51 16093 4.1 350 10:44 07.03.2020
1415 Clear 16 1020 51 16093 4.1 350 10:22 07.03.2020
1416 Clear 16 1020 52 16093 4.1 350 09:58 07.03.2020
1417 Clear 16 1020 52 16093 4.1 350 09:40 07.03.2020
1418 Clear 17 1020 52 16093 4.1 350 09:19 07.03.2020
1419 Clear 17 1021 52 16093 3.6 350 08:44 07.03.2020
1420 Clear 17 1021 52 16093 3.6 350 08:44 07.03.2020
1421 Clear 17 1021 52 16093 3.6 350 08:25 07.03.2020
1422 Clear 18 1021 55 16093 2.6 10 07:59 07.03.2020
1423 Clear 18 1021 55 16093 2.6 10 07:41 07.03.2020
1424 Clear 18 1021 55 16093 2.6 10 07:20 07.03.2020
1425 Clear 19 1021 63 16093 5.1 360 06:38 07.03.2020
1426 Clear 19 1021 63 16093 5.1 360 05:57 07.03.2020
1427 Clear 19 1021 77 16093 4.1 360 05:35 07.03.2020
1428 Clear 21 1018 53 16093 3.1 340 02:58 07.03.2020
1429 Clear 22 1018 53 16093 3.1 340 02:39 07.03.2020
1430 Clouds 23 1018 57 16093 4.6 340 01:47 07.03.2020
1431 Clear 24 1017 54 16093 5.1 340 00:43 07.03.2020
1432 Clear 24 1017 54 16093 5.1 340 00:23 07.03.2020
1433 Clouds 26 1016 51 16093 5.1 340 23:56 06.03.2020
1434 Clouds 26 1016 51 16093 5.1 340 23:38 06.03.2020
1435 Clouds 27 1016 51 16093 5.1 340 23:20 06.03.2020
1436 Clouds 27 1016 54 16093 5.1 310 22:42 06.03.2020
1437 Clouds 27 1016 54 16093 5.1 310 22:19 06.03.2020
1438 Clouds 27 1016 54 16093 5.1 310 22:19 06.03.2020
1439 Clouds 27 1016 54 16093 3.6 310 21:45 06.03.2020
1440 Clouds 27 1016 54 16093 3.6 310 21:19 06.03.2020
1441 Clouds 27 1017 58 16093 4.1 300 20:42 06.03.2020
1442 Clouds 27 1017 58 16093 4.1 300 20:21 06.03.2020
1443 Clouds 27 1017 58 16093 6.2 290 19:54 06.03.2020
1444 Clouds 28 1017 54 16093 6.2 270 19:36 06.03.2020
1445 Clouds 28 1017 54 16093 6.2 270 19:18 06.03.2020
1446 Clouds 27 1017 65 16093 5.1 280 18:41 06.03.2020
1447 Clouds 27 1018 69 16093 5.1 280 18:20 06.03.2020
1448 Clouds 27 1018 69 16093 5.1 280 18:20 06.03.2020
1449 Rain 27 1018 69 16093 7.2 330 17:56 06.03.2020
1450 Rain 26 1018 74 16093 6.2 290 17:36 06.03.2020
1451 Rain 26 1018 74 16093 6.2 290 17:18 06.03.2020
1452 Rain 25 1019 88 9656 3.1 260 16:42 06.03.2020
1453 Rain 25 1019 88 9656 3.1 260 16:21 06.03.2020
1454 Rain 24 1019 88 16093 3.6 320 15:58 06.03.2020
1455 Rain 24 1019 88 16093 3.6 320 15:39 06.03.2020
1456 Rain 24 1019 83 8047 2.6 280 15:20 06.03.2020
1457 Rain 24 1019 88 805 5.7 290 14:39 06.03.2020
1458 Rain 25 1018 83 16093 4.1 230 14:20 06.03.2020
1459 Rain 24 1018 100 8047 2.1 210 13:43 06.03.2020
1460 Rain 24 1018 100 8047 2.1 210 13:43 06.03.2020
1461 Clouds 24 1017 88 16093 3.1 230 13:23 06.03.2020
1462 Clouds 24 1017 83 16093 2.6 200 12:58 06.03.2020
1463 Clouds 24 1017 83 16093 2.6 200 12:38 06.03.2020
1464 Clouds 24 1017 83 16093 2.6 200 12:38 06.03.2020
1465 Rain 24 1017 83 12874 2.6 220 12:19 06.03.2020
1466 Mist 24 1017 94 9656 2.6 220 11:57 06.03.2020
1467 Mist 24 1017 94 9656 2.6 220 11:39 06.03.2020
1468 Clouds 24 1016 83 16093 3.1 220 11:20 06.03.2020
1469 Clouds 24 1016 78 16093 3.6 220 10:40 06.03.2020
1470 Clouds 24 1016 78 16093 3.6 220 10:21 06.03.2020
1471 Clouds 24 1017 78 16093 2.6 210 09:55 06.03.2020
1472 Clouds 24 1017 78 16093 2.6 210 09:37 06.03.2020
1473 Clouds 24 1017 78 16093 2.6 210 09:19 06.03.2020
1474 Clouds 24 1017 83 16093 3.6 220 08:45 06.03.2020
1475 Clouds 24 1017 83 16093 3.6 220 08:27 06.03.2020
1476 Clouds 24 1018 78 16093 3.1 220 07:57 06.03.2020
1477 Clouds 24 1018 78 16093 3.1 220 07:57 06.03.2020
1478 Clouds 24 1018 78 16093 3.1 220 07:38 06.03.2020
1479 Clouds 24 1018 78 16093 2.6 230 06:59 06.03.2020
1480 Clouds 24 1018 78 16093 2.6 230 06:40 06.03.2020
1481 Clear 24 1018 88 16093 2.6 230 05:46 06.03.2020
1482 Clear 24 1018 88 16093 2.6 230 05:27 06.03.2020
1483 Clear 25 1017 78 16093 4.1 250 04:57 06.03.2020
1484 Clouds 26 1017 58 16093 3.1 240 02:37 06.03.2020
1485 Clouds 27 1017 54 16093 4.6 230 01:40 06.03.2020
1486 Clouds 27 1017 54 16093 4.6 230 01:22 06.03.2020
1487 Clouds 29 1016 48 16093 5.7 240 00:33 06.03.2020
1488 Clouds 30 1016 46 16093 7.7 240 23:57 05.03.2020
1489 Clouds 30 1016 46 16093 7.7 240 23:39 05.03.2020
1490 Clouds 30 1016 46 16093 4.1 210 23:19 05.03.2020
1491 Clouds 31 1016 49 16093 4.6 170 22:40 05.03.2020
1492 Clouds 31 1016 49 16093 4.6 170 22:22 05.03.2020
1493 Clouds 32 1016 49 16093 4.6 160 21:57 05.03.2020
1494 Clouds 31 1016 49 16093 4.6 160 21:38 05.03.2020
1495 Clouds 31 1016 49 16093 4.6 160 21:20 05.03.2020
1496 Clouds 31 1017 55 16093 6.2 150 20:59 05.03.2020
1497 Clouds 31 1017 55 16093 6.2 150 20:40 05.03.2020
1498 Clouds 31 1017 55 16093 6.2 150 20:20 05.03.2020
1499 Clouds 31 1017 59 16093 4.6 170 19:58 05.03.2020
1500 Clouds 31 1017 59 16093 4.6 170 19:39 05.03.2020
1501 Clouds 31 1018 52 16093 3.6 150 19:19 05.03.2020
1502 Clouds 31 1019 52 16093 3.6 210 18:55 05.03.2020
1503 Clouds 31 1019 52 16093 3.6 210 18:36 05.03.2020
1504 Clouds 30 1019 52 16093 3.6 210 18:18 05.03.2020
1505 Clouds 30 1019 62 16093 4.6 180 17:42 05.03.2020
1506 Clouds 30 1019 62 16093 4.6 180 17:22 05.03.2020
1507 Clouds 29 1019 66 16093 4.1 180 16:58 05.03.2020
1508 Clouds 29 1019 66 16093 4.1 180 16:40 05.03.2020
1509 Clouds 29 1019 70 16093 4.1 180 16:21 05.03.2020
1510 Clouds 28 1019 74 16093 5.1 180 15:45 05.03.2020
1511 Clouds 27 1019 74 16093 4.6 160 15:24 05.03.2020
1512 Clouds 27 1019 78 16093 5.1 190 14:59 05.03.2020
1513 Clouds 26 1019 78 16093 5.1 190 14:41 05.03.2020
1514 Clouds 26 1018 78 16093 3.1 160 14:21 05.03.2020
1515 Rain 25 1017 88 16093 2.6 160 13:56 05.03.2020
1516 Rain 24 1017 88 16093 2.6 160 13:37 05.03.2020
1517 Clouds 24 1017 88 16093 2.6 160 13:19 05.03.2020
1518 Clouds 24 1017 83 14484 4.6 170 12:41 05.03.2020
1519 Clouds 24 1017 88 16093 3.1 140 12:21 05.03.2020
1520 Clouds 24 1017 88 16093 3.1 140 11:57 05.03.2020
1521 Clouds 24 1017 88 16093 3.1 140 11:57 05.03.2020
1522 Clouds 24 1017 88 16093 3.1 140 11:37 05.03.2020
1523 Clouds 24 1017 88 16093 3.1 140 11:19 05.03.2020
1524 Clouds 24 1016 88 16093 3.1 150 10:57 05.03.2020
1525 Clouds 24 1016 88 16093 3.1 150 10:39 05.03.2020
1526 Clouds 24 1016 88 16093 3.1 150 10:21 05.03.2020
1527 Clouds 24 1017 78 16093 3.1 140 09:47 05.03.2020
1528 Clouds 24 1017 78 16093 3.1 140 09:28 05.03.2020
1529 Clouds 24 1017 78 16093 3.1 140 09:28 05.03.2020
1530 Clouds 24 1018 78 16093 3.1 140 08:59 05.03.2020
1531 Clouds 24 1018 78 16093 3.1 140 08:41 05.03.2020
1532 Clouds 24 1018 78 16093 3.1 140 08:21 05.03.2020
1533 Clouds 24 1018 83 16093 3.6 150 07:41 05.03.2020
1534 Clouds 24 1018 83 16093 3.6 150 07:19 05.03.2020
1535 Clouds 24 1018 83 16093 4.1 150 06:43 05.03.2020
1536 Clouds 24 1018 83 16093 4.1 150 06:19 05.03.2020
1537 Clouds 24 1018 83 16093 3.1 130 05:35 05.03.2020
1538 Clear 24 1018 78 16093 2.6 110 04:23 05.03.2020
1539 Clear 24 1018 78 16093 2.6 110 04:23 05.03.2020
1540 Clear 24 1018 88 11265 3.6 200 03:58 05.03.2020
1541 Clouds 24 1017 78 16093 3.6 140 02:32 05.03.2020
1542 Clouds 25 1017 74 16093 4.1 140 01:26 05.03.2020
1543 Clouds 26 1016 69 16093 5.1 160 00:49 05.03.2020
1544 Clouds 27 1016 61 16093 6.2 150 23:57 04.03.2020
1545 Clouds 27 1016 61 16093 6.2 150 23:39 04.03.2020
1546 Clouds 28 1016 61 16093 6.2 150 23:21 04.03.2020
1547 Clouds 28 1015 65 16093 7.2 140 22:56 04.03.2020
1548 Clouds 28 1015 65 16093 7.2 140 22:37 04.03.2020
1549 Clouds 28 1015 65 16093 7.2 140 22:18 04.03.2020
1550 Clouds 29 1016 58 16093 5.7 150 21:42 04.03.2020
1551 Clouds 29 1016 58 16093 6.2 150 21:23 04.03.2020
1552 Clouds 29 1016 54 16093 5.7 130 20:59 04.03.2020
1553 Clouds 29 1016 54 16093 5.7 130 20:40 04.03.2020
1554 Clouds 29 1016 54 16093 5.7 130 20:21 04.03.2020
1555 Clouds 29 1016 54 16093 5.7 130 20:21 04.03.2020
1556 Clouds 29 1017 58 16093 5.7 140 19:56 04.03.2020
1557 Clouds 29 1017 58 16093 5.7 140 19:38 04.03.2020
1558 Clouds 29 1017 58 16093 5.7 140 19:20 04.03.2020
1559 Clouds 29 1017 62 16093 4.1 160 18:42 04.03.2020
1560 Clouds 29 1017 62 16093 4.1 160 18:23 04.03.2020
1561 Clouds 29 1018 58 16093 6.2 180 17:59 04.03.2020
1562 Clouds 29 1018 58 16093 6.2 180 17:39 04.03.2020
1563 Clouds 28 1018 58 16093 6.2 180 17:20 04.03.2020
1564 Clouds 28 1018 58 16093 5.7 160 16:55 04.03.2020
1565 Clouds 28 1018 58 16093 5.7 160 16:55 04.03.2020
1566 Clouds 28 1018 58 16093 5.7 160 16:55 04.03.2020
1567 Clouds 28 1018 58 16093 5.7 160 16:36 04.03.2020
1568 Clouds 28 1018 58 16093 5.7 160 16:18 04.03.2020
1569 Clouds 27 1018 74 16093 3.1 150 15:42 04.03.2020
1570 Clouds 26 1018 74 16093 3.1 150 15:24 04.03.2020
1571 Clouds 25 1018 83 16093 3.1 0 14:57 04.03.2020
1572 Clouds 24 1018 83 16093 3.1 0 14:38 04.03.2020
1573 Clouds 23 1018 83 16093 3.1 0 14:19 04.03.2020
1574 Clouds 22 1018 78 16093 2.6 150 13:58 04.03.2020
1575 Clouds 21 1018 78 16093 2.6 150 13:39 04.03.2020
1576 Clouds 21 1018 78 16093 2.6 150 13:39 04.03.2020
1577 Clouds 20 1018 78 16093 2.6 150 13:20 04.03.2020
1578 Mist 20 1018 93 4828 7.08 169 12:55 04.03.2020
1579 Mist 20 1018 93 4828 7.08 169 12:37 04.03.2020
1580 Clouds 20 1017 83 16093 2.1 170 12:19 04.03.2020
1581 Clouds 20 1017 83 16093 2.6 0 11:42 04.03.2020
1582 Clouds 20 1017 83 16093 2.6 0 11:23 04.03.2020
1583 Mist 20 1017 100 6437 6.59 177 10:58 04.03.2020
1584 Mist 20 1017 100 6437 6.59 177 10:40 04.03.2020
1585 Clouds 20 1017 83 16093 1.5 130 10:19 04.03.2020
1586 Clouds 21 1017 83 16093 1.5 140 09:43 04.03.2020
1587 Clouds 21 1017 83 16093 1.5 140 09:21 04.03.2020
1588 Clear 21 1016 100 11265 1.5 180 08:48 04.03.2020
1589 Clear 21 1017 94 16093 2.1 180 08:28 04.03.2020
1590 Clear 21 1017 100 12874 6.53 174 07:57 04.03.2020
1591 Clear 21 1017 100 12874 6.53 174 07:38 04.03.2020
1592 Clouds 22 1018 83 16093 1.5 170 07:20 04.03.2020
1593 Clouds 22 1018 83 16093 2.1 170 06:43 04.03.2020
1594 Clouds 22 1018 83 16093 2.1 170 06:23 04.03.2020
1595 Clouds 22 1018 83 16093 2.6 150 05:50 04.03.2020
1596 Clouds 23 1018 83 16093 2.1 130 04:30 04.03.2020
1597 Clouds 23 1018 78 16093 2.6 150 03:44 04.03.2020
1598 Clouds 23 1018 78 16093 2.6 150 03:25 04.03.2020
1599 Clouds 23 1018 78 16093 3.1 130 02:55 04.03.2020
1600 Clouds 24 1018 78 16093 3.1 130 02:21 04.03.2020
1601 Clouds 24 1017 88 16093 6.87 167 01:54 04.03.2020
1602 Clouds 24 1017 65 16093 5.1 140 00:52 04.03.2020
1603 Clouds 24 1017 65 16093 5.1 140 00:52 04.03.2020
1604 Clouds 25 1017 65 16093 5.1 140 00:27 04.03.2020
1605 Clouds 25 1017 65 16093 5.1 140 00:27 04.03.2020
1606 Clouds 26 1016 65 16093 5.7 140 23:47 03.03.2020
1607 Clouds 26 1016 65 16093 5.7 140 23:28 03.03.2020
1608 Clouds 26 1016 69 16093 7.7 160 22:59 03.03.2020
1609 Clouds 27 1016 69 16093 7.7 160 22:40 03.03.2020
1610 Clouds 26 1016 65 16093 6.7 140 22:20 03.03.2020
1611 Clouds 26 1016 65 16093 6.7 140 22:20 03.03.2020
1612 Clouds 27 1016 61 16093 5.7 130 21:58 03.03.2020
1613 Clouds 27 1016 61 16093 5.7 130 21:39 03.03.2020
1614 Clouds 27 1016 61 16093 6.7 140 21:20 03.03.2020
1615 Clouds 27 1016 69 16093 8.7 150 20:55 03.03.2020
1616 Clouds 27 1016 69 16093 8.7 150 20:55 03.03.2020
1617 Clouds 27 1016 69 16093 8.7 150 20:36 03.03.2020
1618 Clouds 27 1017 61 16093 6.2 140 20:18 03.03.2020
1619 Clouds 27 1017 61 16093 6.2 140 20:18 03.03.2020
1620 Clouds 27 1016 69 16093 8.2 150 19:54 03.03.2020
1621 Clouds 27 1016 69 16093 8.2 150 19:36 03.03.2020
1622 Clouds 27 1017 61 16093 7.2 130 19:18 03.03.2020
1623 Clouds 27 1018 61 16093 8.2 140 18:55 03.03.2020
1624 Clouds 27 1018 61 16093 8.2 140 18:36 03.03.2020
1625 Clouds 27 1018 61 16093 8.2 140 18:18 03.03.2020
1626 Clouds 27 1018 57 16093 8.7 130 17:40 03.03.2020
1627 Clouds 27 1018 61 0 7.7 160 17:21 03.03.2020
1628 Clouds 26 1019 65 16093 7.7 170 16:59 03.03.2020
1629 Clouds 26 1019 61 16093 7.2 140 16:38 03.03.2020
1630 Clouds 26 1019 61 16093 7.2 140 16:38 03.03.2020
1631 Clouds 26 1019 61 16093 7.2 140 16:38 03.03.2020
1632 Clouds 26 1019 61 16093 7.2 150 16:20 03.03.2020
1633 Clouds 25 1018 69 16093 6.2 130 15:57 03.03.2020
1634 Clouds 25 1018 69 16093 6.2 130 15:39 03.03.2020
1635 Clouds 25 1018 65 16093 6.2 130 15:19 03.03.2020
1636 Clouds 24 1018 73 16093 4.1 130 14:41 03.03.2020
1637 Clouds 23 1018 73 16093 4.1 130 14:20 03.03.2020
1638 Clouds 22 1018 73 16093 2.6 130 13:58 03.03.2020
1639 Clouds 22 1018 73 16093 2.6 130 13:40 03.03.2020
1640 Clouds 20 1018 73 16093 2.6 130 13:20 03.03.2020
1641 Clouds 20 1018 73 16093 4.1 120 12:47 03.03.2020
1642 Clouds 20 1018 73 16093 4.1 120 12:26 03.03.2020
1643 Clouds 20 1017 68 16093 3.1 130 11:58 03.03.2020
1644 Clouds 20 1017 68 16093 3.1 130 11:37 03.03.2020
1645 Clouds 20 1017 68 16093 3.1 130 11:19 03.03.2020
1646 Clouds 20 1017 69 16093 3.1 180 10:56 03.03.2020
1647 Clouds 20 1017 69 16093 3.1 180 10:56 03.03.2020
1648 Clouds 20 1017 73 16093 2.6 130 10:37 03.03.2020
1649 Clouds 20 1017 73 16093 2.6 130 10:19 03.03.2020
1650 Clouds 20 1018 68 16093 3.6 140 09:44 03.03.2020
1651 Clouds 20 1018 68 16093 3.6 140 09:23 03.03.2020
1652 Clouds 21 1018 64 16093 2.6 140 08:58 03.03.2020
1653 Clouds 21 1018 64 16093 2.6 140 08:39 03.03.2020
1654 Clouds 21 1018 64 16093 2.6 140 08:20 03.03.2020
1655 Clouds 21 1019 68 16093 2.1 130 07:44 03.03.2020
1656 Clouds 21 1019 68 16093 2.1 130 07:20 03.03.2020
1657 Clouds 21 1020 64 16093 2.1 110 06:43 03.03.2020
1658 Clouds 21 1020 64 16093 2.1 110 06:23 03.03.2020
1659 Clouds 21 1020 68 16093 2.6 90 05:47 03.03.2020
1660 Clouds 21 1020 68 16093 2.6 90 05:47 03.03.2020
1661 Clouds 21 1020 68 16093 2.6 90 05:19 03.03.2020
1662 Clouds 21 1020 64 16093 2.6 100 04:25 03.03.2020
1663 Clouds 21 1020 53 16093 3.6 130 01:40 03.03.2020
1664 Clouds 22 1020 53 16093 4.6 140 00:49 03.03.2020
1665 Clouds 22 1020 53 16093 4.6 140 00:27 03.03.2020
1666 Clouds 23 1020 50 16093 5.7 120 23:57 02.03.2020
1667 Clouds 23 1020 50 16093 5.7 120 23:38 02.03.2020
1668 Clouds 24 1020 50 16093 5.7 120 23:20 02.03.2020
1669 Clouds 24 1020 47 16093 6.2 150 22:55 02.03.2020
1670 Clouds 24 1020 47 16093 6.2 150 22:37 02.03.2020
1671 Clouds 24 1020 47 16093 6.2 150 22:18 02.03.2020
1672 Clouds 25 1020 50 16093 8.2 130 21:42 02.03.2020
1673 Clouds 25 1020 44 16093 7.7 150 21:23 02.03.2020
1674 Clouds 25 1020 41 16093 7.7 110 20:58 02.03.2020
1675 Clouds 25 1020 41 16093 7.7 110 20:39 02.03.2020
1676 Clouds 25 1020 41 16093 7.7 110 20:20 02.03.2020
1677 Clouds 25 1022 47 16093 8.2 100 19:56 02.03.2020
1678 Clouds 25 1022 47 16093 8.2 100 19:38 02.03.2020
1679 Clouds 25 1022 47 16093 8.2 100 19:20 02.03.2020
1680 Clouds 24 1022 44 16093 7.2 110 18:45 02.03.2020
1681 Clouds 24 1022 44 16093 7.2 110 18:20 02.03.2020
1682 Clouds 24 1023 47 16093 8.2 100 17:59 02.03.2020
1683 Clouds 24 1023 47 16093 8.2 100 17:41 02.03.2020
1684 Clouds 24 1023 47 16093 8.2 100 17:21 02.03.2020
1685 Clouds 24 1023 47 16093 8.2 100 17:21 02.03.2020
1686 Clouds 24 1023 47 16093 8.2 100 17:21 02.03.2020
1687 Clouds 24 1023 49 16093 7.2 120 16:56 02.03.2020
1688 Clouds 24 1023 49 16093 7.2 120 16:56 02.03.2020
1689 Clouds 24 1023 49 16093 7.2 120 16:38 02.03.2020
1690 Clouds 23 1023 49 16093 7.2 120 16:20 02.03.2020
1691 Clouds 23 1022 49 16093 7.2 110 15:44 02.03.2020
1692 Clouds 23 1022 49 16093 7.2 110 15:21 02.03.2020
1693 Clouds 22 1022 49 16093 5.1 100 14:56 02.03.2020
1694 Clouds 22 1022 49 16093 5.1 100 14:37 02.03.2020
1695 Clouds 21 1022 49 16093 5.1 100 14:19 02.03.2020
1696 Clouds 20 1022 52 16093 3.1 100 13:44 02.03.2020
1697 Clouds 20 1022 52 16093 3.1 100 13:19 02.03.2020
1698 Clouds 20 1021 49 16093 4.6 130 12:57 02.03.2020
1699 Clouds 20 1021 49 16093 4.6 130 12:57 02.03.2020
1700 Clouds 20 1021 49 16093 4.6 130 12:39 02.03.2020
1701 Clouds 20 1021 49 16093 4.6 130 12:18 02.03.2020
1702 Clouds 19 1021 52 16093 4.1 110 11:38 02.03.2020
1703 Clouds 19 1021 52 16093 4.1 110 11:19 02.03.2020
1704 Clouds 19 1022 56 16093 4.6 120 10:55 02.03.2020
1705 Clouds 20 1022 56 16093 4.6 120 10:36 02.03.2020
1706 Clouds 20 1022 56 16093 4.6 120 10:18 02.03.2020
1707 Clouds 20 1022 52 16093 4.1 110 09:45 02.03.2020
1708 Clouds 20 1022 52 16093 4.1 110 09:26 02.03.2020
1709 Clouds 20 1022 52 16093 4.1 110 08:48 02.03.2020
1710 Clouds 20 1022 52 16093 4.1 110 08:22 02.03.2020
1711 Clouds 20 1023 49 16093 5.7 110 07:47 02.03.2020
1712 Clouds 20 1023 49 16093 5.7 110 07:28 02.03.2020
1713 Clouds 20 1024 49 16093 6.2 100 06:50 02.03.2020
1714 Clouds 20 1024 49 16093 6.2 100 06:20 02.03.2020
1715 Clouds 20 1024 46 16093 5.1 100 05:23 02.03.2020
1716 Clouds 20 1025 46 16093 6.2 110 03:25 02.03.2020
1717 Clouds 20 1025 46 16093 6.2 100 02:53 02.03.2020
1718 Clouds 20 1025 46 16093 6.2 100 02:29 02.03.2020
1719 Clouds 20 1024 49 16093 4.1 110 01:33 02.03.2020
1720 Clouds 21 1023 43 16093 7.2 90 00:48 02.03.2020
1721 Clouds 21 1023 56 16093 5.7 80 00:22 02.03.2020
1722 Clouds 21 1023 43 16093 6.2 80 23:41 01.03.2020
1723 Clouds 22 1023 43 16093 6.2 80 23:21 01.03.2020
1724 Clouds 22 1023 38 16093 5.7 70 22:44 01.03.2020
1725 Clouds 22 1023 38 16093 5.7 70 22:21 01.03.2020
1726 Clouds 22 1024 40 16093 5.1 80 21:58 01.03.2020
1727 Clouds 23 1024 40 16093 5.1 80 21:39 01.03.2020
1728 Clouds 23 1024 40 16093 5.1 80 21:20 01.03.2020
1729 Clouds 23 1024 40 16093 3.6 90 20:45 01.03.2020
1730 Clouds 23 1024 40 16093 3.6 90 20:26 01.03.2020
1731 Clouds 23 1025 43 16093 6.2 80 19:59 01.03.2020
1732 Clouds 23 1025 43 16093 6.2 80 19:41 01.03.2020
1733 Clouds 23 1025 43 16093 6.2 80 19:21 01.03.2020
1734 Clouds 23 1026 40 16093 4.6 60 18:56 01.03.2020
1735 Clouds 23 1026 40 16093 4.6 60 18:38 01.03.2020
1736 Clouds 23 1026 40 16093 4.6 60 18:18 01.03.2020
1737 Clouds 22 1026 37 16093 3.6 360 17:55 01.03.2020
1738 Clouds 22 1026 37 16093 3.6 360 17:36 01.03.2020
1739 Clouds 21 1026 37 16093 3.6 360 17:18 01.03.2020
1740 Clouds 20 1026 37 16093 3.1 350 16:40 01.03.2020
1741 Clouds 20 1026 37 16093 3.1 350 16:40 01.03.2020
1742 Clouds 19 1026 37 16093 3.1 350 16:20 01.03.2020
1743 Clouds 18 1026 36 16093 4.1 350 15:59 01.03.2020
1744 Clouds 18 1026 36 16093 4.1 350 15:40 01.03.2020
1745 Clouds 18 1026 36 16093 4.1 350 15:40 01.03.2020
1746 Clouds 17 1026 36 16093 4.1 350 15:22 01.03.2020
1747 Clouds 16 1026 41 16093 3.1 340 14:58 01.03.2020
1748 Clouds 15 1026 41 16093 3.1 340 14:39 01.03.2020
1749 Clouds 14 1026 41 16093 3.1 340 14:21 01.03.2020
1750 Clouds 13 1025 50 16093 2.1 330 13:59 01.03.2020
1751 Clouds 13 1025 50 16093 2.1 330 13:59 01.03.2020
1752 Clouds 12 1025 50 16093 2.1 330 13:41 01.03.2020
1753 Clouds 11 1025 50 16093 2.1 330 13:20 01.03.2020
1754 Clouds 11 1025 47 16093 2.6 340 12:56 01.03.2020
1755 Clouds 11 1025 47 16093 2.6 340 12:38 01.03.2020
1756 Clouds 11 1025 47 16093 2.6 340 12:19 01.03.2020
1757 Clear 11 1024 47 16093 2.6 350 11:40 01.03.2020
1758 Clear 11 1024 47 16093 2.6 350 11:20 01.03.2020
1759 Clouds 11 1024 47 16093 2.6 340 10:56 01.03.2020
1760 Clouds 11 1024 47 16093 2.6 340 10:37 01.03.2020
1761 Clouds 11 1024 47 16093 2.6 340 10:37 01.03.2020
1762 Clouds 11 1024 47 16093 2.6 340 10:37 01.03.2020
1763 Clouds 11 1024 47 16093 2.6 340 10:18 01.03.2020
1764 Clouds 11 1024 47 16093 3.1 340 09:45 01.03.2020
1765 Clouds 11 1024 47 16093 3.1 340 09:26 01.03.2020
1766 Clouds 12 1025 54 16093 3.1 330 08:51 01.03.2020
1767 Clouds 12 1025 54 16093 3.1 330 08:29 01.03.2020
1768 Clear 12 1025 66 16093 3.6 320 07:59 01.03.2020
1769 Clear 11 1025 66 16093 3.6 320 07:40 01.03.2020
1770 Clouds 12 1025 41 16093 1.5 320 07:22 01.03.2020
1771 Clouds 11 1026 44 16093 7.36 357 06:43 01.03.2020
1772 Clouds 11 1026 44 16093 7.36 357 06:21 01.03.2020
1773 Clear 14 1025 38 16093 1.5 10 03:40 01.03.2020
1774 Clear 15 1025 33 16093 1.5 20 02:23 01.03.2020
1775 Clear 16 1025 33 16093 2.6 10 01:46 01.03.2020
1776 Clear 16 1025 33 16093 2.6 10 01:20 01.03.2020
1777 Clear 16 1025 33 16093 2.6 10 01:20 01.03.2020
1778 Clear 18 1024 29 16093 4.1 10 00:40 01.03.2020
1779 Clear 18 1024 29 16093 4.1 10 00:19 01.03.2020
1780 Clouds 20 1023 32 16093 3.1 320 23:42 29.02.2020
1781 Clouds 20 1023 32 16093 3.1 320 23:23 29.02.2020
1782 Clouds 21 1023 33 16093 2.6 350 22:40 29.02.2020
1783 Clouds 21 1023 33 16093 2.6 350 22:22 29.02.2020
1784 Clouds 21 1022 40 16093 5.1 340 21:42 29.02.2020
1785 Clouds 21 1023 37 16093 3.1 0 21:22 29.02.2020
1786 Clouds 21 1024 37 16093 4.6 330 20:43 29.02.2020
1787 Clouds 21 1024 37 16093 4.6 330 20:21 29.02.2020
1788 Clouds 21 1024 40 16093 5.7 330 19:56 29.02.2020
1789 Clouds 21 1024 40 16093 5.7 330 19:37 29.02.2020
1790 Clouds 20 1024 40 16093 5.7 330 19:19 29.02.2020
1791 Clouds 20 1024 43 16093 6.2 290 18:42 29.02.2020
1792 Clouds 20 1025 40 16093 4.1 320 18:23 29.02.2020
1793 Clouds 20 1025 40 16093 8.7 340 17:57 29.02.2020
1794 Clouds 20 1025 40 16093 8.7 340 17:39 29.02.2020
1795 Clouds 20 1026 42 16093 5.1 300 17:20 29.02.2020
1796 Clouds 19 1026 45 16093 3.6 330 16:45 29.02.2020
1797 Clouds 19 1026 45 16093 3.6 330 16:21 29.02.2020
1798 Clouds 18 1026 55 16093 1.5 330 15:58 29.02.2020
1799 Clouds 17 1026 55 16093 1.5 330 15:39 29.02.2020
1800 Clouds 16 1026 55 16093 1.5 330 15:21 29.02.2020
1801 Clear 14 1025 67 16093 7.44 330 14:41 29.02.2020
1802 Clouds 13 1025 62 16093 7.44 330 14:22 29.02.2020
1803 Clear 11 1025 66 16093 2.1 340 13:46 29.02.2020
1804 Clear 10 1025 66 16093 2.1 340 13:28 29.02.2020
1805 Clear 10 1025 71 16093 2.6 340 12:59 29.02.2020
1806 Clear 10 1025 71 16093 2.6 340 12:40 29.02.2020
1807 Clear 10 1025 71 16093 2.6 340 12:21 29.02.2020
1808 Clear 10 1024 66 16093 2.1 310 11:55 29.02.2020
1809 Clear 10 1024 66 16093 2.1 310 11:37 29.02.2020
1810 Clear 10 1024 66 16093 2.1 310 11:18 29.02.2020
1811 Clear 10 1024 66 16093 3.6 310 10:44 29.02.2020
1812 Clear 10 1024 66 16093 3.6 310 10:26 29.02.2020
1813 Clear 10 1024 66 16093 3.1 320 09:47 29.02.2020
1814 Clear 11 1024 66 16093 3.1 320 09:23 29.02.2020
1815 Clear 11 1025 62 16093 4.1 310 08:42 29.02.2020
1816 Clear 11 1025 62 16093 4.1 310 08:22 29.02.2020
1817 Clear 12 1025 66 16093 5.7 320 07:56 29.02.2020
1818 Clear 12 1025 66 16093 5.7 320 07:36 29.02.2020
1819 Clear 12 1025 66 16093 5.7 320 07:18 29.02.2020
1820 Clouds 12 1024 62 16093 3.1 300 06:41 29.02.2020
1821 Clear 12 1025 58 16093 4.1 310 06:22 29.02.2020
1822 Clear 13 1025 67 16093 3.6 310 05:40 29.02.2020
1823 Clear 13 1025 62 16093 2.1 300 04:44 29.02.2020
1824 Clear 13 1024 58 16093 1.5 350 03:37 29.02.2020
1825 Clear 13 1024 58 16093 1.5 350 03:18 29.02.2020
1826 Clear 14 1024 55 16093 2.1 360 02:34 29.02.2020
1827 Clear 16 1023 48 16093 4.1 340 00:58 29.02.2020
1828 Clear 17 1023 45 16093 2.6 330 00:36 29.02.2020
1829 Clear 17 1023 45 16093 2.6 330 00:36 29.02.2020
1830 Clear 18 1022 37 16093 3.6 310 23:43 28.02.2020
1831 Clear 19 1022 37 16093 3.6 310 23:24 28.02.2020
1832 Clear 19 1022 37 16093 3.6 310 23:24 28.02.2020
1833 Clear 19 1022 34 16093 5.1 330 22:54 28.02.2020
1834 Clear 19 1022 34 16093 5.1 330 22:36 28.02.2020
1835 Clear 19 1022 34 16093 5.1 330 22:18 28.02.2020
1836 Clear 19 1022 34 16093 4.1 320 21:41 28.02.2020
1837 Clear 19 1022 34 16093 4.1 320 21:20 28.02.2020
1838 Clear 19 1022 34 16093 4.1 320 21:20 28.02.2020
1839 Clear 19 1022 37 16093 7.2 310 20:40 28.02.2020
1840 Clear 19 1023 29 16093 6.2 320 20:22 28.02.2020
1841 Clouds 18 1024 31 16093 7.2 300 19:59 28.02.2020
1842 Clouds 18 1024 31 16093 7.2 300 19:39 28.02.2020
1843 Clouds 18 1024 31 16093 7.2 300 19:21 28.02.2020
1844 Clouds 18 1024 36 16093 5.1 310 18:57 28.02.2020
1845 Clouds 18 1024 36 16093 5.1 310 18:38 28.02.2020
1846 Clouds 17 1024 36 16093 5.1 310 18:20 28.02.2020
1847 Clouds 17 1025 42 16093 6.2 310 17:40 28.02.2020
1848 Clouds 16 1025 42 16093 6.2 310 17:22 28.02.2020
1849 Clouds 15 1025 47 16093 6.2 330 16:46 28.02.2020
1850 Clouds 15 1025 47 16093 6.2 330 16:20 28.02.2020
1851 Clouds 14 1025 50 16093 5.7 330 15:58 28.02.2020
1852 Clouds 14 1025 50 16093 5.7 330 15:40 28.02.2020
1853 Clouds 13 1025 50 16093 5.7 330 15:20 28.02.2020
1854 Clouds 13 1025 50 16093 5.7 330 15:20 28.02.2020
1855 Clouds 12 1024 54 16093 4.6 320 14:57 28.02.2020
1856 Clouds 12 1024 54 16093 4.6 320 14:38 28.02.2020
1857 Clouds 12 1024 54 16093 4.6 320 14:38 28.02.2020
1858 Clouds 11 1024 54 16093 4.6 320 14:18 28.02.2020
1859 Clouds 10 1024 62 16093 4.1 310 13:42 28.02.2020
1860 Clouds 10 1024 62 16093 4.1 310 13:21 28.02.2020
1861 Clouds 10 1023 57 16093 4.1 330 12:59 28.02.2020
1862 Clouds 10 1023 57 16093 4.1 330 12:40 28.02.2020
1863 Clouds 10 1023 57 16093 4.1 330 12:22 28.02.2020
1864 Clear 10 1023 62 16093 3.6 320 11:42 28.02.2020
1865 Clear 10 1023 62 16093 3.6 320 11:23 28.02.2020
1866 Clouds 10 1023 58 16093 4.6 320 10:58 28.02.2020
1867 Clouds 10 1023 58 16093 4.6 320 10:39 28.02.2020
1868 Clouds 11 1023 58 16093 4.6 320 10:20 28.02.2020
1869 Clouds 11 1023 62 16093 3.6 340 09:44 28.02.2020
1870 Clouds 11 1023 62 16093 3.6 340 09:21 28.02.2020
1871 Clouds 11 1023 62 16093 3.6 320 08:56 28.02.2020
1872 Clouds 11 1023 62 16093 3.6 320 08:36 28.02.2020
1873 Clouds 11 1023 62 16093 3.6 320 08:18 28.02.2020
1874 Clear 11 1024 66 16093 6.2 320 07:39 28.02.2020
1875 Clear 11 1024 62 16093 4.6 320 07:19 28.02.2020
1876 Clear 12 1024 66 16093 5.7 320 06:41 28.02.2020
1877 Clear 13 1023 67 16093 8.2 320 05:50 28.02.2020
1878 Clear 14 1023 55 16093 2.1 350 04:34 28.02.2020
1879 Clouds 14 1022 48 16093 2.1 20 03:48 28.02.2020
1880 Clear 15 1022 48 16093 1.5 30 02:45 28.02.2020
1881 Clear 15 1022 48 16093 1.5 30 02:20 28.02.2020
1882 Clear 17 1021 45 16093 3.6 350 00:39 28.02.2020
1883 -273 0 0 0 0 0 00:21 28.02.2020
1884 Clouds 18 1020 37 16093 3.6 350 23:41 27.02.2020
1885 Clouds 19 1020 37 16093 3.6 350 23:19 27.02.2020
1886 Clear 19 1020 42 16093 5.7 320 22:41 27.02.2020
1887 Clouds 19 1020 37 16093 3.6 320 22:23 27.02.2020
1888 Clouds 19 1020 42 16093 3.6 320 21:56 27.02.2020
1889 Clouds 19 1020 42 16093 3.6 320 21:37 27.02.2020
1890 Clouds 19 1020 42 16093 3.6 320 21:18 27.02.2020
1891 Clouds 19 1020 42 16093 4.6 320 20:54 27.02.2020
1892 Clouds 19 1020 42 16093 4.6 320 20:36 27.02.2020
1893 Clouds 19 1020 42 16093 4.6 320 20:18 27.02.2020
1894 Clear 19 1019 45 16093 6.2 350 19:42 27.02.2020
1895 Clouds 19 1021 48 16093 6.2 330 19:23 27.02.2020
1896 Clouds 18 1022 45 16093 5.1 330 18:58 27.02.2020
1897 Clouds 19 1022 45 16093 5.1 330 18:39 27.02.2020
1898 Clouds 18 1022 45 16093 5.1 330 18:20 27.02.2020
1899 Clouds 18 1021 42 16093 5.7 320 17:56 27.02.2020
1900 Clouds 18 1021 42 16093 5.7 320 17:38 27.02.2020
1901 Clouds 18 1021 42 16093 5.7 320 17:19 27.02.2020
1902 Clouds 18 1021 48 16093 6.2 320 16:54 27.02.2020
1903 Clouds 17 1021 48 16093 6.2 320 16:36 27.02.2020
1904 Clouds 17 1021 48 16093 6.2 320 16:18 27.02.2020
1905 Rain 17 1020 59 16093 6.7 340 15:40 27.02.2020
1906 Rain 17 1020 59 16093 6.7 340 15:21 27.02.2020
1907 Clouds 17 1020 55 16093 5.1 340 14:59 27.02.2020
1908 Clouds 17 1020 55 16093 5.1 340 14:39 27.02.2020
1909 Clouds 16 1019 77 16093 6.7 340 14:21 27.02.2020
1910 Rain 17 1019 77 16093 7.7 330 13:55 27.02.2020
1911 Clouds 17 1018 82 16093 6.2 320 13:37 27.02.2020
1912 Clouds 17 1018 72 16093 5.1 330 13:19 27.02.2020
1913 Clouds 18 1018 72 16093 9.3 320 12:43 27.02.2020
1914 Clouds 18 1016 68 16093 5.7 310 12:19 27.02.2020
1915 Clouds 19 1016 72 16093 5.7 330 11:46 27.02.2020
1916 Rain 19 1016 88 16093 6.2 330 11:23 27.02.2020
1917 Rain 19 1016 88 16093 4.1 330 10:56 27.02.2020
1918 Clouds 19 1016 82 16093 3.1 290 10:37 27.02.2020
1919 Clouds 19 1016 82 16093 3.1 290 10:19 27.02.2020
1920 Clouds 20 1016 73 16093 3.1 310 09:41 27.02.2020
1921 Clouds 20 1016 73 16093 3.1 310 09:23 27.02.2020
1922 Clouds 20 1015 73 16093 7.23 323 08:44 27.02.2020
1923 Clouds 20 1015 73 16093 7.23 323 08:26 27.02.2020
1924 Rain 20 1015 88 16093 3.1 40 07:59 27.02.2020
1925 Rain 20 1015 88 16093 3.1 40 07:39 27.02.2020
1926 Rain 19 1015 88 16093 3.1 40 07:19 27.02.2020
1927 Rain 19 1016 88 16093 4.6 340 06:20 27.02.2020
1928 Rain 22 1016 94 16093 9.3 320 04:48 27.02.2020
1929 Rain 23 1014 94 16093 4.1 200 02:58 27.02.2020
1930 Rain 24 1014 83 9656 8.2 190 01:28 27.02.2020
1931 Rain 25 1013 78 11265 5.1 240 00:41 27.02.2020
1932 Rain 27 1013 88 4828 3.6 240 23:41 26.02.2020
1933 Clouds 27 1012 65 16093 5.1 190 23:23 26.02.2020
1934 Clouds 28 1012 78 16093 5.1 200 22:59 26.02.2020
1935 Clouds 28 1012 78 16093 5.1 200 22:40 26.02.2020
1936 Clouds 28 1013 65 16093 5.7 190 22:22 26.02.2020
1937 Clouds 28 1013 62 16093 7.2 160 21:59 26.02.2020
1938 Clouds 28 1013 62 16093 7.2 160 21:39 26.02.2020
1939 Clouds 29 1013 62 16093 7.2 160 21:19 26.02.2020
1940 Clouds 29 1013 62 16093 7.2 170 20:56 26.02.2020
1941 Clouds 29 1013 62 16093 7.2 170 20:38 26.02.2020
1942 Clouds 29 1013 62 16093 7.2 170 20:19 26.02.2020
1943 Clouds 29 1014 66 16093 8.2 190 19:55 26.02.2020
1944 Clouds 29 1014 66 16093 8.2 190 19:36 26.02.2020
1945 Clouds 29 1014 66 16093 8.2 190 19:36 26.02.2020
1946 Clouds 29 1014 62 16093 6.7 160 19:18 26.02.2020
1947 Clouds 29 1015 66 16093 5.7 180 18:41 26.02.2020
1948 Rain 29 1015 69 16093 5.7 160 18:23 26.02.2020
1949 Rain 29 1015 74 16093 5.1 160 17:59 26.02.2020
1950 Rain 29 1015 74 16093 5.1 160 17:39 26.02.2020
1951 Rain 29 1016 65 16093 5.1 150 17:18 26.02.2020
1952 Clouds 28 1016 74 16093 5.7 190 16:56 26.02.2020
1953 Clouds 28 1016 66 16093 6.7 170 16:37 26.02.2020
1954 Clouds 28 1016 74 16093 6.2 180 16:18 26.02.2020
1955 Clouds 27 1016 83 16093 7.7 180 15:42 26.02.2020
1956 Clouds 27 1016 74 16093 4.6 180 15:23 26.02.2020
1957 Clouds 26 1015 83 16093 2.6 160 14:43 26.02.2020
1958 Clouds 25 1015 83 16093 2.6 160 14:23 26.02.2020
1959 Clouds 24 1015 88 16093 2.6 0 13:44 26.02.2020
1960 Clouds 24 1015 88 16093 2.6 0 13:44 26.02.2020
1961 Clouds 24 1015 88 16093 2.6 0 13:23 26.02.2020
1962 Clouds 24 1014 94 16093 1.5 150 12:58 26.02.2020
1963 Clouds 24 1014 94 16093 1.5 150 12:38 26.02.2020
1964 Clouds 24 1014 94 16093 1.5 150 12:38 26.02.2020
1965 Clouds 24 1014 88 16093 3.1 140 12:18 26.02.2020
1966 Clouds 24 1015 88 16093 2.1 130 11:42 26.02.2020
1967 Clouds 24 1015 88 16093 2.1 130 11:22 26.02.2020
1968 Clouds 24 1015 88 16093 2.1 130 11:22 26.02.2020
1969 Rain 24 1015 88 16093 2.6 140 10:59 26.02.2020
1970 Rain 24 1015 88 16093 2.6 140 10:39 26.02.2020
1971 Rain 24 1015 88 16093 2.6 140 10:21 26.02.2020
1972 Rain 24 1015 88 16093 2.6 150 09:43 26.02.2020
1973 Rain 24 1015 88 16093 2.6 150 09:23 26.02.2020
1974 Rain 24 1014 88 16093 8.47 170 08:58 26.02.2020
1975 Rain 24 1014 88 16093 8.47 170 08:37 26.02.2020
1976 Rain 24 1015 83 11265 2.6 220 08:18 26.02.2020
1977 Rain 24 1016 94 4828 1.5 230 07:42 26.02.2020
1978 Clouds 25 1016 88 16093 4.6 190 07:24 26.02.2020
1979 Clouds 24 1016 83 16093 3.1 160 06:50 26.02.2020
1980 Clouds 24 1016 83 16093 3.1 160 06:32 26.02.2020
1981 Clouds 24 1016 78 16093 2.1 160 05:51 26.02.2020
1982 Clouds 24 1016 78 16093 2.1 160 05:23 26.02.2020
1983 Clouds 25 1016 74 16093 4.1 140 04:23 26.02.2020
1984 Clouds 25 1015 74 16093 3.1 160 02:23 26.02.2020
1985 Clouds 25 1015 69 16093 3.6 170 01:45 26.02.2020
1986 Clouds 26 1014 61 16093 4.6 150 00:48 26.02.2020
1987 Clouds 26 1014 61 16093 4.6 150 00:24 26.02.2020
1988 Clouds 26 1014 61 16093 4.6 150 00:24 26.02.2020
1989 Clear 27 1014 74 16093 3.6 160 23:45 25.02.2020
1990 Clouds 27 1013 69 16093 5.7 150 23:27 25.02.2020
1991 Clouds 27 1013 65 16093 4.6 180 22:59 25.02.2020
1992 Clouds 27 1013 65 16093 4.6 180 22:41 25.02.2020
1993 Clouds 28 1013 65 16093 5.7 150 22:19 25.02.2020
1994 Clouds 28 1014 65 16093 5.7 150 21:55 25.02.2020
1995 Clouds 28 1014 65 16093 5.7 150 21:36 25.02.2020
1996 Clouds 28 1014 65 16093 5.7 150 21:18 25.02.2020
1997 Clouds 28 1014 58 16093 6.2 140 20:54 25.02.2020
1998 Clouds 28 1014 58 16093 6.2 140 20:36 25.02.2020
1999 Clouds 28 1014 58 16093 6.2 140 20:18 25.02.2020
2000 Clouds 28 1014 65 16093 5.1 150 19:40 25.02.2020
2001 Clouds 28 1015 58 16093 6.7 150 19:19 25.02.2020
2002 Clouds 28 1016 58 16093 7.7 140 18:42 25.02.2020
2003 Clouds 28 1016 58 16093 7.7 140 18:22 25.02.2020
2004 Clouds 28 1015 69 16093 6.2 150 17:59 25.02.2020
2005 Clouds 28 1015 69 16093 6.2 150 17:38 25.02.2020
2006 Clouds 27 1016 61 16093 6.2 170 17:20 25.02.2020
2007 Clouds 27 1016 61 16093 6.7 150 16:59 25.02.2020
2008 Clouds 27 1016 61 16093 6.7 150 16:40 25.02.2020
2009 Clouds 27 1016 61 16093 6.7 150 16:22 25.02.2020
2010 Clouds 27 1016 61 16093 5.7 150 15:57 25.02.2020
2011 Clouds 26 1016 61 16093 5.7 150 15:38 25.02.2020
2012 Clouds 26 1016 61 16093 5.7 150 15:18 25.02.2020
2013 Clouds 25 1016 69 16093 3.1 160 14:56 25.02.2020
2014 Clouds 24 1016 69 16093 3.1 160 14:37 25.02.2020
2015 Clouds 24 1016 69 16093 3.1 160 14:18 25.02.2020
2016 Clouds 23 1016 78 16093 2.1 150 13:55 25.02.2020
2017 Clouds 22 1016 78 16093 2.1 150 13:37 25.02.2020
2018 Clouds 21 1016 78 16093 2.1 150 13:18 25.02.2020
2019 Clear 21 1015 78 16093 2.6 140 12:41 25.02.2020
2020 Clear 21 1015 78 16093 2.6 140 12:21 25.02.2020
2021 Clouds 21 1015 73 16093 2.6 0 11:57 25.02.2020
2022 Clouds 21 1015 73 16093 2.6 0 11:38 25.02.2020
2023 Clouds 21 1015 73 16093 2.6 0 11:19 25.02.2020
2024 Clouds 21 1015 73 16093 3.6 150 10:59 25.02.2020
2025 Clouds 21 1015 73 16093 3.6 150 10:40 25.02.2020
2026 Clouds 21 1015 73 16093 3.6 150 10:21 25.02.2020
2027 Clouds 21 1015 73 16093 2.1 170 09:41 25.02.2020
2028 Clouds 21 1015 73 16093 2.1 170 09:22 25.02.2020
2029 Clouds 21 1016 73 16093 2.6 150 08:47 25.02.2020
2030 Clouds 21 1016 73 16093 2.6 150 08:27 25.02.2020
2031 Clouds 21 1016 68 16093 2.6 140 07:58 25.02.2020
2032 Clouds 21 1016 68 16093 2.6 140 07:39 25.02.2020
2033 Clouds 21 1016 68 16093 2.6 140 07:18 25.02.2020
2034 Clouds 21 1016 64 16093 3.6 140 06:28 25.02.2020
2035 Clouds 22 1017 64 16093 2.6 140 05:25 25.02.2020
2036 Clouds 22 1017 64 16093 2.6 130 03:30 25.02.2020
2037 Clouds 22 1017 56 16093 2.6 120 01:31 25.02.2020
2038 Clouds 23 1016 53 16093 4.6 120 00:43 25.02.2020
2039 Clouds 23 1016 53 16093 4.6 120 00:22 25.02.2020
2040 Clouds 24 1016 53 16093 5.1 130 23:40 24.02.2020
2041 Clouds 25 1016 53 16093 5.1 130 23:20 24.02.2020
2042 Clouds 25 1016 44 16093 6.7 140 22:41 24.02.2020
2043 Clouds 25 1016 44 16093 6.7 140 22:20 24.02.2020
2044 Clouds 25 1016 47 16093 5.1 120 21:57 24.02.2020
2045 Clouds 26 1016 47 16093 5.1 120 21:39 24.02.2020
2046 Clouds 26 1016 47 16093 5.1 120 21:19 24.02.2020
2047 Clouds 26 1017 44 16093 6.7 120 20:58 24.02.2020
2048 Clouds 26 1017 44 16093 6.7 120 20:39 24.02.2020
2049 Clouds 26 1017 44 16093 6.7 120 20:19 24.02.2020
2050 Clouds 26 1018 47 16093 5.1 160 19:56 24.02.2020
2051 Clouds 26 1018 47 16093 5.1 160 19:38 24.02.2020
2052 Clouds 26 1018 47 16093 5.1 160 19:19 24.02.2020
2053 Clouds 26 1019 44 16093 7.7 140 18:43 24.02.2020
2054 Clouds 26 1019 44 16093 7.7 140 18:43 24.02.2020
2055 Clouds 25 1019 44 16093 7.7 140 18:24 24.02.2020
2056 Clouds 25 1020 47 16093 6.2 140 17:58 24.02.2020
2057 Clouds 25 1020 47 16093 6.2 140 17:39 24.02.2020
2058 Clouds 25 1020 47 16093 6.2 140 17:20 24.02.2020
2059 Clouds 25 1020 47 16093 6.7 110 16:58 24.02.2020
2060 Clouds 25 1020 47 16093 6.7 110 16:39 24.02.2020
2061 Clouds 24 1020 47 16093 6.7 110 16:20 24.02.2020
2062 Clouds 24 1020 47 16093 6.2 130 15:57 24.02.2020
2063 Clouds 24 1020 47 16093 6.2 130 15:39 24.02.2020
2064 Clouds 24 1020 47 16093 6.2 130 15:20 24.02.2020
2065 Clouds 23 1019 53 16093 5.7 110 14:56 24.02.2020
2066 Clouds 23 1019 53 16093 5.7 110 14:38 24.02.2020
2067 Clouds 22 1019 53 16093 5.7 110 14:18 24.02.2020
2068 Clouds 21 1019 60 16093 3.6 100 13:55 24.02.2020
2069 Clouds 20 1019 60 16093 3.6 100 13:36 24.02.2020
2070 Clouds 20 1019 60 16093 3.6 100 13:18 24.02.2020
2071 Clouds 19 1019 56 16093 3.1 110 12:41 24.02.2020
2072 Clouds 19 1019 56 16093 3.1 110 12:41 24.02.2020
2073 Clouds 19 1019 56 16093 3.1 110 12:23 24.02.2020
2074 Clouds 19 1019 56 16093 3.1 110 12:23 24.02.2020
2075 Clouds 19 1018 52 16093 3.1 110 11:50 24.02.2020
2076 Clouds 19 1018 52 16093 3.1 110 11:32 24.02.2020
2077 Clouds 20 1019 56 16093 2.6 120 10:58 24.02.2020
2078 Clouds 20 1019 56 16093 2.6 120 10:40 24.02.2020
2079 Clouds 20 1019 56 16093 2.6 120 10:22 24.02.2020
2080 Clouds 20 1019 52 16093 7.19 112 09:40 24.02.2020
2081 Clouds 20 1019 52 16093 7.19 112 09:19 24.02.2020
2082 Clouds 20 1019 52 16093 7.19 112 09:19 24.02.2020
2083 Clouds 20 1020 49 16093 3.1 100 08:51 24.02.2020
2084 Clouds 20 1020 49 16093 3.1 100 08:29 24.02.2020
2085 Clouds 20 1020 49 16093 5.7 110 07:55 24.02.2020
2086 Clouds 21 1020 49 16093 5.7 110 07:33 24.02.2020
2087 Clouds 20 1021 49 16093 4.6 110 06:52 24.02.2020
2088 Clouds 21 1021 49 16093 4.6 110 06:24 24.02.2020
2089 Clouds 21 1021 49 16093 4.1 110 05:45 24.02.2020
2090 Clouds 21 1021 49 16093 4.1 110 05:25 24.02.2020
2091 Clouds 21 1021 46 16093 3.1 40 02:58 24.02.2020
2092 Clouds 21 1021 46 16093 3.1 40 02:31 24.02.2020
2093 Clouds 21 1021 52 16093 4.1 80 01:31 24.02.2020
2094 Clouds 21 1021 52 16093 4.1 80 01:31 24.02.2020
2095 Clouds 22 1021 46 16093 3.6 60 00:47 24.02.2020
2096 Clouds 22 1020 53 16093 5.7 80 00:21 24.02.2020
2097 Clouds 22 1020 46 16093 5.1 70 23:55 23.02.2020
2098 Clouds 23 1020 46 16093 5.1 70 23:36 23.02.2020
2099 Clouds 23 1020 38 16093 3.6 100 23:18 23.02.2020
2100 Clouds 23 1020 41 16093 5.7 60 22:42 23.02.2020
2101 Clouds 24 1020 41 16093 5.7 60 22:22 23.02.2020
2102 Clouds 24 1020 44 16093 5.7 90 21:55 23.02.2020
2103 Clouds 24 1020 44 16093 5.7 90 21:36 23.02.2020
2104 Clouds 24 1020 44 16093 5.7 90 21:18 23.02.2020
2105 Clouds 24 1021 41 16093 6.2 80 20:55 23.02.2020
2106 Clouds 24 1021 41 16093 6.2 80 20:37 23.02.2020
2107 Clouds 24 1021 41 16093 6.2 80 20:18 23.02.2020
2108 Clouds 24 1022 41 16093 6.7 50 19:41 23.02.2020
2109 Clouds 24 1022 41 16093 6.7 50 19:20 23.02.2020
2110 Clouds 24 1023 44 16093 5.7 60 18:59 23.02.2020
2111 Clouds 24 1023 44 16093 5.7 60 18:40 23.02.2020
2112 Clouds 24 1023 44 16093 5.7 60 18:20 23.02.2020
2113 Clouds 24 1023 44 16093 6.7 60 17:58 23.02.2020
2114 Clouds 24 1023 44 16093 6.7 60 17:40 23.02.2020
2115 Clouds 24 1023 44 16093 6.7 60 17:21 23.02.2020
2116 Clouds 24 1023 44 16093 6.7 60 17:21 23.02.2020
2117 Clouds 23 1023 46 16093 6.2 60 16:56 23.02.2020
2118 Clouds 23 1023 46 16093 6.2 60 16:37 23.02.2020
2119 Clouds 23 1023 46 16093 6.2 60 16:18 23.02.2020
2120 Clouds 22 1023 53 16093 6.2 60 15:54 23.02.2020
2121 Clouds 22 1023 53 16093 6.2 60 15:36 23.02.2020
2122 Clouds 22 1023 53 16093 6.2 60 15:18 23.02.2020
2123 Clouds 21 1023 64 16093 2.1 30 14:41 23.02.2020
2124 Clouds 20 1023 64 16093 2.1 30 14:23 23.02.2020
2125 Clouds 19 1022 77 16093 2.1 360 13:59 23.02.2020
2126 Clouds 18 1022 77 16093 2.1 360 13:41 23.02.2020
2127 Clouds 18 1022 77 16093 2.1 360 13:22 23.02.2020
2128 Clouds 18 1022 77 16093 2.1 360 13:22 23.02.2020
2129 Clouds 17 1021 77 16093 2.6 350 12:59 23.02.2020
2130 Clouds 17 1021 77 16093 2.6 350 12:38 23.02.2020
2131 Clouds 17 1021 77 16093 2.6 350 12:19 23.02.2020
2132 Rain 17 1021 77 16093 1.5 20 11:38 23.02.2020
2133 Rain 18 1021 77 16093 1.5 20 11:20 23.02.2020
2134 Rain 17 1020 88 16093 3.1 350 10:56 23.02.2020
2135 Rain 17 1020 88 16093 3.1 350 10:38 23.02.2020
2136 Rain 17 1021 77 16093 1.5 340 10:20 23.02.2020
2137 Rain 17 1021 72 16093 3.1 0 09:54 23.02.2020
2138 Rain 17 1021 72 16093 3.1 0 09:36 23.02.2020
2139 Rain 17 1021 72 16093 3.1 0 09:36 23.02.2020
2140 Rain 17 1021 72 16093 3.1 0 09:18 23.02.2020
2141 Rain 17 1021 72 16093 1.5 0 08:42 23.02.2020
2142 Rain 18 1021 72 16093 1.5 0 08:23 23.02.2020
2143 Clouds 18 1022 77 16093 2.1 360 07:41 23.02.2020
2144 Clouds 18 1022 77 16093 2.1 360 07:18 23.02.2020
2145 Clouds 18 1022 77 16093 3.6 360 06:20 23.02.2020
2146 Rain 18 1023 72 16093 3.1 340 04:51 23.02.2020
2147 Rain 19 1022 77 16093 6.7 10 03:52 23.02.2020
2148 Rain 19 1022 68 16093 2.1 360 02:38 23.02.2020
2149 Rain 20 1022 68 16093 4.6 30 01:27 23.02.2020
2150 Rain 20 1021 53 16093 4.1 30 00:58 23.02.2020
2151 Rain 20 1021 53 16093 4.1 30 00:37 23.02.2020
2152 Rain 20 1021 53 16093 4.1 30 00:18 23.02.2020
2153 Rain 22 1021 49 16093 6.2 50 23:42 22.02.2020
2154 Rain 22 1021 49 16093 6.2 50 23:20 22.02.2020
2155 Rain 22 1020 60 16093 8.7 30 22:44 22.02.2020
2156 Rain 22 1021 49 16093 5.1 30 22:19 22.02.2020
2157 Clouds 23 1021 53 16093 8.7 40 21:43 22.02.2020
2158 Clouds 23 1021 53 16093 8.7 40 21:24 22.02.2020
2159 Rain 23 1021 47 16093 8.2 40 20:57 22.02.2020
2160 Rain 23 1021 47 16093 8.2 40 20:38 22.02.2020
2161 Rain 23 1021 47 16093 8.2 40 20:38 22.02.2020
2162 Rain 23 1021 47 16093 8.2 40 20:20 22.02.2020
2163 Rain 23 1022 50 16093 8.2 50 19:42 22.02.2020
2164 Rain 23 1022 50 16093 8.2 50 19:23 22.02.2020
2165 Rain 23 1021 68 16093 6.2 20 18:54 22.02.2020
2166 Rain 23 1021 68 16093 6.2 20 18:36 22.02.2020
2167 Rain 23 1022 50 16093 7.7 60 18:18 22.02.2020
2168 Rain 22 1023 60 16093 5.1 50 17:43 22.02.2020
2169 Rain 21 1023 60 16093 5.1 50 17:25 22.02.2020
2170 Rain 21 1023 63 16093 3.1 350 16:59 22.02.2020
2171 Clouds 20 1023 63 16093 3.1 350 16:40 22.02.2020
2172 Rain 20 1023 63 16093 3.1 350 16:20 22.02.2020
2173 Rain 18 1022 72 16093 11.73 33 15:46 22.02.2020
2174 Rain 17 1022 72 16093 11.73 33 15:27 22.02.2020
2175 Rain 16 1022 77 16093 4.1 340 14:59 22.02.2020
2176 Rain 15 1022 77 16093 4.1 340 14:40 22.02.2020
2177 Rain 15 1022 77 16093 4.1 340 14:40 22.02.2020
2178 Rain 15 1022 77 16093 4.1 340 14:20 22.02.2020
2179 Rain 14 1021 93 4023 3.6 280 13:43 22.02.2020
2180 Rain 14 1021 77 11265 3.6 340 13:20 22.02.2020
2181 Rain 14 1021 93 9656 4.1 290 12:58 22.02.2020
2182 Rain 14 1020 77 16093 4.1 340 12:39 22.02.2020
2183 Rain 14 1020 77 16093 4.1 340 12:20 22.02.2020
2184 Rain 14 1020 72 16093 5.7 340 11:42 22.02.2020
2185 Rain 14 1020 82 16093 5.1 350 11:24 22.02.2020
2186 Rain 14 1019 77 16093 8.2 360 10:42 22.02.2020
2187 Rain 14 1019 77 16093 5.1 340 10:21 22.02.2020
2188 Rain 14 1020 82 16093 6.7 330 10:00 22.02.2020
2189 Rain 14 1020 82 16093 6.7 330 09:41 22.02.2020
2190 Clouds 14 1019 72 16093 6.2 340 09:22 22.02.2020
2191 Clouds 14 1020 72 16093 6.7 330 08:57 22.02.2020
2192 Clouds 14 1020 72 16093 6.7 330 08:29 22.02.2020
2193 Clouds 15 1020 82 16093 6.2 320 07:59 22.02.2020
2194 Clouds 15 1020 87 16093 5.7 340 07:39 22.02.2020
2195 Clouds 15 1020 67 16093 6.7 330 07:18 22.02.2020
2196 Clouds 15 1020 72 16093 6.7 330 06:43 22.02.2020
2197 Clouds 16 1021 72 16093 6.2 330 04:45 22.02.2020
2198 Clouds 16 1021 77 16093 5.7 330 03:52 22.02.2020
2199 Clouds 17 1020 68 16093 5.7 330 02:42 22.02.2020
2200 Clouds 17 1019 68 16093 7.2 340 01:49 22.02.2020
2201 Clouds 18 1019 68 16093 7.2 340 01:29 22.02.2020
2202 Clouds 18 1018 68 16093 6.2 340 00:49 22.02.2020
2203 Clouds 18 1018 68 16093 6.2 340 00:31 22.02.2020
2204 Clouds 19 1018 68 16093 6.2 330 23:53 21.02.2020
2205 Clouds 19 1018 68 16093 6.2 330 23:26 21.02.2020
2206 Clouds 20 1018 64 16093 4.1 350 22:59 21.02.2020
2207 Clouds 20 1018 64 16093 4.1 350 22:41 21.02.2020
2208 Clouds 20 1018 64 16093 4.1 350 22:23 21.02.2020
2209 Clouds 20 1017 72 12874 9.8 360 21:55 21.02.2020
2210 Clouds 20 1017 72 12874 9.8 360 21:37 21.02.2020
2211 Clouds 20 1017 72 12874 9.8 360 21:37 21.02.2020
2212 Clouds 21 1017 73 16093 6.7 350 21:18 21.02.2020
2213 Clouds 21 1017 68 16093 7.2 330 20:41 21.02.2020
2214 Clouds 21 1018 77 16093 7.7 340 20:23 21.02.2020
2215 Clouds 22 1018 73 16093 7.2 320 19:40 21.02.2020
2216 Clouds 22 1018 64 16093 6.2 340 19:20 21.02.2020
2217 Clouds 22 1018 73 16093 8.7 350 18:43 21.02.2020
2218 Rain 21 1019 78 16093 7.2 330 18:23 21.02.2020
2219 Rain 21 1019 88 11265 9.3 330 17:57 21.02.2020
2220 Rain 21 1019 88 11265 9.3 330 17:37 21.02.2020
2221 Rain 23 1019 83 16093 6.7 340 17:19 21.02.2020
2222 Rain 25 1019 73 16093 10.8 330 16:54 21.02.2020
2223 Clouds 26 1019 73 16093 10.8 330 16:36 21.02.2020
2224 Clouds 26 1018 65 16093 3.6 280 16:18 21.02.2020
2225 Clouds 24 1018 73 16093 3.6 290 15:39 21.02.2020
2226 Clouds 23 1018 88 16093 6.2 290 15:19 21.02.2020
2227 Clouds 22 1018 83 16093 2.6 0 14:43 21.02.2020
2228 Clouds 22 1018 94 16093 4.6 300 14:22 21.02.2020
2229 Clouds 22 1017 94 16093 5.1 290 13:59 21.02.2020
2230 Clouds 21 1017 94 16093 5.1 290 13:39 21.02.2020
2231 Clouds 21 1017 94 16093 3.6 300 13:20 21.02.2020
2232 Clouds 21 1016 88 16093 4.1 280 12:45 21.02.2020
2233 Clouds 21 1016 83 16093 2.6 310 12:27 21.02.2020
2234 Clouds 21 1016 88 16093 4.1 300 11:57 21.02.2020
2235 Mist 21 1016 100 8047 2.6 300 11:38 21.02.2020
2236 Clouds 21 1016 88 16093 3.1 290 11:19 21.02.2020
2237 Rain 22 1016 94 16093 3.1 300 10:42 21.02.2020
2238 Rain 22 1016 94 16093 3.1 290 10:22 21.02.2020
2239 Clouds 22 1017 94 16093 3.1 290 09:58 21.02.2020
2240 Clouds 22 1017 94 16093 3.1 290 09:39 21.02.2020
2241 Clear 22 1017 94 16093 3.6 290 09:20 21.02.2020
2242 Rain 22 1017 83 16093 2.1 280 08:56 21.02.2020
2243 Rain 22 1017 83 16093 2.1 280 08:36 21.02.2020
2244 Clear 22 1017 83 16093 2.1 280 08:18 21.02.2020
2245 Clouds 23 1018 94 16093 3.6 290 07:42 21.02.2020
2246 Clouds 23 1018 83 16093 2.6 270 07:21 21.02.2020
2247 Clouds 23 1018 88 16093 2.6 260 06:56 21.02.2020
2248 Clouds 23 1018 88 16093 2.6 260 06:33 21.02.2020
2249 Rain 24 1018 88 16093 2.1 250 05:56 21.02.2020
2250 Rain 24 1018 94 16093 2.6 270 05:30 21.02.2020
2251 Rain 24 1018 83 16093 2.1 230 04:26 21.02.2020
2252 Clouds 24 1018 94 16093 2.1 250 03:47 21.02.2020
2253 Rain 24 1018 94 16093 2.1 220 02:59 21.02.2020
2254 Rain 25 1017 78 11265 3.1 220 01:34 21.02.2020
2255 Rain 26 1017 78 16093 4.1 200 00:54 21.02.2020
2256 Rain 26 1017 65 16093 3.1 170 00:36 21.02.2020
2257 Rain 26 1017 65 16093 3.1 170 00:18 21.02.2020
2258 Rain 26 1016 83 16093 2.1 230 23:41 20.02.2020
2259 Rain 26 1016 65 16093 3.6 170 23:22 20.02.2020
2260 Clouds 27 1016 74 16093 3.1 150 22:40 20.02.2020
2261 Rain 27 1017 69 16093 5.7 160 22:21 20.02.2020
2262 Clouds 28 1017 61 16093 5.7 140 21:57 20.02.2020
2263 Clouds 28 1017 61 16093 5.7 140 21:39 20.02.2020
2264 Clouds 28 1017 61 16093 5.7 140 21:19 20.02.2020
2265 Clouds 29 1017 62 16093 6.2 130 20:56 20.02.2020
2266 Clouds 29 1017 62 16093 6.2 130 20:38 20.02.2020
2267 Clouds 29 1017 62 16093 6.2 130 20:19 20.02.2020
2268 Clouds 29 1017 62 16093 6.2 130 20:19 20.02.2020
2269 Clouds 29 1018 58 16093 5.7 150 19:58 20.02.2020
2270 Clouds 29 1018 58 16093 5.7 150 19:40 20.02.2020
2271 Clouds 29 1018 58 16093 5.7 150 19:22 20.02.2020
2272 Clouds 29 1019 58 16093 6.2 150 18:55 20.02.2020
2273 Clouds 29 1019 58 16093 6.2 150 18:36 20.02.2020
2274 Clouds 29 1019 58 16093 6.2 150 18:18 20.02.2020
2275 Clouds 29 1020 65 16093 4.1 140 17:39 20.02.2020
2276 Clouds 28 1020 65 16093 4.1 140 17:19 20.02.2020
2277 Clouds 28 1020 65 16093 4.6 140 16:56 20.02.2020
2278 Clouds 28 1020 65 16093 4.6 140 16:38 20.02.2020
2279 Clouds 28 1020 65 16093 4.6 140 16:19 20.02.2020
2280 Clouds 27 1020 65 16093 4.1 130 15:43 20.02.2020
2281 Clouds 27 1020 65 16093 4.1 130 15:24 20.02.2020
2282 Clouds 26 1019 74 16093 3.6 110 14:58 20.02.2020
2283 Clouds 26 1019 74 16093 3.6 110 14:40 20.02.2020
2284 Clouds 25 1019 74 16093 3.6 110 14:21 20.02.2020
2285 Clouds 24 1018 88 16093 1.5 100 13:55 20.02.2020
2286 Clouds 23 1018 88 16093 1.5 100 13:37 20.02.2020
2287 Clouds 23 1019 78 16093 2.1 100 13:18 20.02.2020
2288 Clouds 23 1019 78 16093 2.1 100 13:18 20.02.2020
2289 Clouds 23 1019 88 16093 5.51 124 12:42 20.02.2020
2290 Rain 23 1019 94 16093 1.5 10 12:21 20.02.2020
2291 Clouds 23 1018 94 16093 1.5 110 11:58 20.02.2020
2292 Clouds 23 1018 94 16093 1.5 110 11:39 20.02.2020
2293 Clouds 23 1018 78 16093 3.1 100 11:20 20.02.2020
2294 Clouds 23 1019 88 16093 1.5 320 10:56 20.02.2020
2295 Clouds 23 1019 88 16093 1.5 320 10:37 20.02.2020
2296 Clouds 23 1019 88 16093 4.59 115 10:19 20.02.2020
2297 Clouds 23 1019 83 16093 3.1 110 09:39 20.02.2020
2298 Clouds 24 1019 83 16093 3.1 110 09:20 20.02.2020
2299 Clouds 24 1019 88 16093 4.59 115 08:44 20.02.2020
2300 Clouds 24 1020 88 16093 1.5 360 08:24 20.02.2020
2301 Clouds 23 1020 100 16093 5.03 113 07:55 20.02.2020
2302 Clouds 23 1020 100 16093 5.03 113 07:37 20.02.2020
2303 Clouds 23 1021 88 16093 1.5 20 07:19 20.02.2020
2304 Clouds 23 1021 78 16093 2.6 120 06:43 20.02.2020
2305 Clouds 24 1021 83 16093 5.03 113 05:58 20.02.2020
2306 Clouds 24 1021 83 16093 5.03 113 05:34 20.02.2020
2307 Clouds 24 1021 69 16093 3.6 110 04:48 20.02.2020
2308 Clouds 25 1021 65 16093 4.1 110 03:46 20.02.2020
2309 Clouds 25 1021 65 16093 4.1 110 02:47 20.02.2020
2310 Clouds 25 1020 65 16093 3.6 120 01:25 20.02.2020
2311 Clear 26 1020 69 16093 5.1 100 00:46 20.02.2020
2312 Clear 26 1020 69 16093 5.1 100 00:24 20.02.2020
2313 Clouds 27 1020 58 16093 5.1 130 23:46 19.02.2020
2314 Clouds 27 1020 58 16093 5.1 130 23:19 19.02.2020
2315 Clouds 28 1020 58 16093 4.1 120 22:43 19.02.2020
2316 Clouds 28 1020 58 16093 4.1 120 22:25 19.02.2020
2317 Clouds 28 1020 58 16093 4.6 130 21:58 19.02.2020
2318 Clouds 28 1020 58 16093 4.6 130 21:40 19.02.2020
2319 Clouds 28 1020 58 16093 4.6 130 21:19 19.02.2020
2320 Clouds 29 1021 58 16093 4.6 120 20:57 19.02.2020
2321 Clouds 29 1021 58 16093 4.6 120 20:57 19.02.2020
2322 Clouds 29 1021 58 16093 4.6 120 20:38 19.02.2020
2323 Clouds 29 1021 58 16093 4.6 120 20:38 19.02.2020
2324 Clouds 29 1021 58 16093 4.6 120 20:19 19.02.2020
2325 Clouds 29 1021 62 16093 5.7 120 19:57 19.02.2020
2326 Clouds 29 1021 62 16093 5.7 120 19:38 19.02.2020
2327 Clouds 29 1021 62 16093 5.7 120 19:19 19.02.2020
2328 Clouds 29 1022 65 16093 4.1 120 18:58 19.02.2020
2329 Clouds 29 1022 65 16093 4.1 120 18:39 19.02.2020
2330 Clouds 29 1022 65 16093 4.1 120 18:21 19.02.2020
2331 Clouds 28 1023 62 16093 4.1 140 17:55 19.02.2020
2332 Clouds 29 1022 66 16093 4.1 130 17:37 19.02.2020
2333 Clouds 28 1023 69 16093 4.1 110 17:18 19.02.2020
2334 Rain 28 1022 69 16093 4.6 120 16:41 19.02.2020
2335 Rain 27 1023 74 16093 3.1 0 16:18 19.02.2020
2336 Rain 27 1023 69 16093 3.1 120 15:54 19.02.2020
2337 Clouds 27 1023 69 16093 3.1 120 15:36 19.02.2020
2338 Clouds 27 1023 69 16093 4.1 120 15:18 19.02.2020
2339 Clouds 26 1022 74 16093 2.1 120 14:40 19.02.2020
2340 Clouds 25 1022 74 16093 2.1 120 14:22 19.02.2020
2341 Rain 24 1021 88 16093 2.6 130 13:42 19.02.2020
2342 Clear 23 1021 78 16093 5.39 144 13:23 19.02.2020
2343 Clouds 23 1021 83 16093 5.39 144 12:58 19.02.2020
2344 Clouds 23 1021 83 16093 5.39 144 12:37 19.02.2020
2345 Clouds 23 1021 83 16093 5.39 144 12:18 19.02.2020
2346 Clouds 24 1019 88 16093 1.5 110 11:39 19.02.2020
2347 Clouds 24 1020 83 16093 2.6 130 11:20 19.02.2020
2348 Clouds 24 1020 78 16093 3.6 120 10:59 19.02.2020
2349 Clouds 24 1020 78 16093 3.6 120 10:38 19.02.2020
2350 Clouds 24 1020 78 16093 3.6 120 10:20 19.02.2020
2351 Clouds 24 1019 88 16093 3.1 110 09:59 19.02.2020
2352 Clouds 24 1019 88 16093 3.1 110 09:39 19.02.2020
2353 Clouds 24 1019 88 16093 3.1 110 09:39 19.02.2020
2354 Clear 24 1020 88 16093 3.1 130 09:19 19.02.2020
2355 Clouds 25 1020 74 16093 3.6 130 08:48 19.02.2020
2356 Clouds 25 1020 74 16093 3.6 130 08:24 19.02.2020
2357 Clouds 25 1020 74 16093 4.6 120 07:54 19.02.2020
2358 Clouds 25 1020 74 16093 4.6 120 07:36 19.02.2020
2359 Clouds 25 1020 74 16093 4.6 120 07:18 19.02.2020
2360 Clouds 25 1020 83 16093 5.1 120 06:36 19.02.2020
2361 Clouds 25 1020 83 16093 5.1 120 05:26 19.02.2020
2362 Clouds 25 1020 78 16093 5.7 120 03:52 19.02.2020
2363 Clouds 25 1020 74 16093 6.2 110 02:35 19.02.2020
2364 Clouds 25 1020 74 16093 5.1 100 01:41 19.02.2020
2365 Clouds 25 1020 74 16093 5.1 100 01:22 19.02.2020
2366 Clouds 25 1020 74 16093 4.6 110 00:39 19.02.2020
2367 Clouds 26 1020 78 16093 5.7 110 00:19 19.02.2020
2368 Rain 26 1020 78 16093 7.2 110 23:39 18.02.2020
2369 Clouds 27 1020 65 16093 5.1 110 23:19 18.02.2020
2370 Clouds 27 1020 65 16093 5.1 110 23:19 18.02.2020
2371 Clouds 27 1020 74 16093 6.7 100 22:55 18.02.2020
2372 Clouds 27 1020 74 16093 6.7 110 22:36 18.02.2020
2373 Clouds 27 1020 74 16093 6.7 110 22:18 18.02.2020
2374 Clouds 28 1020 74 16093 7.2 110 21:54 18.02.2020
2375 Clouds 28 1020 58 16093 6.7 120 21:36 18.02.2020
2376 Clouds 28 1020 74 16093 7.2 110 21:36 18.02.2020
2377 Clouds 28 1020 58 16093 6.7 120 21:18 18.02.2020
2378 Clouds 28 1020 65 16093 6.2 100 20:40 18.02.2020
2379 Clouds 28 1020 65 16093 6.7 120 20:22 18.02.2020
2380 Clouds 28 1021 66 16093 6.2 100 19:59 18.02.2020
2381 Clouds 28 1021 66 16093 6.2 100 19:41 18.02.2020
2382 Clouds 28 1021 66 16093 6.2 100 19:19 18.02.2020
2383 Clouds 28 1022 65 16093 6.2 110 18:56 18.02.2020
2384 Clouds 28 1022 65 16093 6.2 110 18:38 18.02.2020
2385 Clouds 28 1022 65 16093 6.2 110 18:18 18.02.2020
2386 Clouds 28 1022 69 16093 5.7 110 17:40 18.02.2020
2387 Clouds 28 1022 65 16093 7.7 130 17:19 18.02.2020
2388 Clouds 28 1022 58 16093 6.7 100 16:40 18.02.2020
2389 Clouds 27 1022 61 16093 7.2 100 16:22 18.02.2020
2390 Clouds 27 1022 61 16093 7.2 120 15:56 18.02.2020
2391 Clouds 27 1022 61 16093 7.2 120 15:56 18.02.2020
2392 Clouds 27 1022 61 16093 7.2 120 15:37 18.02.2020
2393 Clouds 26 1021 61 16093 6.2 110 15:18 18.02.2020
2394 Clouds 26 1021 69 16093 5.1 110 14:55 18.02.2020
2395 Clouds 26 1021 69 16093 5.1 110 14:55 18.02.2020
2396 Clouds 25 1021 69 16093 5.1 110 14:37 18.02.2020
2397 Clouds 25 1021 69 16093 5.1 110 14:19 18.02.2020
2398 Clouds 24 1020 78 16093 4.6 90 13:41 18.02.2020
2399 Clear 23 1020 73 16093 4.6 100 13:21 18.02.2020
2400 Clouds 23 1020 73 16093 4.1 110 12:54 18.02.2020
2401 Clouds 23 1020 73 16093 4.1 110 12:54 18.02.2020
2402 Clouds 23 1020 73 16093 4.1 110 12:36 18.02.2020
2403 Clouds 23 1020 73 16093 4.1 110 12:18 18.02.2020
2404 Clear 23 1019 73 16093 4.1 100 11:42 18.02.2020
2405 Clear 23 1019 73 16093 4.1 100 11:24 18.02.2020
2406 Clouds 23 1019 73 16093 4.1 90 10:55 18.02.2020
2407 Clouds 23 1019 73 16093 4.1 90 10:36 18.02.2020
2408 Clouds 23 1019 73 16093 4.1 90 10:18 18.02.2020
2409 Clouds 23 1019 73 16093 3.6 100 09:55 18.02.2020
2410 Clouds 23 1019 73 16093 3.6 100 09:36 18.02.2020
2411 Clouds 23 1019 73 16093 3.6 100 09:18 18.02.2020
2412 Clouds 23 1020 73 16093 3.1 90 08:41 18.02.2020
2413 Clouds 23 1020 73 16093 3.1 90 08:20 18.02.2020
2414 Clouds 23 1019 83 16093 3.1 80 07:55 18.02.2020
2415 Clouds 23 1020 78 16093 2.1 90 07:30 18.02.2020
2416 Clouds 23 1019 88 16093 2.1 90 06:56 18.02.2020
2417 Clouds 23 1019 88 16093 2.1 90 06:36 18.02.2020
2418 Clouds 23 1020 73 16093 2.1 100 05:56 18.02.2020
2419 Clouds 23 1020 73 16093 2.1 100 05:27 18.02.2020
2420 Clouds 24 1020 73 16093 2.1 120 03:58 18.02.2020
2421 Clouds 24 1019 73 16093 2.1 120 02:59 18.02.2020
2422 Clouds 25 1019 69 16093 3.1 120 01:58 18.02.2020
2423 Clear 25 1018 74 16093 4.6 130 00:46 18.02.2020
2424 Clear 26 1018 74 16093 4.6 130 00:22 18.02.2020
2425 Clouds 26 1018 61 16093 5.1 120 23:45 17.02.2020
2426 Clouds 27 1018 61 16093 5.1 120 23:26 17.02.2020
2427 Clouds 27 1018 58 16093 5.1 120 22:59 17.02.2020
2428 Clouds 27 1018 58 16093 5.1 120 22:41 17.02.2020
2429 Clouds 27 1018 58 16093 5.1 120 22:20 17.02.2020
2430 Clouds 28 1018 58 16093 6.2 110 21:56 17.02.2020
2431 Clouds 28 1018 58 16093 6.2 110 21:37 17.02.2020
2432 Clouds 28 1018 58 16093 6.2 110 21:18 17.02.2020
2433 Clouds 28 1017 62 16093 4.1 120 20:40 17.02.2020
2434 Clouds 28 1018 54 16093 5.1 130 20:21 17.02.2020
2435 Clouds 28 1018 54 16093 5.1 130 20:21 17.02.2020
2436 Clouds 28 1018 58 16093 3.6 100 19:57 17.02.2020
2437 Clouds 28 1018 58 16093 3.6 100 19:38 17.02.2020
2438 Clouds 28 1018 58 16093 3.6 100 19:19 17.02.2020
2439 Clouds 29 1019 54 16093 4.6 150 18:37 17.02.2020
2440 Clouds 29 1019 54 16093 4.6 150 18:37 17.02.2020
2441 Clouds 28 1019 54 16093 4.6 150 18:19 17.02.2020
2442 Clouds 28 1019 54 16093 4.6 150 18:19 17.02.2020
2443 Clouds 28 1019 58 16093 3.1 140 17:57 17.02.2020
2444 Clouds 28 1019 58 16093 3.1 140 17:37 17.02.2020
2445 Clouds 28 1019 58 16093 3.1 140 17:19 17.02.2020
2446 Clouds 27 1019 61 16093 1.5 90 16:55 17.02.2020
2447 Clouds 27 1019 61 16093 1.5 90 16:36 17.02.2020
2448 Clouds 27 1019 61 16093 1.5 90 16:18 17.02.2020
2449 Clouds 26 1019 65 16093 1.5 30 15:44 17.02.2020
2450 Clouds 25 1019 65 16093 1.5 30 15:26 17.02.2020
2451 Clouds 23 1018 78 16093 0.69 110 14:47 17.02.2020
2452 Clouds 22 1018 78 16093 0.69 110 14:29 17.02.2020
2453 Clear 21 1017 83 16093 1.5 170 13:59 17.02.2020
2454 Clear 20 1017 83 16093 1.5 170 13:40 17.02.2020
2455 Clear 20 1017 83 16093 1.5 170 13:40 17.02.2020
2456 Clear 20 1017 83 16093 1.5 170 13:20 17.02.2020
2457 Clear 19 1017 83 16093 1.97 184 12:56 17.02.2020
2458 Clear 20 1017 83 16093 1.97 184 12:38 17.02.2020
2459 Clear 20 1017 83 16093 1.97 184 12:19 17.02.2020
2460 Clouds 20 1017 83 16093 1.97 184 11:45 17.02.2020
2461 Clouds 20 1017 83 16093 1.97 184 11:25 17.02.2020
2462 Clouds 19 1017 83 16093 1.72 206 10:57 17.02.2020
2463 Clouds 20 1017 83 16093 1.72 206 10:39 17.02.2020
2464 Clouds 20 1017 83 16093 1.72 206 10:20 17.02.2020
2465 Clouds 20 1017 83 16093 1.72 206 09:56 17.02.2020
2466 Clouds 20 1017 83 16093 1.72 206 09:38 17.02.2020
2467 Clouds 20 1017 83 16093 1.72 206 09:18 17.02.2020
2468 Clouds 20 1018 83 16093 1.72 206 08:42 17.02.2020
2469 Clouds 20 1018 83 16093 1.72 206 08:23 17.02.2020
2470 Clear 20 1018 88 16093 1.86 204 07:57 17.02.2020
2471 Clear 20 1018 88 16093 1.86 204 07:28 17.02.2020
2472 Clouds 21 1018 88 16093 1.86 204 06:58 17.02.2020
2473 Clouds 21 1018 88 16093 1.86 204 06:39 17.02.2020
2474 Clouds 21 1018 88 16093 1.86 204 06:19 17.02.2020
2475 Clouds 22 1019 73 16093 1.86 204 05:40 17.02.2020
2476 Clouds 22 1019 69 16093 3.48 190 04:23 17.02.2020
2477 Clouds 23 1018 69 16093 2.1 140 02:44 17.02.2020
2478 Clear 24 1017 73 16093 2.1 140 00:59 17.02.2020
2479 Clouds 25 1017 57 16093 3.6 140 00:37 17.02.2020
2480 Clouds 25 1017 57 16093 3.6 140 00:18 17.02.2020
2481 Clouds 26 1017 54 16093 4.1 160 23:41 16.02.2020
2482 Clouds 26 1017 54 16093 4.1 160 23:22 16.02.2020
2483 Rain 27 1017 61 16093 6.2 110 22:55 16.02.2020
2484 Rain 27 1017 61 16093 6.2 110 22:37 16.02.2020
2485 Rain 27 1017 61 16093 6.2 110 22:18 16.02.2020
2486 Rain 26 1017 69 16093 6.2 130 21:43 16.02.2020
2487 Clouds 26 1017 58 16093 5.7 120 21:24 16.02.2020
2488 Clouds 26 1017 61 16093 5.1 140 20:59 16.02.2020
2489 Clouds 26 1017 61 16093 5.1 140 20:40 16.02.2020
2490 Rain 26 1018 74 16093 5.7 110 20:22 16.02.2020
2491 Rain 26 1018 88 4023 4.1 120 19:59 16.02.2020
2492 Rain 26 1018 74 16093 5.1 110 19:40 16.02.2020
2493 Rain 26 1019 65 16093 4.6 100 19:19 16.02.2020
2494 Rain 26 1019 69 16093 6.7 100 18:59 16.02.2020
2495 Rain 26 1019 69 16093 6.7 100 18:40 16.02.2020
2496 Rain 26 1019 78 14484 4.6 130 18:22 16.02.2020
2497 Rain 25 1020 83 16093 2.1 220 17:44 16.02.2020
2498 Rain 25 1020 88 16093 5.7 130 17:20 16.02.2020
2499 Rain 25 1020 94 16093 2.1 160 16:57 16.02.2020
2500 Rain 25 1020 94 4828 1.5 160 16:39 16.02.2020
2501 Rain 24 1020 94 4828 1.5 160 16:21 16.02.2020
2502 Rain 24 1020 83 16093 5.7 100 15:56 16.02.2020
2503 Rain 24 1020 94 1609 4.1 170 15:37 16.02.2020
2504 Rain 24 1020 83 12874 6.2 100 15:18 16.02.2020
2505 Rain 23 1020 83 16093 5.1 80 14:39 16.02.2020
2506 Rain 23 1020 88 16093 5.1 90 14:21 16.02.2020
2507 Rain 23 1020 94 9656 4.6 90 13:45 16.02.2020
2508 Rain 22 1020 83 16093 4.1 90 13:24 16.02.2020
2509 Rain 22 1020 94 16093 6.7 100 12:55 16.02.2020
2510 Rain 22 1020 94 16093 6.7 100 12:36 16.02.2020
2511 Rain 22 1020 88 16093 3.6 100 12:18 16.02.2020
2512 Rain 22 1019 83 16093 4.6 100 11:39 16.02.2020
2513 Rain 22 1020 94 16093 3.1 60 11:18 16.02.2020
2514 Rain 22 1020 94 16093 3.1 60 11:18 16.02.2020
2515 Rain 22 1020 83 4828 4.6 80 10:56 16.02.2020
2516 Rain 22 1020 83 4828 4.6 80 10:38 16.02.2020
2517 Rain 22 1020 94 16093 4.6 90 10:19 16.02.2020
2518 Rain 22 1020 94 12874 4.1 90 09:55 16.02.2020
2519 Rain 22 1020 88 16093 4.6 60 09:36 16.02.2020
2520 Rain 22 1021 94 16093 4.1 50 09:18 16.02.2020
2521 Rain 22 1020 94 16093 4.1 60 08:45 16.02.2020
2522 Rain 22 1020 88 8047 3.6 50 08:21 16.02.2020
2523 Rain 22 1021 88 11265 5.7 70 07:54 16.02.2020
2524 Rain 22 1021 88 11265 5.7 70 07:34 16.02.2020
2525 Rain 23 1021 100 16093 4.1 50 06:33 16.02.2020
2526 Rain 22 1022 88 16093 5.7 60 04:45 16.02.2020
2527 Rain 22 1022 78 14484 5.7 70 03:33 16.02.2020
2528 Rain 22 1021 88 16093 5.7 60 02:32 16.02.2020
2529 Rain 22 1021 94 8047 6.2 70 01:44 16.02.2020
2530 Rain 22 1021 83 16093 4.1 40 01:26 16.02.2020
2531 Rain 22 1021 88 16093 6.7 60 00:58 16.02.2020
2532 Rain 22 1021 88 11265 5.1 30 00:34 16.02.2020
2533 Rain 22 1021 94 4828 3.6 10 23:58 15.02.2020
2534 Rain 23 1021 94 4828 3.6 10 23:40 15.02.2020
2535 Rain 23 1021 94 4023 5.7 50 23:22 15.02.2020
2536 Rain 23 1021 94 4828 6.2 60 22:56 15.02.2020
2537 Rain 23 1021 88 9656 4.6 50 22:37 15.02.2020
2538 Rain 23 1021 94 2012 2.6 20 22:18 15.02.2020
2539 Rain 23 1021 88 6437 1.5 0 21:42 15.02.2020
2540 Rain 23 1021 88 3219 4.1 90 21:23 15.02.2020
2541 Rain 24 1021 83 16093 3.1 60 20:42 15.02.2020
2542 Rain 23 1021 94 3219 2.6 110 20:21 15.02.2020
2543 Rain 23 1021 94 3219 2.6 110 20:21 15.02.2020
2544 Rain 23 1021 94 3219 2.6 110 20:21 15.02.2020
2545 Rain 24 1021 83 4828 5.1 60 19:57 15.02.2020
2546 Rain 24 1021 83 4828 5.1 60 19:39 15.02.2020
2547 Rain 24 1022 88 3219 5.1 20 19:20 15.02.2020
2548 Rain 25 1023 88 6437 5.1 20 18:40 15.02.2020
2549 Rain 25 1022 58 16093 4.6 50 18:20 15.02.2020
2550 Rain 25 1023 65 16093 6.7 50 17:44 15.02.2020
2551 Rain 25 1023 61 16093 3.6 360 17:24 15.02.2020
2552 Rain 25 1023 83 16093 3.1 10 16:59 15.02.2020
2553 Rain 25 1023 83 16093 3.1 10 16:39 15.02.2020
2554 Clouds 24 1023 69 16093 3.6 340 16:20 15.02.2020
2555 Rain 23 1022 83 16093 3.1 340 15:49 15.02.2020
2556 Clouds 22 1023 83 16093 3.6 330 15:30 15.02.2020
2557 Clouds 21 1023 83 16093 4.1 350 14:46 15.02.2020
2558 Clouds 21 1022 78 16093 2.6 10 14:24 15.02.2020
2559 Clouds 20 1023 83 16093 5.1 350 13:58 15.02.2020
2560 Clouds 20 1023 83 16093 5.1 350 13:39 15.02.2020
2561 Clouds 20 1022 83 16093 3.1 360 13:21 15.02.2020
2562 Clouds 20 1022 83 16093 3.1 340 12:44 15.02.2020
2563 Clouds 20 1022 83 16093 3.1 0 12:26 15.02.2020
2564 Clouds 20 1020 88 16093 4.1 360 11:56 15.02.2020
2565 Clouds 21 1020 88 16093 4.1 360 11:36 15.02.2020
2566 Clouds 21 1021 78 16093 2.6 10 11:18 15.02.2020
2567 Clouds 21 1021 88 16093 4.6 360 10:40 15.02.2020
2568 Clouds 21 1021 100 12874 3.6 360 10:21 15.02.2020
2569 Clouds 21 1021 83 16093 3.6 40 09:44 15.02.2020
2570 Clouds 21 1021 83 16093 3.6 30 09:25 15.02.2020
2571 Clouds 21 1021 88 16093 4.6 20 08:59 15.02.2020
2572 Clouds 22 1021 83 16093 3.6 360 08:39 15.02.2020
2573 Mist 22 1021 100 9656 7.37 13 08:20 15.02.2020
2574 Clouds 22 1022 88 16093 5.1 10 07:41 15.02.2020
2575 Clouds 22 1021 78 16093 7.37 13 07:22 15.02.2020
2576 Rain 22 1021 83 16093 1.5 330 06:38 15.02.2020
2577 Rain 22 1021 83 16093 1.5 330 06:20 15.02.2020
2578 Rain 23 1022 73 16093 2.1 320 04:51 15.02.2020
2579 Rain 23 1022 73 16093 2.1 320 04:26 15.02.2020
2580 Rain 23 1020 83 16093 2.1 180 02:59 15.02.2020
2581 Rain 23 1021 73 16093 3.6 210 02:28 15.02.2020
2582 Clouds 24 1020 78 16093 4.6 220 01:59 15.02.2020
2583 Clouds 24 1020 78 16093 4.6 220 01:36 15.02.2020
2584 Rain 25 1020 69 16093 5.1 210 00:30 15.02.2020
2585 Rain 26 1019 65 16093 3.6 230 23:57 14.02.2020
2586 Rain 26 1019 65 16093 3.6 230 23:36 14.02.2020
2587 Rain 27 1019 65 16093 3.6 230 23:18 14.02.2020
2588 Clouds 28 1018 54 16093 4.1 130 22:42 14.02.2020
2589 Clouds 28 1018 54 16093 4.1 130 22:22 14.02.2020
2590 Rain 28 1018 58 16093 3.1 140 21:49 14.02.2020
2591 Rain 29 1019 51 16093 2.6 140 21:31 14.02.2020
2592 Rain 29 1019 58 12874 2.1 200 20:48 14.02.2020
2593 Rain 30 1019 58 12874 2.1 200 20:21 14.02.2020
2594 Clouds 30 1020 48 16093 4.1 130 19:59 14.02.2020
2595 Clouds 30 1020 48 16093 4.1 130 19:41 14.02.2020
2596 Clouds 30 1020 48 16093 4.1 130 19:41 14.02.2020
2597 Clouds 29 1020 48 16093 4.1 130 19:23 14.02.2020
2598 Clouds 29 1021 54 16093 4.1 180 18:57 14.02.2020
2599 Clouds 29 1021 54 16093 4.1 180 18:39 14.02.2020
2600 Clouds 29 1021 54 16093 4.1 180 18:20 14.02.2020
2601 Clouds 29 1021 54 16093 4.1 150 17:44 14.02.2020
2602 Clouds 29 1021 54 16093 4.1 150 17:22 14.02.2020
2603 Clouds 28 1021 65 16093 3.6 160 16:59 14.02.2020
2604 Clouds 28 1021 65 16093 3.6 160 16:40 14.02.2020
2605 Clouds 28 1021 65 16093 3.6 160 16:22 14.02.2020
2606 Clouds 27 1021 74 16093 4.1 160 15:56 14.02.2020
2607 Clouds 27 1021 74 16093 4.1 160 15:38 14.02.2020
2608 Clouds 26 1021 74 16093 4.1 160 15:19 14.02.2020
2609 Clouds 25 1020 83 16093 2.1 0 14:58 14.02.2020
2610 Rain 24 1020 83 16093 2.1 0 14:40 14.02.2020
2611 Rain 23 1020 83 16093 2.1 0 14:21 14.02.2020
2612 Rain 22 1020 88 16093 4.79 185 13:54 14.02.2020
2613 Clouds 22 1020 88 16093 4.79 185 13:36 14.02.2020
2614 Clouds 21 1020 88 16093 5.89 168 13:18 14.02.2020
2615 Mist 21 1020 94 4023 5.89 168 12:56 14.02.2020
2616 Mist 21 1020 94 4023 5.89 168 12:37 14.02.2020
2617 Clouds 21 1020 100 11265 5.89 168 12:18 14.02.2020
2618 Mist 22 1020 100 1207 5.89 168 11:41 14.02.2020
2619 Mist 22 1019 100 4023 6.03 169 11:21 14.02.2020
2620 Fog 22 1019 100 805 6.03 169 10:57 14.02.2020
2621 Fog 22 1019 100 805 6.03 169 10:38 14.02.2020
2622 Clear 22 1019 83 11265 6.03 169 10:20 14.02.2020
2623 Mist 22 1019 94 2816 6.03 169 09:44 14.02.2020
2624 Clear 22 1019 83 11265 2.1 150 09:22 14.02.2020
2625 Clear 23 1019 83 12874 1.5 130 08:56 14.02.2020
2626 Clear 23 1019 83 12874 1.5 130 08:37 14.02.2020
2627 Clear 23 1019 83 12874 1.5 130 08:18 14.02.2020
2628 Clear 23 1019 83 14484 5.68 177 07:44 14.02.2020
2629 Clear 23 1019 83 14484 5.68 177 07:24 14.02.2020
2630 Clear 23 1020 83 14484 2.1 150 06:32 14.02.2020
2631 Clouds 24 1020 83 16093 1.5 190 05:59 14.02.2020
2632 Clear 24 1020 83 14484 2.6 160 05:27 14.02.2020
2633 Clouds 25 1019 78 14484 2.1 160 03:31 14.02.2020
2634 Clouds 25 1019 74 16093 3.1 170 02:52 14.02.2020
2635 Clear 25 1018 83 9656 3.1 170 01:54 14.02.2020
2636 Clouds 26 1017 69 16093 5.1 160 00:44 14.02.2020
2637 Clouds 26 1017 69 16093 5.1 160 00:25 14.02.2020
2638 Clouds 27 1017 65 16093 6.7 150 23:52 13.02.2020
2639 Clouds 27 1017 65 16093 6.7 150 23:25 13.02.2020
2640 Clouds 28 1017 62 16093 5.1 180 22:59 13.02.2020
2641 Clouds 28 1017 62 16093 5.1 180 22:38 13.02.2020
2642 Clouds 29 1017 62 16093 5.1 180 22:19 13.02.2020
2643 Clouds 29 1017 62 16093 7.7 150 21:43 13.02.2020
2644 Clouds 29 1017 62 16093 7.7 150 21:24 13.02.2020
2645 Clouds 29 1017 66 16093 6.2 140 20:58 13.02.2020
2646 Clouds 29 1017 66 16093 6.2 140 20:40 13.02.2020
2647 Clouds 29 1018 62 16093 7.2 150 20:22 13.02.2020
2648 Clouds 29 1018 62 16093 5.7 140 19:57 13.02.2020
2649 Clouds 29 1018 62 16093 5.7 140 19:37 13.02.2020
2650 Clouds 29 1018 62 16093 5.7 140 19:19 13.02.2020
2651 Clouds 29 1018 66 16093 5.7 180 18:55 13.02.2020
2652 Clouds 29 1018 66 16093 5.7 180 18:37 13.02.2020
2653 Clouds 29 1019 62 16093 5.7 160 18:19 13.02.2020
2654 Clouds 28 1019 65 16093 6.7 160 17:41 13.02.2020
2655 Clouds 28 1020 74 16093 5.7 180 17:22 13.02.2020
2656 Clouds 27 1020 65 16093 4.6 150 16:59 13.02.2020
2657 Clouds 28 1020 65 16093 4.6 150 16:40 13.02.2020
2658 Clouds 27 1020 65 16093 7.7 150 16:20 13.02.2020
2659 Clouds 27 1020 69 16093 6.7 160 15:56 13.02.2020
2660 Clouds 27 1020 69 16093 6.7 160 15:38 13.02.2020
2661 Clouds 27 1019 69 16093 9.3 160 15:19 13.02.2020
2662 Clouds 26 1018 78 16093 4.6 130 14:58 13.02.2020
2663 Clouds 26 1018 78 16093 4.6 130 14:39 13.02.2020
2664 Clouds 25 1019 74 16093 6.2 130 14:21 13.02.2020
2665 Clouds 24 1018 88 14484 10.11 152 13:48 13.02.2020
2666 Clouds 24 1018 88 16093 10.12 150 13:19 13.02.2020
2667 Clouds 24 1018 88 16093 2.6 140 12:56 13.02.2020
2668 Clouds 24 1018 88 16093 2.6 140 12:38 13.02.2020
2669 Clouds 24 1017 73 16093 5.7 120 12:19 13.02.2020
2670 Clouds 24 1017 73 16093 4.6 140 11:47 13.02.2020
2671 Clouds 24 1017 73 16093 4.6 140 11:20 13.02.2020
2672 Clouds 24 1017 78 14484 5.7 150 10:56 13.02.2020
2673 Clouds 24 1017 73 16093 4.6 130 10:38 13.02.2020
2674 Clouds 24 1017 73 16093 4.6 130 10:38 13.02.2020
2675 Clouds 24 1017 73 16093 4.6 130 10:20 13.02.2020
2676 Clouds 24 1018 78 16093 5.1 140 09:41 13.02.2020
2677 Clouds 24 1018 73 16093 4.1 130 09:22 13.02.2020
2678 Clouds 24 1018 78 16093 4.6 120 08:44 13.02.2020
2679 Clouds 24 1018 78 16093 4.6 120 08:19 13.02.2020
2680 Clouds 24 1018 88 16093 5.7 130 07:42 13.02.2020
2681 Clouds 24 1018 78 16093 5.1 120 07:22 13.02.2020
2682 Clouds 24 1019 78 16093 4.1 120 06:52 13.02.2020
2683 Clouds 24 1019 78 16093 4.1 120 06:33 13.02.2020
2684 Clouds 24 1019 83 16093 3.1 150 05:43 13.02.2020
2685 Clouds 24 1020 78 16093 3.6 120 04:39 13.02.2020
2686 Clouds 24 1020 78 16093 3.6 120 04:18 13.02.2020
2687 Clouds 24 1020 78 16093 2.6 130 03:29 13.02.2020
2688 Clouds 24 1020 88 16093 4.1 140 02:55 13.02.2020
2689 Clouds 25 1019 88 16093 2.6 120 02:20 13.02.2020
2690 Clouds 25 1019 88 16093 2.6 120 02:20 13.02.2020
2691 Clouds 25 1019 83 16093 2.6 120 01:40 13.02.2020
2692 Clouds 25 1019 83 16093 2.6 120 01:40 13.02.2020
2693 Clouds 25 1018 83 16093 3.1 120 00:45 13.02.2020
2694 Clouds 26 1019 74 16093 6.2 140 00:26 13.02.2020
2695 Clouds 26 1018 69 16093 7.2 120 23:42 12.02.2020
2696 Clouds 26 1018 69 16093 7.2 120 23:23 12.02.2020
2697 Clouds 26 1018 69 16093 7.2 120 23:23 12.02.2020
2698 Clouds 27 1019 65 16093 5.1 160 22:57 12.02.2020
2699 Clouds 27 1019 65 16093 5.1 160 22:39 12.02.2020
2700 Clouds 27 1018 65 16093 6.2 130 22:21 12.02.2020
2701 Drizzle 27 1018 74 16093 6.7 120 21:55 12.02.2020
2702 Drizzle 28 1018 74 16093 6.7 120 21:36 12.02.2020
2703 Clouds 28 1018 61 16093 7.2 120 21:18 12.02.2020
2704 Clouds 28 1019 65 16093 6.2 140 20:42 12.02.2020
2705 Clouds 28 1019 65 16093 7.2 120 20:24 12.02.2020
2706 Clouds 28 1019 65 16093 8.7 140 19:57 12.02.2020
2707 Clouds 28 1019 62 16093 7.7 110 19:38 12.02.2020
2708 Clouds 29 1019 62 16093 8.7 120 19:20 12.02.2020
2709 Clouds 28 1020 61 16093 8.2 130 18:49 12.02.2020
2710 Clouds 28 1020 61 16093 7.2 130 18:20 12.02.2020
2711 Clouds 28 1021 65 16093 6.2 140 17:58 12.02.2020
2712 Clouds 28 1021 65 16093 8.2 110 17:39 12.02.2020
2713 Clouds 28 1021 65 16093 8.2 110 17:19 12.02.2020
2714 Clouds 28 1021 74 16093 7.2 120 16:56 12.02.2020
2715 Clouds 27 1021 74 16093 6.2 120 16:36 12.02.2020
2716 Clouds 27 1021 65 16093 6.2 120 16:18 12.02.2020
2717 Clouds 27 1021 65 16093 6.2 120 16:18 12.02.2020
2718 Clouds 26 1021 69 16093 6.7 120 15:38 12.02.2020
2719 Clouds 26 1020 74 16093 4.6 130 15:19 12.02.2020
2720 Clouds 25 1020 78 16093 3.1 120 14:43 12.02.2020
2721 Clouds 25 1020 78 16093 3.1 120 14:21 12.02.2020
2722 Clouds 24 1020 94 16093 3.1 110 13:59 12.02.2020
2723 Clouds 23 1020 94 16093 3.1 110 13:40 12.02.2020
2724 Clouds 23 1019 83 16093 2.1 120 13:22 12.02.2020
2725 Clouds 23 1019 83 16093 4.6 130 12:58 12.02.2020
2726 Clouds 23 1019 83 16093 3.1 120 12:39 12.02.2020
2727 Clouds 23 1019 83 16093 2.6 120 12:19 12.02.2020
2728 Mist 23 1019 100 6437 1.5 130 11:59 12.02.2020
2729 Mist 23 1019 100 6437 1.5 130 11:40 12.02.2020
2730 Rain 23 1019 88 16093 2.1 120 11:21 12.02.2020
2731 Mist 23 1019 100 1207 4.43 145 10:58 12.02.2020
2732 Mist 23 1019 100 1207 4.43 145 10:39 12.02.2020
2733 Clouds 23 1019 100 16093 4.43 145 10:20 12.02.2020
2734 Mist 23 1019 100 2816 4.43 145 09:42 12.02.2020
2735 Mist 23 1019 100 2816 4.43 145 09:42 12.02.2020
2736 Clouds 23 1019 88 16093 4.43 145 09:24 12.02.2020
2737 Clouds 23 1019 88 16093 4.43 145 09:24 12.02.2020
2738 Clouds 23 1019 94 12874 4.43 145 08:59 12.02.2020
2739 Clouds 23 1019 94 12874 4.43 145 08:39 12.02.2020
2740 Clouds 23 1019 83 16093 2.6 100 08:20 12.02.2020
2741 Clouds 23 1019 83 16093 2.6 100 08:20 12.02.2020
2742 Clouds 23 1020 88 16093 2.1 80 07:59 12.02.2020
2743 Clouds 23 1020 88 16093 2.1 80 07:41 12.02.2020
2744 Clouds 23 1020 88 16093 3.1 100 07:19 12.02.2020
2745 Clouds 23 1020 88 16093 2.6 100 06:43 12.02.2020
2746 Clouds 24 1020 88 16093 2.6 100 06:19 12.02.2020
2747 Clouds 24 1021 88 16093 3.1 110 05:30 12.02.2020
2748 Clouds 24 1020 94 16093 2.1 90 04:42 12.02.2020
2749 Clouds 24 1020 78 16093 3.1 110 03:58 12.02.2020
2750 Clouds 24 1020 78 16093 3.1 110 03:29 12.02.2020
2751 Clouds 24 1020 83 16093 3.1 120 02:44 12.02.2020
2752 Clouds 24 1020 83 16093 3.1 120 02:25 12.02.2020
2753 Clouds 25 1020 78 16093 3.6 130 01:30 12.02.2020
2754 Clouds 25 1020 74 16093 5.1 140 00:41 12.02.2020
2755 Clouds 26 1020 74 16093 5.1 140 00:22 12.02.2020
2756 Clouds 26 1020 74 16093 5.1 140 23:47 11.02.2020
2757 Clouds 26 1019 69 16093 5.7 130 23:29 11.02.2020
2758 Clouds 27 1019 69 16093 5.7 120 22:58 11.02.2020
2759 Clouds 27 1019 69 16093 5.7 120 22:39 11.02.2020
2760 Clouds 27 1019 69 16093 5.7 140 22:20 11.02.2020
2761 Clouds 28 1019 69 16093 7.2 150 21:57 11.02.2020
2762 Clouds 28 1019 74 16093 6.2 150 21:38 11.02.2020
2763 Clouds 28 1019 69 16093 6.2 140 21:18 11.02.2020
2764 Clouds 28 1019 74 16093 7.7 130 20:58 11.02.2020
2765 Clouds 28 1019 74 16093 7.7 130 20:38 11.02.2020
2766 Clouds 28 1020 62 16093 6.2 110 20:19 11.02.2020
2767 Clouds 28 1020 69 16093 5.1 150 19:56 11.02.2020
2768 Clouds 28 1020 69 16093 5.1 150 19:38 11.02.2020
2769 Clouds 28 1021 65 16093 5.1 140 19:20 11.02.2020
2770 Clouds 28 1022 62 16093 5.7 120 18:44 11.02.2020
2771 Clouds 28 1022 62 16093 5.7 120 18:26 11.02.2020
2772 Clouds 27 1022 69 16093 6.7 130 17:57 11.02.2020
2773 Clouds 27 1022 74 16093 6.7 140 17:38 11.02.2020
2774 Clouds 27 1022 74 16093 6.7 140 17:19 11.02.2020
2775 Clouds 27 1022 69 16093 6.2 120 16:58 11.02.2020
2776 Clouds 27 1022 69 16093 6.2 120 16:38 11.02.2020
2777 Clouds 27 1022 69 16093 6.2 120 16:20 11.02.2020
2778 Clouds 27 1022 74 16093 4.6 130 15:57 11.02.2020
2779 Clouds 26 1022 74 16093 4.6 130 15:38 11.02.2020
2780 Clouds 26 1022 78 16093 6.7 120 15:18 11.02.2020
2781 Clouds 25 1021 83 16093 3.6 100 14:41 11.02.2020
2782 Clouds 25 1021 83 16093 3.1 110 14:19 11.02.2020
2783 Clouds 24 1020 83 16093 2.6 90 13:55 11.02.2020
2784 Clouds 24 1020 83 16093 2.6 90 13:37 11.02.2020
2785 Clouds 24 1021 83 16093 3.1 120 13:18 11.02.2020
2786 Clouds 23 1021 94 16093 3.1 120 12:41 11.02.2020
2787 Rain 23 1021 88 16093 2.6 100 12:22 11.02.2020
2788 Clouds 23 1020 83 16093 4.6 130 11:58 11.02.2020
2789 Clouds 23 1020 83 16093 4.6 110 11:40 11.02.2020
2790 Clouds 23 1020 83 16093 4.6 110 11:19 11.02.2020
2791 Clouds 23 1020 83 16093 4.1 120 10:40 11.02.2020
2792 Clouds 23 1020 78 16093 4.6 110 10:21 11.02.2020
2793 Clouds 23 1020 78 16093 3.6 120 09:58 11.02.2020
2794 Clouds 23 1020 78 16093 3.6 120 09:40 11.02.2020
2795 Clouds 23 1020 78 16093 3.6 110 09:22 11.02.2020
2796 Clouds 23 1021 78 16093 5.1 100 08:49 11.02.2020
2797 Clouds 23 1021 78 16093 5.1 100 08:25 11.02.2020
2798 Clouds 23 1021 73 16093 7.7 120 07:55 11.02.2020
2799 Clouds 23 1021 73 16093 6.2 100 07:34 11.02.2020
2800 Clouds 24 1022 73 16093 6.2 130 06:58 11.02.2020
2801 Clouds 24 1022 73 16093 6.2 130 06:39 11.02.2020
2802 Clouds 24 1022 73 16093 5.7 100 06:20 11.02.2020
2803 Clouds 24 1022 73 16093 5.7 100 06:20 11.02.2020
2804 Clouds 24 1022 73 16093 6.2 110 05:47 11.02.2020
2805 Clouds 24 1022 73 16093 6.2 110 05:47 11.02.2020
2806 Clouds 24 1022 73 16093 6.2 110 05:20 11.02.2020
2807 Clouds 24 1022 73 16093 5.7 100 04:34 11.02.2020
2808 Clouds 24 1022 73 16093 5.1 100 02:38 11.02.2020
2809 Clouds 24 1022 73 16093 4.6 100 01:59 11.02.2020
2810 Clouds 24 1022 73 16093 4.6 100 01:31 11.02.2020
2811 Clouds 25 1022 65 16093 5.7 80 00:28 11.02.2020
2812 Rain 25 1022 94 4828 4.1 100 23:50 10.02.2020
2813 Rain 25 1022 65 16093 6.7 90 23:30 10.02.2020
2814 Rain 25 1021 61 16093 7.2 80 22:58 10.02.2020
2815 Rain 26 1021 61 16093 7.2 80 22:38 10.02.2020
2816 Rain 26 1021 61 16093 7.2 80 22:20 10.02.2020
2817 Clouds 26 1022 69 16093 7.2 120 21:43 10.02.2020
2818 Clouds 26 1021 61 16093 7.7 80 21:25 10.02.2020
2819 Clouds 26 1021 61 16093 7.7 80 21:25 10.02.2020
2820 Clouds 26 1022 69 16093 6.7 100 20:57 10.02.2020
2821 Clouds 26 1022 69 16093 6.7 100 20:57 10.02.2020
2822 Clouds 26 1022 69 16093 6.7 100 20:38 10.02.2020
2823 Clouds 26 1022 61 16093 7.2 100 20:20 10.02.2020
2824 Clouds 26 1023 61 16093 6.7 120 19:58 10.02.2020
2825 Clouds 27 1022 61 16093 7.2 100 19:38 10.02.2020
2826 Clouds 27 1023 65 16093 6.2 120 19:19 10.02.2020
2827 Rain 27 1023 69 16093 6.7 120 18:58 10.02.2020
2828 Rain 26 1022 69 16093 9.8 100 18:39 10.02.2020
2829 Rain 26 1023 58 16093 8.7 90 18:20 10.02.2020
2830 Clouds 26 1024 61 16093 9.8 100 17:57 10.02.2020
2831 Clouds 26 1024 61 16093 9.8 100 17:57 10.02.2020
2832 -273 0 0 0 0 0 17:37 10.02.2020
2833 Clouds 26 1024 61 16093 8.7 100 17:19 10.02.2020
2834 Clouds 26 1025 65 16093 6.2 110 16:58 10.02.2020
2835 Clouds 26 1025 65 16093 6.2 110 16:39 10.02.2020
2836 Clouds 26 1025 65 16093 6.2 110 16:39 10.02.2020
2837 Clouds 26 1024 65 16093 7.2 100 16:19 10.02.2020
2838 Clouds 25 1024 69 16093 7.2 100 15:56 10.02.2020
2839 Clouds 25 1024 69 16093 7.2 100 15:38 10.02.2020
2840 Clouds 25 1024 69 16093 7.7 90 15:20 10.02.2020
2841 Clouds 24 1024 69 16093 6.2 90 14:56 10.02.2020
2842 Clouds 24 1024 69 16093 6.2 90 14:36 10.02.2020
2843 Clouds 24 1024 69 16093 6.2 90 14:18 10.02.2020
2844 Clouds 23 1023 73 16093 6.2 100 13:42 10.02.2020
2845 Clouds 23 1023 73 16093 6.2 100 13:24 10.02.2020
2846 Clouds 23 1023 73 16093 5.7 90 12:50 10.02.2020
2847 Clouds 23 1023 73 16093 5.7 90 12:26 10.02.2020
2848 Clouds 23 1023 73 16093 6.7 90 11:56 10.02.2020
2849 Clouds 23 1023 73 16093 6.7 90 11:38 10.02.2020
2850 Clouds 23 1023 73 16093 6.7 90 11:20 10.02.2020
2851 Clouds 23 1024 73 16093 5.7 100 10:47 10.02.2020
2852 Clouds 23 1024 73 16093 5.7 100 10:28 10.02.2020
2853 Clouds 23 1022 78 16093 5.7 70 09:48 10.02.2020
2854 Clouds 23 1022 78 16093 5.7 70 09:48 10.02.2020
2855 Clouds 23 1023 73 16093 7.2 90 09:26 10.02.2020
2856 Clouds 23 1023 78 16093 5.7 70 08:58 10.02.2020
2857 Clouds 23 1023 78 16093 5.7 70 08:38 10.02.2020
2858 Clouds 23 1024 73 16093 5.7 90 08:19 10.02.2020
2859 Clouds 23 1024 78 16093 6.2 70 07:51 10.02.2020
2860 Clouds 23 1025 69 16093 7.7 80 07:31 10.02.2020
2861 Clouds 23 1025 69 16093 7.2 70 06:23 10.02.2020
2862 Clouds 22 1027 68 16093 6.2 90 04:46 10.02.2020
2863 Clouds 23 1026 69 16093 6.7 70 03:52 10.02.2020
2864 Clouds 23 1026 69 16093 6.2 80 02:56 10.02.2020
2865 Clouds 23 1026 69 16093 6.2 80 02:35 10.02.2020
2866 Clouds 23 1026 60 16093 8.2 90 00:55 10.02.2020
2867 Clouds 23 1025 64 16093 6.7 60 00:36 10.02.2020
2868 Clouds 23 1025 53 16093 7.7 60 23:58 09.02.2020
2869 Clouds 23 1025 53 16093 7.7 60 23:40 09.02.2020
2870 Clouds 23 1025 53 16093 7.7 60 23:22 09.02.2020
2871 Clouds 24 1024 69 16093 5.7 50 22:43 09.02.2020
2872 Clouds 24 1025 57 16093 9.3 70 22:21 09.02.2020
2873 Clouds 24 1025 57 16093 8.2 70 21:45 09.02.2020
2874 Clouds 24 1025 57 16093 8.2 70 21:25 09.02.2020
2875 Clouds 25 1025 50 16093 7.2 60 20:59 09.02.2020
2876 Clouds 25 1025 50 16093 7.2 60 20:41 09.02.2020
2877 Clouds 25 1025 50 16093 7.2 60 20:19 09.02.2020
2878 Clouds 25 1026 47 16093 9.3 70 19:40 09.02.2020
2879 Clouds 25 1026 47 16093 9.3 70 19:40 09.02.2020
2880 Clouds 25 1026 47 16093 9.3 70 19:22 09.02.2020
2881 Clouds 25 1027 47 16093 8.2 70 18:59 09.02.2020
2882 Clouds 25 1027 47 16093 8.2 70 18:40 09.02.2020
2883 Clouds 25 1027 47 16093 8.2 70 18:22 09.02.2020
2884 Clouds 25 1027 47 16093 7.7 70 17:43 09.02.2020
2885 Clouds 25 1027 47 16093 7.7 70 17:43 09.02.2020
2886 Clouds 25 1027 47 16093 7.7 70 17:23 09.02.2020
2887 Clouds 24 1027 53 16093 7.7 70 16:57 09.02.2020
2888 Clouds 24 1027 53 16093 7.7 70 16:38 09.02.2020
2889 Clouds 24 1027 53 16093 7.7 70 16:20 09.02.2020
2890 Clouds 24 1026 50 16093 6.2 60 15:56 09.02.2020
2891 Clouds 24 1026 50 16093 6.2 60 15:38 09.02.2020
2892 Clouds 24 1026 50 16093 6.2 60 15:20 09.02.2020
2893 Clouds 23 1026 56 16093 5.7 60 14:42 09.02.2020
2894 Clouds 23 1026 56 16093 5.7 60 14:23 09.02.2020
2895 Clouds 22 1026 60 16093 5.1 70 13:55 09.02.2020
2896 Clouds 21 1026 60 16093 5.1 70 13:36 09.02.2020
2897 Clouds 21 1025 60 16093 3.1 60 13:18 09.02.2020
2898 Clouds 21 1024 60 16093 3.1 60 12:42 09.02.2020
2899 Clouds 21 1024 60 16093 3.1 60 12:20 09.02.2020
2900 Clouds 21 1024 60 16093 2.6 50 11:57 09.02.2020
2901 Clouds 21 1024 60 16093 2.6 50 11:38 09.02.2020
2902 Clouds 21 1024 60 16093 2.6 50 11:18 09.02.2020
2903 Clouds 21 1024 60 16093 2.6 50 11:18 09.02.2020
2904 Clouds 21 1024 60 16093 4.6 50 10:42 09.02.2020
2905 Clouds 21 1024 60 16093 4.6 50 10:23 09.02.2020
2906 Clouds 21 1024 60 16093 3.1 50 09:57 09.02.2020
2907 Clouds 21 1024 60 16093 3.1 50 09:38 09.02.2020
2908 Clouds 21 1024 60 16093 3.1 50 09:19 09.02.2020
2909 Clouds 21 1024 64 16093 2.6 40 08:39 09.02.2020
2910 Clouds 21 1024 64 16093 2.6 40 08:20 09.02.2020
2911 Clouds 21 1025 68 16093 3.1 60 07:51 09.02.2020
2912 Clouds 21 1025 68 16093 3.1 60 07:26 09.02.2020
2913 Clouds 21 1025 68 16093 3.1 40 06:37 09.02.2020
2914 Clouds 21 1025 64 16093 4.1 50 05:55 09.02.2020
2915 Clouds 21 1025 64 16093 4.1 50 05:32 09.02.2020
2916 Clouds 22 1025 64 16093 3.1 30 04:43 09.02.2020
2917 Clouds 22 1024 60 16093 2.6 20 02:58 09.02.2020
2918 Clouds 22 1024 60 16093 2.6 20 02:36 09.02.2020
2919 Clouds 22 1023 60 16093 2.6 40 01:39 09.02.2020
2920 Clouds 22 1023 56 16093 4.1 60 00:56 09.02.2020
2921 Clouds 22 1023 56 16093 4.1 60 00:30 09.02.2020
2922 Clouds 23 1021 78 16093 4.1 50 23:50 08.02.2020
2923 Clouds 23 1022 64 16093 5.7 80 23:25 08.02.2020
2924 Clouds 23 1022 53 16093 4.6 70 22:59 08.02.2020
2925 Clouds 23 1022 53 16093 4.6 70 22:40 08.02.2020
2926 Clouds 23 1022 53 16093 4.6 70 22:20 08.02.2020
2927 Clouds 23 1022 53 16093 4.6 60 21:47 08.02.2020
2928 Clouds 23 1022 53 16093 4.6 60 21:29 08.02.2020
2929 Clouds 23 1022 53 16093 6.7 80 20:59 08.02.2020
2930 Clouds 23 1022 53 16093 6.7 80 20:59 08.02.2020
2931 Clouds 23 1022 53 16093 6.7 80 20:40 08.02.2020
2932 Clouds 24 1022 53 16093 6.7 80 20:20 08.02.2020
2933 Clouds 24 1023 60 16093 6.2 80 19:58 08.02.2020
2934 Clouds 24 1023 60 16093 6.2 80 19:39 08.02.2020
2935 Clouds 24 1023 60 16093 6.2 80 19:20 08.02.2020
2936 Clouds 24 1024 64 16093 2.1 60 18:57 08.02.2020
2937 Clouds 24 1024 64 16093 2.1 60 18:39 08.02.2020
2938 Clouds 24 1024 64 16093 2.1 60 18:19 08.02.2020
2939 Clouds 23 1025 60 16093 4.6 30 17:42 08.02.2020
2940 Clouds 21 1025 68 16093 2.6 10 17:20 08.02.2020
2941 Clouds 19 1025 72 16093 4.1 10 16:42 08.02.2020
2942 Clouds 18 1025 72 16093 4.1 10 16:23 08.02.2020
2943 Clouds 17 1024 67 16093 3.6 360 15:59 08.02.2020
2944 Clouds 17 1024 67 16093 3.6 360 15:40 08.02.2020
2945 Clouds 16 1024 62 16093 3.1 0 15:18 08.02.2020
2946 Clouds 15 1024 62 16093 3.1 0 14:45 08.02.2020
2947 Clouds 15 1024 62 16093 3.1 0 14:24 08.02.2020
2948 Clouds 14 1023 62 16093 3.6 350 13:59 08.02.2020
2949 Clouds 14 1023 62 16093 3.6 350 13:41 08.02.2020
2950 Clouds 14 1023 62 16093 3.6 350 13:23 08.02.2020
2951 Clouds 14 1022 58 16093 2.6 350 12:49 08.02.2020
2952 Clouds 14 1022 58 16093 2.6 350 12:23 08.02.2020
2953 Clouds 14 1022 58 16093 2.6 350 12:23 08.02.2020
2954 Clouds 14 1021 62 16093 3.1 360 11:58 08.02.2020
2955 Clouds 14 1021 62 16093 3.1 360 11:40 08.02.2020
2956 Clouds 14 1021 62 16093 3.1 360 11:20 08.02.2020
2957 Clouds 15 1021 63 16093 3.1 350 10:42 08.02.2020
2958 Clouds 15 1021 63 16093 3.1 350 10:22 08.02.2020
2959 Clouds 15 1021 63 16093 3.1 350 10:22 08.02.2020
2960 Clouds 15 1021 63 16093 3.1 350 10:22 08.02.2020
2961 Clouds 15 1021 63 16093 3.1 350 10:22 08.02.2020
2962 Clouds 15 1021 59 16093 2.6 340 09:53 08.02.2020
2963 Clouds 15 1021 59 16093 2.6 340 09:29 08.02.2020
2964 Clouds 15 1020 59 16093 2.1 360 08:56 08.02.2020
2965 Clouds 16 1020 59 16093 2.1 360 08:38 08.02.2020
2966 Clouds 16 1020 59 16093 2.1 360 08:20 08.02.2020
2967 Clouds 16 1021 59 16093 1.5 350 07:45 08.02.2020
2968 Clouds 16 1021 59 16093 1.5 350 07:23 08.02.2020
2969 Clouds 17 1021 68 16093 2.6 340 06:30 08.02.2020
2970 Clouds 17 1021 68 16093 2.6 340 06:30 08.02.2020
2971 Clouds 17 1021 68 16093 2.6 0 05:49 08.02.2020
2972 Clouds 17 1021 68 16093 2.6 0 05:30 08.02.2020
2973 Clouds 17 1020 68 16093 2.6 0 04:50 08.02.2020
2974 Clouds 18 1020 68 16093 2.6 350 03:53 08.02.2020
2975 Clouds 19 1018 68 16093 4.1 350 02:52 08.02.2020
2976 Clouds 19 1018 64 16093 3.1 330 01:55 08.02.2020
2977 Clouds 19 1018 64 16093 3.1 330 01:26 08.02.2020
2978 Clouds 20 1017 88 16093 5.47 343 00:45 08.02.2020
2979 Clouds 21 1017 60 16093 5.47 343 00:22 08.02.2020
2980 Clouds 21 1017 56 16093 1.5 330 23:55 07.02.2020
2981 Clouds 21 1017 56 16093 1.5 330 23:37 07.02.2020
2982 Clouds 21 1017 56 16093 1.5 330 23:18 07.02.2020
2983 Clouds 22 1016 56 16093 3.1 270 22:40 07.02.2020
2984 Clouds 23 1016 56 16093 3.1 270 22:19 07.02.2020
2985 Clouds 23 1016 77 16093 5.31 327 21:44 07.02.2020
2986 Clouds 23 1016 77 16093 1.5 0 21:23 07.02.2020
2987 Rain 22 1016 77 16093 2.1 330 20:58 07.02.2020
2988 Rain 22 1016 77 16093 2.1 330 20:38 07.02.2020
2989 Rain 21 1016 77 16093 2.1 290 20:18 07.02.2020
2990 Rain 21 1016 77 16093 2.1 290 20:18 07.02.2020
2991 Clouds 20 1016 77 16093 4.6 310 19:42 07.02.2020
2992 Clouds 19 1016 77 16093 4.6 310 19:22 07.02.2020
2993 Rain 19 1016 88 16093 2.1 330 18:58 07.02.2020
2994 Rain 19 1016 88 16093 2.1 330 18:40 07.02.2020
2995 Rain 19 1017 88 16093 3.1 330 18:21 07.02.2020
2996 Rain 18 1016 93 9656 2.1 320 17:43 07.02.2020
2997 Rain 18 1017 93 16093 4.1 310 17:22 07.02.2020
2998 Rain 18 1017 100 16093 4.1 320 16:57 07.02.2020
2999 Rain 18 1016 88 8047 3.6 310 16:39 07.02.2020
3000 Rain 18 1017 93 6437 2.6 300 16:20 07.02.2020
3001 Rain 18 1016 100 3219 4.1 310 15:48 07.02.2020
3002 Rain 18 1016 100 3219 4.1 310 15:27 07.02.2020
3003 Rain 18 1015 88 8047 4.1 310 14:46 07.02.2020
3004 Rain 18 1015 88 8047 4.6 310 14:27 07.02.2020
3005 Rain 18 1014 88 11265 5.7 310 13:59 07.02.2020
3006 Rain 19 1014 88 11265 5.7 310 13:40 07.02.2020
3007 Rain 19 1013 94 8047 4.1 310 13:22 07.02.2020
3008 Rain 21 1012 88 3219 9.8 310 12:57 07.02.2020
3009 Rain 22 1012 88 3219 9.8 310 12:39 07.02.2020
3010 Rain 24 1010 88 16093 6.7 200 12:21 07.02.2020
3011 Clouds 25 1010 88 16093 5.1 200 11:42 07.02.2020
3012 Clouds 25 1010 88 16093 5.1 200 11:22 07.02.2020
3013 Clouds 25 1010 88 16093 5.7 210 10:42 07.02.2020
3014 Clouds 25 1009 88 16093 6.2 200 10:24 07.02.2020
3015 Clouds 25 1009 88 16093 6.2 200 10:24 07.02.2020
3016 Clouds 25 1009 88 16093 6.2 200 10:24 07.02.2020
3017 Clouds 25 1009 88 16093 6.7 200 09:58 07.02.2020
3018 Clouds 25 1009 88 16093 6.7 200 09:39 07.02.2020
3019 Clouds 25 1009 88 16093 6.7 200 09:39 07.02.2020
3020 Clouds 25 1009 88 16093 6.7 200 09:21 07.02.2020
3021 Clouds 25 1009 88 16093 5.7 200 08:43 07.02.2020
3022 Clouds 25 1009 88 16093 5.7 200 08:21 07.02.2020
3023 Clouds 25 1009 88 16093 5.7 200 08:21 07.02.2020
3024 Clouds 25 1010 83 16093 6.7 210 07:49 07.02.2020
3025 Clouds 25 1010 83 16093 6.7 210 07:30 07.02.2020
3026 Clouds 25 1010 78 16093 7.2 200 06:47 07.02.2020
3027 Clouds 25 1010 78 16093 7.2 200 06:47 07.02.2020
3028 Clouds 25 1010 78 16093 7.2 200 06:26 07.02.2020
3029 Clouds 26 1009 78 16093 7.2 190 05:57 07.02.2020
3030 Clouds 26 1009 78 16093 7.2 190 05:35 07.02.2020
3031 Clouds 25 1008 83 16093 5.7 160 03:19 07.02.2020
3032 Haze 25 1008 78 9656 6.2 180 01:51 07.02.2020
3033 Clouds 26 1009 74 16093 5.7 160 00:49 07.02.2020
3034 Clouds 26 1009 74 16093 5.7 160 00:21 07.02.2020
3035 Clouds 27 1009 69 16093 9.3 160 23:38 06.02.2020
3036 Clouds 27 1009 69 16093 9.3 160 23:19 06.02.2020
3037 Clouds 28 1009 69 16093 6.2 170 22:45 06.02.2020
3038 Clouds 28 1009 69 16093 6.2 170 22:25 06.02.2020
3039 Clouds 28 1009 66 16093 8.2 180 21:55 06.02.2020
3040 Clouds 28 1009 65 16093 7.7 170 21:36 06.02.2020
3041 Clouds 28 1009 65 16093 7.7 170 21:36 06.02.2020
3042 Clouds 28 1009 65 16093 7.7 170 21:18 06.02.2020
3043 Clouds 28 1010 69 16093 9.3 180 20:54 06.02.2020
3044 Clouds 28 1010 70 16093 6.7 180 20:36 06.02.2020
3045 Clouds 28 1010 70 16093 6.7 180 20:18 06.02.2020
3046 Clouds 28 1010 70 16093 6.7 180 20:18 06.02.2020
3047 Clouds 28 1011 66 11265 8.7 190 19:55 06.02.2020
3048 Clouds 29 1011 66 11265 8.7 190 19:36 06.02.2020
3049 Clouds 29 1011 66 16093 9.8 170 19:18 06.02.2020
3050 Clouds 28 1012 69 16093 7.2 180 18:40 06.02.2020
3051 Clouds 28 1012 74 16093 10.8 160 18:22 06.02.2020
3052 Clouds 28 1012 74 16093 10.8 160 18:22 06.02.2020
3053 Clouds 28 1013 69 16093 6.2 150 17:55 06.02.2020
3054 Clouds 28 1013 69 16093 6.2 150 17:37 06.02.2020
3055 Clouds 27 1013 69 16093 6.2 150 17:18 06.02.2020
3056 Clouds 27 1013 78 16093 7.2 160 16:41 06.02.2020
3057 Clouds 27 1014 74 16093 8.2 150 16:23 06.02.2020
3058 Clouds 26 1014 74 16093 8.7 170 15:43 06.02.2020
3059 Clouds 26 1014 83 16093 3.6 160 15:22 06.02.2020
3060 Clouds 25 1013 83 16093 5.7 130 14:57 06.02.2020
3061 Clouds 25 1013 83 16093 5.7 130 14:39 06.02.2020
3062 Clouds 24 1014 83 16093 4.6 140 14:20 06.02.2020
3063 Clouds 24 1014 83 16093 4.1 150 13:41 06.02.2020
3064 Clouds 24 1014 83 16093 3.6 150 13:22 06.02.2020
3065 Clouds 23 1013 83 12874 4.1 190 12:44 06.02.2020
3066 Clouds 23 1013 83 16093 4.1 140 12:19 06.02.2020
3067 Clouds 23 1013 78 16093 4.6 140 11:57 06.02.2020
3068 Clouds 23 1013 78 16093 4.6 140 11:39 06.02.2020
3069 Clouds 23 1013 78 16093 4.6 140 11:19 06.02.2020
3070 Clouds 23 1013 83 16093 3.6 130 10:57 06.02.2020
3071 Clouds 23 1013 83 16093 3.6 130 10:38 06.02.2020
3072 Clouds 23 1013 83 16093 3.6 130 10:38 06.02.2020
3073 Clouds 23 1014 78 16093 4.1 140 10:20 06.02.2020
3074 Clouds 24 1014 78 16093 4.6 140 09:56 06.02.2020
3075 Clouds 24 1014 78 16093 4.6 140 09:37 06.02.2020
3076 Clouds 24 1014 78 16093 4.6 140 09:19 06.02.2020
3077 Clouds 24 1014 83 16093 2.6 130 08:41 06.02.2020
3078 Clouds 24 1015 83 16093 4.6 140 08:22 06.02.2020
3079 Clouds 24 1014 88 16093 2.6 130 07:48 06.02.2020
3080 Clouds 24 1015 78 16093 2.6 140 07:27 06.02.2020
3081 Clouds 23 1015 88 16093 2.6 120 06:37 06.02.2020
3082 Clouds 23 1015 88 16093 2.6 120 06:37 06.02.2020
3083 Clouds 23 1015 78 16093 2.6 140 06:18 06.02.2020
3084 Clouds 23 1016 73 16093 2.6 130 04:53 06.02.2020
3085 Clouds 23 1016 73 16093 3.6 140 03:21 06.02.2020
3086 Clouds 23 1016 73 16093 2.6 130 02:37 06.02.2020
3087 Clouds 24 1016 73 16093 3.1 140 01:37 06.02.2020
3088 Clear 24 1015 78 16093 2.1 140 00:58 06.02.2020
3089 Clouds 24 1016 65 16093 4.1 130 00:26 06.02.2020
3090 Clouds 25 1016 65 16093 6.2 140 23:47 05.02.2020
3091 Clouds 25 1016 65 16093 6.2 140 23:29 05.02.2020
3092 Clouds 26 1016 61 16093 6.2 160 22:58 05.02.2020
3093 Clouds 26 1016 61 16093 6.2 160 22:40 05.02.2020
3094 Clouds 26 1016 61 16093 6.2 160 22:22 05.02.2020
3095 Clouds 26 1016 61 16093 6.2 160 22:22 05.02.2020
3096 Clouds 26 1016 69 16093 3.6 130 21:54 05.02.2020
3097 Clouds 27 1016 69 16093 3.6 130 21:36 05.02.2020
3098 Clouds 27 1016 57 16093 4.6 140 21:18 05.02.2020
3099 Clouds 27 1017 61 16093 4.6 160 20:39 05.02.2020
3100 Clouds 27 1017 61 16093 4.6 160 20:39 05.02.2020
3101 Clouds 26 1017 61 16093 4.6 160 20:19 05.02.2020
3102 Clouds 27 1017 57 16093 4.6 160 19:57 05.02.2020
3103 Clouds 27 1017 57 16093 4.6 160 19:38 05.02.2020
3104 Clouds 27 1018 54 16093 5.1 160 19:19 05.02.2020
3105 Clouds 27 1018 54 16093 5.1 160 19:19 05.02.2020
3106 Clouds 26 1019 61 16093 5.7 150 18:46 05.02.2020
3107 Clouds 26 1019 61 16093 5.7 150 18:22 05.02.2020
3108 Clouds 26 1018 65 16093 5.1 120 17:59 05.02.2020
3109 Clouds 26 1018 65 16093 5.1 120 17:38 05.02.2020
3110 Clouds 26 1019 57 16093 6.7 140 17:18 05.02.2020
3111 Clouds 26 1020 57 16093 7.2 120 16:57 05.02.2020
3112 Clouds 26 1020 57 16093 7.2 120 16:38 05.02.2020
3113 Clouds 25 1020 57 16093 7.2 120 16:19 05.02.2020
3114 Clouds 25 1019 64 16093 5.1 130 15:42 05.02.2020
3115 Clouds 24 1019 64 16093 5.1 130 15:19 05.02.2020
3116 Clouds 23 1019 73 16093 2.1 130 14:56 05.02.2020
3117 Clouds 22 1019 73 16093 2.1 130 14:37 05.02.2020
3118 Clouds 22 1019 73 16093 2.1 130 14:19 05.02.2020
3119 Clouds 20 1019 77 16093 2.1 120 13:42 05.02.2020
3120 Clouds 20 1019 77 16093 2.1 120 13:22 05.02.2020
3121 Clouds 19 1019 77 16093 2.6 150 12:44 05.02.2020
3122 Clouds 19 1018 77 16093 2.1 120 12:25 05.02.2020
3123 Clouds 19 1018 82 16093 1.5 100 11:59 05.02.2020
3124 Clouds 19 1018 82 16093 1.5 100 11:41 05.02.2020
3125 Clouds 19 1018 82 16093 1.5 100 11:22 05.02.2020
3126 Clouds 19 1018 77 16093 1.5 120 10:44 05.02.2020
3127 Clouds 19 1018 77 16093 1.5 120 10:26 05.02.2020
3128 Clouds 18 1018 77 16093 3.1 130 09:59 05.02.2020
3129 Clouds 18 1018 77 16093 3.1 130 09:38 05.02.2020
3130 Clouds 19 1018 77 16093 3.1 130 09:20 05.02.2020
3131 Clouds 17 1019 82 16093 2.1 100 08:46 05.02.2020
3132 Clouds 17 1019 82 16093 2.1 100 08:25 05.02.2020
3133 Clouds 17 1019 82 16093 6.03 150 07:57 05.02.2020
3134 Clouds 18 1019 82 16093 6.03 150 07:37 05.02.2020
3135 Clouds 18 1020 77 16093 6.03 150 06:58 05.02.2020
3136 Clouds 18 1020 77 16093 6.03 150 06:39 05.02.2020
3137 Clouds 18 1020 77 16093 6.03 150 06:19 05.02.2020
3138 Clouds 18 1020 73 16093 5.15 160 05:20 05.02.2020
3139 Clear 19 1020 73 16093 5.15 160 04:54 05.02.2020
3140 Clouds 19 1020 64 16093 2.6 120 03:57 05.02.2020
3141 Clouds 21 1020 68 16093 2.1 130 02:31 05.02.2020
3142 Clouds 21 1019 64 16093 2.6 130 01:55 05.02.2020
3143 Clouds 22 1019 73 16093 2.1 80 00:54 05.02.2020
3144 Clouds 23 1019 64 16093 4.1 190 23:59 04.02.2020
3145 Clouds 24 1019 64 16093 4.1 190 23:39 04.02.2020
3146 Clouds 24 1019 57 16093 3.1 0 23:19 04.02.2020
3147 Clouds 25 1019 50 16093 5.1 140 22:56 04.02.2020
3148 Clouds 25 1019 50 16093 5.1 140 22:38 04.02.2020
3149 Clouds 25 1019 50 16093 5.1 140 22:20 04.02.2020
3150 Clouds 25 1019 47 16093 6.2 120 21:54 04.02.2020
3151 Clouds 25 1019 47 16093 6.2 120 21:36 04.02.2020
3152 Clouds 25 1019 47 16093 6.2 120 21:18 04.02.2020
3153 Clouds 26 1019 47 16093 5.7 150 20:42 04.02.2020
3154 Clouds 26 1019 47 16093 5.7 150 20:21 04.02.2020
3155 Clear 26 1020 47 16093 5.7 140 19:59 04.02.2020
3156 Clear 26 1020 47 16093 5.7 140 19:40 04.02.2020
3157 Clear 26 1020 47 16093 5.7 140 19:22 04.02.2020
3158 Clouds 26 1021 47 16093 4.1 180 18:56 04.02.2020
3159 Clouds 26 1021 47 16093 4.1 180 18:38 04.02.2020
3160 Clouds 26 1021 50 16093 5.1 130 18:19 04.02.2020
3161 Clouds 25 1022 50 16093 6.7 140 17:43 04.02.2020
3162 Clouds 25 1022 50 16093 6.7 140 17:21 04.02.2020
3163 Clouds 24 1022 53 16093 3.6 130 16:57 04.02.2020
3164 Clouds 24 1022 53 16093 3.6 130 16:38 04.02.2020
3165 Clouds 24 1022 53 16093 3.6 130 16:19 04.02.2020
3166 Clouds 24 1023 60 16093 1.5 100 15:56 04.02.2020
3167 Clouds 24 1023 60 16093 1.5 100 15:56 04.02.2020
3168 Clouds 23 1023 60 16093 1.5 100 15:38 04.02.2020
3169 Clouds 22 1023 60 16093 1.5 100 15:19 04.02.2020
3170 Clouds 19 1022 72 16093 5.62 147 14:42 04.02.2020
3171 Clouds 18 1022 72 16093 5.62 147 14:23 04.02.2020
3172 Clouds 16 1022 72 16093 4.66 142 13:58 04.02.2020
3173 Clouds 16 1022 72 16093 4.66 142 13:39 04.02.2020
3174 Clouds 15 1022 72 16093 4.7 141 13:20 04.02.2020
3175 Clouds 15 1021 77 16093 4.7 141 12:44 04.02.2020
3176 Clouds 15 1021 77 16093 4.7 141 12:26 04.02.2020
3177 Clouds 15 1021 77 16093 4.7 141 11:58 04.02.2020
3178 Clouds 14 1021 77 16093 4.7 141 11:39 04.02.2020
3179 Clouds 14 1021 77 16093 4.88 131 11:21 04.02.2020
3180 Clouds 14 1021 77 16093 1.5 340 10:56 04.02.2020
3181 Clouds 15 1021 77 16093 1.5 340 10:36 04.02.2020
3182 Clouds 15 1021 77 16093 1.5 340 10:18 04.02.2020
3183 Clouds 14 1021 77 16093 4.88 131 09:41 04.02.2020
3184 Clouds 14 1021 77 16093 4.88 131 09:41 04.02.2020
3185 Clouds 15 1021 77 16093 4.88 131 09:23 04.02.2020
3186 Clouds 15 1022 72 16093 4.88 131 08:50 04.02.2020
3187 Clouds 15 1022 72 16093 4.88 131 08:29 04.02.2020
3188 Clouds 14 1022 77 16093 1.5 340 07:59 04.02.2020
3189 Clouds 15 1022 77 16093 1.5 340 07:39 04.02.2020
3190 Clouds 15 1022 77 16093 1.5 340 07:39 04.02.2020
3191 Clouds 14 1022 77 16093 1.5 340 07:21 04.02.2020
3192 Drizzle 15 1021 87 16093 3.78 116 06:43 04.02.2020
3193 Clear 15 1023 72 16093 3.78 116 05:50 04.02.2020
3194 Clear 15 1023 72 16093 3.78 116 05:28 04.02.2020
3195 Clouds 16 1022 68 16093 2.6 90 03:51 04.02.2020
3196 Clouds 16 1022 68 16093 2.6 90 03:31 04.02.2020
3197 Clear 16 1022 68 16093 3.1 100 02:53 04.02.2020
3198 Clear 17 1022 68 16093 3.1 100 02:31 04.02.2020
3199 Clear 17 1022 64 16093 3.1 110 01:52 04.02.2020
3200 Clear 18 1022 64 16093 3.1 110 01:33 04.02.2020
3201 Clear 19 1021 60 16093 3.6 130 00:41 04.02.2020
3202 Clouds 20 1021 56 16093 3.1 120 00:20 04.02.2020
3203 Clear 21 1021 46 16093 3.6 110 23:39 03.02.2020
3204 Clear 21 1021 46 16093 3.6 110 23:19 03.02.2020
3205 Clouds 22 1021 38 16093 2.1 140 22:39 03.02.2020
3206 Clouds 22 1021 38 16093 2.1 140 22:20 03.02.2020
3207 Clouds 23 1021 31 16093 2.96 109 21:54 03.02.2020
3208 Clouds 23 1021 31 16093 2.96 109 21:36 03.02.2020
3209 Clouds 23 1021 31 16093 2.96 109 21:18 03.02.2020
3210 Clear 23 1021 33 16093 2.1 0 20:41 03.02.2020
3211 Clear 22 1021 33 16093 2.1 0 20:19 03.02.2020
3212 Clear 22 1022 37 16093 1.5 270 19:56 03.02.2020
3213 Clear 22 1022 37 16093 1.5 270 19:38 03.02.2020
3214 Clear 22 1022 37 16093 1.5 270 19:19 03.02.2020
3215 Clear 22 1022 37 16093 1.5 270 19:19 03.02.2020
3216 Clear 22 1022 37 16093 1.5 270 19:19 03.02.2020
3217 Clear 21 1023 40 16093 1.5 0 18:43 03.02.2020
3218 Clear 21 1023 40 16093 1.5 0 18:24 03.02.2020
3219 Clear 20 1024 45 16093 2.6 350 17:59 03.02.2020
3220 Clear 20 1024 45 16093 2.6 350 17:39 03.02.2020
3221 Clear 19 1024 45 16093 2.6 350 17:20 03.02.2020
3222 Clear 19 1024 45 16093 2.6 350 17:20 03.02.2020
3223 Clear 19 1024 45 16093 2.6 350 17:20 03.02.2020
3224 Clear 18 1024 45 16093 2.1 40 16:55 03.02.2020
3225 Clear 18 1024 45 16093 2.1 40 16:37 03.02.2020
3226 Clear 17 1024 45 16093 2.1 40 16:18 03.02.2020
3227 Clear 16 1024 55 16093 2.6 340 15:54 03.02.2020
3228 Clear 16 1024 55 16093 2.6 340 15:36 03.02.2020
3229 Clear 15 1024 55 16093 2.6 340 15:18 03.02.2020
3230 Clear 12 1023 71 16093 1.5 0 14:39 03.02.2020
3231 Clear 12 1023 71 16093 1.5 0 14:21 03.02.2020
3232 Clear 10 1022 76 16093 2.32 308 13:55 03.02.2020
3233 Rain 9 1022 76 16093 2.32 308 13:36 03.02.2020
3234 Rain 9 1022 76 16093 1.99 314 13:18 03.02.2020
3235 Clear 9 1022 100 16093 1.5 330 12:40 03.02.2020
3236 Clear 9 1022 71 16093 1.99 314 12:21 03.02.2020
3237 Clear 9 1021 71 16093 1.99 314 11:58 03.02.2020
3238 Clear 9 1021 71 16093 1.99 314 11:37 03.02.2020
3239 Clear 10 1021 71 16093 4.49 333 11:18 03.02.2020
3240 Clear 10 1021 71 16093 2.1 330 10:41 03.02.2020
3241 Clear 10 1021 71 16093 2.1 330 10:23 03.02.2020
3242 Clear 10 1021 76 16093 4.49 333 09:49 03.02.2020
3243 Clear 10 1021 76 16093 4.49 333 09:27 03.02.2020
3244 Clear 11 1021 71 16093 2.1 330 08:58 03.02.2020
3245 Clear 11 1021 71 16093 2.1 330 08:40 03.02.2020
3246 Clear 11 1021 71 16093 2.1 330 08:40 03.02.2020
3247 Clear 11 1021 71 16093 2.1 330 08:21 03.02.2020
3248 Clear 11 1021 76 16093 3.6 330 07:41 03.02.2020
3249 Clear 11 1021 76 16093 3.6 330 07:22 03.02.2020
3250 Clear 11 1021 76 16093 3.6 330 07:22 03.02.2020
3251 Clear 12 1022 76 16093 3.6 310 06:55 03.02.2020
3252 Clear 12 1022 76 16093 3.6 310 06:30 03.02.2020
3253 Clear 12 1022 76 16093 3.1 300 05:48 03.02.2020
3254 Clear 12 1022 76 16093 3.1 300 05:30 03.02.2020
3255 Clear 12 1021 58 16093 4.89 335 04:35 03.02.2020
3256 Clear 13 1021 59 16093 1.5 340 02:38 03.02.2020
3257 Clear 14 1021 59 16093 1.5 340 02:18 03.02.2020
3258 Clear 16 1020 45 16093 2.6 300 00:48 03.02.2020
3259 Clear 17 1020 45 16093 2.6 300 00:25 03.02.2020
3260 Clear 18 1020 42 16093 2.6 310 23:40 02.02.2020
3261 Clear 18 1020 42 16093 2.6 310 23:40 02.02.2020
3262 Clear 18 1020 42 16093 2.6 310 23:40 02.02.2020
3263 Clear 18 1020 42 16093 2.6 310 23:22 02.02.2020
3264 Clear 19 1020 45 16093 2.6 310 22:58 02.02.2020
3265 Clear 19 1020 45 16093 2.6 310 22:39 02.02.2020
3266 Clear 19 1020 45 16093 2.6 310 22:21 02.02.2020
3267 Clear 19 1020 45 16093 2.6 310 22:21 02.02.2020
3268 Clear 19 1020 45 16093 4.6 320 21:57 02.02.2020
3269 Clear 19 1020 45 16093 4.6 320 21:38 02.02.2020
3270 Clear 19 1020 45 16093 4.6 320 21:20 02.02.2020
3271 Clear 19 1020 45 16093 4.6 320 21:20 02.02.2020
3272 Clear 19 1020 45 16093 4.1 340 20:57 02.02.2020
3273 Clear 19 1020 45 16093 4.1 340 20:57 02.02.2020
3274 Clear 19 1020 45 16093 4.1 340 20:38 02.02.2020
3275 Clear 19 1020 45 16093 4.1 340 20:20 02.02.2020
3276 Clear 19 1021 48 16093 4.1 340 19:56 02.02.2020
3277 Clear 18 1021 48 16093 4.1 340 19:38 02.02.2020
3278 Clear 18 1021 48 16093 4.1 340 19:38 02.02.2020
3279 Clear 18 1021 48 16093 4.1 340 19:19 02.02.2020
3280 Clouds 18 1022 48 16093 3.6 340 18:54 02.02.2020
3281 Clouds 18 1022 48 16093 3.6 340 18:36 02.02.2020
3282 Clouds 18 1022 48 16093 3.6 340 18:18 02.02.2020
3283 Clouds 17 1022 48 16093 4.1 350 17:54 02.02.2020
3284 Clouds 17 1022 48 16093 4.1 350 17:36 02.02.2020
3285 Clouds 16 1022 48 16093 4.1 350 17:18 02.02.2020
3286 Clouds 16 1023 55 16093 4.6 330 16:54 02.02.2020
3287 Clouds 16 1023 55 16093 4.6 330 16:36 02.02.2020
3288 Clouds 15 1023 55 16093 4.6 330 16:18 02.02.2020
3289 Clouds 15 1023 55 16093 4.6 330 16:18 02.02.2020
3290 Clear 14 1022 62 16093 5.7 340 15:40 02.02.2020
3291 Clear 14 1022 62 16093 5.7 340 15:20 02.02.2020
3292 Clear 13 1022 71 16093 3.6 330 14:59 02.02.2020
3293 Clear 13 1022 71 16093 3.6 330 14:40 02.02.2020
3294 Clear 13 1022 71 16093 3.6 330 14:18 02.02.2020
3295 Clear 12 1021 81 16093 4.1 320 13:55 02.02.2020
3296 Clear 12 1021 81 16093 4.1 320 13:37 02.02.2020
3297 Clear 12 1021 71 16093 4.6 330 13:19 02.02.2020
3298 Clear 12 1020 71 16093 3.1 320 12:45 02.02.2020
3299 Clear 12 1020 71 16093 3.1 320 12:23 02.02.2020
3300 Clear 13 1019 87 16093 5.1 320 11:59 02.02.2020
3301 Clouds 13 1019 71 16093 5.1 320 11:40 02.02.2020
3302 Clouds 13 1019 71 16093 5.1 320 11:19 02.02.2020
3303 Clouds 13 1019 76 16093 4.6 310 10:56 02.02.2020
3304 Clouds 14 1019 76 16093 4.6 310 10:37 02.02.2020
3305 Clouds 14 1019 76 16093 4.6 310 10:19 02.02.2020
3306 Clouds 14 1019 82 0 5.1 310 09:55 02.02.2020
3307 Clouds 14 1019 82 0 5.1 310 09:37 02.02.2020
3308 Clear 14 1019 87 16093 6.7 330 09:19 02.02.2020
3309 Clouds 15 1018 77 16093 4.6 320 08:42 02.02.2020
3310 Clouds 15 1018 77 16093 4.6 320 08:24 02.02.2020
3311 Clear 15 1018 82 16093 7.2 320 07:46 02.02.2020
3312 Clear 16 1018 82 16093 7.2 320 07:28 02.02.2020
3313 Clear 16 1018 82 16093 5.1 300 06:43 02.02.2020
3314 Clear 17 1018 82 16093 5.1 300 06:25 02.02.2020
3315 Clouds 17 1018 77 16093 4.1 310 05:47 02.02.2020
3316 Clouds 17 1018 77 16093 4.1 310 05:47 02.02.2020
3317 Clear 18 1017 93 16093 6.2 310 04:47 02.02.2020
3318 Clear 18 1017 88 16093 5.7 300 03:26 02.02.2020
3319 Clouds 20 1016 77 16093 3.6 280 02:31 02.02.2020
3320 Rain 20 1015 100 16093 3.6 280 01:54 02.02.2020
3321 Rain 20 1016 88 6437 3.1 300 01:23 02.02.2020
3322 Rain 21 1015 88 6437 2.6 290 00:44 02.02.2020
3323 Rain 21 1015 88 6437 4.1 290 00:22 02.02.2020
3324 Rain 21 1014 83 16093 5.1 290 23:47 01.02.2020
3325 Rain 22 1014 83 16093 2.6 250 23:22 01.02.2020
3326 Rain 22 1014 94 4023 3.1 270 22:51 01.02.2020
3327 Rain 22 1014 83 16093 2.6 300 22:20 01.02.2020
3328 Rain 22 1014 83 16093 2.6 300 22:20 01.02.2020
3329 Rain 23 1014 88 16093 3.6 270 21:59 01.02.2020
3330 Rain 23 1014 83 16093 3.6 250 21:39 01.02.2020
3331 Rain 23 1014 83 16093 3.6 260 21:18 01.02.2020
3332 Rain 23 1014 88 16093 3.6 280 20:41 01.02.2020
3333 Rain 23 1014 88 16093 3.6 280 20:20 01.02.2020
3334 Rain 23 1015 78 16093 4.6 250 19:57 01.02.2020
3335 Rain 23 1015 78 16093 4.6 250 19:39 01.02.2020
3336 Rain 23 1015 73 16093 5.1 230 19:19 01.02.2020
3337 Rain 23 1016 73 16093 5.1 220 18:58 01.02.2020
3338 Rain 23 1016 73 16093 5.1 220 18:40 01.02.2020
3339 Rain 23 1016 73 16093 5.1 220 18:21 01.02.2020
3340 Drizzle 22 1016 83 16093 5.7 210 17:57 01.02.2020
3341 Drizzle 22 1016 83 16093 5.7 210 17:39 01.02.2020
3342 Rain 23 1017 73 16093 3.6 310 17:19 01.02.2020
3343 Clouds 22 1016 73 16093 3.1 220 16:43 01.02.2020
3344 Clouds 22 1016 73 16093 3.1 220 16:24 01.02.2020
3345 Clouds 22 1016 78 16093 4.1 200 15:58 01.02.2020
3346 Clouds 22 1016 78 16093 4.1 200 15:40 01.02.2020
3347 Clouds 21 1016 78 16093 4.1 200 15:19 01.02.2020
3348 Clouds 20 1016 93 12874 2.6 300 14:41 01.02.2020
3349 Clouds 19 1015 88 16093 1.12 165 14:21 01.02.2020
3350 Mist 19 1015 93 6437 3.1 260 13:58 01.02.2020
3351 Clouds 19 1015 88 16093 2.1 230 13:39 01.02.2020
3352 Clouds 19 1015 88 16093 2.1 230 13:18 01.02.2020
3353 Rain 19 1014 88 16093 2.1 180 12:41 01.02.2020
3354 Rain 19 1014 88 16093 2.1 180 12:22 01.02.2020
3355 Clouds 19 1014 88 16093 2.1 200 11:44 01.02.2020
3356 Clouds 19 1014 88 16093 2.1 200 11:24 01.02.2020
3357 Clouds 19 1014 100 16093 2.6 250 10:59 01.02.2020
3358 Clouds 19 1014 100 16093 2.6 250 10:41 01.02.2020
3359 Clouds 19 1014 100 16093 2.6 250 10:22 01.02.2020
3360 Rain 19 1014 100 16093 4.14 17 09:59 01.02.2020
3361 Rain 19 1014 100 16093 4.14 17 09:40 01.02.2020
3362 Rain 19 1015 88 16093 2.1 200 09:21 01.02.2020
3363 Rain 19 1015 100 16093 1.5 120 08:54 01.02.2020
3364 Rain 18 1014 88 4828 5.1 50 07:59 01.02.2020
3365 Rain 18 1014 88 4828 5.1 50 07:40 01.02.2020
3366 Rain 18 1015 93 12874 8.2 40 07:40 01.02.2020
3367 Rain 18 1017 93 2816 5.1 340 07:22 01.02.2020
3368 Thunderstorm 19 1016 93 6437 8.7 360 06:43 01.02.2020
3369 Thunderstorm 19 1016 93 6437 8.7 360 06:43 01.02.2020
3370 Thunderstorm 20 1016 94 6437 7.2 10 05:54 01.02.2020
3371 Thunderstorm 20 1016 94 6437 7.2 10 05:54 01.02.2020
3372 Rain 22 1016 73 16093 3.1 30 04:22 01.02.2020
3373 Clouds 22 1017 73 16093 4.1 350 03:25 01.02.2020
3374 Rain 22 1017 78 14484 5.1 320 02:55 01.02.2020
3375 Rain 23 1017 78 16093 4.1 320 02:37 01.02.2020
3376 Clouds 23 1016 69 16093 2.1 130 02:18 01.02.2020
3377 Clouds 24 1016 69 16093 3.6 150 01:39 01.02.2020
3378 Clear 24 1015 83 16093 7.1 175 00:47 01.02.2020
3379 Clouds 24 1016 69 16093 3.1 150 00:23 01.02.2020
3380 Clouds 24 1015 65 16093 4.1 170 23:40 31.01.2020
3381 Clouds 25 1015 57 16093 4.6 140 23:18 31.01.2020
3382 Clouds 25 1015 65 16093 4.1 170 22:56 31.01.2020
3383 Clouds 25 1015 65 16093 4.1 170 22:37 31.01.2020
3384 Clouds 26 1015 61 16093 4.1 130 22:19 31.01.2020
3385 Clouds 26 1015 65 12874 5.7 160 21:40 31.01.2020
3386 Clouds 26 1015 65 12874 5.7 160 21:40 31.01.2020
3387 Clouds 26 1015 61 16093 4.1 130 21:21 31.01.2020
3388 Clouds 26 1015 57 16093 5.1 120 20:57 31.01.2020
3389 Clouds 26 1015 57 16093 5.1 120 20:57 31.01.2020
3390 Clouds 26 1015 57 16093 5.1 120 20:39 31.01.2020
3391 Clouds 26 1015 57 16093 5.1 120 20:21 31.01.2020
3392 Clouds 26 1015 65 16093 4.6 120 19:57 31.01.2020
3393 Clouds 26 1015 65 16093 4.6 120 19:38 31.01.2020
3394 Clouds 26 1016 57 16093 5.7 140 19:20 31.01.2020
3395 Clouds 26 1017 57 16093 6.2 130 18:54 31.01.2020
3396 Clouds 26 1017 57 16093 6.2 130 18:36 31.01.2020
3397 Clouds 26 1017 57 16093 6.2 130 18:18 31.01.2020
3398 Clouds 26 1017 57 16093 6.2 130 18:18 31.01.2020
3399 Clouds 26 1018 57 16093 4.6 140 17:40 31.01.2020
3400 Clouds 26 1018 57 16093 4.6 140 17:40 31.01.2020
3401 Clouds 25 1018 57 16093 4.6 140 17:21 31.01.2020
3402 Clouds 25 1018 60 16093 2.6 120 16:56 31.01.2020
3403 Clouds 25 1018 60 16093 2.6 120 16:56 31.01.2020
3404 Clouds 24 1018 60 16093 2.6 120 16:38 31.01.2020
3405 Clouds 24 1018 60 16093 2.6 120 16:19 31.01.2020
3406 Clouds 23 1018 68 16093 1.32 186 15:57 31.01.2020
3407 Clouds 22 1018 68 16093 1.32 186 15:38 31.01.2020
3408 Clouds 22 1018 68 16093 1.32 186 15:38 31.01.2020
3409 Clouds 21 1018 68 16093 1.32 186 15:19 31.01.2020
3410 Clouds 18 1017 77 16093 1.32 186 14:42 31.01.2020
3411 Clouds 18 1017 77 16093 1.32 186 14:42 31.01.2020
3412 Clouds 18 1017 77 16093 1.32 186 14:23 31.01.2020
3413 Clouds 17 1017 77 16093 0.63 122 13:52 31.01.2020
3414 Clouds 16 1017 77 16093 0.63 122 13:32 31.01.2020
3415 Clouds 16 1016 77 16093 3.11 135 12:56 31.01.2020
3416 Clouds 16 1016 77 16093 3.11 135 12:56 31.01.2020
3417 Clouds 16 1016 77 16093 3.11 135 12:38 31.01.2020
3418 Clouds 16 1016 77 16093 3.11 135 12:20 31.01.2020
3419 Clouds 16 1016 77 16093 3.11 135 11:42 31.01.2020
3420 Clouds 16 1016 77 16093 2.68 117 11:23 31.01.2020
3421 Mist 16 1016 100 4828 2.38 106 10:58 31.01.2020
3422 Mist 16 1016 100 4828 2.38 106 10:58 31.01.2020
3423 Mist 16 1016 100 4828 2.38 106 10:39 31.01.2020
3424 Clouds 16 1015 72 16093 2.38 106 10:20 31.01.2020
3425 Mist 16 1015 100 1609 2.38 106 09:56 31.01.2020
3426 Mist 17 1015 100 1609 2.38 106 09:38 31.01.2020
3427 Clouds 17 1015 72 16093 1.5 350 09:18 31.01.2020
3428 Clouds 17 1015 68 16093 1.5 10 08:49 31.01.2020
3429 Clouds 17 1015 68 16093 1.5 10 08:24 31.01.2020
3430 Clouds 17 1016 68 16093 1.5 340 07:52 31.01.2020
3431 Clouds 17 1016 68 16093 1.5 340 07:24 31.01.2020
3432 Mist 17 1016 100 2414 1.5 300 06:42 31.01.2020
3433 Clear 17 1016 72 16093 2.1 340 05:58 31.01.2020
3434 Clear 17 1016 72 16093 2.1 340 05:37 31.01.2020
3435 Clear 18 1017 64 16093 1.5 340 04:47 31.01.2020
3436 Clear 19 1016 72 16093 2.6 350 02:58 31.01.2020
3437 Clouds 20 1015 53 16093 2.1 330 01:32 31.01.2020
3438 Clouds 21 1014 49 16093 1.5 300 00:43 31.01.2020
3439 Clouds 21 1015 60 16093 2.6 310 00:24 31.01.2020
3440 Clouds 22 1014 47 16093 2.6 0 23:48 30.01.2020
3441 Clouds 23 1014 47 16093 2.6 0 23:23 30.01.2020
3442 Clouds 23 1013 64 16093 5.1 50 22:56 30.01.2020
3443 Clouds 23 1013 64 16093 5.1 50 22:56 30.01.2020
3444 Clouds 24 1013 64 16093 5.1 50 22:36 30.01.2020
3445 Clouds 24 1013 64 16093 5.1 50 22:36 30.01.2020
3446 Clouds 24 1014 47 16093 2.6 330 22:18 30.01.2020
3447 Clouds 24 1013 47 16093 2.6 330 21:43 30.01.2020
3448 Clouds 24 1013 47 16093 2.6 330 21:19 30.01.2020
3449 Clouds 24 1013 47 16093 4.1 300 20:59 30.01.2020
3450 Clouds 24 1013 47 16093 4.1 300 20:38 30.01.2020
3451 Clouds 24 1013 47 16093 4.1 300 20:20 30.01.2020
3452 Clear 24 1012 47 16093 6.7 320 19:55 30.01.2020
3453 Clear 24 1012 47 16093 6.7 320 19:36 30.01.2020
3454 Clear 23 1014 50 16093 3.1 0 19:18 30.01.2020
3455 Clouds 24 1015 47 16093 4.6 300 18:39 30.01.2020
3456 Clouds 24 1015 47 16093 4.6 300 18:19 30.01.2020
3457 Clouds 23 1015 56 16093 4.6 330 17:55 30.01.2020
3458 Clouds 23 1015 56 16093 4.6 330 17:36 30.01.2020
3459 Clouds 23 1015 56 16093 4.6 330 17:18 30.01.2020
3460 Clouds 23 1015 64 16093 6.2 310 16:56 30.01.2020
3461 Clouds 22 1015 64 16093 6.2 310 16:36 30.01.2020
3462 Clouds 22 1015 64 16093 6.2 310 16:18 30.01.2020
3463 Clouds 21 1014 83 16093 6.2 320 15:41 30.01.2020
3464 Clouds 21 1014 77 16093 4.6 320 15:19 30.01.2020
3465 Clouds 21 1014 77 16093 4.6 320 15:19 30.01.2020
3466 Clouds 20 1014 88 16093 5.7 300 14:44 30.01.2020
3467 Clouds 20 1014 94 16093 3.6 300 14:26 30.01.2020
3468 Clouds 19 1013 82 16093 2.6 290 13:43 30.01.2020
3469 Clouds 19 1013 88 16093 2.6 280 13:24 30.01.2020
3470 Clouds 19 1012 88 16093 2.6 290 12:58 30.01.2020
3471 Clouds 20 1012 88 16093 2.6 290 12:39 30.01.2020
3472 Clouds 20 1012 83 12874 3.6 280 12:21 30.01.2020
3473 Clouds 20 1012 88 12874 2.6 270 11:41 30.01.2020
3474 Rain 20 1011 88 16093 4.1 290 11:23 30.01.2020
3475 Rain 20 1011 83 16093 2.6 260 10:59 30.01.2020
3476 Rain 20 1011 83 16093 2.6 260 10:59 30.01.2020
3477 Rain 19 1011 83 16093 2.6 260 10:41 30.01.2020
3478 Rain 19 1011 94 16093 3.1 260 10:21 30.01.2020
3479 Rain 19 1011 88 16093 2.1 290 09:47 30.01.2020
3480 Thunderstorm 19 1011 83 16093 2.6 200 09:28 30.01.2020
3481 Rain 20 1011 82 16093 1.5 300 08:57 30.01.2020
3482 Thunderstorm 20 1011 83 16093 8.73 248 08:37 30.01.2020
3483 Thunderstorm 20 1011 83 16093 9.3 233 08:18 30.01.2020
3484 Thunderstorm 20 1012 88 3219 3.6 260 07:48 30.01.2020
3485 Thunderstorm 21 1011 78 16093 2.1 0 07:20 30.01.2020
3486 Clouds 21 1011 88 16093 2.6 190 06:47 30.01.2020
3487 Clouds 21 1012 73 16093 2.1 240 06:27 30.01.2020
3488 Clouds 21 1012 73 16093 2.6 180 05:43 30.01.2020
3489 Clouds 21 1012 73 16093 2.6 180 05:19 30.01.2020
3490 Clouds 21 1013 68 16093 6.11 224 03:52 30.01.2020
3491 Clouds 21 1013 68 16093 6.11 224 03:34 30.01.2020
3492 Clouds 22 1012 64 16093 3.6 250 01:57 30.01.2020
3493 Clouds 23 1012 78 16093 7.65 253 00:40 30.01.2020
3494 Clouds 23 1012 57 16093 2.6 270 00:20 30.01.2020
3495 Clouds 24 1012 73 16093 2.1 190 23:45 29.01.2020
3496 Clouds 25 1012 50 16093 3.1 240 23:21 29.01.2020
3497 Clouds 25 1012 50 16093 3.1 240 23:21 29.01.2020
3498 Clouds 25 1012 50 16093 3.1 240 23:21 29.01.2020
3499 Clouds 25 1012 50 16093 4.1 240 22:56 29.01.2020
3500 Clouds 25 1012 50 16093 4.1 240 22:38 29.01.2020
3501 Clouds 26 1012 50 16093 4.1 240 22:19 29.01.2020
3502 Clouds 26 1012 47 16093 5.1 250 21:57 29.01.2020
3503 Clouds 26 1012 47 16093 5.1 250 21:38 29.01.2020
3504 Clouds 26 1012 47 16093 5.1 250 21:19 29.01.2020
3505 Clouds 27 1012 44 16093 6.7 230 20:57 29.01.2020
3506 Clouds 26 1012 44 16093 6.7 230 20:37 29.01.2020
3507 Clouds 27 1012 44 16093 6.7 230 20:19 29.01.2020
3508 Clouds 27 1013 44 16093 4.1 220 19:55 29.01.2020
3509 Clouds 27 1013 44 16093 4.1 220 19:37 29.01.2020
3510 Clouds 27 1013 44 16093 4.1 220 19:18 29.01.2020
3511 Clouds 26 1014 44 16093 4.1 210 18:42 29.01.2020
3512 Clouds 26 1014 44 16093 4.1 210 18:19 29.01.2020
3513 Clouds 25 1015 50 16093 4.1 220 17:55 29.01.2020
3514 Clouds 25 1015 50 16093 4.1 220 17:37 29.01.2020
3515 Clouds 25 1015 50 16093 4.1 220 17:18 29.01.2020
3516 Clouds 23 1015 64 16093 2.6 190 16:40 29.01.2020
3517 Clouds 23 1015 64 16093 2.6 190 16:22 29.01.2020
3518 Clouds 21 1015 72 16093 4.73 197 15:40 29.01.2020
3519 Clouds 20 1015 72 16093 4.73 197 15:22 29.01.2020
3520 Clouds 20 1015 72 16093 4.73 197 15:22 29.01.2020
3521 Clouds 18 1015 77 16093 4.73 197 14:58 29.01.2020
3522 Clouds 17 1015 77 16093 4.73 197 14:40 29.01.2020
3523 Clouds 17 1015 77 16093 5.01 122 14:19 29.01.2020
3524 Clouds 15 1014 88 16093 2.1 270 13:41 29.01.2020
3525 Clouds 15 1014 82 16093 5.01 122 13:22 29.01.2020
3526 Clouds 15 1014 82 16093 5.67 100 12:58 29.01.2020
3527 Clouds 16 1014 82 16093 5.67 100 12:39 29.01.2020
3528 Clouds 16 1014 82 16093 5.67 100 12:21 29.01.2020
3529 Clouds 16 1013 77 16093 1.5 340 11:56 29.01.2020
3530 Clouds 16 1013 77 16093 1.5 340 11:38 29.01.2020
3531 Clouds 16 1013 77 16093 1.5 340 11:38 29.01.2020
3532 Clouds 16 1013 77 16093 1.5 340 11:19 29.01.2020
3533 Clouds 16 1014 82 16093 4.4 82 10:46 29.01.2020
3534 Clouds 16 1014 82 16093 4.4 82 10:22 29.01.2020
3535 Clouds 17 1014 77 16093 2.1 300 09:40 29.01.2020
3536 Clouds 17 1014 77 16093 2.1 300 09:40 29.01.2020
3537 Clouds 17 1014 77 16093 2.1 300 09:22 29.01.2020
3538 Clouds 17 1014 77 16093 4.4 82 08:59 29.01.2020
3539 Clouds 17 1014 77 16093 4.4 82 08:40 29.01.2020
3540 Clouds 17 1014 77 16093 5.14 62 08:22 29.01.2020
3541 Clear 17 1014 82 16093 3.1 340 07:45 29.01.2020
3542 Clear 17 1014 82 16093 3.1 340 07:25 29.01.2020
3543 Clouds 18 1014 93 16093 2.6 350 06:55 29.01.2020
3544 Clouds 18 1014 93 16093 2.6 350 06:37 29.01.2020
3545 Clouds 18 1014 93 16093 2.6 350 06:37 29.01.2020
3546 Clouds 18 1014 93 16093 2.6 350 06:18 29.01.2020
3547 Clouds 18 1014 100 14484 2.1 290 05:47 29.01.2020
3548 Clouds 18 1014 100 14484 2.1 290 05:29 29.01.2020
3549 Clouds 19 1014 82 16093 5.1 290 04:38 29.01.2020
3550 Clear 19 1014 77 16093 3.6 10 03:55 29.01.2020
3551 Clear 20 1014 77 16093 3.6 10 02:33 29.01.2020
3552 Clouds 21 1013 77 16093 4.1 20 00:51 29.01.2020
3553 Clouds 22 1012 64 16093 3.1 60 00:29 29.01.2020
3554 Clouds 22 1012 69 16093 4.1 100 23:58 28.01.2020
3555 Clouds 23 1012 60 16093 2.6 70 23:37 28.01.2020
3556 Clouds 23 1012 60 16093 2.6 70 23:19 28.01.2020
3557 Clouds 24 1012 61 16093 4.1 60 22:44 28.01.2020
3558 Clouds 24 1012 61 16093 4.1 60 22:26 28.01.2020
3559 Clouds 24 1012 57 16093 4.1 70 21:54 28.01.2020
3560 Clouds 24 1012 57 16093 4.1 70 21:36 28.01.2020
3561 Clouds 25 1012 57 16093 4.1 70 21:18 28.01.2020
3562 Clouds 25 1012 57 16093 4.1 70 21:18 28.01.2020
3563 Clouds 25 1012 50 16093 1.5 0 20:45 28.01.2020
3564 Clouds 25 1012 50 16093 1.5 0 20:25 28.01.2020
3565 Clouds 25 1012 65 16093 3.1 80 19:55 28.01.2020
3566 Clouds 25 1012 65 16093 3.1 80 19:36 28.01.2020
3567 Clouds 25 1013 54 16093 3.1 320 19:18 28.01.2020
3568 Clouds 25 1013 54 16093 3.1 320 19:18 28.01.2020
3569 Clouds 25 1014 57 16093 2.6 330 18:41 28.01.2020
3570 Clouds 25 1014 57 16093 2.6 330 18:23 28.01.2020
3571 Clouds 24 1013 69 16093 2.6 310 17:59 28.01.2020
3572 Clouds 24 1013 69 16093 2.6 310 17:39 28.01.2020
3573 Clouds 24 1014 60 16093 2.1 30 17:21 28.01.2020
3574 Clouds 23 1014 73 16093 2.6 30 16:57 28.01.2020
3575 Clouds 22 1014 73 16093 2.6 30 16:39 28.01.2020
3576 Clouds 21 1014 73 16093 2.6 30 16:21 28.01.2020
3577 Clouds 20 1014 88 16093 4.1 340 15:45 28.01.2020
3578 Mist 19 1014 100 1609 2.1 10 15:19 28.01.2020
3579 Clouds 19 1014 77 11265 2.6 360 14:57 28.01.2020
3580 Fog 18 1014 93 402 2.1 10 14:39 28.01.2020
3581 Fog 18 1014 93 402 2.1 10 14:18 28.01.2020
3582 Clouds 17 1013 100 16093 2.1 360 13:41 28.01.2020
3583 Clouds 17 1013 93 16093 2.1 360 13:23 28.01.2020
3584 Clouds 16 1012 82 16093 2.5 329 12:43 28.01.2020
3585 Fog 16 1012 100 402 2.5 329 12:24 28.01.2020
3586 Fog 17 1012 100 402 2.5 329 11:56 28.01.2020
3587 Fog 17 1012 100 402 2.5 329 11:38 28.01.2020
3588 Clouds 17 1012 88 16093 1.98 266 11:19 28.01.2020
3589 Clouds 17 1012 93 11265 1.98 266 10:41 28.01.2020
3590 Clear 17 1012 82 16093 1.98 266 10:23 28.01.2020
3591 Clouds 17 1012 93 16093 1.98 266 09:58 28.01.2020
3592 Clouds 17 1012 93 16093 1.98 266 09:38 28.01.2020
3593 Clear 17 1012 88 16093 1.5 270 09:19 28.01.2020
3594 Clouds 17 1013 72 16093 1.98 266 08:43 28.01.2020
3595 Clouds 17 1013 72 16093 3.03 310 08:21 28.01.2020
3596 Clouds 17 1013 72 16093 3.03 310 07:39 28.01.2020
3597 Clouds 18 1013 68 16093 1.5 280 06:58 28.01.2020
3598 Clouds 18 1013 68 16093 1.5 280 06:40 28.01.2020
3599 Clear 18 1013 72 16093 3.03 310 06:22 28.01.2020
3600 Clear 18 1014 68 16093 3.03 310 05:34 28.01.2020
3601 Clouds 18 1014 68 16093 4.39 251 04:40 28.01.2020
3602 Clouds 19 1014 60 16093 4.39 251 03:41 28.01.2020
3603 Clouds 19 1014 68 16093 4.39 251 02:40 28.01.2020
3604 Clouds 20 1014 68 16093 5.83 257 02:21 28.01.2020
3605 Clouds 20 1013 82 16093 5.83 257 01:48 28.01.2020
3606 Clear 21 1013 49 16093 2.6 260 00:51 28.01.2020
3607 Clear 21 1013 49 16093 2.6 260 00:30 28.01.2020
3608 Clear 21 1013 49 16093 2.1 250 23:59 27.01.2020
3609 Clear 22 1013 49 16093 2.1 250 23:41 27.01.2020
3610 Clear 22 1013 49 16093 2.1 250 23:18 27.01.2020
3611 Clouds 23 1012 41 16093 3.6 250 22:44 27.01.2020
3612 Clouds 23 1012 41 16093 3.6 250 22:20 27.01.2020
3613 Clouds 23 1013 47 16093 3.6 230 21:57 27.01.2020
3614 Clouds 24 1013 47 16093 3.6 230 21:38 27.01.2020
3615 Clouds 23 1013 47 16093 3.6 230 21:18 27.01.2020
3616 Drizzle 24 1012 50 16093 4.1 210 20:56 27.01.2020
3617 Drizzle 24 1012 50 16093 4.1 210 20:37 27.01.2020
3618 Clouds 24 1013 47 16093 3.1 220 20:18 27.01.2020
3619 Clouds 24 1014 53 16093 4.1 220 19:42 27.01.2020
3620 Clouds 23 1014 53 16093 4.1 220 19:23 27.01.2020
3621 Clear 23 1014 60 16093 4.1 220 18:58 27.01.2020
3622 Clouds 23 1015 57 16093 3.6 230 18:39 27.01.2020
3623 Clouds 23 1015 57 16093 3.6 230 18:20 27.01.2020
3624 Clouds 23 1015 57 16093 3.6 230 18:20 27.01.2020
3625 Clouds 23 1015 57 16093 3.6 230 18:20 27.01.2020
3626 Rain 23 1014 60 16093 4.6 140 17:57 27.01.2020
3627 Rain 23 1014 60 16093 4.6 140 17:37 27.01.2020
3628 Rain 23 1014 60 16093 4.6 140 17:37 27.01.2020
3629 Rain 22 1014 68 16093 5.1 150 17:18 27.01.2020
3630 Clouds 20 1015 64 16093 6.91 156 16:42 27.01.2020
3631 Clouds 20 1015 64 16093 6.91 156 16:24 27.01.2020
3632 Clouds 19 1016 59 16093 1.5 40 15:56 27.01.2020
3633 Clouds 19 1016 59 16093 1.5 40 15:56 27.01.2020
3634 Clouds 18 1016 59 16093 1.5 40 15:38 27.01.2020
3635 Clouds 18 1016 59 16093 1.5 40 15:19 27.01.2020
3636 Clouds 17 1016 77 16093 1.5 350 14:55 27.01.2020
3637 Clouds 17 1016 77 16093 1.5 350 14:37 27.01.2020
3638 Clouds 17 1016 77 16093 1.5 350 14:18 27.01.2020
3639 Clouds 16 1016 63 16093 1.5 360 13:42 27.01.2020
3640 Clouds 16 1016 63 16093 2.6 340 13:21 27.01.2020
3641 Clouds 16 1015 72 16093 2.1 130 12:56 27.01.2020
3642 Clouds 16 1015 72 16093 2.1 130 12:38 27.01.2020
3643 Clouds 16 1015 72 16093 2.1 130 12:19 27.01.2020
3644 Clouds 16 1015 72 16093 2.1 130 12:19 27.01.2020
3645 Clouds 16 1015 63 16093 1.5 360 11:42 27.01.2020
3646 Clouds 16 1015 63 16093 1.5 360 11:42 27.01.2020
3647 Clouds 15 1015 63 16093 1.5 360 11:21 27.01.2020
3648 Clouds 15 1015 63 16093 1.5 360 11:21 27.01.2020
3649 Clouds 15 1015 63 16093 1.5 360 11:21 27.01.2020
3650 Clouds 15 1015 63 16093 2.1 350 10:55 27.01.2020
3651 Clouds 15 1015 63 16093 2.1 350 10:36 27.01.2020
3652 Clouds 15 1015 63 16093 2.1 350 10:18 27.01.2020
3653 Clouds 15 1015 59 16093 2.1 340 09:39 27.01.2020
3654 Clouds 15 1015 59 16093 2.1 340 09:18 27.01.2020
3655 Clouds 15 1014 72 16093 1.5 350 08:47 27.01.2020
3656 Clouds 15 1016 55 16093 1.5 340 08:23 27.01.2020
3657 Clear 14 1016 71 16093 2.1 360 07:55 27.01.2020
3658 Clear 14 1016 71 16093 2.1 360 07:36 27.01.2020
3659 Clear 14 1017 67 16093 1.5 350 06:55 27.01.2020
3660 Clear 14 1017 67 16093 1.5 350 06:27 27.01.2020
3661 Clear 14 1017 67 16093 2.6 350 05:37 27.01.2020
3662 Clear 14 1017 67 16093 2.6 350 05:37 27.01.2020
3663 Clouds 15 1017 52 16093 3.91 44 04:20 27.01.2020
3664 Clear 15 1017 48 16093 3.91 44 03:27 27.01.2020
3665 Clear 17 1016 34 16093 2.1 50 01:32 27.01.2020
3666 Clear 18 1016 30 16093 2.1 60 00:59 27.01.2020
3667 Smoke 19 1016 24 16093 4.35 46 00:38 27.01.2020
3668 Clear 20 1016 30 16093 2.1 60 00:19 27.01.2020
3669 Smoke 21 1016 25 16093 1.5 30 23:42 26.01.2020
3670 Smoke 22 1016 25 16093 1.5 30 23:20 26.01.2020
3671 Clouds 22 1016 25 16093 3.6 30 22:57 26.01.2020
3672 Clouds 23 1016 25 16093 3.6 30 22:37 26.01.2020
3673 Clouds 23 1016 25 16093 3.6 30 22:18 26.01.2020
3674 Clouds 23 1017 22 16093 2.6 0 21:57 26.01.2020
3675 Clouds 23 1017 22 16093 2.6 0 21:38 26.01.2020
3676 Clouds 23 1017 22 16093 2.6 0 21:19 26.01.2020
3677 Clouds 23 1017 22 16093 2.6 0 21:19 26.01.2020
3678 Clouds 23 1017 25 16093 3.6 320 20:56 26.01.2020
3679 Clouds 23 1017 25 16093 3.6 320 20:38 26.01.2020
3680 Clouds 23 1017 25 16093 3.6 320 20:18 26.01.2020
3681 Clouds 23 1018 35 16093 3.6 300 19:56 26.01.2020
3682 Clouds 23 1018 35 16093 3.6 300 19:37 26.01.2020
3683 Clouds 23 1018 35 16093 3.6 300 19:18 26.01.2020
3684 Clouds 21 1019 40 16093 3.6 310 18:41 26.01.2020
3685 Clouds 21 1019 40 16093 3.6 310 18:22 26.01.2020
3686 Clouds 20 1020 45 16093 2.1 0 17:59 26.01.2020
3687 Clouds 20 1020 45 16093 2.1 0 17:59 26.01.2020
3688 Clouds 20 1020 45 16093 2.1 0 17:39 26.01.2020
3689 Clouds 19 1020 45 16093 2.1 0 17:20 26.01.2020
3690 Clear 18 1020 51 16093 2.1 0 16:58 26.01.2020
3691 Clear 18 1020 51 16093 2.1 0 16:40 26.01.2020
3692 Clear 17 1020 51 16093 2.1 0 16:21 26.01.2020
3693 Clear 16 1020 58 16093 3.1 310 15:58 26.01.2020
3694 Clear 16 1020 58 16093 3.1 310 15:40 26.01.2020
3695 Clear 15 1020 71 16093 5.1 340 15:19 26.01.2020
3696 Clear 13 1020 66 16093 3.6 340 14:41 26.01.2020
3697 Clear 12 1020 66 16093 3.6 340 14:22 26.01.2020
3698 Clear 12 1019 81 16093 4.1 330 13:57 26.01.2020
3699 Clear 11 1019 81 16093 4.1 320 13:37 26.01.2020
3700 Clear 11 1019 81 16093 4.1 320 13:18 26.01.2020
3701 Clear 11 1018 71 16093 3.6 330 12:42 26.01.2020
3702 Clear 11 1018 71 16093 3.6 330 12:24 26.01.2020
3703 Clear 11 1018 71 16093 3.6 330 12:24 26.01.2020
3704 Clear 12 1018 71 16093 3.6 330 11:58 26.01.2020
3705 Clear 12 1018 81 16093 3.1 330 11:39 26.01.2020
3706 Clear 12 1018 81 16093 3.1 330 11:39 26.01.2020
3707 Clear 12 1018 81 16093 3.1 330 11:19 26.01.2020
3708 Clear 12 1018 81 16093 3.1 330 10:59 26.01.2020
3709 Clear 13 1018 67 16093 3.1 340 10:38 26.01.2020
3710 Clear 13 1018 67 16093 3.1 340 10:20 26.01.2020
3711 Clear 13 1019 71 16093 3.1 320 09:58 26.01.2020
3712 Clear 13 1019 71 16093 3.1 320 09:40 26.01.2020
3713 Clear 13 1019 71 16093 3.1 320 09:21 26.01.2020
3714 Clear 14 1019 63 16093 2.1 300 08:44 26.01.2020
3715 Clear 14 1019 63 16093 2.1 300 08:23 26.01.2020
3716 Clear 14 1019 82 16093 1.5 290 07:58 26.01.2020
3717 Clear 14 1019 63 16093 2.1 300 07:40 26.01.2020
3718 Clear 14 1019 63 16093 2.1 300 07:21 26.01.2020
3719 Clear 15 1019 72 16093 1.5 300 06:31 26.01.2020
3720 Clear 16 1019 63 16093 4 331 05:32 26.01.2020
3721 Clear 16 1019 59 16093 1.5 320 04:45 26.01.2020
3722 Clear 19 1019 49 16093 2.6 360 02:58 26.01.2020
3723 Clouds 20 1018 43 16093 1.5 360 01:50 26.01.2020
3724 Clouds 20 1018 43 16093 1.5 360 01:25 26.01.2020
3725 Clouds 21 1017 49 16093 5.1 360 00:58 26.01.2020
3726 Clouds 22 1017 49 16093 5.1 360 00:37 26.01.2020
3727 Clouds 22 1017 49 16093 5.1 360 00:19 26.01.2020
3728 Clouds 23 1017 53 16093 4.1 360 23:37 25.01.2020
3729 Clouds 23 1017 53 16093 4.1 360 23:18 25.01.2020
3730 Clouds 24 1016 64 16093 2.1 0 22:40 25.01.2020
3731 Clouds 24 1016 64 16093 2.1 0 22:19 25.01.2020
3732 Clouds 25 1017 61 16093 4.1 350 21:57 25.01.2020
3733 Clouds 25 1017 61 16093 4.1 350 21:39 25.01.2020
3734 Clouds 23 1017 69 0 4.85 24 21:20 25.01.2020
3735 Clouds 24 1017 64 16093 3.6 300 20:44 25.01.2020
3736 Clouds 24 1017 64 16093 3.6 300 20:25 25.01.2020
3737 Clear 24 1017 65 0 0.45 311 19:56 25.01.2020
3738 Clear 24 1017 68 0 1.79 323 19:37 25.01.2020
3739 Clear 24 1018 67 0 1.34 295 19:18 25.01.2020
3740 Clear 24 1018 70 0 0.89 98 18:43 25.01.2020
3741 Clouds 24 1019 78 16093 4.6 300 18:23 25.01.2020
3742 Clouds 24 1019 78 16093 4.6 300 17:59 25.01.2020
3743 Clouds 24 1019 78 16093 4.6 300 17:39 25.01.2020
3744 Clear 23 1020 69 16093 6.2 310 17:19 25.01.2020
3745 Clear 23 1020 68 0 0.45 226 16:56 25.01.2020
3746 Clear 23 1020 69 16093 6.2 310 16:36 25.01.2020
3747 Clear 22 1020 69 16093 6.2 310 16:18 25.01.2020
3748 Clear 22 1018 83 16093 3.1 330 15:42 25.01.2020
3749 Clouds 21 1019 83 16093 3.1 310 15:23 25.01.2020
3750 Clouds 20 1018 93 16093 1.5 300 14:44 25.01.2020
3751 Clouds 19 1018 93 16093 1.5 300 14:19 25.01.2020
3752 Clear 18 1018 100 16093 1.5 290 13:56 25.01.2020
3753 Clouds 17 1017 93 16093 2.47 263 13:38 25.01.2020
3754 Clouds 17 1017 93 16093 2.47 263 13:18 25.01.2020
3755 Mist 18 1017 93 1609 2.09 266 12:42 25.01.2020
3756 Mist 18 1017 93 1609 2.09 266 12:21 25.01.2020
3757 Mist 18 1017 93 1609 2.09 266 11:43 25.01.2020
3758 Clouds 18 1017 88 16093 2.85 280 11:21 25.01.2020
3759 Clouds 18 1017 88 16093 2.85 280 11:21 25.01.2020
3760 Mist 18 1017 93 8047 2.85 280 10:56 25.01.2020
3761 Mist 18 1017 93 8047 2.85 280 10:38 25.01.2020
3762 Mist 18 1017 93 3219 2.85 280 10:19 25.01.2020
3763 Clouds 18 1017 77 16093 2.85 280 09:40 25.01.2020
3764 Clouds 19 1017 77 16093 2.85 280 09:20 25.01.2020
3765 Clouds 19 1017 77 16093 2.85 280 08:43 25.01.2020
3766 Clouds 19 1017 77 16093 2.08 188 08:21 25.01.2020
3767 Clouds 19 1018 77 16093 2.08 188 07:42 25.01.2020
3768 Clouds 19 1018 73 16093 2.08 188 06:45 25.01.2020
3769 Clouds 20 1018 73 16093 2.08 188 06:24 25.01.2020
3770 Clouds 20 1018 64 16093 2.08 188 05:44 25.01.2020
3771 Clouds 20 1018 64 16093 3.1 135 04:26 25.01.2020
3772 Clouds 21 1018 64 16093 1.5 170 03:50 25.01.2020
3773 Clouds 21 1017 64 16093 2.1 150 02:53 25.01.2020
3774 Clouds 21 1017 64 16093 2.6 140 01:59 25.01.2020
3775 Clouds 21 1017 64 16093 2.6 140 01:59 25.01.2020
3776 Clouds 22 1017 64 16093 2.6 140 01:37 25.01.2020
3777 Clouds 22 1016 83 16093 1.5 100 00:42 25.01.2020
3778 Clouds 23 1016 64 16093 2.6 0 00:23 25.01.2020
3779 Rain 23 1016 69 16093 3.25 118 23:57 24.01.2020
3780 Rain 23 1016 69 16093 3.25 118 23:38 24.01.2020
3781 Clouds 24 1016 60 16093 4.6 130 23:20 24.01.2020
3782 Clouds 24 1016 57 16093 4.6 130 22:42 24.01.2020
3783 Clouds 24 1016 57 16093 4.6 130 22:24 24.01.2020
3784 Clouds 25 1016 57 16093 4.6 150 21:42 24.01.2020
3785 Clouds 25 1016 57 16093 4.6 150 21:20 24.01.2020
3786 Clouds 26 1016 54 16093 5.7 130 20:56 24.01.2020
3787 Clouds 25 1016 54 16093 5.7 130 20:37 24.01.2020
3788 Clouds 25 1016 54 16093 5.7 130 20:18 24.01.2020
3789 Clouds 25 1017 54 16093 4.1 120 19:55 24.01.2020
3790 Clouds 25 1017 54 16093 4.1 120 19:37 24.01.2020
3791 Clouds 25 1017 54 16093 4.1 120 19:19 24.01.2020
3792 Clouds 25 1018 54 16093 4.1 150 18:43 24.01.2020
3793 Clouds 25 1018 54 16093 4.1 150 18:23 24.01.2020
3794 Clouds 25 1018 57 16093 3.6 120 17:46 24.01.2020
3795 Clouds 25 1018 57 16093 3.6 120 17:23 24.01.2020
3796 Clouds 24 1018 69 16093 2.1 100 16:58 24.01.2020
3797 Clouds 24 1018 69 16093 2.1 100 16:39 24.01.2020
3798 Clouds 23 1018 69 16093 2.1 100 16:20 24.01.2020
3799 Clouds 22 1018 73 16093 4.25 114 15:43 24.01.2020
3800 Clouds 22 1018 73 16093 4.25 114 15:22 24.01.2020
3801 -273 0 0 0 0 0 15:22 24.01.2020
3802 Clouds 19 1018 100 11265 4.25 114 14:56 24.01.2020
3803 Rain 19 1018 100 11265 4.25 114 14:38 24.01.2020
3804 Rain 19 1017 82 16093 5.72 109 14:19 24.01.2020
3805 Rain 18 1017 88 16093 5.72 109 13:42 24.01.2020
3806 Rain 18 1017 88 16093 5.16 109 13:22 24.01.2020
3807 Rain 18 1017 100 2816 5.16 109 12:44 24.01.2020
3808 Rain 18 1017 100 2816 5.16 109 12:44 24.01.2020
3809 Rain 18 1016 93 16093 5.16 109 12:21 24.01.2020
3810 Rain 18 1015 100 4828 1.5 40 11:45 24.01.2020
3811 Rain 18 1015 88 16093 5.83 105 11:20 24.01.2020
3812 Rain 18 1015 93 2816 5.83 105 10:59 24.01.2020
3813 Rain 18 1015 93 2816 5.83 105 10:40 24.01.2020
3814 Rain 18 1016 88 16093 3.1 340 10:19 24.01.2020
3815 Rain 18 1016 88 16093 5.83 105 09:42 24.01.2020
3816 Rain 18 1016 88 16093 5.83 105 09:42 24.01.2020
3817 Rain 18 1016 88 16093 5.83 105 09:24 24.01.2020
3818 Rain 18 1016 100 1207 5.83 105 08:59 24.01.2020
3819 Rain 18 1016 100 1207 5.83 105 08:36 24.01.2020
3820 Rain 18 1016 88 14484 5.72 108 08:18 24.01.2020
3821 Rain 18 1016 93 3219 3.1 0 07:42 24.01.2020
3822 Rain 18 1016 88 12874 1.5 0 07:18 24.01.2020
3823 Rain 18 1017 93 16093 3.1 290 06:42 24.01.2020
3824 Rain 18 1017 93 14484 2.6 280 06:18 24.01.2020
3825 Rain 19 1017 93 6437 1.5 320 05:21 24.01.2020
3826 Rain 19 1017 88 9656 1.5 290 03:29 24.01.2020
3827 Rain 19 1017 93 12874 6.66 100 02:39 24.01.2020
3828 Rain 19 1017 93 12874 6.41 84 02:19 24.01.2020
3829 Rain 19 1017 93 6437 1.5 330 01:38 24.01.2020
3830 Rain 19 1017 93 11265 3.1 10 00:40 24.01.2020
3831 Rain 19 1016 93 3219 5.97 80 00:18 24.01.2020
3832 Drizzle 19 1015 88 16093 5.1 10 23:41 23.01.2020
3833 Rain 21 1016 77 4828 3.1 60 23:21 23.01.2020
3834 Rain 21 1016 88 6437 2.6 30 22:58 23.01.2020
3835 Rain 21 1016 93 8047 5.68 81 22:36 23.01.2020
3836 Rain 21 1016 77 11265 4.1 50 22:18 23.01.2020
3837 Rain 22 1015 88 9656 1.5 120 21:55 23.01.2020
3838 Rain 22 1015 88 9656 1.5 120 21:37 23.01.2020
3839 Rain 23 1016 73 12874 5.7 70 21:18 23.01.2020
3840 Rain 23 1015 83 11265 3.1 50 20:41 23.01.2020
3841 Rain 23 1016 83 1207 2.6 100 20:22 23.01.2020
3842 Rain 24 1015 61 16093 5.7 80 19:57 23.01.2020
3843 Rain 23 1015 61 16093 5.7 80 19:39 23.01.2020
3844 Rain 23 1015 61 16093 5.7 80 19:39 23.01.2020
3845 Rain 24 1016 60 16093 4.1 70 19:21 23.01.2020
3846 Rain 24 1017 60 16093 3.1 110 18:57 23.01.2020
3847 Rain 24 1017 60 16093 3.1 110 18:38 23.01.2020
3848 Rain 24 1017 60 16093 3.1 110 18:19 23.01.2020
3849 Rain 23 1018 60 14484 2.6 320 17:45 23.01.2020
3850 Clouds 22 1018 60 14484 2.6 320 17:21 23.01.2020
3851 Clouds 20 1018 72 11265 2.6 350 16:59 23.01.2020
3852 Clouds 20 1018 72 11265 2.6 350 16:39 23.01.2020
3853 Clouds 19 1018 72 11265 2.6 350 16:20 23.01.2020
3854 Clouds 15 1017 100 11265 3.1 300 15:58 23.01.2020
3855 Clouds 15 1017 100 11265 3.1 300 15:39 23.01.2020
3856 Mist 16 1018 100 4828 3.1 340 15:19 23.01.2020
3857 Mist 14 1018 93 4828 3.1 320 14:58 23.01.2020
3858 Mist 14 1018 93 4828 3.1 320 14:40 23.01.2020
3859 Fog 14 1017 93 402 3.1 340 14:22 23.01.2020
3860 Mist 14 1017 93 1207 2.6 0 13:54 23.01.2020
3861 Mist 14 1017 100 1207 2.1 300 13:36 23.01.2020
3862 Fog 13 1017 93 402 3.1 340 13:18 23.01.2020
3863 Mist 13 1017 100 2012 4.1 330 12:40 23.01.2020
3864 Rain 14 1016 93 3219 2.1 350 12:22 23.01.2020
3865 Mist 14 1016 100 4828 2.6 340 11:55 23.01.2020
3866 Mist 14 1016 100 4023 2.1 310 11:37 23.01.2020
3867 Rain 14 1017 93 4828 2.6 320 11:18 23.01.2020
3868 Rain 14 1016 100 4023 2.6 290 10:41 23.01.2020
3869 Rain 14 1016 93 4828 2.1 310 10:19 23.01.2020
3870 Rain 14 1017 93 805 2.1 330 09:42 23.01.2020
3871 Rain 14 1017 93 16093 4.6 350 09:23 23.01.2020
3872 Rain 14 1017 93 6437 3.1 300 08:57 23.01.2020
3873 Rain 14 1016 100 2213 3.6 330 08:38 23.01.2020
3874 Rain 14 1017 93 14484 3.6 330 08:20 23.01.2020
3875 Rain 14 1016 93 4426 3.6 320 07:42 23.01.2020
3876 Rain 14 1017 87 6437 2.6 330 07:24 23.01.2020
3877 Rain 14 1018 93 16093 3.6 340 06:46 23.01.2020
3878 Rain 14 1018 87 9656 2.6 310 06:19 23.01.2020
3879 Rain 13 1018 93 8047 5.1 330 04:44 23.01.2020
3880 Rain 13 1018 87 16093 5.1 350 04:21 23.01.2020
3881 Clouds 14 1017 82 16093 5.1 320 01:58 23.01.2020
3882 Clouds 15 1017 76 16093 4.1 300 00:47 23.01.2020
3883 Clouds 15 1017 67 16093 5.1 330 00:26 23.01.2020
3884 Clouds 15 1016 67 16093 6.2 310 23:47 22.01.2020
3885 Clouds 15 1016 67 16093 6.2 310 23:47 22.01.2020
3886 Clouds 15 1016 67 16093 6.2 310 23:28 22.01.2020
3887 Clouds 16 1016 76 16093 8.2 290 22:56 22.01.2020
3888 Clouds 16 1016 87 16093 4.1 310 22:38 22.01.2020
3889 Clouds 16 1016 48 16093 5.7 330 22:20 22.01.2020
3890 Clouds 16 1016 51 16093 6.2 320 21:39 22.01.2020
3891 Clouds 16 1016 51 16093 6.2 320 21:21 22.01.2020
3892 Clouds 16 1016 44 16093 6.7 320 20:56 22.01.2020
3893 Clouds 16 1016 44 16093 6.7 320 20:36 22.01.2020
3894 Clouds 16 1016 44 16093 6.7 320 20:36 22.01.2020
3895 Clouds 16 1016 44 16093 6.7 320 20:18 22.01.2020
3896 Clouds 15 1017 47 16093 6.2 320 19:55 22.01.2020
3897 Clouds 15 1017 47 16093 6.2 320 19:37 22.01.2020
3898 Clouds 15 1017 47 16093 6.2 320 19:18 22.01.2020
3899 Clouds 14 1018 47 16093 4.6 320 18:55 22.01.2020
3900 Clouds 13 1018 47 16093 4.6 320 18:36 22.01.2020
3901 Clouds 13 1018 47 16093 4.6 320 18:18 22.01.2020
3902 Clouds 13 1018 47 16093 4.6 320 18:18 22.01.2020
3903 Clouds 12 1019 50 16093 3.6 290 17:40 22.01.2020
3904 Clouds 11 1019 50 16093 3.6 290 17:21 22.01.2020
3905 Clouds 10 1020 52 16093 4.6 300 16:58 22.01.2020
3906 Clouds 9 1020 52 16093 4.6 300 16:39 22.01.2020
3907 Clouds 9 1020 52 16093 4.6 300 16:21 22.01.2020
3908 Clouds 7 1019 56 16093 4.6 310 15:55 22.01.2020
3909 Clouds 7 1019 56 16093 4.6 310 15:37 22.01.2020
3910 Clouds 6 1019 56 16093 4.6 310 15:18 22.01.2020
3911 Clouds 5 1020 60 16093 4.1 320 14:39 22.01.2020
3912 Clouds 5 1020 60 16093 4.1 320 14:20 22.01.2020
3913 Clouds 5 1020 60 16093 4.1 320 14:20 22.01.2020
3914 Clear 4 1020 64 16093 5.1 310 13:58 22.01.2020
3915 Clear 4 1020 64 16093 5.1 310 13:37 22.01.2020
3916 Clear 4 1020 64 16093 5.1 310 13:19 22.01.2020
3917 Clear 4 1019 60 16093 7.2 320 12:57 22.01.2020
3918 Clear 4 1019 60 16093 7.2 320 12:39 22.01.2020
3919 Clear 4 1019 60 16093 7.2 320 12:19 22.01.2020
3920 Clear 5 1019 56 16093 5.7 310 11:57 22.01.2020
3921 Clear 5 1019 56 16093 5.7 310 11:39 22.01.2020
3922 Clear 5 1019 56 16093 5.7 310 11:19 22.01.2020
3923 Clear 5 1019 60 16093 6.2 310 10:46 22.01.2020
3924 Clear 5 1019 60 16093 6.2 310 10:21 22.01.2020
3925 Clear 6 1020 56 16093 6.2 300 09:59 22.01.2020
3926 Clear 6 1020 56 16093 6.2 300 09:40 22.01.2020
3927 Clear 6 1020 56 16093 6.2 300 09:22 22.01.2020
3928 Clear 6 1020 61 16093 5.1 310 08:56 22.01.2020
3929 Clear 7 1020 61 16093 5.1 310 08:37 22.01.2020
3930 Clear 7 1020 61 16093 5.1 310 08:19 22.01.2020
3931 Clear 7 1020 52 16093 4.6 320 07:44 22.01.2020
3932 Clear 7 1020 52 16093 4.6 320 07:26 22.01.2020
3933 Clear 8 1020 76 16093 9.3 330 06:36 22.01.2020
3934 Clear 8 1020 57 16093 6.2 330 05:57 22.01.2020
3935 Clear 10 1019 50 16093 8.2 320 04:26 22.01.2020
3936 Clear 11 1020 46 16093 6.7 320 03:27 22.01.2020
3937 Clear 12 1019 43 16093 6.2 330 02:48 22.01.2020
3938 Clear 14 1019 47 16093 7.7 330 00:47 22.01.2020
3939 Clouds 14 1018 36 16093 6.7 330 00:28 22.01.2020
3940 Clouds 15 1018 39 16093 6.2 320 23:57 21.01.2020
3941 Clouds 16 1018 39 16093 6.2 320 23:37 21.01.2020
3942 Clouds 16 1018 39 16093 6.2 320 23:19 21.01.2020
3943 Clouds 17 1017 37 16093 5.1 300 22:41 21.01.2020
3944 Clouds 18 1017 37 16093 5.1 300 22:23 21.01.2020
3945 Clouds 18 1017 45 16093 5.7 320 21:58 21.01.2020
3946 Clouds 18 1017 45 16093 5.7 320 21:39 21.01.2020
3947 Clouds 18 1017 45 16093 5.7 320 21:20 21.01.2020
3948 Clouds 19 1018 52 16093 7.2 310 20:57 21.01.2020
3949 Clouds 19 1018 52 16093 7.2 310 20:57 21.01.2020
3950 Clouds 19 1018 52 16093 7.2 310 20:39 21.01.2020
3951 Clouds 19 1018 52 16093 7.2 310 20:20 21.01.2020
3952 Clouds 19 1019 52 16093 6.2 320 19:57 21.01.2020
3953 Clouds 19 1019 52 16093 6.2 320 19:39 21.01.2020
3954 Clouds 19 1019 52 16093 6.2 320 19:20 21.01.2020
3955 Clouds 19 1020 63 16093 5.1 330 18:56 21.01.2020
3956 Clouds 18 1020 63 16093 5.1 330 18:38 21.01.2020
3957 Clouds 18 1020 63 16093 5.1 330 18:19 21.01.2020
3958 Clouds 18 1020 63 16093 4.1 330 17:45 21.01.2020
3959 Clouds 17 1020 63 16093 4.1 330 17:21 21.01.2020
3960 Clouds 17 1021 63 16093 4.6 320 16:59 21.01.2020
3961 Clouds 17 1021 63 16093 4.6 320 16:59 21.01.2020
3962 Clouds 17 1021 63 16093 4.6 320 16:37 21.01.2020
3963 Clouds 16 1021 63 16093 4.6 320 16:19 21.01.2020
3964 Clouds 15 1021 71 16093 3.6 330 15:56 21.01.2020
3965 Clouds 15 1021 71 16093 3.6 330 15:37 21.01.2020
3966 Clouds 14 1021 71 16093 3.6 330 15:18 21.01.2020
3967 Clouds 13 1020 76 16093 4.6 340 14:38 21.01.2020
3968 Clouds 12 1020 76 16093 4.6 340 14:20 21.01.2020
3969 Clouds 12 1019 87 16093 6.7 330 13:41 21.01.2020
3970 Clouds 12 1020 76 16093 3.6 330 13:19 21.01.2020
3971 Clouds 12 1018 87 16093 6.2 330 12:56 21.01.2020
3972 Clouds 12 1018 87 16093 6.2 330 12:38 21.01.2020
3973 Clouds 12 1019 93 16093 6.7 350 12:19 21.01.2020
3974 Clear 12 1019 76 16093 3.1 330 11:41 21.01.2020
3975 Clear 12 1019 76 16093 3.1 330 11:22 21.01.2020
3976 Clouds 12 1019 93 16093 5.7 350 10:59 21.01.2020
3977 Clouds 12 1019 93 16093 5.7 350 10:41 21.01.2020
3978 Clouds 12 1019 76 16093 3.1 340 10:22 21.01.2020
3979 Clear 13 1019 71 16093 3.1 330 09:43 21.01.2020
3980 Clear 13 1019 71 16093 3.1 330 09:23 21.01.2020
3981 Clear 13 1019 76 16093 4.6 330 08:56 21.01.2020
3982 Clear 13 1019 76 16093 4.6 330 08:38 21.01.2020
3983 Clear 13 1019 76 16093 4.6 330 08:19 21.01.2020
3984 Clear 14 1020 62 16093 4.1 340 07:41 21.01.2020
3985 Clear 14 1020 62 16093 4.1 340 07:22 21.01.2020
3986 Clear 14 1020 55 16093 2.1 340 06:49 21.01.2020
3987 Clear 14 1020 55 16093 2.1 340 06:30 21.01.2020
3988 Clouds 15 1021 55 16093 2.1 20 05:44 21.01.2020
3989 Clear 16 1021 55 16093 4.1 350 04:41 21.01.2020
3990 Clouds 17 1020 45 16093 3.1 340 02:58 21.01.2020
3991 Clouds 18 1020 45 16093 3.1 340 02:19 21.01.2020
3992 Clouds 19 1020 42 16093 4.6 330 01:26 21.01.2020
3993 Clouds 20 1019 53 16093 4.1 330 00:38 21.01.2020
3994 Clouds 21 1018 49 16093 3.1 320 23:59 20.01.2020
3995 Clouds 21 1018 49 16093 3.1 320 23:41 20.01.2020
3996 Clouds 22 1018 49 16093 3.1 320 23:19 20.01.2020
3997 Clouds 23 1018 50 16093 5.1 330 22:58 20.01.2020
3998 Clouds 23 1018 50 16093 5.1 330 22:38 20.01.2020
3999 Clouds 23 1018 50 16093 5.1 330 22:20 20.01.2020
4000 Clouds 23 1018 50 16093 5.1 330 22:20 20.01.2020
4001 Clouds 23 1018 53 16093 4.1 300 21:58 20.01.2020
4002 Clouds 23 1018 53 16093 4.1 300 21:37 20.01.2020
4003 Clouds 24 1018 53 16093 4.1 300 21:19 20.01.2020
4004 Clouds 24 1018 57 16093 5.1 320 20:57 20.01.2020
4005 Clouds 24 1018 57 16093 5.1 320 20:38 20.01.2020
4006 Clouds 24 1018 57 16093 5.1 320 20:18 20.01.2020
4007 Clouds 24 1018 64 16093 3.6 330 19:56 20.01.2020
4008 Clouds 24 1018 64 16093 3.6 330 19:38 20.01.2020
4009 Clouds 23 1019 60 16093 5.1 340 19:18 20.01.2020
4010 Clouds 23 1019 60 16093 4.1 320 18:44 20.01.2020
4011 Clouds 23 1019 64 16093 5.1 300 18:23 20.01.2020
4012 Clouds 23 1020 68 16093 3.6 330 17:58 20.01.2020
4013 Clouds 23 1020 68 16093 3.6 330 17:36 20.01.2020
4014 Clouds 23 1020 69 16093 2.1 0 17:18 20.01.2020
4015 Clouds 22 1019 78 16093 5.7 330 16:43 20.01.2020
4016 Clouds 22 1020 83 16093 3.6 340 16:25 20.01.2020
4017 Clouds 22 1020 73 16093 4.1 340 15:58 20.01.2020
4018 Clouds 22 1020 73 16093 4.1 340 15:39 20.01.2020
4019 Clouds 22 1019 78 16093 4.1 340 15:21 20.01.2020
4020 Clouds 21 1019 88 16093 2.1 360 14:42 20.01.2020
4021 Clouds 21 1019 78 16093 2.6 0 14:24 20.01.2020
4022 Clouds 21 1018 100 16093 2.1 320 13:59 20.01.2020
4023 Clouds 21 1018 100 16093 2.1 320 13:40 20.01.2020
4024 Clouds 20 1018 88 16093 2.6 340 13:22 20.01.2020
4025 Clouds 20 1018 88 16093 3.6 320 12:47 20.01.2020
4026 Clouds 21 1018 83 16093 2.1 300 12:28 20.01.2020
4027 Clouds 21 1017 83 16093 2.1 290 11:59 20.01.2020
4028 Clouds 21 1017 83 16093 2.1 290 11:40 20.01.2020
4029 Clouds 21 1017 83 16093 2.1 280 11:21 20.01.2020
4030 Mist 21 1017 83 6437 3.1 290 10:55 20.01.2020
4031 Clouds 21 1017 88 16093 2.6 250 10:37 20.01.2020
4032 Clouds 21 1017 88 16093 2.6 250 10:37 20.01.2020
4033 Clouds 21 1017 83 16093 1.5 280 10:18 20.01.2020
4034 Clouds 20 1018 88 16093 4 262 09:40 20.01.2020
4035 Clouds 21 1018 88 16093 4 262 09:20 20.01.2020
4036 Mist 20 1018 93 2414 4 262 08:46 20.01.2020
4037 Clouds 20 1018 83 16093 4.56 262 08:28 20.01.2020
4038 Clouds 20 1019 83 16093 4.56 235 07:45 20.01.2020
4039 Clouds 20 1019 83 16093 4.56 235 07:26 20.01.2020
4040 Clouds 21 1019 83 16093 2.6 280 06:54 20.01.2020
4041 Clouds 21 1019 83 16093 2.6 280 06:28 20.01.2020
4042 Clouds 21 1019 73 16093 2.1 240 05:43 20.01.2020
4043 Clouds 21 1019 73 16093 2.1 240 05:43 20.01.2020
4044 Clouds 21 1019 73 16093 2.1 240 05:43 20.01.2020
4045 Clouds 21 1019 73 16093 2.1 240 05:22 20.01.2020
4046 Clouds 22 1019 78 16093 1.5 230 04:48 20.01.2020
4047 Clouds 23 1019 69 16093 2.6 200 02:58 20.01.2020
4048 Clouds 23 1018 69 16093 2.1 170 01:57 20.01.2020
4049 Clouds 23 1018 69 16093 2.1 170 01:37 20.01.2020
4050 Clouds 24 1018 69 16093 4.6 160 00:45 20.01.2020
4051 Clouds 24 1018 69 16093 4.6 160 00:25 20.01.2020
4052 Clouds 25 1018 61 16093 5.1 160 23:40 19.01.2020
4053 Clouds 26 1018 61 16093 5.1 160 23:20 19.01.2020
4054 Clouds 26 1018 57 16093 5.7 130 22:57 19.01.2020
4055 Clouds 27 1018 57 16093 5.7 130 22:39 19.01.2020
4056 Clouds 27 1018 57 16093 5.7 130 22:21 19.01.2020
4057 Clouds 27 1018 54 16093 3.1 0 21:57 19.01.2020
4058 Clouds 27 1018 54 16093 3.1 0 21:39 19.01.2020
4059 Clouds 27 1018 54 16093 3.1 0 21:21 19.01.2020
4060 Clouds 27 1019 54 16093 2.1 0 20:57 19.01.2020
4061 Clouds 27 1019 54 16093 2.1 0 20:39 19.01.2020
4062 Clouds 27 1019 54 16093 2.1 0 20:21 19.01.2020
4063 Clouds 27 1020 54 16093 4.1 190 19:58 19.01.2020
4064 Clouds 27 1020 54 16093 4.1 190 19:39 19.01.2020
4065 Clouds 27 1020 54 16093 4.1 190 19:21 19.01.2020
4066 Clouds 27 1021 57 16093 4.6 140 18:59 19.01.2020
4067 Clouds 27 1021 57 16093 4.6 140 18:41 19.01.2020
4068 Clouds 27 1021 57 16093 4.6 140 18:41 19.01.2020
4069 Clouds 27 1021 57 16093 4.6 140 18:21 19.01.2020
4070 Clouds 26 1021 54 16093 3.6 160 17:59 19.01.2020
4071 Clouds 26 1021 54 16093 3.6 160 17:40 19.01.2020
4072 Clouds 26 1021 54 16093 3.6 160 17:22 19.01.2020
4073 Clouds 26 1022 54 16093 5.1 160 17:00 19.01.2020
4074 Clouds 25 1022 54 16093 5.1 160 16:40 19.01.2020
4075 Clouds 26 1022 54 16093 5.1 160 16:40 19.01.2020
4076 Clouds 25 1022 54 16093 5.1 160 16:22 19.01.2020
4077 Clouds 25 1022 69 16093 1.5 160 16:00 19.01.2020
4078 Clouds 24 1022 69 16093 1.5 160 15:40 19.01.2020
4079 Clouds 24 1022 69 16093 1.5 160 15:22 19.01.2020
4080 Clouds 23 1021 68 16093 2.6 110 14:59 19.01.2020
4081 Clouds 23 1021 68 16093 2.6 110 14:59 19.01.2020
4082 Clouds 22 1021 68 16093 2.6 110 14:40 19.01.2020
4083 Clouds 20 1021 68 16093 2.6 110 14:19 19.01.2020
4084 Clouds 19 1021 73 16093 2.1 120 13:58 19.01.2020
4085 Clouds 19 1021 73 16093 2.1 120 13:38 19.01.2020
4086 Clouds 19 1021 73 16093 2.1 120 13:38 19.01.2020
4087 Clouds 19 1021 73 16093 2.1 120 13:20 19.01.2020
4088 Clouds 19 1021 64 16093 3.1 110 12:56 19.01.2020
4089 Clouds 19 1021 64 16093 3.1 110 12:37 19.01.2020
4090 Clouds 19 1021 64 16093 3.1 110 12:19 19.01.2020
4091 Clouds 19 1020 72 16093 2.6 110 11:56 19.01.2020
4092 Clouds 20 1020 72 16093 2.6 110 11:37 19.01.2020
4093 Clouds 19 1020 72 16093 2.6 110 11:18 19.01.2020
4094 Clouds 20 1021 68 16093 1.5 120 10:39 19.01.2020
4095 Clouds 20 1021 68 16093 1.5 120 10:19 19.01.2020
4096 Clouds 20 1022 60 16093 3.1 100 09:57 19.01.2020
4097 Clouds 20 1022 60 16093 3.1 100 09:38 19.01.2020
4098 Clouds 20 1022 60 16093 3.1 100 09:19 19.01.2020
4099 Clouds 20 1022 60 16093 3.6 110 08:54 19.01.2020
4100 Clouds 21 1022 60 16093 3.6 110 08:31 19.01.2020
4101 Clouds 21 1022 64 16093 3.1 100 07:54 19.01.2020
4102 Clouds 21 1022 64 16093 3.1 100 07:28 19.01.2020
4103 Clouds 21 1023 60 16093 3.6 110 06:55 19.01.2020
4104 Clouds 22 1023 60 16093 3.6 110 06:22 19.01.2020
4105 Clouds 22 1024 64 16093 5.1 100 03:55 19.01.2020
4106 Clouds 22 1024 64 16093 5.7 110 02:33 19.01.2020
4107 Clouds 22 1023 60 16093 5.7 100 01:39 19.01.2020
4108 Clouds 22 1023 60 16093 5.7 100 01:20 19.01.2020
4109 Clouds 22 1024 56 16093 7.7 100 00:44 19.01.2020
4110 Clouds 22 1024 60 16093 4.6 100 00:20 19.01.2020
4111 Clouds 23 1024 53 16093 5.7 110 23:47 18.01.2020
4112 Clouds 23 1024 53 16093 5.7 110 23:25 18.01.2020
4113 Clouds 24 1024 60 16093 7.2 120 22:59 18.01.2020
4114 Clouds 24 1024 60 16093 7.2 120 22:41 18.01.2020
4115 Clouds 24 1024 47 16093 8.7 90 22:21 18.01.2020
4116 Clouds 24 1024 60 16093 7.7 90 21:58 18.01.2020
4117 Clouds 24 1024 60 16093 7.7 90 21:38 18.01.2020
4118 Clouds 24 1024 60 16093 7.7 90 21:20 18.01.2020
4119 Clouds 25 1024 50 16093 8.7 90 20:55 18.01.2020
4120 Clouds 25 1024 50 16093 8.7 90 20:36 18.01.2020
4121 Clouds 25 1024 50 16093 8.7 90 20:18 18.01.2020
4122 Clouds 25 1025 47 16093 7.7 90 19:42 18.01.2020
4123 Clouds 25 1025 47 16093 7.7 90 19:24 18.01.2020
4124 Clouds 25 1026 44 16093 8.7 110 18:43 18.01.2020
4125 Clouds 25 1026 44 16093 8.7 110 18:24 18.01.2020
4126 Clouds 25 1027 53 16093 9.3 110 17:59 18.01.2020
4127 Clouds 25 1027 53 16093 9.3 110 17:40 18.01.2020
4128 Clouds 24 1027 53 16093 9.3 110 17:20 18.01.2020
4129 Clouds 24 1027 50 16093 8.7 100 16:57 18.01.2020
4130 Clouds 24 1027 50 16093 8.7 100 16:38 18.01.2020
4131 Clouds 24 1027 50 16093 8.7 100 16:19 18.01.2020
4132 Clouds 23 1026 57 16093 8.7 100 15:44 18.01.2020
4133 Clouds 23 1026 57 16093 8.7 100 15:26 18.01.2020
4134 Clouds 23 1026 53 16093 9.3 90 14:59 18.01.2020
4135 Clouds 22 1026 53 16093 9.3 90 14:40 18.01.2020
4136 Clouds 22 1026 53 16093 9.3 90 14:19 18.01.2020
4137 Clouds 22 1025 53 16093 6.2 90 13:56 18.01.2020
4138 Clouds 22 1025 53 16093 6.2 90 13:36 18.01.2020
4139 Clouds 22 1025 53 16093 6.2 90 13:18 18.01.2020
4140 Clouds 22 1025 53 16093 8.7 90 12:41 18.01.2020
4141 Clouds 22 1025 53 16093 8.7 90 12:21 18.01.2020
4142 Clouds 22 1025 60 16093 10.3 90 11:56 18.01.2020
4143 Clouds 22 1025 60 16093 10.3 90 11:37 18.01.2020
4144 Clouds 22 1025 60 16093 10.3 90 11:18 18.01.2020
4145 Clouds 22 1025 56 16093 9.8 90 10:41 18.01.2020
4146 Clouds 22 1025 56 16093 9.8 90 10:20 18.01.2020
4147 Clouds 22 1025 56 16093 9.8 90 10:20 18.01.2020
4148 Clouds 22 1025 53 16093 8.7 90 09:50 18.01.2020
4149 Clouds 22 1025 53 16093 8.7 90 09:32 18.01.2020
4150 Clouds 22 1025 49 16093 8.2 80 08:58 18.01.2020
4151 Clouds 22 1025 49 16093 8.2 80 08:39 18.01.2020
4152 Clouds 22 1025 49 16093 8.2 80 08:19 18.01.2020
4153 Clouds 22 1026 56 16093 7.2 70 07:52 18.01.2020
4154 Clouds 22 1026 56 16093 7.2 70 07:32 18.01.2020
4155 Clouds 22 1026 53 16093 6.7 80 06:48 18.01.2020
4156 Clouds 22 1026 53 16093 6.7 80 06:18 18.01.2020
4157 Clouds 23 1027 56 16093 8.2 70 05:25 18.01.2020
4158 Clouds 23 1026 64 16093 8.2 70 03:39 18.01.2020
4159 Clouds 23 1024 73 16093 8.7 50 01:59 18.01.2020
4160 Clouds 23 1024 73 16093 8.7 50 01:35 18.01.2020
4161 Clouds 23 1025 64 16093 9.3 50 00:38 18.01.2020
4162 Clouds 24 1025 64 16093 9.3 50 00:19 18.01.2020
4163 Clouds 24 1024 73 16093 7.2 80 23:44 17.01.2020
4164 Rain 24 1024 61 16093 5.7 50 23:20 17.01.2020
4165 Rain 24 1024 61 16093 8.7 40 22:59 17.01.2020
4166 Rain 24 1023 88 16093 6.2 50 22:40 17.01.2020
4167 Rain 24 1024 65 16093 8.2 60 22:18 17.01.2020
4168 Clouds 24 1023 78 16093 8.7 70 21:42 17.01.2020
4169 Clouds 25 1023 61 16093 9.8 60 21:24 17.01.2020
4170 Rain 25 1024 73 16093 9.3 60 20:59 17.01.2020
4171 Rain 25 1024 73 16093 9.3 60 20:40 17.01.2020
4172 Rain 25 1024 73 16093 9.3 60 20:20 17.01.2020
4173 Rain 26 1024 69 16093 9.3 70 19:57 17.01.2020
4174 Rain 26 1024 65 16093 6.7 70 19:38 17.01.2020
4175 Rain 26 1024 65 16093 6.7 70 19:19 17.01.2020
4176 Rain 26 1025 73 16093 6.2 70 18:57 17.01.2020
4177 Rain 25 1025 94 12874 2.6 90 18:36 17.01.2020
4178 Rain 25 1025 94 12874 5.1 70 18:18 17.01.2020
4179 Rain 24 1025 94 3219 4.1 60 17:39 17.01.2020
4180 Rain 24 1025 78 16093 7.2 60 17:21 17.01.2020
4181 Rain 24 1025 78 16093 3.6 80 16:44 17.01.2020
4182 Rain 23 1025 78 16093 4.6 90 16:21 17.01.2020
4183 Rain 23 1025 83 16093 2.6 40 15:58 17.01.2020
4184 Rain 23 1025 83 16093 2.6 40 15:40 17.01.2020
4185 Rain 23 1025 83 16093 2.6 40 15:40 17.01.2020
4186 Rain 23 1025 83 16093 3.6 80 15:21 17.01.2020
4187 Rain 23 1024 78 14484 10.86 58 14:43 17.01.2020
4188 Rain 22 1025 94 16093 1.5 30 14:24 17.01.2020
4189 Rain 21 1024 94 14484 1.5 340 13:45 17.01.2020
4190 Rain 21 1024 78 16093 6.94 52 13:23 17.01.2020
4191 Rain 21 1024 83 16093 2.1 340 12:48 17.01.2020
4192 Rain 21 1023 88 16093 2.1 350 12:23 17.01.2020
4193 Rain 20 1023 88 16093 6.94 52 11:56 17.01.2020
4194 Rain 20 1023 88 16093 6.94 52 11:37 17.01.2020
4195 Clouds 20 1023 83 16093 6.28 50 11:18 17.01.2020
4196 Haze 20 1023 83 9656 1.5 330 10:41 17.01.2020
4197 Clouds 20 1023 77 16093 6.28 50 10:22 17.01.2020
4198 Clouds 20 1023 77 16093 6.28 50 09:56 17.01.2020
4199 Clouds 20 1023 77 16093 6.28 50 09:37 17.01.2020
4200 Clouds 20 1023 77 16093 6.28 50 09:18 17.01.2020
4201 Clouds 20 1023 73 16093 6.28 50 08:42 17.01.2020
4202 Clouds 20 1023 73 16093 6.28 50 08:23 17.01.2020
4203 Clouds 21 1024 69 16093 1.5 40 07:51 17.01.2020
4204 Clouds 21 1024 69 16093 1.5 40 07:31 17.01.2020
4205 Clouds 21 1024 69 16093 1.5 50 06:57 17.01.2020
4206 Clouds 21 1024 69 16093 1.5 50 06:37 17.01.2020
4207 Clouds 21 1024 69 16093 2.1 60 05:27 17.01.2020
4208 Clear 22 1024 64 16093 2.1 60 03:39 17.01.2020
4209 Clear 22 1024 82 16093 2.6 90 02:44 17.01.2020
4210 Clear 23 1024 64 16093 2.6 70 01:46 17.01.2020
4211 Clear 23 1024 64 16093 2.6 70 01:27 17.01.2020
4212 Clouds 23 1023 69 16093 3.1 60 00:44 17.01.2020
4213 Clouds 24 1023 69 16093 3.1 60 00:20 17.01.2020
4214 Clouds 25 1023 54 16093 5.1 80 23:42 16.01.2020
4215 Clouds 25 1023 54 16093 5.1 80 23:24 16.01.2020
4216 Clouds 26 1023 51 16093 5.1 90 22:43 16.01.2020
4217 Clouds 26 1023 51 16093 5.1 90 22:22 16.01.2020
4218 Clouds 27 1023 51 16093 5.7 80 21:57 16.01.2020
4219 Clouds 27 1023 51 16093 5.7 80 21:39 16.01.2020
4220 Clouds 27 1023 51 16093 5.7 80 21:20 16.01.2020
4221 Clouds 27 1023 51 16093 4.6 80 20:59 16.01.2020
4222 Clouds 27 1023 51 16093 4.6 80 20:40 16.01.2020
4223 Clouds 27 1023 51 16093 4.6 80 20:20 16.01.2020
4224 Clear 27 1023 51 16093 2.6 0 19:57 16.01.2020
4225 Clear 27 1023 51 16093 2.6 0 19:39 16.01.2020
4226 Clear 27 1023 51 16093 2.6 0 19:20 16.01.2020
4227 Clouds 27 1024 51 16093 3.1 80 18:57 16.01.2020
4228 Clouds 27 1024 51 16093 3.1 80 18:37 16.01.2020
4229 Clouds 27 1024 51 16093 3.1 80 18:18 16.01.2020
4230 Clouds 27 1025 54 16093 3.6 80 17:58 16.01.2020
4231 Clouds 27 1025 54 16093 3.6 80 17:39 16.01.2020
4232 Clouds 26 1025 54 16093 3.6 80 17:20 16.01.2020
4233 Clouds 26 1025 54 16093 4.1 100 16:41 16.01.2020
4234 Clouds 26 1025 54 16093 4.1 100 16:21 16.01.2020
4235 Clouds 25 1025 64 16093 1.5 0 15:57 16.01.2020
4236 Clouds 25 1025 64 16093 1.5 0 15:38 16.01.2020
4237 Clouds 24 1025 64 16093 1.5 0 15:20 16.01.2020
4238 Clouds 21 1024 77 16093 3.79 85 14:42 16.01.2020
4239 Clouds 20 1024 77 16093 3.79 85 14:24 16.01.2020
4240 Clouds 19 1024 82 16093 3.25 107 13:55 16.01.2020
4241 Clouds 18 1024 82 16093 3.25 107 13:37 16.01.2020
4242 Clouds 18 1024 82 16093 3.72 110 13:19 16.01.2020
4243 Clouds 18 1023 82 16093 3.72 110 12:41 16.01.2020
4244 Clouds 18 1023 82 16093 3.72 110 12:21 16.01.2020
4245 Clouds 19 1023 82 16093 3.72 110 11:43 16.01.2020
4246 Clouds 18 1023 82 16093 3.72 110 11:24 16.01.2020
4247 Clouds 18 1023 77 16093 5.13 104 10:59 16.01.2020
4248 Clouds 18 1023 77 16093 5.13 104 10:38 16.01.2020
4249 Clouds 18 1023 77 16093 5.13 104 10:20 16.01.2020
4250 Clouds 18 1023 82 16093 5.13 104 09:54 16.01.2020
4251 Clouds 18 1023 82 16093 5.13 104 09:36 16.01.2020
4252 Clouds 18 1023 82 16093 5.13 104 09:18 16.01.2020
4253 Clouds 19 1023 73 16093 5.13 104 08:42 16.01.2020
4254 Clouds 19 1023 73 16093 5 98 08:22 16.01.2020
4255 Clouds 19 1024 68 16093 2.1 360 07:43 16.01.2020
4256 Clouds 19 1024 68 16093 2.1 360 07:25 16.01.2020
4257 Clouds 20 1024 64 16093 5.87 89 06:55 16.01.2020
4258 Clouds 20 1024 64 16093 5.87 89 06:35 16.01.2020
4259 Clouds 20 1024 64 16093 1.5 110 05:56 16.01.2020
4260 Clouds 21 1024 64 16093 1.5 110 05:30 16.01.2020
4261 Clouds 21 1024 64 16093 3.1 90 04:37 16.01.2020
4262 Clouds 22 1024 60 16093 2.6 40 03:27 16.01.2020
4263 Clouds 22 1023 64 16093 2.6 90 02:24 16.01.2020
4264 Clouds 23 1022 60 16093 5.1 110 00:44 16.01.2020
4265 Clouds 24 1022 60 16093 5.1 110 00:23 16.01.2020
4266 Clouds 25 1022 47 16093 5.1 110 23:46 15.01.2020
4267 Clouds 25 1022 47 16093 5.1 110 23:22 15.01.2020
4268 Clouds 26 1022 54 16093 6.2 120 22:57 15.01.2020
4269 Clouds 26 1022 54 16093 6.2 120 22:39 15.01.2020
4270 Clouds 26 1022 54 16093 6.2 120 22:19 15.01.2020
4271 Clouds 27 1022 47 16093 5.1 120 21:57 15.01.2020
4272 Clouds 27 1022 47 16093 5.1 120 21:37 15.01.2020
4273 Clouds 27 1022 47 16093 5.1 120 21:19 15.01.2020
4274 Clouds 27 1022 51 16093 4.6 120 20:56 15.01.2020
4275 Clouds 27 1022 51 16093 4.6 120 20:38 15.01.2020
4276 Clouds 27 1022 51 16093 4.6 120 20:19 15.01.2020
4277 Clouds 27 1022 57 16093 5.1 130 19:54 15.01.2020
4278 Clouds 27 1022 51 16093 4.1 110 19:36 15.01.2020
4279 Clouds 27 1022 51 16093 4.1 110 19:18 15.01.2020
4280 Clouds 27 1022 51 16093 4.1 110 19:18 15.01.2020
4281 Clouds 27 1023 51 16093 5.1 110 18:56 15.01.2020
4282 Clouds 27 1023 51 16093 5.1 110 18:37 15.01.2020
4283 Clouds 27 1023 51 16093 5.1 110 18:19 15.01.2020
4284 Clouds 27 1024 51 16093 6.2 110 17:55 15.01.2020
4285 Clouds 27 1024 51 16093 6.2 110 17:37 15.01.2020
4286 Clouds 26 1024 51 16093 6.2 110 17:18 15.01.2020
4287 Clouds 26 1024 54 16093 5.7 100 16:40 15.01.2020
4288 Clouds 26 1024 54 16093 5.7 100 16:21 15.01.2020
4289 Clouds 25 1024 57 16093 4.6 110 15:57 15.01.2020
4290 Clouds 25 1024 57 16093 4.6 110 15:39 15.01.2020
4291 Clouds 24 1024 57 16093 4.6 110 15:18 15.01.2020
4292 Smoke 22 1024 64 16093 3.6 90 14:43 15.01.2020
4293 Smoke 21 1024 64 16093 3.6 90 14:20 15.01.2020
4294 Clouds 20 1023 68 16093 1.5 120 13:46 15.01.2020
4295 Clouds 20 1023 68 16093 1.5 120 13:27 15.01.2020
4296 Clouds 19 1023 73 16093 4.61 104 12:59 15.01.2020
4297 Clouds 19 1023 73 16093 4.61 104 12:40 15.01.2020
4298 Clouds 19 1023 73 16093 4.61 104 12:20 15.01.2020
4299 Clouds 20 1023 68 16093 2.1 90 11:58 15.01.2020
4300 Clouds 20 1023 68 16093 2.1 90 11:37 15.01.2020
4301 Clouds 20 1023 68 16093 2.1 90 11:19 15.01.2020
4302 Clouds 20 1023 68 16093 2.1 130 10:46 15.01.2020
4303 Clouds 20 1023 68 16093 2.1 130 10:27 15.01.2020
4304 Clouds 21 1023 68 16093 2.1 110 09:46 15.01.2020
4305 Clouds 21 1023 68 16093 2.1 110 09:26 15.01.2020
4306 Clouds 21 1023 73 16093 1.5 110 08:59 15.01.2020
4307 Clouds 21 1023 73 16093 1.5 110 08:41 15.01.2020
4308 Clouds 21 1023 68 16093 3.1 110 08:22 15.01.2020
4309 Clouds 21 1024 73 16093 3.1 100 07:52 15.01.2020
4310 Clouds 21 1024 73 16093 3.1 100 07:32 15.01.2020
4311 Clouds 22 1024 73 16093 3.1 90 06:46 15.01.2020
4312 Clouds 22 1024 73 16093 3.1 90 06:20 15.01.2020
4313 Clouds 22 1024 73 16093 3.6 90 04:45 15.01.2020
4314 Clouds 23 1024 69 16093 4.1 90 02:39 15.01.2020
4315 Clouds 23 1023 69 16093 4.1 80 01:28 15.01.2020
4316 Clouds 24 1023 65 16093 3.6 110 00:59 15.01.2020
4317 Clouds 24 1023 65 16093 3.6 110 00:36 15.01.2020
4318 Clouds 24 1023 65 16093 3.6 110 00:18 15.01.2020
4319 Clouds 25 1023 57 16093 5.1 110 23:45 14.01.2020
4320 Clouds 25 1023 57 16093 5.1 110 23:24 14.01.2020
4321 Clouds 26 1023 54 16093 4.6 110 22:41 14.01.2020
4322 Clouds 27 1023 54 16093 4.6 110 22:20 14.01.2020
4323 Clouds 27 1022 65 16093 4.6 100 21:59 14.01.2020
4324 Clouds 27 1022 65 16093 4.6 100 21:41 14.01.2020
4325 Clouds 27 1023 51 16093 7.2 130 21:23 14.01.2020
4326 Clouds 27 1023 54 16093 8.2 110 20:59 14.01.2020
4327 Clouds 27 1023 54 16093 8.2 110 20:41 14.01.2020
4328 Clouds 27 1022 61 16093 8.2 130 20:21 14.01.2020
4329 Clouds 27 1024 57 16093 8.2 100 19:56 14.01.2020
4330 Clouds 27 1024 57 16093 8.2 100 19:38 14.01.2020
4331 Clouds 27 1024 57 16093 8.2 100 19:19 14.01.2020
4332 Clouds 27 1024 69 16093 5.1 110 18:56 14.01.2020
4333 Clouds 27 1024 69 16093 5.1 110 18:37 14.01.2020
4334 Clouds 27 1025 61 16093 7.7 140 18:19 14.01.2020
4335 Clouds 27 1025 61 16093 8.2 110 17:39 14.01.2020
4336 Clouds 27 1025 61 16093 8.2 110 17:19 14.01.2020
4337 Clouds 27 1026 61 16093 6.7 110 16:56 14.01.2020
4338 Clouds 27 1026 61 16093 6.7 110 16:38 14.01.2020
4339 Clouds 27 1025 65 16093 7.2 120 16:19 14.01.2020
4340 Clouds 26 1025 69 16093 7.7 120 15:43 14.01.2020
4341 Clouds 26 1025 78 16093 6.7 130 15:19 14.01.2020
4342 Clouds 25 1025 78 16093 4.6 120 14:59 14.01.2020
4343 Clouds 25 1025 78 16093 4.6 120 14:41 14.01.2020
4344 Clouds 24 1025 78 16093 6.7 100 14:19 14.01.2020
4345 Clouds 24 1025 83 16093 6.2 100 13:42 14.01.2020
4346 Rain 24 1025 83 16093 5.1 100 13:20 14.01.2020
4347 Rain 24 1025 94 16093 3.6 140 12:56 14.01.2020
4348 Rain 24 1025 94 16093 3.6 140 12:56 14.01.2020
4349 Rain 24 1025 94 16093 3.6 140 12:38 14.01.2020
4350 Rain 24 1025 94 16093 3.6 140 12:20 14.01.2020
4351 Rain 24 1024 94 16093 2.6 110 11:42 14.01.2020
4352 Rain 24 1024 94 16093 3.1 110 11:22 14.01.2020
4353 Rain 24 1025 88 16093 4.6 100 10:57 14.01.2020
4354 Rain 24 1025 88 16093 4.6 100 10:38 14.01.2020
4355 Rain 24 1024 88 16093 4.1 110 10:19 14.01.2020
4356 Rain 24 1024 94 14484 3.6 90 09:56 14.01.2020
4357 Rain 24 1024 94 14484 3.6 90 09:37 14.01.2020
4358 Rain 24 1024 94 16093 4.6 100 09:19 14.01.2020
4359 Rain 24 1025 83 16093 5.7 110 08:41 14.01.2020
4360 Rain 24 1025 83 16093 4.6 110 08:22 14.01.2020
4361 Rain 24 1026 83 16093 4.6 100 07:53 14.01.2020
4362 Clouds 24 1025 94 16093 3.6 100 07:26 14.01.2020
4363 Clouds 24 1026 83 16093 3.6 100 06:50 14.01.2020
4364 Clouds 24 1026 83 16093 4.6 100 06:18 14.01.2020
4365 Clouds 24 1027 88 16093 3.6 110 04:56 14.01.2020
4366 Clouds 24 1027 88 16093 5.1 110 03:48 14.01.2020
4367 Rain 24 1025 88 16093 3.6 70 02:40 14.01.2020
4368 Rain 25 1025 74 16093 5.7 70 01:31 14.01.2020
4369 Clouds 25 1024 78 16093 3.6 60 00:48 14.01.2020
4370 Clouds 25 1025 73 16093 4.6 90 00:26 14.01.2020
4371 Clouds 25 1025 73 16093 4.1 100 23:47 13.01.2020
4372 Clouds 26 1025 61 16093 5.1 90 23:19 13.01.2020
4373 Clouds 26 1024 57 16093 7.2 100 22:58 13.01.2020
4374 Clouds 26 1024 57 16093 7.2 100 22:39 13.01.2020
4375 Clouds 26 1024 57 16093 7.2 100 22:20 13.01.2020
4376 Clouds 27 1025 57 16093 6.7 100 21:56 13.01.2020
4377 Clouds 27 1025 57 16093 6.7 100 21:56 13.01.2020
4378 Clouds 27 1025 57 16093 6.7 100 21:37 13.01.2020
4379 Clouds 27 1025 57 16093 6.7 100 21:18 13.01.2020
4380 Clouds 27 1025 57 16093 6.7 100 21:18 13.01.2020
4381 Clouds 27 1025 54 16093 8.2 100 20:56 13.01.2020
4382 Clouds 27 1025 54 16093 8.2 100 20:38 13.01.2020
4383 Clouds 27 1025 54 16093 8.2 100 20:19 13.01.2020
4384 Clouds 27 1025 69 16093 6.2 70 19:42 13.01.2020
4385 Clouds 27 1026 61 16093 8.7 90 19:22 13.01.2020
4386 Clouds 27 1027 61 16093 7.7 110 18:59 13.01.2020
4387 Clouds 27 1027 61 16093 7.7 110 18:40 13.01.2020
4388 Clouds 27 1027 61 16093 7.7 110 18:20 13.01.2020
4389 Clouds 27 1027 61 16093 7.2 100 17:59 13.01.2020
4390 Clouds 27 1027 61 16093 7.2 100 17:40 13.01.2020
4391 Clouds 27 1027 61 16093 7.2 100 17:21 13.01.2020
4392 Clouds 27 1027 61 16093 7.2 100 17:21 13.01.2020
4393 Clouds 26 1027 61 16093 8.2 100 16:55 13.01.2020
4394 Clouds 26 1028 57 16093 6.7 110 16:36 13.01.2020
4395 Clouds 26 1028 57 16093 6.7 110 16:36 13.01.2020
4396 Clouds 26 1028 57 16093 6.7 110 16:18 13.01.2020
4397 Clouds 25 1027 69 16093 6.7 100 15:42 13.01.2020
4398 Clouds 25 1027 69 16093 6.7 100 15:22 13.01.2020
4399 Clouds 24 1026 80 0 1.34 86 14:56 13.01.2020
4400 Clouds 24 1026 87 0 0.89 103 14:36 13.01.2020
4401 Clouds 24 1025 78 16093 5.7 110 14:18 13.01.2020
4402 Clouds 23 1025 78 16093 5.7 110 13:40 13.01.2020
4403 Clouds 23 1024 86 0 1.34 86 13:22 13.01.2020
4404 Clouds 23 1025 85 0 0.45 133 12:58 13.01.2020
4405 Clouds 23 1024 88 0 0.89 103 12:40 13.01.2020
4406 Clouds 23 1025 94 16093 4.1 80 12:21 13.01.2020
4407 Clouds 23 1025 94 16093 4.1 80 11:56 13.01.2020
4408 Clouds 23 1025 94 16093 4.1 80 11:36 13.01.2020
4409 Clouds 23 1025 94 16093 4.1 80 11:18 13.01.2020
4410 Clouds 23 1025 73 16093 5.1 90 10:55 13.01.2020
4411 Clouds 23 1025 73 16093 5.1 90 10:36 13.01.2020
4412 Clouds 23 1025 73 16093 5.1 90 10:18 13.01.2020
4413 Clouds 23 1024 73 16093 5.1 100 09:40 13.01.2020
4414 Clouds 23 1024 73 16093 5.1 100 09:22 13.01.2020
4415 Clouds 23 1025 73 16093 5.1 100 08:42 13.01.2020
4416 Clouds 23 1025 73 16093 5.1 100 08:21 13.01.2020
4417 Clouds 24 1025 88 16093 4.6 110 07:57 13.01.2020
4418 Clouds 24 1025 88 16093 4.6 110 07:38 13.01.2020
4419 Clouds 24 1025 73 16093 5.7 100 06:55 13.01.2020
4420 Clouds 24 1025 73 16093 6.2 120 06:36 13.01.2020
4421 Clouds 24 1025 73 16093 6.2 120 06:36 13.01.2020
4422 Clouds 24 1026 78 16093 5.1 110 05:36 13.01.2020
4423 Clouds 24 1025 78 16093 6.2 100 04:25 13.01.2020
4424 Clouds 24 1025 78 16093 8.7 100 03:31 13.01.2020
4425 Clouds 24 1025 83 16093 5.1 90 02:47 13.01.2020
4426 Clouds 24 1025 83 16093 5.1 90 02:29 13.01.2020
4427 Clouds 24 1025 88 16093 3.6 100 01:23 13.01.2020
4428 Clouds 25 1025 83 16093 5.1 100 00:42 13.01.2020
4429 Clouds 25 1025 83 16093 5.1 100 00:24 13.01.2020
4430 Clouds 25 1024 78 16093 4.1 80 23:56 12.01.2020
4431 Clouds 25 1024 78 16093 4.1 80 23:37 12.01.2020
4432 Clouds 26 1024 74 16093 6.7 100 23:19 12.01.2020
4433 Clouds 26 1023 78 16093 4.6 80 22:42 12.01.2020
4434 Clouds 26 1024 69 12874 7.7 110 22:24 12.01.2020
4435 Clouds 27 1024 69 12874 7.7 100 21:57 12.01.2020
4436 Clouds 27 1024 69 12874 7.7 100 21:38 12.01.2020
4437 Clouds 27 1024 69 12874 7.7 100 21:20 12.01.2020
4438 Clouds 27 1024 74 16093 8.2 120 20:57 12.01.2020
4439 Clouds 27 1024 74 16093 8.2 120 20:38 12.01.2020
4440 Clouds 27 1024 74 16093 8.2 120 20:20 12.01.2020
4441 Clouds 27 1024 78 14484 7.7 120 19:56 12.01.2020
4442 Clouds 27 1024 78 14484 7.7 120 19:38 12.01.2020
4443 Clouds 27 1025 69 16093 8.7 130 19:19 12.01.2020
4444 Rain 27 1025 74 16093 7.7 110 18:57 12.01.2020
4445 Rain 27 1025 74 16093 7.7 110 18:39 12.01.2020
4446 Rain 27 1025 74 16093 7.7 110 18:21 12.01.2020
4447 Rain 27 1026 74 16093 7.7 120 17:56 12.01.2020
4448 Rain 26 1026 83 16093 8.2 130 17:37 12.01.2020
4449 Rain 26 1026 83 16093 8.2 130 17:18 12.01.2020
4450 Clouds 26 1026 74 12874 7.2 110 16:55 12.01.2020
4451 Rain 26 1026 83 16093 6.2 110 16:37 12.01.2020
4452 Rain 26 1026 78 16093 7.2 130 16:18 12.01.2020
4453 Rain 26 1026 83 16093 6.7 130 15:42 12.01.2020
4454 Clouds 26 1026 83 16093 5.1 130 15:24 12.01.2020
4455 Clouds 26 1026 83 16093 5.1 130 15:24 12.01.2020
4456 Clouds 25 1026 78 16093 4.1 130 14:56 12.01.2020
4457 Clouds 25 1025 83 16093 4.6 130 14:37 12.01.2020
4458 Clouds 25 1025 78 16093 4.6 120 14:18 12.01.2020
4459 Clouds 24 1024 88 16093 5.7 130 13:42 12.01.2020
4460 Clouds 24 1024 88 16093 5.7 130 13:23 12.01.2020
4461 Clouds 24 1024 88 16093 3.6 120 12:58 12.01.2020
4462 Clouds 24 1024 88 16093 3.6 120 12:38 12.01.2020
4463 Clouds 24 1024 83 16093 3.1 120 12:20 12.01.2020
4464 Clouds 24 1024 94 16093 2.6 130 11:57 12.01.2020
4465 Clouds 24 1024 83 16093 3.6 130 11:38 12.01.2020
4466 Clouds 24 1024 83 16093 3.6 130 11:19 12.01.2020
4467 Clouds 24 1023 88 16093 3.1 120 10:41 12.01.2020
4468 Clouds 24 1024 83 16093 4.1 110 10:21 12.01.2020
4469 Clouds 24 1024 78 16093 5.1 120 09:56 12.01.2020
4470 Clouds 24 1024 78 16093 5.1 120 09:38 12.01.2020
4471 Clouds 24 1023 83 16093 5.7 120 09:18 12.01.2020
4472 Haze 24 1024 78 9656 5.1 130 08:42 12.01.2020
4473 Clouds 24 1024 78 16093 4.1 110 08:19 12.01.2020
4474 Clouds 24 1024 83 16093 3.6 130 07:40 12.01.2020
4475 Clouds 24 1024 88 16093 2.6 130 07:21 12.01.2020
4476 Clouds 24 1025 78 16093 4.1 130 06:43 12.01.2020
4477 Clouds 24 1025 83 16093 3.1 120 06:19 12.01.2020
4478 Clouds 24 1025 83 16093 4.1 130 05:23 12.01.2020
4479 Clouds 25 1024 74 16093 5.1 130 03:47 12.01.2020
4480 Clouds 25 1024 74 16093 3.6 110 03:22 12.01.2020
4481 Clouds 24 1024 83 16093 3.6 120 02:30 12.01.2020
4482 Clouds 25 1023 69 16093 4.6 120 01:42 12.01.2020
4483 Clouds 25 1023 69 16093 4.6 120 01:22 12.01.2020
4484 Clouds 25 1023 69 16093 5.1 130 00:40 12.01.2020
4485 Clouds 25 1023 69 16093 5.1 130 00:40 12.01.2020
4486 Clouds 25 1023 69 16093 5.1 130 00:20 12.01.2020
4487 Clouds 26 1022 74 16093 5.7 130 23:42 11.01.2020
4488 Clouds 26 1023 69 16093 6.2 130 23:19 11.01.2020
4489 Clouds 26 1022 69 16093 7.7 140 22:58 11.01.2020
4490 Clouds 27 1022 74 16093 7.7 140 22:39 11.01.2020
4491 Clouds 27 1022 65 16093 7.7 130 22:20 11.01.2020
4492 Clouds 27 1022 74 16093 8.2 130 21:58 11.01.2020
4493 Clouds 27 1022 74 16093 8.2 130 21:39 11.01.2020
4494 Clouds 27 1022 69 16093 9.8 130 21:18 11.01.2020
4495 Clouds 27 1022 69 16093 9.8 130 21:18 11.01.2020
4496 Clouds 27 1022 69 16093 8.7 140 20:40 11.01.2020
4497 Clouds 28 1022 69 16093 8.2 140 20:22 11.01.2020
4498 Clouds 28 1022 65 16093 10.3 120 19:58 11.01.2020
4499 Clouds 27 1022 65 16093 10.3 120 19:39 11.01.2020
4500 Clouds 28 1023 65 16093 10.8 130 19:21 11.01.2020
4501 Clouds 27 1022 74 16093 7.7 120 18:58 11.01.2020
4502 Clouds 27 1022 74 16093 7.7 120 18:38 11.01.2020
4503 Clouds 27 1023 69 16093 11.8 120 18:19 11.01.2020
4504 Clouds 27 1024 74 16093 9.3 130 17:57 11.01.2020
4505 Clouds 27 1024 74 16093 9.3 130 17:57 11.01.2020
4506 Clouds 27 1024 69 16093 10.8 130 17:39 11.01.2020
4507 Clouds 27 1024 69 16093 10.8 130 17:39 11.01.2020
4508 Clouds 27 1024 69 16093 10.8 130 17:19 11.01.2020
4509 Clouds 26 1025 74 16093 10.3 130 16:45 11.01.2020
4510 Clouds 26 1025 74 16093 8.7 130 16:27 11.01.2020
4511 Clouds 26 1024 78 16093 6.7 130 15:58 11.01.2020
4512 Clouds 26 1024 78 16093 6.7 130 15:40 11.01.2020
4513 Clouds 25 1024 74 16093 7.2 120 15:20 11.01.2020
4514 Clouds 25 1024 83 16093 7.7 130 14:56 11.01.2020
4515 Clouds 25 1023 78 16093 6.7 100 14:38 11.01.2020
4516 Clouds 24 1024 88 16093 8.2 130 14:19 11.01.2020
4517 Clouds 24 1023 88 16093 6.7 120 13:39 11.01.2020
4518 Clouds 24 1024 88 16093 7.7 120 13:20 11.01.2020
4519 Clouds 24 1023 88 16093 5.7 110 12:58 11.01.2020
4520 Clouds 24 1023 88 16093 5.7 110 12:39 11.01.2020
4521 Clouds 24 1024 83 16093 8.2 110 12:21 11.01.2020
4522 Clouds 24 1022 83 16093 6.7 90 11:47 11.01.2020
4523 Clouds 24 1023 88 16093 6.7 110 11:26 11.01.2020
4524 Clouds 24 1023 88 16093 6.2 110 10:50 11.01.2020
4525 Rain 24 1023 83 14484 7.2 100 10:30 11.01.2020
4526 Rain 24 1022 83 16093 6.2 90 09:55 11.01.2020
4527 Rain 24 1022 83 16093 6.2 90 09:37 11.01.2020
4528 Rain 24 1024 88 16093 10.3 120 09:18 11.01.2020
4529 Rain 24 1024 83 16093 9.3 110 08:41 11.01.2020
4530 Rain 24 1024 83 11265 9.3 100 08:21 11.01.2020
4531 Rain 24 1024 78 16093 7.2 110 07:44 11.01.2020
4532 Clouds 24 1024 83 14484 8.7 100 07:25 11.01.2020
4533 Rain 24 1025 88 16093 7.7 110 06:48 11.01.2020
4534 Rain 24 1025 83 16093 8.7 110 05:34 11.01.2020
4535 Rain 24 1025 88 16093 5.7 110 04:46 11.01.2020
4536 Rain 24 1025 83 9656 7.7 90 04:27 11.01.2020
4537 Rain 24 1025 83 16093 7.2 100 02:49 11.01.2020
4538 Rain 24 1025 78 16093 8.7 100 02:20 11.01.2020
4539 Rain 24 1025 83 16093 9.3 100 01:42 11.01.2020
4540 Rain 24 1025 83 16093 9.3 100 01:18 11.01.2020
4541 Clouds 24 1024 69 16093 9.8 90 00:38 11.01.2020
4542 Clouds 24 1024 83 14484 9.8 90 23:59 10.01.2020
4543 Clouds 25 1024 83 14484 9.8 90 23:40 10.01.2020
4544 Clouds 25 1024 61 16093 8.7 100 23:21 10.01.2020
4545 Clouds 25 1024 61 16093 9.8 90 22:57 10.01.2020
4546 Clouds 25 1024 61 16093 9.8 90 22:39 10.01.2020
4547 Clouds 25 1024 61 16093 9.8 90 22:20 10.01.2020
4548 Clouds 25 1023 78 16093 7.7 70 21:56 10.01.2020
4549 Clouds 25 1023 78 16093 7.7 70 21:36 10.01.2020
4550 Clouds 25 1024 65 16093 9.3 110 21:18 10.01.2020
4551 Clouds 25 1023 73 16093 6.2 70 20:43 10.01.2020
4552 Clouds 25 1023 73 16093 6.2 70 20:43 10.01.2020
4553 Clouds 25 1024 61 16093 8.7 100 20:24 10.01.2020
4554 Clouds 25 1025 69 16093 9.8 100 19:58 10.01.2020
4555 Clouds 26 1025 61 16093 10.3 110 19:38 10.01.2020
4556 Clouds 26 1025 57 16093 11.8 90 19:19 10.01.2020
4557 Rain 26 1026 73 6437 8.2 100 18:43 10.01.2020
4558 Clouds 26 1026 54 16093 11.8 90 18:19 10.01.2020
4559 Clouds 25 1027 65 16093 8.7 100 17:57 10.01.2020
4560 Clouds 25 1027 65 16093 8.7 100 17:57 10.01.2020
4561 Clouds 25 1027 65 16093 8.7 100 17:39 10.01.2020
4562 Clouds 25 1027 65 16093 8.7 100 17:20 10.01.2020
4563 Clouds 25 1027 61 16093 9.3 100 16:57 10.01.2020
4564 Clouds 25 1027 61 16093 9.3 100 16:38 10.01.2020
4565 Clouds 25 1027 61 16093 9.3 100 16:19 10.01.2020
4566 Clouds 25 1026 78 16093 6.7 80 15:56 10.01.2020
4567 Clouds 25 1026 65 16093 10.3 90 15:37 10.01.2020
4568 Clouds 24 1026 65 16093 10.3 90 15:18 10.01.2020
4569 Clouds 24 1025 73 16093 8.2 70 14:55 10.01.2020
4570 Clouds 24 1025 73 16093 8.2 70 14:37 10.01.2020
4571 Clouds 24 1026 69 16093 9.8 100 14:18 10.01.2020
4572 Clouds 24 1026 69 16093 10.3 100 13:44 10.01.2020
4573 Clouds 23 1025 69 16093 9.3 100 13:26 10.01.2020
4574 Clouds 23 1025 78 16093 7.7 100 12:59 10.01.2020
4575 Clouds 23 1025 78 16093 7.7 100 12:39 10.01.2020
4576 Clouds 23 1025 78 16093 7.7 100 12:21 10.01.2020
4577 Clouds 23 1025 78 16093 7.7 100 12:21 10.01.2020
4578 Clouds 23 1025 73 16093 8.7 110 11:56 10.01.2020
4579 Clouds 23 1026 73 16093 8.7 100 11:38 10.01.2020
4580 Clouds 23 1025 78 16093 7.7 110 11:19 10.01.2020
4581 Clouds 23 1025 78 16093 6.7 110 10:58 10.01.2020
4582 Clouds 23 1025 78 16093 6.7 110 10:58 10.01.2020
4583 Clouds 23 1025 78 16093 9.3 100 10:37 10.01.2020
4584 Clouds 23 1025 69 16093 10.3 90 10:18 10.01.2020
4585 Clouds 23 1025 83 16093 7.7 100 09:45 10.01.2020
4586 Clouds 23 1026 73 16093 7.7 100 09:25 10.01.2020
4587 Rain 23 1026 73 16093 8.7 100 08:44 10.01.2020
4588 Rain 23 1026 69 16093 7.7 90 08:24 10.01.2020
4589 Clouds 23 1026 78 16093 8.7 100 07:58 10.01.2020
4590 Clouds 23 1026 78 16093 8.7 100 07:58 10.01.2020
4591 Clouds 23 1026 78 16093 8.7 100 07:39 10.01.2020
4592 Clouds 23 1026 78 16093 7.7 100 07:19 10.01.2020
4593 Clouds 23 1027 64 16093 8.7 90 06:27 10.01.2020
4594 Clouds 23 1026 73 16093 6.2 70 05:59 10.01.2020
4595 Clouds 23 1028 64 16093 8.2 90 04:44 10.01.2020
4596 Clouds 23 1027 64 16093 7.7 80 03:31 10.01.2020
4597 Clouds 23 1027 60 16093 9.3 80 02:52 10.01.2020
4598 Clouds 23 1027 60 16093 6.7 80 01:53 10.01.2020
4599 Clouds 23 1027 69 16093 7.2 100 01:30 10.01.2020
4600 Clouds 23 1027 60 16093 9.3 80 00:49 10.01.2020
4601 Clouds 23 1027 60 16093 9.3 80 00:31 10.01.2020
4602 Clouds 23 1027 64 16093 8.7 100 23:55 09.01.2020
4603 Clouds 23 1026 57 16093 7.7 80 23:36 09.01.2020
4604 Clouds 23 1026 57 16093 7.7 80 23:18 09.01.2020
4605 Clouds 24 1027 53 16093 10.8 90 22:54 09.01.2020
4606 Clouds 24 1027 53 16093 10.8 90 22:36 09.01.2020
4607 Clouds 24 1027 53 16093 10.8 90 22:18 09.01.2020
4608 Clouds 24 1026 57 16093 9.3 100 21:54 09.01.2020
4609 Clouds 24 1026 57 16093 9.3 100 21:36 09.01.2020
4610 Clouds 25 1026 47 16093 8.2 70 21:18 09.01.2020
4611 Clouds 25 1026 47 16093 12.9 90 20:54 09.01.2020
4612 Clouds 25 1026 47 16093 12.9 90 20:36 09.01.2020
4613 Clouds 25 1026 47 16093 12.9 90 20:18 09.01.2020
4614 Clouds 25 1027 47 16093 9.8 80 19:39 09.01.2020
4615 Clouds 25 1027 47 16093 9.8 80 19:20 09.01.2020
4616 Clouds 25 1027 47 16093 9.8 80 18:56 09.01.2020
4617 Clouds 25 1028 47 16093 10.8 90 18:38 09.01.2020
4618 Clouds 25 1028 47 16093 10.8 90 18:20 09.01.2020
4619 Clouds 25 1028 47 16093 9.8 80 17:41 09.01.2020
4620 Clouds 25 1028 47 16093 9.8 80 17:19 09.01.2020
4621 Clouds 25 1028 47 16093 9.8 80 16:58 09.01.2020
4622 Clouds 25 1029 47 16093 12.3 80 16:39 09.01.2020
4623 Clouds 24 1029 47 16093 12.3 80 16:20 09.01.2020
4624 Clouds 24 1028 47 16093 9.8 90 15:43 09.01.2020
4625 Clouds 24 1028 47 16093 9.8 90 15:22 09.01.2020
4626 Clouds 23 1028 47 16093 9.8 90 14:58 09.01.2020
4627 Clouds 23 1028 46 16093 8.7 80 14:40 09.01.2020
4628 Clouds 23 1028 46 16093 8.7 80 14:19 09.01.2020
4629 Clouds 22 1028 46 16093 8.7 80 13:55 09.01.2020
4630 Clouds 22 1027 49 16093 6.2 70 13:37 09.01.2020
4631 Clouds 22 1027 49 16093 6.2 70 13:18 09.01.2020
4632 Clouds 22 1027 49 16093 6.2 70 12:55 09.01.2020
4633 Clouds 22 1026 53 16093 9.3 90 12:37 09.01.2020
4634 Clouds 22 1026 53 16093 9.3 90 12:18 09.01.2020
4635 Clouds 22 1026 53 16093 5.7 80 11:42 09.01.2020
4636 Clouds 22 1026 53 16093 5.7 80 11:24 09.01.2020
4637 Clouds 22 1026 53 16093 5.7 80 11:24 09.01.2020
4638 Clouds 22 1026 53 16093 5.7 80 10:58 09.01.2020
4639 Clouds 22 1026 49 16093 5.7 70 10:39 09.01.2020
4640 Clouds 22 1026 49 16093 5.7 70 10:20 09.01.2020
4641 Clouds 22 1026 53 16093 5.1 70 09:45 09.01.2020
4642 Clouds 22 1026 53 16093 5.1 70 09:23 09.01.2020
4643 Clouds 22 1026 53 16093 5.1 70 08:57 09.01.2020
4644 Clouds 22 1026 56 16093 5.1 70 08:38 09.01.2020
4645 Clouds 22 1026 56 16093 5.1 70 08:20 09.01.2020
4646 Clouds 21 1026 53 16093 5.7 80 07:46 09.01.2020
4647 Clouds 21 1026 53 16093 5.7 80 07:28 09.01.2020
4648 Clouds 22 1027 49 16093 5.1 60 06:40 09.01.2020
4649 Clouds 21 1027 49 16093 5.1 60 06:22 09.01.2020
4650 Clouds 21 1027 53 16093 3.6 50 05:51 09.01.2020
4651 Clouds 21 1027 53 16093 3.6 50 05:20 09.01.2020
4652 Clouds 21 1027 53 16093 3.6 60 04:39 09.01.2020
4653 Clouds 21 1027 53 16093 3.1 50 03:27 09.01.2020
4654 Clouds 21 1027 53 16093 3.1 40 02:46 09.01.2020
4655 Clouds 21 1026 53 16093 3.1 40 01:42 09.01.2020
4656 Clouds 22 1026 53 16093 3.1 40 00:59 09.01.2020
4657 Clouds 22 1026 49 16093 3.6 40 00:37 09.01.2020
4658 Clouds 22 1026 49 16093 3.6 40 00:19 09.01.2020
4659 Clouds 22 1025 53 16093 7.2 40 23:39 08.01.2020
4660 Clouds 23 1025 53 16093 7.2 40 23:20 08.01.2020
4661 Clouds 23 1025 53 16093 5.1 50 22:41 08.01.2020
4662 Clouds 23 1025 53 16093 5.1 50 22:23 08.01.2020
4663 Clouds 24 1025 53 16093 5.1 50 21:59 08.01.2020
4664 Clouds 24 1024 47 16093 5.1 50 21:40 08.01.2020
4665 Clouds 24 1024 47 16093 5.1 50 21:21 08.01.2020
4666 Clouds 24 1024 47 16093 5.1 50 20:59 08.01.2020
4667 Clouds 24 1024 47 16093 5.1 50 20:59 08.01.2020
4668 Clouds 24 1024 50 16093 6.7 60 20:41 08.01.2020
4669 Clouds 24 1024 50 16093 6.7 60 20:21 08.01.2020
4670 Clouds 24 1024 53 16093 7.7 60 19:58 08.01.2020
4671 Clouds 24 1025 47 16093 7.28 42 19:38 08.01.2020
4672 Clouds 24 1025 47 16093 7.28 42 19:19 08.01.2020
4673 Clouds 24 1025 47 16093 7.28 42 18:58 08.01.2020
4674 Clouds 24 1026 46 16093 2.6 0 18:39 08.01.2020
4675 Clouds 24 1026 46 16093 2.6 0 18:39 08.01.2020
4676 Clouds 23 1026 46 16093 2.6 0 18:19 08.01.2020
4677 Clouds 23 1026 46 16093 2.6 0 17:57 08.01.2020
4678 Clouds 22 1027 46 16093 3.1 350 17:38 08.01.2020
4679 Clouds 22 1027 46 16093 3.1 350 17:19 08.01.2020
4680 Clouds 22 1027 46 16093 3.1 350 17:19 08.01.2020
4681 Clouds 21 1027 46 16093 3.1 350 16:56 08.01.2020
4682 Clouds 21 1027 52 16093 3.1 360 16:38 08.01.2020
4683 Clouds 20 1027 52 16093 3.1 360 16:18 08.01.2020
4684 Clouds 18 1027 63 16093 2.6 0 15:44 08.01.2020
4685 Clouds 18 1027 63 16093 2.6 0 15:44 08.01.2020
4686 Clouds 18 1027 63 16093 2.6 0 15:21 08.01.2020
4687 Clouds 16 1027 63 16093 2.6 0 14:58 08.01.2020
4688 Clouds 16 1026 67 16093 3.6 350 14:40 08.01.2020
4689 Clouds 16 1026 67 16093 3.6 350 14:40 08.01.2020
4690 Clouds 15 1026 67 16093 3.6 350 14:21 08.01.2020
4691 Clear 14 1026 72 16093 2.1 350 13:41 08.01.2020
4692 Clear 14 1026 72 16093 2.1 350 13:22 08.01.2020
4693 Clear 14 1026 72 16093 2.1 350 13:22 08.01.2020
4694 Clear 14 1026 72 16093 2.1 350 12:55 08.01.2020
4695 Clear 14 1025 77 16093 5.1 360 12:37 08.01.2020
4696 Clear 15 1025 77 16093 5.1 360 12:18 08.01.2020
4697 Clear 15 1024 67 16093 2.6 360 11:48 08.01.2020
4698 Clear 15 1024 67 16093 2.6 360 11:19 08.01.2020
4699 Clear 15 1024 67 16093 2.6 360 10:59 08.01.2020
4700 Clear 15 1024 67 16093 2.6 360 10:59 08.01.2020
4701 Clear 14 1024 67 16093 2.6 350 10:40 08.01.2020
4702 Clear 14 1024 67 16093 2.6 350 10:21 08.01.2020
4703 Clear 14 1024 67 16093 2.6 350 10:21 08.01.2020
4704 Clear 14 1024 59 16093 2.1 330 09:43 08.01.2020
4705 Clear 14 1024 59 16093 2.1 330 09:20 08.01.2020
4706 Clear 14 1024 59 16093 2.1 330 08:58 08.01.2020
4707 Clear 14 1024 72 16093 3.1 330 08:40 08.01.2020
4708 Clear 14 1024 48 16093 1.5 330 08:21 08.01.2020
4709 Clear 14 1024 48 16093 1.5 330 07:52 08.01.2020
4710 Clear 14 1024 48 16093 1.5 350 07:34 08.01.2020
4711 Clear 15 1024 48 16093 1.5 350 06:58 08.01.2020
4712 Clear 15 1024 72 16093 6.67 348 06:40 08.01.2020
4713 Clear 16 1024 67 16093 6.67 348 05:56 08.01.2020
4714 Clear 16 1024 59 16093 6.67 348 05:26 08.01.2020
4715 Clear 17 1024 55 16093 1.5 20 04:36 08.01.2020
4716 Clear 18 1023 64 16093 2.6 360 02:46 08.01.2020
4717 Clear 19 1023 64 16093 2.6 360 02:28 08.01.2020
4718 Clear 19 1023 52 16093 1.5 0 01:56 08.01.2020
4719 Clear 19 1022 60 16093 2.1 360 01:32 08.01.2020
4720 Clear 20 1022 53 16093 6.15 330 00:51 08.01.2020
4721 Clear 21 1021 56 16093 3.1 320 00:22 08.01.2020
4722 Clouds 22 1021 44 16093 3.1 310 23:46 07.01.2020
4723 Clouds 23 1021 44 16093 3.1 310 23:21 07.01.2020
4724 Clouds 24 1021 44 16093 3.1 310 22:55 07.01.2020
4725 Clouds 24 1020 41 16093 3.6 300 22:36 07.01.2020
4726 Clouds 24 1020 41 16093 3.6 300 22:18 07.01.2020
4727 Clouds 24 1020 44 16093 3.6 330 21:42 07.01.2020
4728 Clouds 24 1020 44 16093 3.6 330 21:22 07.01.2020
4729 Clouds 24 1020 44 16093 3.6 330 20:58 07.01.2020
4730 Clouds 25 1020 39 16093 2.1 310 20:39 07.01.2020
4731 Clouds 25 1020 39 16093 2.1 310 20:21 07.01.2020
4732 Clouds 25 1020 39 16093 2.1 310 19:57 07.01.2020
4733 Clouds 25 1021 41 16093 3.6 250 19:37 07.01.2020
4734 Clouds 25 1021 41 16093 3.6 250 19:19 07.01.2020
4735 Clouds 25 1021 41 16093 3.6 250 18:56 07.01.2020
4736 Clouds 25 1022 47 16093 1.92 295 18:38 07.01.2020
4737 Clouds 25 1022 47 16093 1.92 295 18:18 07.01.2020
4738 Clouds 25 1022 47 16093 1.92 295 17:54 07.01.2020
4739 Clouds 24 1023 47 16093 1.5 360 17:36 07.01.2020
4740 Clouds 24 1023 47 16093 1.5 360 17:18 07.01.2020
4741 Clouds 23 1023 47 16093 1.5 360 16:54 07.01.2020
4742 Clouds 23 1023 46 16093 2.1 0 16:36 07.01.2020
4743 Clouds 23 1023 46 16093 2.1 0 16:18 07.01.2020
4744 Clouds 21 1023 52 16093 3.99 306 15:42 07.01.2020
4745 Clouds 20 1023 52 16093 3.99 306 15:23 07.01.2020
4746 Clouds 19 1023 52 16093 3.99 306 14:58 07.01.2020
4747 Clouds 18 1022 55 16093 3.99 306 14:38 07.01.2020
4748 Clouds 17 1022 55 16093 1.35 207 14:19 07.01.2020
4749 Clouds 17 1022 55 16093 1.35 207 14:19 07.01.2020
4750 Clouds 15 1021 59 16093 1.5 330 13:44 07.01.2020
4751 Clouds 15 1021 59 16093 1.5 330 13:20 07.01.2020
4752 Clouds 15 1021 59 16093 1.5 330 12:56 07.01.2020
4753 Clouds 15 1021 59 16093 2.07 186 12:37 07.01.2020
4754 Clouds 15 1021 59 16093 2.07 186 12:18 07.01.2020
4755 Clouds 15 1021 59 16093 2.1 350 11:41 07.01.2020
4756 -273 0 0 0 0 0 11:22 07.01.2020
4757 Clouds 15 1021 59 16093 2.1 350 10:56 07.01.2020
4758 Clouds 15 1021 59 16093 2.1 330 10:37 07.01.2020
4759 Clouds 15 1021 59 16093 2.1 330 10:19 07.01.2020
4760 Clouds 16 1021 55 16093 2.1 330 09:39 07.01.2020
4761 Clouds 16 1021 55 16093 2.1 330 09:21 07.01.2020
4762 Clouds 16 1021 55 16093 2.1 330 08:57 07.01.2020
4763 Clouds 16 1021 55 16093 1.5 330 08:37 07.01.2020
4764 Clouds 16 1021 55 16093 1.5 330 08:18 07.01.2020
4765 Clouds 17 1021 48 16093 2.1 350 07:42 07.01.2020
4766 Clouds 17 1021 48 16093 2.1 350 07:18 07.01.2020
4767 Clouds 17 1021 48 16093 2.1 340 06:36 07.01.2020
4768 Clouds 17 1021 48 16093 2.1 340 05:59 07.01.2020
4769 Clouds 17 1022 52 16093 1.5 360 05:40 07.01.2020
4770 Clouds 18 1022 64 16093 2.1 360 03:46 07.01.2020
4771 Clouds 18 1022 64 16093 2.1 360 03:25 07.01.2020
4772 Clouds 19 1022 56 16093 2.1 30 02:19 07.01.2020
4773 Clouds 19 1022 56 16093 2.1 60 01:40 07.01.2020
4774 Clouds 20 1022 56 16093 2.1 60 00:58 07.01.2020
4775 Clouds 20 1021 56 16093 3.6 60 00:21 07.01.2020
4776 Clouds 20 1021 56 16093 3.6 60 00:21 07.01.2020
4777 Clouds 20 1021 56 16093 3.6 60 00:21 07.01.2020
4778 Clouds 20 1021 56 16093 3.6 60 23:57 06.01.2020
4779 Clouds 21 1021 53 16093 5.1 40 23:37 06.01.2020
4780 Clouds 21 1021 53 16093 5.1 40 23:19 06.01.2020
4781 Clouds 22 1021 53 16093 3.6 60 22:44 06.01.2020
4782 Clouds 22 1021 53 16093 3.6 60 22:25 06.01.2020
4783 Clouds 22 1021 53 16093 3.6 60 21:59 06.01.2020
4784 Clouds 22 1021 53 16093 4.1 50 21:40 06.01.2020
4785 Clouds 22 1021 53 16093 4.1 50 21:20 06.01.2020
4786 Clouds 23 1021 53 16093 4.1 50 20:57 06.01.2020
4787 Clouds 23 1021 46 16093 3.1 100 20:39 06.01.2020
4788 Clouds 23 1021 46 16093 3.1 100 20:20 06.01.2020
4789 Clouds 23 1021 46 16093 3.1 100 19:57 06.01.2020
4790 Clouds 23 1022 46 16093 1.5 0 19:39 06.01.2020
4791 Clouds 23 1022 46 16093 1.5 0 19:20 06.01.2020
4792 Clouds 22 1023 46 16093 2.6 0 18:48 06.01.2020
4793 Clouds 22 1023 46 16093 2.6 0 18:25 06.01.2020
4794 Clouds 21 1023 46 16093 2.6 0 17:59 06.01.2020
4795 Clouds 21 1024 43 16093 2.1 0 17:39 06.01.2020
4796 Clouds 20 1024 43 16093 2.1 0 17:19 06.01.2020
4797 Clouds 19 1024 43 16093 2.1 0 16:55 06.01.2020
4798 Clear 19 1025 42 16093 3.1 340 16:36 06.01.2020
4799 Clear 18 1025 42 16093 3.1 340 16:18 06.01.2020
4800 Clouds 17 1024 42 16093 3.1 340 15:42 06.01.2020
4801 Clouds 16 1024 42 16093 3.1 340 15:20 06.01.2020
4802 Clouds 15 1024 42 16093 3.1 340 14:59 06.01.2020
4803 Clouds 14 1024 47 16093 2.6 340 14:40 06.01.2020
4804 Clouds 14 1024 47 16093 2.6 340 14:20 06.01.2020
4805 Clouds 13 1024 47 16093 2.6 340 13:57 06.01.2020
4806 Clouds 13 1024 47 16093 2.6 340 13:57 06.01.2020
4807 Clouds 12 1023 62 16093 2.6 350 13:37 06.01.2020
4808 Clouds 12 1023 62 16093 2.6 350 13:19 06.01.2020
4809 Clouds 12 1023 62 16093 2.6 330 12:43 06.01.2020
4810 Clouds 12 1023 62 16093 2.6 330 12:21 06.01.2020
4811 Clouds 12 1023 62 16093 2.6 330 11:58 06.01.2020
4812 Clear 12 1023 66 16093 4.1 350 11:39 06.01.2020
4813 Clear 12 1023 66 16093 4.1 350 11:20 06.01.2020
4814 Clouds 12 1023 58 16093 2.6 340 10:54 06.01.2020
4815 Clouds 13 1023 58 16093 3.1 330 10:36 06.01.2020
4816 Clouds 13 1023 58 16093 3.1 330 10:18 06.01.2020
4817 Clouds 13 1023 67 16093 2.6 340 09:37 06.01.2020
4818 Clouds 13 1023 67 16093 2.6 340 09:19 06.01.2020
4819 Clouds 13 1023 71 16093 3.1 330 08:43 06.01.2020
4820 Clouds 13 1023 71 16093 3.1 330 08:25 06.01.2020
4821 Clouds 13 1024 71 16093 3.1 330 07:51 06.01.2020
4822 Clouds 13 1024 71 16093 3.1 330 07:26 06.01.2020
4823 Clouds 13 1024 71 16093 4.1 330 06:45 06.01.2020
4824 Clouds 13 1024 71 16093 4.1 330 06:19 06.01.2020
4825 Clear 14 1025 76 16093 4.6 330 05:42 06.01.2020
4826 Clear 14 1025 72 16093 4.6 340 04:37 06.01.2020
4827 Clear 14 1024 63 16093 3.1 320 04:18 06.01.2020
4828 Clouds 15 1024 59 16093 5.1 330 02:46 06.01.2020
4829 Clouds 16 1024 59 16093 5.1 330 02:23 06.01.2020
4830 Clouds 16 1024 55 16093 4.1 340 01:44 06.01.2020
4831 Clouds 16 1024 55 16093 4.1 340 01:24 06.01.2020
4832 Clear 17 1024 55 16093 3.6 360 00:41 06.01.2020
4833 Clouds 17 1023 48 16093 3.1 350 00:20 06.01.2020
4834 Clear 18 1023 49 16093 4.6 20 23:41 05.01.2020
4835 Clear 19 1023 49 16093 4.6 20 23:22 05.01.2020
4836 Clouds 20 1023 43 16093 2.6 0 22:56 05.01.2020
4837 Clear 20 1023 46 16093 5.7 10 22:37 05.01.2020
4838 Clear 20 1023 46 16093 5.7 10 22:19 05.01.2020
4839 Clouds 21 1022 40 16093 3.1 350 21:54 05.01.2020
4840 Clouds 21 1022 40 16093 4.6 350 21:36 05.01.2020
4841 Clouds 21 1022 40 16093 4.6 350 21:18 05.01.2020
4842 Clouds 21 1022 40 16093 4.6 350 20:55 05.01.2020
4843 Clouds 21 1022 40 16093 4.6 350 20:55 05.01.2020
4844 Clouds 21 1023 43 16093 4.6 360 20:36 05.01.2020
4845 Clouds 21 1023 43 16093 4.6 360 20:18 05.01.2020
4846 Clouds 20 1023 43 16093 4.6 360 19:54 05.01.2020
4847 Clouds 20 1023 43 16093 4.6 360 19:54 05.01.2020
4848 Clouds 20 1023 40 16093 3.6 30 19:36 05.01.2020
4849 Clouds 20 1023 40 16093 3.6 30 19:18 05.01.2020
4850 Clouds 20 1023 40 16093 3.6 30 18:54 05.01.2020
4851 Clouds 20 1023 40 16093 3.6 30 18:54 05.01.2020
4852 Clouds 20 1025 42 16093 3.1 0 18:36 05.01.2020
4853 Clouds 19 1025 42 16093 3.1 0 18:18 05.01.2020
4854 Clouds 19 1025 42 16093 3.1 0 18:18 05.01.2020
4855 Clouds 18 1026 39 16093 3.1 0 17:39 05.01.2020
4856 Clouds 18 1026 39 16093 3.1 0 17:21 05.01.2020
4857 Clouds 17 1026 39 16093 3.1 0 16:58 05.01.2020
4858 Clouds 17 1026 41 16093 4.1 10 16:40 05.01.2020
4859 Clouds 17 1026 41 16093 4.1 10 16:20 05.01.2020
4860 Clouds 16 1025 41 16093 5.7 350 15:41 05.01.2020
4861 Clouds 15 1025 41 16093 5.7 350 15:22 05.01.2020
4862 Clouds 14 1025 41 16093 5.7 350 14:58 05.01.2020
4863 Clear 14 1025 61 16093 7.2 340 14:40 05.01.2020
4864 Clear 14 1025 53 16093 7.2 340 14:22 05.01.2020
4865 Clear 13 1025 53 16093 7.2 340 13:59 05.01.2020
4866 Clear 13 1024 50 16093 6.2 350 13:39 05.01.2020
4867 Clouds 13 1024 58 16093 5.1 330 13:20 05.01.2020
4868 Clouds 14 1024 58 16093 5.1 330 12:57 05.01.2020
4869 Rain 14 1024 62 16093 7.2 340 12:38 05.01.2020
4870 Clouds 15 1023 67 16093 4.1 330 12:20 05.01.2020
4871 Clouds 15 1023 67 16093 4.1 330 11:55 05.01.2020
4872 Clouds 15 1023 82 16093 6.2 320 11:37 05.01.2020
4873 Clouds 15 1023 82 16093 6.2 320 11:37 05.01.2020
4874 Clouds 15 1023 82 16093 6.2 320 11:37 05.01.2020
4875 Clouds 16 1023 72 16093 3.1 0 11:18 05.01.2020
4876 Clouds 16 1022 77 16093 5.7 320 10:41 05.01.2020
4877 Clear 17 1022 77 16093 5.7 330 10:20 05.01.2020
4878 Clouds 17 1022 68 16093 5.1 330 09:57 05.01.2020
4879 Clouds 17 1022 72 16093 6.2 320 09:38 05.01.2020
4880 Clouds 17 1022 72 16093 6.2 320 09:38 05.01.2020
4881 Clouds 18 1022 72 16093 6.2 320 09:20 05.01.2020
4882 Clouds 18 1022 72 16093 5.1 310 08:45 05.01.2020
4883 Clouds 18 1022 72 16093 5.1 310 08:21 05.01.2020
4884 Clouds 19 1021 68 16093 5.7 310 07:50 05.01.2020
4885 Clouds 19 1021 68 16093 5.7 310 07:29 05.01.2020
4886 Clouds 19 1021 68 16093 5.7 310 06:56 05.01.2020
4887 Clouds 20 1021 64 16093 5.7 310 05:52 05.01.2020
4888 Clouds 20 1021 73 16093 4.6 310 04:57 05.01.2020
4889 Clouds 21 1021 73 16093 5.7 310 04:19 05.01.2020
4890 Clouds 21 1021 73 16093 5.7 310 04:19 05.01.2020
4891 Rain 21 1021 73 16093 7.2 310 03:45 05.01.2020
4892 Clouds 22 1019 88 16093 4.6 290 02:41 05.01.2020
4893 Clouds 22 1019 94 16093 5.7 280 02:19 05.01.2020
4894 Rain 22 1019 83 16093 4.1 290 01:36 05.01.2020
4895 Rain 22 1019 88 11265 4.6 300 01:18 05.01.2020
4896 Rain 23 1018 83 11265 5.7 260 00:39 05.01.2020
4897 Clouds 26 1017 65 16093 6.2 240 00:21 05.01.2020
4898 Clouds 27 1017 65 16093 6.2 240 23:58 04.01.2020
4899 Clouds 28 1017 54 16093 5.1 240 23:38 04.01.2020
4900 Clouds 28 1017 54 16093 5.1 240 23:18 04.01.2020
4901 Clouds 29 1016 48 16093 6.2 230 22:39 04.01.2020
4902 Clouds 29 1016 48 16093 6.2 230 22:39 04.01.2020
4903 Clouds 29 1016 48 16093 6.2 230 22:21 04.01.2020
4904 Clouds 30 1016 48 16093 6.2 230 21:57 04.01.2020
4905 Clouds 30 1016 45 16093 5.7 230 21:38 04.01.2020
4906 Clouds 30 1016 45 16093 5.7 230 21:19 04.01.2020
4907 Clouds 30 1016 45 16093 5.7 230 21:19 04.01.2020
4908 Clouds 30 1016 45 16093 5.7 230 20:56 04.01.2020
4909 Clouds 30 1017 48 16093 8.2 220 20:37 04.01.2020
4910 Clouds 30 1017 48 16093 8.2 220 20:19 04.01.2020
4911 Clouds 30 1018 51 16093 6.2 200 19:42 04.01.2020
4912 Clouds 30 1018 51 16093 6.2 200 19:23 04.01.2020
4913 Clouds 30 1018 51 16093 6.2 200 18:58 04.01.2020
4914 Clouds 29 1019 55 16093 6.7 190 18:39 04.01.2020
4915 Clouds 29 1019 55 16093 6.7 190 18:20 04.01.2020
4916 Clouds 29 1019 55 16093 6.7 190 17:58 04.01.2020
4917 Clouds 29 1020 62 16093 6.2 190 17:40 04.01.2020
4918 -273 0 0 0 0 0 17:22 04.01.2020
4919 Clouds 28 1020 66 16093 6.2 200 16:42 04.01.2020
4920 Clouds 27 1020 69 16093 5.1 180 16:24 04.01.2020
4921 Clouds 27 1020 74 16093 4.6 170 15:59 04.01.2020
4922 Clouds 27 1020 74 16093 4.6 170 15:59 04.01.2020
4923 Clouds 26 1020 88 16093 4.1 180 15:41 04.01.2020
4924 Clouds 26 1020 78 16093 4.6 170 15:19 04.01.2020
4925 Clouds 25 1020 78 16093 4.6 170 14:58 04.01.2020
4926 Clouds 25 1020 78 16093 4.6 170 14:58 04.01.2020
4927 Clouds 25 1020 88 16093 4.1 180 14:39 04.01.2020
4928 Clouds 24 1019 88 16093 2.1 180 14:19 04.01.2020
4929 Clouds 24 1019 88 16093 2.1 180 13:56 04.01.2020
4930 Clouds 23 1019 94 16093 2.1 200 13:37 04.01.2020
4931 Clouds 23 1019 94 16093 2.1 200 13:37 04.01.2020
4932 Clouds 23 1019 88 16093 2.1 160 13:18 04.01.2020
4933 Clouds 23 1019 88 16093 2.1 160 13:18 04.01.2020
4934 Clouds 23 1018 88 16093 2.1 170 12:42 04.01.2020
4935 Clouds 23 1018 88 16093 2.1 170 12:20 04.01.2020
4936 Clouds 23 1018 88 16093 2.1 170 12:20 04.01.2020
4937 Clouds 23 1018 88 16093 2.1 170 12:20 04.01.2020
4938 Clouds 23 1018 88 16093 2.1 170 11:59 04.01.2020
4939 Clouds 24 1018 88 16093 2.6 160 11:40 04.01.2020
4940 Clouds 24 1018 88 16093 2.6 160 11:19 04.01.2020
4941 Clouds 24 1018 88 16093 2.6 160 10:55 04.01.2020
4942 Clouds 24 1018 94 16093 2.6 150 10:37 04.01.2020
4943 Clouds 24 1018 94 16093 2.6 150 10:19 04.01.2020
4944 Clouds 24 1018 94 16093 3.1 150 09:42 04.01.2020
4945 Clouds 24 1018 83 16093 3.1 150 09:23 04.01.2020
4946 Clouds 24 1018 88 16093 3.6 150 08:42 04.01.2020
4947 Clouds 24 1018 83 16093 3.6 140 08:21 04.01.2020
4948 Clouds 24 1019 83 16093 4.1 140 07:44 04.01.2020
4949 Clouds 24 1019 83 16093 4.1 140 07:26 04.01.2020
4950 Clouds 24 1020 88 16093 3.1 130 06:36 04.01.2020
4951 Clouds 24 1020 83 16093 3.1 120 05:45 04.01.2020
4952 Clouds 23 1020 83 16093 2.1 130 04:44 04.01.2020
4953 Clouds 23 1020 83 16093 2.1 130 04:26 04.01.2020
4954 Clouds 24 1020 78 16093 1.5 0 03:19 04.01.2020
4955 Clouds 24 1019 78 16093 2.6 140 02:23 04.01.2020
4956 Clouds 24 1019 78 16093 2.6 140 02:23 04.01.2020
4957 Clouds 24 1019 78 16093 2.6 140 01:57 04.01.2020
4958 Clear 25 1019 83 16093 3.6 160 01:32 04.01.2020
4959 Clouds 25 1019 74 16093 3.6 150 00:50 04.01.2020
4960 Clouds 25 1018 74 16093 3.1 140 00:28 04.01.2020
4961 Clouds 26 1018 74 16093 3.1 140 23:52 03.01.2020
4962 Clouds 26 1017 69 16093 6.2 140 23:27 03.01.2020
4963 Clouds 27 1017 69 16093 6.2 140 22:55 03.01.2020
4964 Clouds 27 1017 69 16093 6.2 140 22:55 03.01.2020
4965 Clouds 27 1017 65 16093 5.7 140 22:36 03.01.2020
4966 Clouds 28 1017 65 16093 5.7 140 22:18 03.01.2020
4967 Clouds 28 1017 65 16093 5.7 140 21:55 03.01.2020
4968 Clouds 28 1017 65 16093 5.1 150 21:37 03.01.2020
4969 Clouds 28 1017 65 16093 5.1 150 21:18 03.01.2020
4970 Clouds 28 1017 65 16093 5.7 150 20:43 03.01.2020
4971 Clouds 29 1017 65 16093 5.7 150 20:19 03.01.2020
4972 Clouds 29 1017 65 16093 5.7 150 20:19 03.01.2020
4973 Clouds 28 1017 65 16093 5.7 150 19:59 03.01.2020
4974 Clouds 28 1018 61 16093 7.7 150 19:41 03.01.2020
4975 Clouds 28 1018 61 16093 7.7 150 19:22 03.01.2020
4976 Clouds 28 1018 65 16093 7.7 160 18:46 03.01.2020
4977 Clouds 28 1019 65 16093 7.2 160 18:26 03.01.2020
4978 Clouds 28 1019 65 16093 7.2 160 17:58 03.01.2020
4979 Clouds 28 1019 65 16093 8.2 180 17:39 03.01.2020
4980 Clouds 28 1019 65 16093 8.2 180 17:21 03.01.2020
4981 Clouds 27 1019 74 16093 6.7 130 16:43 03.01.2020
4982 Clouds 27 1020 69 16093 6.7 140 16:24 03.01.2020
4983 Clouds 27 1020 69 16093 6.7 140 15:59 03.01.2020
4984 Clouds 27 1019 74 16093 5.1 150 15:41 03.01.2020
4985 Clouds 26 1019 74 16093 5.1 150 15:19 03.01.2020
4986 Clouds 25 1019 83 16093 3.6 150 14:39 03.01.2020
4987 Clouds 25 1019 83 16093 3.6 150 14:20 03.01.2020
4988 Clouds 24 1019 83 16093 3.6 150 13:57 03.01.2020
4989 Clouds 24 1019 78 11265 5.7 150 13:38 03.01.2020
4990 Clouds 24 1018 83 16093 2.6 140 13:20 03.01.2020
4991 Clouds 24 1018 83 16093 3.6 130 12:40 03.01.2020
4992 Clouds 24 1018 83 16093 3.6 130 12:21 03.01.2020
4993 Clouds 24 1018 83 12874 7.2 150 11:49 03.01.2020
4994 Clouds 24 1018 88 16093 4.1 130 11:30 03.01.2020
4995 Clouds 24 1018 83 16093 3.6 130 10:48 03.01.2020
4996 Clouds 24 1018 83 16093 3.6 130 10:29 03.01.2020
4997 Clouds 24 1018 83 16093 3.6 130 09:59 03.01.2020
4998 Clouds 24 1017 88 16093 4.1 140 09:41 03.01.2020
4999 Clouds 24 1017 83 16093 3.6 130 09:23 03.01.2020
5000 Clouds 24 1017 83 16093 3.6 130 08:57 03.01.2020
5001 Clouds 24 1017 88 16093 4.1 140 08:39 03.01.2020
5002 Clouds 24 1017 83 16093 3.6 140 08:21 03.01.2020
5003 Clouds 24 1018 88 16093 4.6 140 07:42 03.01.2020
5004 Clouds 24 1018 83 16093 3.6 130 07:19 03.01.2020
5005 Clouds 24 1018 83 16093 3.6 130 06:56 03.01.2020
5006 Clouds 24 1018 83 14484 6.2 150 06:37 03.01.2020
5007 Clouds 24 1018 83 16093 4.1 130 06:18 03.01.2020
5008 Clouds 24 1019 83 16093 4.6 130 04:43 03.01.2020
5009 Clouds 24 1018 83 16093 6.2 130 03:37 03.01.2020
5010 Clouds 24 1018 88 16093 3.1 100 02:50 03.01.2020
5011 Clouds 24 1018 73 16093 3.1 120 01:48 03.01.2020
5012 Clouds 24 1018 73 16093 3.1 120 00:57 03.01.2020
5013 Clouds 24 1018 73 16093 4.6 120 00:33 03.01.2020
5014 Clouds 24 1018 73 16093 4.6 120 23:58 02.01.2020
5015 Clouds 25 1017 65 16093 5.7 130 23:39 02.01.2020
5016 Clouds 25 1017 65 16093 5.7 130 23:20 02.01.2020
5017 Clouds 25 1017 65 16093 5.7 130 22:58 02.01.2020
5018 Clouds 26 1017 57 16093 4.1 140 22:39 02.01.2020
5019 Clouds 26 1017 57 16093 4.1 140 22:19 02.01.2020
5020 Clouds 27 1017 57 16093 4.1 140 21:55 02.01.2020
5021 Clouds 27 1017 57 16093 5.7 120 21:36 02.01.2020
5022 Clouds 27 1017 57 16093 5.7 120 21:18 02.01.2020
5023 Clouds 27 1017 57 16093 5.7 120 20:54 02.01.2020
5024 Clear 27 1017 57 16093 5.1 130 20:36 02.01.2020
5025 Clear 27 1017 57 16093 5.1 130 20:18 02.01.2020
5026 Clear 27 1017 57 16093 5.1 130 19:54 02.01.2020
5027 Clouds 27 1018 57 16093 5.1 130 19:36 02.01.2020
5028 Clouds 27 1018 57 16093 5.1 130 19:36 02.01.2020
5029 Clouds 27 1018 57 16093 5.1 130 19:18 02.01.2020
5030 Clouds 27 1018 65 16093 3.6 140 18:42 02.01.2020
5031 Clouds 27 1019 54 16093 6.7 120 18:23 02.01.2020
5032 Clouds 27 1019 54 16093 6.7 120 17:58 02.01.2020
5033 Clouds 27 1019 61 16093 5.1 120 17:38 02.01.2020
5034 Clouds 27 1019 61 16093 5.1 120 17:19 02.01.2020
5035 Clouds 26 1019 61 16093 5.1 120 16:58 02.01.2020
5036 Clouds 26 1020 61 16093 4.6 130 16:40 02.01.2020
5037 Clouds 26 1020 61 16093 4.6 130 16:20 02.01.2020
5038 Clouds 25 1020 61 16093 4.6 130 15:57 02.01.2020
5039 Clouds 25 1020 61 16093 4.6 130 15:57 02.01.2020
5040 Clouds 25 1019 69 16093 3.1 110 15:39 02.01.2020
5041 Clouds 24 1019 69 16093 3.1 110 15:19 02.01.2020
5042 Clouds 23 1018 78 16093 2.1 130 14:55 02.01.2020
5043 Clouds 23 1018 78 16093 2.1 130 14:55 02.01.2020
5044 Clouds 22 1018 78 16093 2.1 130 14:36 02.01.2020
5045 Clouds 21 1018 78 16093 2.1 130 14:18 02.01.2020
5046 Clouds 20 1018 77 16093 2.1 130 13:47 02.01.2020
5047 Clouds 19 1018 77 16093 2.1 130 13:29 02.01.2020
5048 Clouds 19 1018 82 16093 5.55 111 12:45 02.01.2020
5049 Clouds 19 1017 77 16093 5.55 111 12:25 02.01.2020
5050 Clouds 19 1017 77 16093 5.55 111 11:57 02.01.2020
5051 Clouds 18 1017 77 16093 5.55 111 11:37 02.01.2020
5052 Clouds 19 1017 77 16093 5.42 102 11:19 02.01.2020
5053 Clear 18 1017 77 16093 5.42 102 10:43 02.01.2020
5054 Clear 18 1017 77 16093 5.42 102 10:25 02.01.2020
5055 Clear 17 1017 68 16093 1.5 10 09:46 02.01.2020
5056 Clear 17 1017 68 16093 1.5 10 09:28 02.01.2020
5057 Clear 17 1017 72 16093 1.5 10 08:45 02.01.2020
5058 Clear 17 1017 72 16093 1.5 10 08:27 02.01.2020
5059 Clear 17 1017 63 16093 4.92 75 07:51 02.01.2020
5060 Clear 17 1017 63 16093 4.92 75 07:30 02.01.2020
5061 Clear 18 1018 56 16093 2.1 30 06:45 02.01.2020
5062 Clear 18 1018 56 16093 2.1 30 06:26 02.01.2020
5063 Clear 18 1019 68 16093 3.1 20 05:21 02.01.2020
5064 Clear 18 1019 68 16093 3.85 66 04:31 02.01.2020
5065 Clear 19 1018 64 16093 3.85 66 02:37 02.01.2020
5066 Clear 20 1018 64 16093 3.5 78 01:59 02.01.2020
5067 Clear 20 1017 60 16093 2.6 110 01:33 02.01.2020
5068 Clear 21 1017 60 16093 2.6 110 00:57 02.01.2020
5069 Clouds 21 1017 56 16093 2.1 130 00:33 02.01.2020
5070 Clouds 23 1017 56 16093 2.1 130 23:52 01.01.2020
5071 Clouds 24 1017 53 16093 2.6 130 23:28 01.01.2020
5072 Clouds 24 1017 53 16093 2.6 130 22:56 01.01.2020
5073 Clouds 25 1016 30 16093 2.6 0 22:38 01.01.2020
5074 Clouds 25 1016 30 16093 2.6 0 22:19 01.01.2020
5075 Clouds 25 1016 30 16093 2.6 0 21:56 01.01.2020
5076 Clouds 25 1016 31 16093 2.87 101 21:37 01.01.2020
5077 Clouds 26 1016 31 16093 2.87 101 21:18 01.01.2020
5078 Clouds 26 1016 31 16093 2.87 101 20:54 01.01.2020
5079 Clouds 26 1017 32 16093 2.1 0 20:36 01.01.2020
5080 Clouds 26 1017 32 16093 2.1 0 20:18 01.01.2020
5081 Clouds 25 1017 32 16093 2.1 0 19:54 01.01.2020
5082 Clear 25 1017 41 16093 2.6 140 19:54 01.01.2020
5083 Clouds 25 1018 34 16093 2.1 0 19:36 01.01.2020
5084 Clouds 25 1018 34 16093 2.1 0 19:18 01.01.2020
5085 Clouds 25 1018 34 16093 2.1 0 18:54 01.01.2020
5086 Clouds 25 1019 44 16093 2.1 0 18:36 01.01.2020
5087 Clouds 24 1019 44 16093 2.1 0 18:18 01.01.2020
5088 Clouds 23 1019 44 16093 2.1 0 17:55 01.01.2020
5089 Clouds 23 1020 40 16093 2.6 350 17:36 01.01.2020
5090 Clouds 23 1020 40 16093 2.6 350 17:18 01.01.2020
5091 Clouds 22 1019 46 16093 2.6 350 16:39 01.01.2020
5092 Clouds 21 1019 46 16093 2.6 350 16:20 01.01.2020
5093 Clouds 20 1019 46 16093 2.6 350 15:57 01.01.2020
5094 Clouds 19 1019 55 16093 2.6 340 15:38 01.01.2020
5095 Clouds 19 1019 55 16093 2.6 340 15:20 01.01.2020
5096 Clouds 18 1019 55 16093 2.6 340 14:56 01.01.2020
5097 Clear 17 1019 63 16093 3.1 340 14:38 01.01.2020
5098 Clear 16 1019 63 16093 3.1 340 14:19 01.01.2020
5099 Clear 15 1019 63 16093 3.1 340 13:55 01.01.2020
5100 Clear 15 1019 63 16093 3.1 340 13:55 01.01.2020
5101 Clear 15 1018 63 16093 2.1 340 13:37 01.01.2020
5102 Clear 15 1018 63 16093 2.1 340 13:18 01.01.2020
5103 Clear 15 1018 63 16093 2.1 340 12:55 01.01.2020
5104 Clear 15 1017 63 16093 1.5 340 12:36 01.01.2020
5105 Clear 15 1017 63 16093 1.5 340 12:18 01.01.2020
5106 Clear 15 1017 72 16093 1.5 340 11:42 01.01.2020
5107 Clear 16 1017 72 16093 1.5 340 11:21 01.01.2020
5108 Clear 16 1017 72 16093 1.5 340 10:57 01.01.2020
5109 Clear 16 1017 77 16093 1.5 0 10:38 01.01.2020
5110 Clear 16 1017 77 16093 1.5 0 10:19 01.01.2020
5111 Clear 16 1017 72 14484 2.1 320 09:42 01.01.2020
5112 Clear 16 1017 72 14484 2.1 320 09:23 01.01.2020
5113 Clear 17 1017 72 14484 2.1 320 08:57 01.01.2020
5114 Clear 17 1017 68 16093 3.31 341 08:39 01.01.2020
5115 Clear 17 1017 68 16093 4.32 6 08:20 01.01.2020
5116 Clear 17 1017 68 16093 4.32 6 07:59 01.01.2020
5117 Clear 17 1017 63 16093 4.32 6 07:41 01.01.2020
5118 Clear 17 1017 63 16093 4.32 6 07:20 01.01.2020
5119 Clear 17 1018 68 16093 4.32 6 06:40 01.01.2020
5120 Clear 17 1018 49 16093 4.32 6 06:19 01.01.2020
5121 Clear 18 1018 49 16093 2.1 350 04:36 01.01.2020
5122 Clear 19 1018 60 16093 2.1 10 03:41 01.01.2020
5123 Clear 19 1018 49 16093 4.51 21 03:22 01.01.2020
5124 Clear 20 1018 49 16093 4.51 21 02:54 01.01.2020
5125 Clouds 21 1018 60 16093 4.51 21 02:30 01.01.2020
5126 Clouds 21 1017 69 16093 2.1 340 01:45 01.01.2020
5127 Clouds 22 1017 69 16093 2.1 340 01:23 01.01.2020
5128 Clouds 22 1017 69 16093 2.1 340 00:54 01.01.2020
5129 Clouds 22 1017 64 16093 1.5 330 00:36 01.01.2020
5130 Clouds 23 1017 64 16093 1.5 330 00:18 01.01.2020
5131 Clouds 24 1016 57 16093 3.1 330 23:38 31.12.2019
5132 Clouds 24 1016 57 16093 3.1 330 23:19 31.12.2019
5133 Rain 25 1016 57 16093 3.1 330 22:56 31.12.2019
5134 Rain 25 1016 61 16093 3.1 300 22:37 31.12.2019
5135 Rain 26 1016 61 16093 3.1 300 22:18 31.12.2019
5136 Clouds 26 1016 69 16093 5.1 320 21:43 31.12.2019
5137 Clouds 26 1016 57 16093 3.1 320 21:25 31.12.2019
5138 Clouds 27 1016 57 16093 3.1 320 20:58 31.12.2019
5139 Clouds 27 1016 61 16093 2.6 290 20:39 31.12.2019
5140 Clouds 27 1016 61 16093 2.6 290 20:21 31.12.2019
5141 Clouds 26 1016 61 16093 2.6 290 19:58 31.12.2019
5142 Clouds 26 1017 61 16093 2.6 310 19:40 31.12.2019
5143 Clouds 26 1017 61 16093 2.6 310 19:22 31.12.2019
5144 Clouds 26 1017 61 16093 2.6 310 18:57 31.12.2019
5145 Clouds 26 1017 61 16093 2.6 310 18:57 31.12.2019
5146 Clouds 26 1017 65 16093 4.1 360 18:39 31.12.2019
5147 Clouds 25 1018 65 16093 3.6 10 18:19 31.12.2019
5148 Clouds 25 1018 73 16093 3.6 330 17:56 31.12.2019
5149 Clouds 24 1018 83 16093 4.1 330 17:37 31.12.2019
5150 Clouds 23 1019 73 16093 6.2 340 17:19 31.12.2019
5151 Clouds 23 1018 83 16093 3.1 310 16:56 31.12.2019
5152 Clouds 23 1018 88 16093 3.6 300 16:37 31.12.2019
5153 Mist 23 1019 88 9656 2.1 330 16:19 31.12.2019
5154 Mist 23 1019 88 9656 2.1 330 15:56 31.12.2019
5155 Clouds 22 1018 88 16093 2.6 350 15:38 31.12.2019
5156 Clouds 22 1018 88 16093 2.6 350 15:20 31.12.2019
5157 Mist 22 1018 94 4023 2.6 330 14:57 31.12.2019
5158 Mist 22 1018 94 6437 2.6 340 14:38 31.12.2019
5159 Mist 21 1017 100 1609 2.1 330 14:19 31.12.2019
5160 Mist 21 1017 100 1609 2.1 330 13:56 31.12.2019
5161 Mist 21 1017 94 402 2.1 330 13:38 31.12.2019
5162 Fog 21 1017 100 805 3.6 340 13:20 31.12.2019
5163 Mist 21 1017 94 0 2.1 320 12:56 31.12.2019
5164 Clouds 21 1016 100 11265 3.6 320 12:38 31.12.2019
5165 Mist 21 1017 94 4828 3.6 310 12:19 31.12.2019
5166 Rain 21 1016 88 402 1.5 300 11:56 31.12.2019
5167 Rain 21 1016 88 201 5.28 333 11:37 31.12.2019
5168 Rain 21 1016 94 2012 1.5 320 11:19 31.12.2019
5169 Fog 21 1015 88 201 1.5 290 10:57 31.12.2019
5170 Fog 21 1015 88 201 1.5 290 10:57 31.12.2019
5171 Fog 21 1015 88 805 4.08 315 10:38 31.12.2019
5172 Mist 21 1015 88 9656 1.5 290 10:19 31.12.2019
5173 Mist 21 1015 88 9656 1.5 290 09:58 31.12.2019
5174 Mist 21 1015 94 4828 2.1 300 09:39 31.12.2019
5175 Fog 21 1015 100 402 4.08 315 09:20 31.12.2019
5176 Clouds 21 1015 88 11265 4.08 315 08:57 31.12.2019
5177 Rain 21 1015 94 16093 1.5 240 08:37 31.12.2019
5178 Rain 21 1015 94 16093 1.5 240 08:18 31.12.2019
5179 Mist 21 1015 100 4023 3.69 299 07:41 31.12.2019
5180 Mist 22 1015 100 4828 2.6 260 07:19 31.12.2019
5181 Mist 22 1015 100 4828 2.1 250 06:48 31.12.2019
5182 Clouds 22 1015 88 16093 1.5 270 05:54 31.12.2019
5183 Clouds 22 1016 88 16093 4.05 176 04:27 31.12.2019
5184 Clouds 23 1015 88 16093 2.6 190 03:27 31.12.2019
5185 Clouds 23 1015 83 16093 4.05 176 02:43 31.12.2019
5186 Clouds 23 1015 83 16093 4.39 176 01:55 31.12.2019
5187 Clouds 24 1014 83 16093 4.39 176 01:34 31.12.2019
5188 Clouds 24 1014 83 16093 5.27 181 00:58 31.12.2019
5189 Clouds 24 1014 78 16093 2.6 140 00:39 31.12.2019
5190 Clouds 25 1014 78 16093 2.6 140 00:21 31.12.2019
5191 Clouds 25 1014 78 16093 2.6 140 23:56 30.12.2019
5192 Clouds 26 1013 69 16093 2.6 150 23:37 30.12.2019
5193 Rain 26 1013 69 16093 2.6 150 23:19 30.12.2019
5194 Clouds 26 1013 69 16093 2.6 150 22:56 30.12.2019
5195 Clouds 26 1013 69 16093 7.97 163 22:37 30.12.2019
5196 Rain 26 1013 69 16093 7.97 163 22:18 30.12.2019
5197 Rain 26 1013 69 16093 7.97 163 21:55 30.12.2019
5198 Rain 26 1013 83 16093 3.1 150 21:37 30.12.2019
5199 Rain 26 1013 65 16093 3.1 200 21:18 30.12.2019
5200 Rain 26 1013 65 16093 3.1 200 20:56 30.12.2019
5201 Rain 26 1013 73 8047 2.1 160 20:37 30.12.2019
5202 Rain 26 1014 74 14484 4.6 140 20:19 30.12.2019
5203 Rain 26 1014 74 14484 4.6 140 19:55 30.12.2019
5204 Rain 26 1014 78 16093 6.7 130 19:37 30.12.2019
5205 Rain 26 1014 78 16093 6.7 130 19:37 30.12.2019
5206 Rain 26 1014 78 16093 6.7 130 19:18 30.12.2019
5207 Clouds 26 1014 78 16093 6.7 130 18:56 30.12.2019
5208 Rain 26 1016 78 16093 4.6 140 18:36 30.12.2019
5209 Rain 26 1016 78 16093 4.6 140 18:18 30.12.2019
5210 Rain 26 1016 78 16093 4.6 140 17:54 30.12.2019
5211 Rain 26 1016 78 16093 4.1 140 17:36 30.12.2019
5212 Rain 26 1016 78 16093 4.1 140 17:36 30.12.2019
5213 Rain 26 1016 78 16093 4.1 150 17:18 30.12.2019
5214 Clouds 26 1016 78 16093 4.6 150 16:41 30.12.2019
5215 Clouds 26 1016 78 16093 4.6 150 16:41 30.12.2019
5216 Rain 25 1017 78 16093 4.6 150 16:21 30.12.2019
5217 Rain 25 1017 78 16093 4.6 150 15:58 30.12.2019
5218 Rain 25 1016 94 4828 1.5 180 15:39 30.12.2019
5219 Clouds 25 1016 88 16093 3.1 140 15:20 30.12.2019
5220 Rain 24 1016 88 9656 1.5 110 14:56 30.12.2019
5221 Rain 24 1016 88 9656 1.5 110 14:38 30.12.2019
5222 Clouds 24 1016 78 16093 3.1 120 14:18 30.12.2019
5223 Clouds 24 1016 88 16093 2.1 150 13:42 30.12.2019
5224 Clouds 24 1016 83 16093 2.6 130 13:24 30.12.2019
5225 Clouds 24 1016 83 16093 2.6 130 12:59 30.12.2019
5226 Clouds 24 1015 83 16093 3.1 130 12:41 30.12.2019
5227 Clouds 24 1015 83 16093 2.6 140 12:19 30.12.2019
5228 Clouds 24 1015 83 16093 2.6 140 11:58 30.12.2019
5229 Clouds 23 1015 88 16093 2.1 140 11:39 30.12.2019
5230 Clouds 23 1015 88 16093 2.1 140 11:18 30.12.2019
5231 Clouds 24 1014 83 16093 3.1 110 10:43 30.12.2019
5232 Clouds 24 1015 73 16093 4.1 120 10:21 30.12.2019
5233 Clouds 24 1015 73 16093 4.1 120 09:55 30.12.2019
5234 Clouds 24 1015 73 16093 4.1 130 09:37 30.12.2019
5235 Clouds 24 1015 73 16093 4.1 130 09:19 30.12.2019
5236 Clouds 24 1016 73 16093 4.6 120 08:46 30.12.2019
5237 Clouds 24 1016 73 16093 4.6 120 08:23 30.12.2019
5238 Clouds 24 1016 73 16093 4.6 120 07:53 30.12.2019
5239 Clouds 24 1016 73 16093 4.6 120 07:33 30.12.2019
5240 Clouds 24 1017 73 16093 5.1 120 06:51 30.12.2019
5241 Clouds 24 1017 73 16093 5.7 120 04:50 30.12.2019
5242 Clouds 24 1017 73 16093 5.7 120 03:53 30.12.2019
5243 Clouds 25 1017 78 16093 4.1 140 02:50 30.12.2019
5244 Clouds 25 1016 78 16093 5.7 110 02:32 30.12.2019
5245 Clouds 25 1016 88 16093 4.1 120 01:50 30.12.2019
5246 Rain 25 1016 83 16093 3.6 120 01:20 30.12.2019
5247 Clouds 25 1015 83 16093 3.1 100 00:43 30.12.2019
5248 Clouds 25 1016 74 16093 5.7 100 23:59 29.12.2019
5249 Clouds 25 1016 74 16093 7.2 100 23:39 29.12.2019
5250 Clouds 25 1016 74 16093 7.2 100 23:21 29.12.2019
5251 Clouds 25 1016 78 16093 5.7 130 22:42 29.12.2019
5252 Clouds 26 1015 74 16093 5.7 120 22:23 29.12.2019
5253 Clouds 26 1015 74 16093 5.7 120 21:59 29.12.2019
5254 Clouds 26 1015 74 16093 7.2 100 21:41 29.12.2019
5255 Clouds 26 1015 74 16093 7.2 100 21:20 29.12.2019
5256 Clouds 26 1015 74 16093 7.2 100 21:20 29.12.2019
5257 Clouds 26 1015 74 16093 7.2 100 20:57 29.12.2019
5258 Rain 26 1016 78 16093 6.2 120 20:39 29.12.2019
5259 Clouds 26 1016 69 16093 6.7 120 20:20 29.12.2019
5260 Clouds 26 1016 69 16093 6.7 120 19:58 29.12.2019
5261 Clouds 26 1016 69 16093 6.2 110 19:40 29.12.2019
5262 Clouds 26 1016 69 16093 6.2 110 19:21 29.12.2019
5263 Clouds 26 1016 69 16093 6.2 110 18:57 29.12.2019
5264 Clouds 26 1018 74 16093 6.7 120 18:38 29.12.2019
5265 Clouds 26 1018 74 16093 6.7 120 18:19 29.12.2019
5266 Rain 26 1018 74 16093 6.2 120 17:58 29.12.2019
5267 Rain 26 1018 78 16093 7.7 120 17:39 29.12.2019
5268 Rain 25 1018 78 16093 7.7 120 17:20 29.12.2019
5269 Rain 25 1018 78 16093 4.6 130 16:56 29.12.2019
5270 Rain 25 1019 88 14484 6.7 120 16:37 29.12.2019
5271 Rain 25 1019 94 16093 5.7 110 16:19 29.12.2019
5272 Rain 25 1019 78 14484 7.7 110 15:57 29.12.2019
5273 Rain 25 1018 88 16093 5.1 90 15:39 29.12.2019
5274 Rain 24 1018 88 16093 5.1 90 15:20 29.12.2019
5275 Rain 24 1018 83 16093 5.7 110 14:57 29.12.2019
5276 Rain 24 1018 94 16093 4.6 110 14:38 29.12.2019
5277 Rain 24 1018 94 16093 4.6 110 14:38 29.12.2019
5278 Rain 24 1018 94 16093 4.6 110 14:18 29.12.2019
5279 Rain 24 1017 88 16093 5.7 100 13:57 29.12.2019
5280 Rain 24 1017 88 16093 5.7 100 13:57 29.12.2019
5281 Rain 24 1018 94 1609 6.2 130 13:38 29.12.2019
5282 Rain 23 1018 94 14484 3.6 120 13:19 29.12.2019
5283 Rain 24 1017 94 16093 3.6 120 12:45 29.12.2019
5284 Rain 24 1017 88 16093 3.1 110 12:27 29.12.2019
5285 Rain 24 1017 88 6437 3.6 110 11:57 29.12.2019
5286 Rain 23 1016 100 16093 3.6 110 11:38 29.12.2019
5287 Rain 24 1016 100 16093 3.6 110 11:20 29.12.2019
5288 Rain 23 1016 94 16093 2.6 100 10:43 29.12.2019
5289 Rain 23 1016 94 16093 4.1 120 10:25 29.12.2019
5290 Rain 24 1016 88 16093 4.6 100 09:58 29.12.2019
5291 Rain 24 1017 88 14484 4.1 120 09:39 29.12.2019
5292 Rain 24 1017 88 14484 4.1 120 09:21 29.12.2019
5293 Rain 24 1015 88 16093 5.1 110 08:48 29.12.2019
5294 Rain 24 1017 83 16093 5.7 130 08:28 29.12.2019
5295 Clouds 24 1016 83 16093 5.7 120 07:56 29.12.2019
5296 Clouds 24 1017 83 16093 6.7 120 07:28 29.12.2019
5297 Clouds 24 1017 83 16093 6.7 120 07:28 29.12.2019
5298 Rain 24 1016 88 16093 6.2 120 06:56 29.12.2019
5299 Rain 24 1017 83 16093 6.2 120 06:26 29.12.2019
5300 Rain 24 1017 78 16093 5.7 120 05:53 29.12.2019
5301 Rain 24 1018 83 16093 5.7 110 04:36 29.12.2019
5302 Clouds 24 1018 83 16093 4.1 110 03:58 29.12.2019
5303 Rain 24 1018 78 16093 5.7 110 03:21 29.12.2019
5304 Clouds 25 1017 88 16093 5.7 120 02:21 29.12.2019
5305 Clouds 25 1017 78 16093 6.2 100 01:40 29.12.2019
5306 Clouds 24 1017 78 16093 6.2 100 01:21 29.12.2019
5307 Rain 25 1017 78 16093 6.2 120 00:42 29.12.2019
5308 Rain 25 1017 78 16093 6.2 120 00:23 29.12.2019
5309 Clouds 25 1017 88 16093 4.6 120 23:44 28.12.2019
5310 Clouds 25 1017 74 16093 6.2 120 23:18 28.12.2019
5311 Clouds 26 1017 74 16093 7.2 110 22:40 28.12.2019
5312 Clouds 26 1016 78 16093 5.1 120 22:21 28.12.2019
5313 Clouds 26 1016 69 16093 7.7 120 21:59 28.12.2019
5314 Clouds 26 1016 69 16093 8.2 100 21:40 28.12.2019
5315 Rain 26 1016 69 16093 8.2 100 21:22 28.12.2019
5316 Rain 26 1016 69 16093 8.2 100 20:59 28.12.2019
5317 Clouds 26 1016 74 16093 6.7 110 20:38 28.12.2019
5318 Rain 26 1017 74 16093 7.7 130 20:20 28.12.2019
5319 Rain 27 1016 69 16093 9.3 110 19:58 28.12.2019
5320 Rain 27 1017 78 16093 9.3 120 19:39 28.12.2019
5321 Rain 27 1017 74 16093 8.7 120 19:21 28.12.2019
5322 Clouds 26 1017 69 16093 9.8 100 18:58 28.12.2019
5323 Rain 26 1018 78 16093 9.3 110 18:40 28.12.2019
5324 Rain 26 1018 78 16093 9.3 110 18:19 28.12.2019
5325 Rain 26 1018 78 16093 9.3 110 17:55 28.12.2019
5326 Rain 26 1019 78 12874 7.2 110 17:37 28.12.2019
5327 Drizzle 25 1018 94 14484 3.6 100 17:18 28.12.2019
5328 Rain 25 1019 94 14484 6.7 110 16:46 28.12.2019
5329 Rain 25 1019 83 12874 5.1 110 16:26 28.12.2019
5330 Rain 25 1019 94 16093 5.1 100 15:47 28.12.2019
5331 Rain 25 1019 83 4828 4.1 120 15:24 28.12.2019
5332 Rain 25 1019 83 16093 6.2 110 14:59 28.12.2019
5333 Rain 24 1018 94 14484 4.1 120 14:39 28.12.2019
5334 Rain 24 1018 88 12874 6.2 130 14:20 28.12.2019
5335 Rain 24 1018 83 12874 8.2 100 13:56 28.12.2019
5336 Rain 23 1018 88 16093 6.7 110 13:37 28.12.2019
5337 Rain 23 1018 88 16093 5.7 110 13:18 28.12.2019
5338 Rain 23 1017 88 16093 4.1 100 12:42 28.12.2019
5339 Rain 23 1017 94 16093 5.1 120 12:23 28.12.2019
5340 Rain 23 1017 83 4828 6.2 110 11:56 28.12.2019
5341 Rain 23 1017 83 4828 6.2 110 11:56 28.12.2019
5342 Rain 23 1017 100 14484 4.1 110 11:38 28.12.2019
5343 Rain 23 1017 100 14484 4.1 110 11:19 28.12.2019
5344 Clouds 23 1017 88 16093 3.6 110 10:44 28.12.2019
5345 Clouds 23 1017 94 16093 4.1 120 10:22 28.12.2019
5346 Rain 23 1017 83 16093 3.6 100 09:57 28.12.2019
5347 Rain 23 1017 94 16093 5.7 110 09:39 28.12.2019
5348 Rain 23 1017 94 8047 3.6 130 09:19 28.12.2019
5349 Rain 23 1017 100 2816 1.5 140 08:44 28.12.2019
5350 Rain 23 1017 94 9656 5.7 130 08:26 28.12.2019
5351 Rain 23 1017 83 16093 2.6 100 07:53 28.12.2019
5352 Rain 23 1017 94 16093 4.1 100 07:30 28.12.2019
5353 Rain 24 1017 88 16093 2.6 170 06:27 28.12.2019
5354 Rain 24 1018 88 16093 6.7 120 04:36 28.12.2019
5355 Rain 24 1018 88 8047 5.7 110 03:39 28.12.2019
5356 Rain 24 1018 88 16093 5.7 110 02:48 28.12.2019
5357 Rain 24 1018 83 16093 6.2 90 01:59 28.12.2019
5358 Rain 24 1018 88 16093 4.6 100 01:30 28.12.2019
5359 Rain 24 1017 78 16093 6.7 100 00:55 28.12.2019
5360 Rain 24 1017 88 16093 4.1 90 00:37 28.12.2019
5361 Rain 24 1017 88 9656 2.6 80 00:19 28.12.2019
5362 Clouds 24 1017 88 16093 4.6 100 23:43 27.12.2019
5363 Clouds 25 1017 69 16093 6.2 90 23:19 27.12.2019
5364 Clouds 25 1017 69 16093 6.2 90 23:19 27.12.2019
5365 Clouds 25 1017 69 16093 6.2 90 22:57 27.12.2019
5366 Clouds 26 1017 74 16093 5.1 90 22:38 27.12.2019
5367 Clouds 26 1017 74 16093 5.1 90 22:20 27.12.2019
5368 Clouds 26 1017 65 16093 6.2 110 21:55 27.12.2019
5369 Clouds 27 1017 65 16093 6.7 120 21:36 27.12.2019
5370 Clouds 27 1017 65 16093 6.7 120 21:36 27.12.2019
5371 Clouds 27 1017 65 16093 6.7 120 21:18 27.12.2019
5372 Clouds 27 1017 65 16093 7.2 100 20:41 27.12.2019
5373 Clouds 27 1017 65 16093 7.2 100 20:22 27.12.2019
5374 Clouds 27 1018 69 16093 5.7 110 19:42 27.12.2019
5375 Clouds 27 1018 69 16093 5.7 110 19:21 27.12.2019
5376 Clouds 27 1018 69 16093 5.7 110 18:59 27.12.2019
5377 Clouds 27 1018 65 16093 6.7 120 18:39 27.12.2019
5378 Clouds 27 1018 65 16093 6.7 120 18:20 27.12.2019
5379 Clouds 27 1018 65 16093 6.7 120 17:57 27.12.2019
5380 Clouds 27 1019 61 16093 8.7 100 17:39 27.12.2019
5381 Clouds 27 1019 61 16093 8.7 100 17:19 27.12.2019
5382 Clouds 27 1019 61 16093 8.7 100 16:58 27.12.2019
5383 Clouds 27 1019 61 16093 7.7 110 16:38 27.12.2019
5384 Clouds 26 1019 61 16093 7.7 110 16:19 27.12.2019
5385 Rain 26 1019 65 16093 7.7 110 15:44 27.12.2019
5386 Rain 25 1019 65 16093 7.7 110 15:22 27.12.2019
5387 Rain 25 1019 65 16093 7.7 110 14:57 27.12.2019
5388 Rain 24 1019 83 8047 6.2 90 14:39 27.12.2019
5389 Rain 24 1018 78 16093 3.6 120 14:20 27.12.2019
5390 Rain 23 1018 78 16093 3.6 120 13:55 27.12.2019
5391 Clouds 23 1018 78 16093 4.6 100 13:37 27.12.2019
5392 Clouds 23 1018 78 16093 4.6 100 13:18 27.12.2019
5393 Clouds 23 1017 88 16093 6.7 110 12:40 27.12.2019
5394 Rain 23 1017 73 16093 6.2 100 12:22 27.12.2019
5395 Rain 23 1017 100 8047 4.1 60 11:46 27.12.2019
5396 Rain 23 1017 78 16093 5.1 100 11:26 27.12.2019
5397 Rain 23 1017 78 16093 5.1 100 11:26 27.12.2019
5398 Rain 23 1017 78 16093 5.1 100 10:58 27.12.2019
5399 Rain 23 1017 94 2816 5.7 100 10:39 27.12.2019
5400 Rain 23 1017 83 16093 3.1 90 10:21 27.12.2019
5401 Rain 23 1016 94 12874 4.6 100 09:44 27.12.2019
5402 Rain 23 1017 88 16093 4.6 90 09:22 27.12.2019
5403 Rain 23 1017 83 16093 4.6 80 08:59 27.12.2019
5404 Rain 23 1016 94 16093 5.7 70 08:36 27.12.2019
5405 Rain 23 1016 83 16093 5.1 90 07:52 27.12.2019
5406 Rain 23 1017 73 16093 6.2 80 07:33 27.12.2019
5407 Rain 23 1017 94 16093 5.1 80 06:38 27.12.2019
5408 Rain 23 1018 88 4828 6.2 90 05:52 27.12.2019
5409 Rain 23 1018 94 16093 5.1 100 03:47 27.12.2019
5410 Rain 23 1018 94 16093 5.1 100 03:47 27.12.2019
5411 Rain 23 1017 78 16093 6.2 70 02:25 27.12.2019
5412 Rain 23 1017 83 16093 5.7 80 01:42 27.12.2019
5413 Rain 23 1017 83 16093 3.6 60 01:20 27.12.2019
5414 Rain 24 1017 83 16093 4.1 70 00:46 27.12.2019
5415 Rain 24 1016 83 16093 5.7 70 00:24 27.12.2019
5416 Rain 24 1016 83 16093 5.7 70 00:24 27.12.2019
5417 Drizzle 24 1015 88 16093 4.1 70 23:42 26.12.2019
5418 Rain 24 1015 88 14484 4.1 50 23:24 26.12.2019
5419 Rain 24 1016 69 16093 5.7 100 22:58 26.12.2019
5420 Rain 24 1016 74 16093 8.2 90 22:37 26.12.2019
5421 Rain 25 1015 88 16093 6.7 90 22:18 26.12.2019
5422 Rain 25 1015 69 16093 8.2 80 21:39 26.12.2019
5423 Rain 25 1015 78 8047 9.3 80 21:21 26.12.2019
5424 Rain 25 1015 65 16093 6.7 60 20:54 26.12.2019
5425 Rain 25 1015 65 16093 6.7 60 20:36 26.12.2019
5426 Rain 26 1015 65 16093 6.7 60 20:18 26.12.2019
5427 Rain 26 1015 65 16093 6.7 60 20:18 26.12.2019
5428 Rain 26 1015 65 16093 6.7 60 19:54 26.12.2019
5429 Rain 26 1016 69 16093 7.7 80 19:36 26.12.2019
5430 Rain 26 1016 69 16093 7.2 70 19:18 26.12.2019
5431 Rain 26 1016 69 16093 6.2 70 18:55 26.12.2019
5432 Rain 26 1016 69 16093 9.8 90 18:36 26.12.2019
5433 Rain 25 1017 78 8047 5.7 60 18:18 26.12.2019
5434 Rain 25 1017 74 8047 7.7 80 17:40 26.12.2019
5435 Rain 25 1016 83 16093 5.7 60 17:20 26.12.2019
5436 Rain 25 1016 83 16093 7.7 50 16:48 26.12.2019
5437 Rain 25 1017 88 8047 4.6 70 16:26 26.12.2019
5438 Rain 25 1017 74 16093 5.1 70 15:57 26.12.2019
5439 Clouds 25 1017 83 16093 6.2 60 15:38 26.12.2019
5440 Clouds 24 1016 74 16093 5.1 60 15:19 26.12.2019
5441 Clouds 24 1016 74 16093 5.1 60 15:19 26.12.2019
5442 Rain 24 1015 83 16093 2.6 40 14:41 26.12.2019
5443 Rain 23 1015 83 16093 2.6 40 14:23 26.12.2019
5444 Rain 22 1015 94 16093 9.23 65 13:45 26.12.2019
5445 Rain 22 1015 78 14484 1.5 40 13:24 26.12.2019
5446 Rain 22 1015 78 16093 1.5 340 12:59 26.12.2019
5447 Rain 22 1014 94 16093 3.1 320 12:41 26.12.2019
5448 Clouds 22 1014 83 16093 2.1 20 12:23 26.12.2019
5449 Clouds 22 1014 83 16093 2.1 20 11:58 26.12.2019
5450 Clouds 22 1014 78 16093 1.5 30 11:40 26.12.2019
5451 Clouds 22 1014 78 16093 1.5 30 11:21 26.12.2019
5452 Clouds 22 1014 78 16093 1.5 10 10:50 26.12.2019
5453 Clouds 22 1014 78 16093 1.5 10 10:25 26.12.2019
5454 Clouds 22 1014 78 16093 1.5 10 09:54 26.12.2019
5455 Clouds 22 1014 73 16093 1.5 360 09:33 26.12.2019
5456 Clouds 22 1014 73 16093 1.5 360 08:58 26.12.2019
5457 Rain 22 1014 73 16093 2.1 50 08:39 26.12.2019
5458 Rain 22 1014 73 16093 2.1 50 08:20 26.12.2019
5459 Clouds 22 1014 73 16093 1.5 20 07:35 26.12.2019
5460 Clouds 22 1014 73 16093 1.5 20 06:57 26.12.2019
5461 Clouds 22 1014 88 16093 2.1 60 06:37 26.12.2019
5462 Clouds 22 1014 88 16093 2.1 60 06:19 26.12.2019
5463 Rain 23 1015 73 16093 4.1 40 05:40 26.12.2019
5464 Rain 23 1015 73 16093 2.6 30 04:32 26.12.2019
5465 Rain 23 1015 73 14484 3.6 50 03:31 26.12.2019
5466 Clouds 23 1014 69 16093 3.1 60 02:46 26.12.2019
5467 Clouds 23 1014 69 16093 3.1 60 02:25 26.12.2019
5468 Clouds 23 1014 69 16093 3.1 60 02:25 26.12.2019
5469 Clouds 23 1014 78 16093 3.1 80 01:44 26.12.2019
5470 Clouds 23 1014 78 16093 3.1 80 01:44 26.12.2019
5471 Clouds 24 1014 61 16093 4.1 30 01:24 26.12.2019
5472 Clouds 24 1013 83 16093 2.6 70 00:43 26.12.2019
5473 Clouds 24 1013 65 16093 4.1 40 00:23 26.12.2019
5474 Rain 24 1013 65 16093 4.1 40 23:57 25.12.2019
5475 Rain 24 1013 69 16093 6.7 60 23:36 25.12.2019
5476 Rain 24 1012 65 16093 5.7 50 23:18 25.12.2019
5477 Rain 24 1013 69 16093 8.2 60 22:55 25.12.2019
5478 Rain 25 1012 61 16093 6.2 50 22:37 25.12.2019
5479 Rain 25 1012 61 16093 6.2 50 22:18 25.12.2019
5480 Clouds 25 1012 57 16093 5.1 50 21:55 25.12.2019
5481 Clouds 26 1012 57 16093 5.1 50 21:37 25.12.2019
5482 Clouds 26 1012 57 16093 5.1 50 21:18 25.12.2019
5483 Clouds 26 1012 57 16093 5.7 40 20:40 25.12.2019
5484 Clouds 26 1012 57 16093 5.7 40 20:21 25.12.2019
5485 Clouds 26 1012 57 16093 5.7 40 19:59 25.12.2019
5486 Clouds 26 1012 65 16093 3.6 30 19:40 25.12.2019
5487 Rain 26 1012 65 16093 3.6 30 19:21 25.12.2019
5488 Clouds 25 1013 73 16093 3.6 10 18:40 25.12.2019
5489 Clouds 25 1013 73 16093 3.6 10 18:21 25.12.2019
5490 Clouds 25 1013 73 16093 3.6 10 18:21 25.12.2019
5491 Clouds 24 1013 69 16093 3.1 10 17:57 25.12.2019
5492 Clouds 24 1013 83 16093 2.1 300 17:39 25.12.2019
5493 Clouds 23 1014 73 16093 3.1 0 17:18 25.12.2019
5494 Clouds 22 1014 73 16093 3.1 0 16:54 25.12.2019
5495 Clouds 21 1014 78 16093 4.1 10 16:36 25.12.2019
5496 Clouds 20 1014 78 16093 4.6 340 16:18 25.12.2019
5497 Clouds 19 1014 88 16093 4.1 340 15:40 25.12.2019
5498 Clouds 19 1014 88 16093 4.1 340 15:22 25.12.2019
5499 Clouds 18 1014 82 16093 3.1 340 14:59 25.12.2019
5500 Mist 18 1013 88 6437 3.1 360 14:41 25.12.2019
5501 Mist 18 1013 88 6437 3.1 360 14:23 25.12.2019
5502 Mist 17 1013 88 6437 3.1 360 13:58 25.12.2019
5503 Clouds 17 1013 93 16093 3.1 320 13:39 25.12.2019
5504 Clouds 17 1013 93 16093 3.1 320 13:20 25.12.2019
5505 Clouds 17 1013 88 12874 3.6 340 12:43 25.12.2019
5506 Mist 17 1012 88 8047 1.5 340 12:22 25.12.2019
5507 Mist 17 1012 88 8047 1.5 340 11:58 25.12.2019
5508 Mist 17 1011 93 4023 1.5 280 11:39 25.12.2019
5509 Clouds 17 1011 82 16093 1.5 300 11:20 25.12.2019
5510 Clouds 17 1011 82 16093 1.5 270 10:39 25.12.2019
5511 Clouds 17 1011 82 16093 1.5 340 10:21 25.12.2019
5512 Clouds 16 1011 82 16093 1.5 340 09:52 25.12.2019
5513 Clouds 16 1011 82 16093 3.1 360 09:34 25.12.2019
5514 Clear 16 1011 82 16093 3.1 330 08:56 25.12.2019
5515 Mist 16 1010 88 8047 5.1 310 08:38 25.12.2019
5516 Clear 16 1011 82 16093 2.1 320 08:19 25.12.2019
5517 Clouds 16 1011 82 16093 2.1 320 07:42 25.12.2019
5518 Clouds 16 1011 82 16093 2.1 320 07:22 25.12.2019
5519 Clouds 17 1012 82 16093 2.6 300 06:24 25.12.2019
5520 Clouds 17 1011 82 16093 5.1 300 05:49 25.12.2019
5521 Clouds 17 1012 77 16093 5.1 340 04:42 25.12.2019
5522 Clouds 17 1012 77 16093 5.1 340 04:24 25.12.2019
5523 Clouds 18 1012 72 16093 3.6 330 03:43 25.12.2019
5524 Clouds 18 1012 72 16093 3.6 330 02:58 25.12.2019
5525 Clouds 18 1011 68 16093 3.1 330 02:29 25.12.2019
5526 Clouds 19 1011 68 16093 6.7 330 01:44 25.12.2019
5527 Clouds 19 1011 68 16093 6.7 330 01:19 25.12.2019
5528 Clear 19 1009 68 16093 4.1 320 00:41 25.12.2019
5529 Clouds 20 1009 60 16093 3.6 320 00:23 25.12.2019
5530 Clouds 21 1008 56 16093 7.2 310 23:40 24.12.2019
5531 Clouds 21 1008 56 16093 7.2 310 23:20 24.12.2019
5532 Clouds 22 1008 49 16093 4.6 300 22:55 24.12.2019
5533 Clouds 22 1008 44 16093 3.6 300 22:37 24.12.2019
5534 Clouds 22 1008 44 16093 3.6 300 22:19 24.12.2019
5535 Clouds 23 1007 44 16093 7.2 260 21:41 24.12.2019
5536 Clouds 23 1007 44 16093 7.2 260 21:20 24.12.2019
5537 Clouds 23 1008 47 16093 7.2 270 20:43 24.12.2019
5538 Clouds 23 1008 47 16093 7.2 270 20:23 24.12.2019
5539 Clouds 23 1008 47 16093 7.2 270 19:56 24.12.2019
5540 Clouds 22 1008 56 16093 5.7 280 19:37 24.12.2019
5541 Clouds 22 1008 56 16093 5.7 280 19:18 24.12.2019
5542 Clouds 22 1008 68 16093 8.2 250 18:42 24.12.2019
5543 Clouds 21 1009 60 16093 4.1 270 18:19 24.12.2019
5544 Clouds 20 1011 56 16093 6.2 270 17:44 24.12.2019
5545 Clouds 20 1011 56 16093 6.2 270 17:22 24.12.2019
5546 Clouds 20 1011 56 16093 6.2 270 16:58 24.12.2019
5547 Clouds 19 1011 63 16093 4.1 310 16:40 24.12.2019
5548 Clouds 19 1011 63 16093 4.1 310 16:21 24.12.2019
5549 Clouds 19 1011 63 16093 4.1 310 16:21 24.12.2019
5550 Clouds 18 1011 63 16093 4.1 310 15:58 24.12.2019
5551 Clouds 18 1011 63 16093 4.1 310 15:58 24.12.2019
5552 Clouds 18 1011 68 16093 3.1 290 15:37 24.12.2019
5553 Clouds 18 1011 68 16093 3.1 290 15:19 24.12.2019
5554 Clouds 17 1011 68 16093 3.1 290 14:58 24.12.2019
5555 Clouds 17 1010 72 16093 2.6 300 14:40 24.12.2019
5556 Clouds 17 1010 72 16093 2.6 300 14:40 24.12.2019
5557 Clouds 17 1010 72 16093 2.6 300 14:40 24.12.2019
5558 Clouds 16 1010 72 16093 2.6 300 14:22 24.12.2019
5559 Clouds 15 1010 72 16093 2.6 300 13:56 24.12.2019
5560 Clouds 15 1010 77 16093 2.6 300 13:38 24.12.2019
5561 Clouds 15 1010 77 16093 2.6 300 13:20 24.12.2019
5562 Clouds 15 1010 77 16093 2.6 300 12:56 24.12.2019
5563 Clouds 15 1010 77 16093 2.6 300 12:56 24.12.2019
5564 Clouds 15 1009 77 16093 2.6 270 12:38 24.12.2019
5565 Clouds 16 1009 77 16093 2.6 270 12:19 24.12.2019
5566 Clouds 16 1009 77 16093 2.6 270 12:19 24.12.2019
5567 Clouds 16 1009 77 16093 2.6 270 11:56 24.12.2019
5568 Clouds 16 1009 72 16093 3.6 280 11:37 24.12.2019
5569 Clouds 16 1009 72 16093 3.6 280 11:19 24.12.2019
5570 Clouds 17 1009 72 16093 3.6 280 10:56 24.12.2019
5571 Clouds 17 1009 77 16093 6.2 310 10:38 24.12.2019
5572 Clouds 17 1009 77 16093 6.2 310 10:19 24.12.2019
5573 Clouds 17 1009 77 16093 6.2 310 10:19 24.12.2019
5574 Clouds 17 1009 72 16093 3.6 300 09:55 24.12.2019
5575 Clouds 17 1009 72 16093 2.6 270 09:37 24.12.2019
5576 Clouds 17 1009 72 16093 2.6 270 09:19 24.12.2019
5577 Clear 17 1009 77 16093 4.1 260 08:46 24.12.2019
5578 Clear 17 1009 77 16093 4.1 260 08:24 24.12.2019
5579 Clear 17 1009 77 16093 4.1 260 07:54 24.12.2019
5580 Clear 17 1009 77 16093 4.1 260 07:36 24.12.2019
5581 Clear 17 1009 77 16093 4.1 260 07:18 24.12.2019
5582 Clouds 18 1010 88 16093 5.7 270 06:39 24.12.2019
5583 Clouds 18 1010 77 16093 3.6 270 06:19 24.12.2019
5584 Clouds 18 1010 77 16093 3.6 260 05:49 24.12.2019
5585 Clouds 18 1010 77 16093 3.6 260 05:18 24.12.2019
5586 Clouds 18 1011 82 16093 2.6 270 03:55 24.12.2019
5587 Rain 18 1010 82 16093 5.7 290 03:33 24.12.2019
5588 Clouds 20 1009 64 16093 3.6 210 02:28 24.12.2019
5589 Clouds 20 1009 64 16093 3.6 210 01:53 24.12.2019
5590 Clear 21 1009 64 16093 5.1 240 01:23 24.12.2019
5591 Clear 21 1009 60 16093 4.1 220 00:55 24.12.2019
5592 Clouds 21 1009 60 16093 4.1 250 00:37 24.12.2019
5593 Clouds 21 1009 60 16093 4.1 250 00:19 24.12.2019
5594 Rain 22 1008 60 16093 5.7 250 23:41 23.12.2019
5595 Rain 23 1008 60 16093 5.7 250 23:23 23.12.2019
5596 Clouds 23 1008 60 16093 5.7 250 22:56 23.12.2019
5597 Clouds 23 1009 60 16093 5.7 250 22:37 23.12.2019
5598 Clouds 23 1009 60 16093 5.7 250 22:19 23.12.2019
5599 Clouds 23 1009 60 16093 5.7 250 21:56 23.12.2019
5600 Clouds 24 1009 64 16093 5.7 250 21:36 23.12.2019
5601 Clouds 24 1009 64 16093 5.7 250 21:36 23.12.2019
5602 Clouds 24 1009 64 16093 5.7 250 21:18 23.12.2019
5603 Clouds 24 1009 64 16093 5.7 250 21:18 23.12.2019
5604 Clouds 24 1009 64 16093 5.7 250 20:57 23.12.2019
5605 Clouds 24 1009 64 16093 3.6 250 20:39 23.12.2019
5606 Clouds 24 1009 64 16093 3.6 250 20:18 23.12.2019
5607 Clouds 24 1009 64 16093 3.6 250 19:56 23.12.2019
5608 Clouds 24 1010 73 16093 4.1 270 19:38 23.12.2019
5609 Clouds 24 1010 73 16093 4.1 270 19:20 23.12.2019
5610 Clouds 23 1010 73 16093 3.1 280 18:58 23.12.2019
5611 Rain 23 1010 73 11265 5.1 280 18:39 23.12.2019
5612 Rain 23 1011 78 16093 4.1 300 18:20 23.12.2019
5613 Rain 23 1011 78 16093 4.1 300 18:20 23.12.2019
5614 Rain 23 1011 78 16093 4.1 300 17:58 23.12.2019
5615 Rain 22 1012 83 11265 2.1 300 17:39 23.12.2019
5616 Rain 22 1012 94 16093 4.1 300 17:19 23.12.2019
5617 Rain 21 1012 83 16093 3.1 310 16:57 23.12.2019
5618 Rain 21 1012 94 16093 3.1 300 16:39 23.12.2019
5619 Rain 21 1013 83 8047 1.5 0 16:18 23.12.2019
5620 Rain 21 1012 100 4828 5.1 270 15:57 23.12.2019
5621 Rain 21 1012 88 16093 2.1 290 15:37 23.12.2019
5622 Rain 21 1013 88 9656 5.1 260 15:19 23.12.2019
5623 Rain 22 1013 88 14484 5.7 290 14:56 23.12.2019
5624 Rain 22 1013 88 14484 5.7 290 14:56 23.12.2019
5625 Rain 22 1013 88 14484 5.7 290 14:56 23.12.2019
5626 Rain 22 1012 94 6437 3.6 250 14:37 23.12.2019
5627 Clouds 22 1012 100 16093 2.1 220 14:18 23.12.2019
5628 Rain 22 1011 94 16093 2.1 220 13:56 23.12.2019
5629 Rain 22 1011 94 16093 2.6 220 13:37 23.12.2019
5630 Rain 22 1011 94 16093 2.6 230 13:19 23.12.2019
5631 Rain 22 1011 94 16093 2.6 220 12:54 23.12.2019
5632 Rain 22 1010 100 16093 2.1 230 12:36 23.12.2019
5633 Rain 22 1011 94 16093 1.5 170 12:18 23.12.2019
5634 Rain 22 1011 100 16093 1.5 190 11:42 23.12.2019
5635 Clouds 22 1011 88 16093 9.41 217 11:22 23.12.2019
5636 Rain 22 1010 94 16093 1.5 180 10:56 23.12.2019
5637 Rain 22 1011 100 16093 1.5 250 10:37 23.12.2019
5638 Rain 22 1011 100 16093 1.5 250 10:37 23.12.2019
5639 Rain 22 1011 100 16093 2.6 260 10:18 23.12.2019
5640 Rain 22 1011 100 16093 2.6 260 10:18 23.12.2019
5641 Rain 22 1010 100 16093 2.6 200 09:56 23.12.2019
5642 Rain 22 1011 94 16093 2.6 180 09:37 23.12.2019
5643 Rain 22 1011 100 16093 3.1 210 09:19 23.12.2019
5644 Rain 22 1012 100 4828 2.6 310 08:41 23.12.2019
5645 Rain 22 1012 94 6437 1.5 320 08:22 23.12.2019
5646 Rain 22 1012 94 3219 11.49 138 07:56 23.12.2019
5647 Thunderstorm 22 1011 100 1609 9.3 70 07:38 23.12.2019
5648 Rain 22 1013 100 2816 1.5 260 07:18 23.12.2019
5649 Rain 22 1013 100 4828 6.2 120 06:39 23.12.2019
5650 Rain 23 1014 94 3219 2.1 0 06:21 23.12.2019
5651 Rain 23 1014 88 2816 6.2 130 05:45 23.12.2019
5652 Rain 24 1016 83 16093 5.1 120 04:44 23.12.2019
5653 Rain 24 1016 73 16093 5.7 110 03:58 23.12.2019
5654 Clouds 24 1016 78 16093 6.2 120 02:47 23.12.2019
5655 Clouds 24 1015 73 16093 5.7 110 02:20 23.12.2019
5656 Clouds 24 1016 73 16093 4.1 140 01:50 23.12.2019
5657 Clouds 24 1015 69 16093 7.7 120 01:31 23.12.2019
5658 Clouds 24 1015 73 16093 6.2 120 00:49 23.12.2019
5659 Clouds 24 1015 73 16093 7.7 100 00:30 23.12.2019
5660 Clouds 24 1015 73 16093 7.7 100 23:57 22.12.2019
5661 Clouds 24 1015 73 16093 6.2 110 23:38 22.12.2019
5662 Clouds 24 1015 73 16093 6.2 110 23:20 22.12.2019
5663 Clouds 24 1015 73 16093 6.2 110 22:56 22.12.2019
5664 Clouds 24 1016 69 16093 5.7 110 22:38 22.12.2019
5665 Clouds 24 1016 69 16093 5.7 110 22:19 22.12.2019
5666 Clouds 24 1016 69 16093 5.7 110 21:56 22.12.2019
5667 Clouds 24 1017 69 16093 5.7 110 21:38 22.12.2019
5668 Clouds 24 1017 69 16093 5.7 110 21:20 22.12.2019
5669 Clouds 24 1017 69 16093 7.2 90 20:41 22.12.2019
5670 Clouds 24 1017 69 16093 7.2 90 20:19 22.12.2019
5671 Clouds 24 1017 69 16093 7.2 90 19:58 22.12.2019
5672 Rain 24 1018 69 16093 6.7 110 19:39 22.12.2019
5673 Rain 24 1018 69 16093 6.7 110 19:20 22.12.2019
5674 Rain 24 1018 69 16093 6.7 110 18:55 22.12.2019
5675 Clouds 24 1018 69 16093 7.7 110 18:37 22.12.2019
5676 Clouds 24 1018 69 16093 7.7 110 18:18 22.12.2019
5677 Clouds 24 1018 69 16093 7.7 110 17:54 22.12.2019
5678 Clouds 24 1019 69 16093 9.3 90 17:36 22.12.2019
5679 Clouds 24 1019 69 16093 9.3 90 17:18 22.12.2019
5680 Rain 25 1020 65 16093 7.7 100 16:42 22.12.2019
5681 Rain 25 1020 65 16093 7.7 100 16:42 22.12.2019
5682 Rain 24 1020 65 16093 7.7 100 16:23 22.12.2019
5683 Clouds 24 1020 65 16093 7.7 100 15:57 22.12.2019
5684 Clouds 24 1020 78 16093 8.2 100 15:39 22.12.2019
5685 Clouds 24 1020 64 16093 6.2 90 15:21 22.12.2019
5686 Clouds 24 1020 64 16093 6.2 90 14:57 22.12.2019
5687 Clouds 24 1020 64 16093 5.7 90 14:38 22.12.2019
5688 Clouds 24 1020 64 16093 5.7 90 14:19 22.12.2019
5689 Clouds 23 1020 64 16093 5.7 90 13:56 22.12.2019
5690 Haze 23 1019 69 9656 8.7 100 13:38 22.12.2019
5691 Clouds 23 1019 64 16093 7.2 100 13:19 22.12.2019
5692 Clouds 23 1019 64 16093 7.2 100 13:19 22.12.2019
5693 Clouds 23 1019 64 16093 7.2 100 12:57 22.12.2019
5694 Clouds 24 1018 64 16093 7.7 110 12:38 22.12.2019
5695 Clouds 24 1018 64 16093 7.7 110 12:19 22.12.2019
5696 Clouds 23 1018 64 16093 7.7 110 11:57 22.12.2019
5697 Clouds 23 1018 78 16093 8.2 110 11:38 22.12.2019
5698 Clouds 23 1018 60 16093 6.7 100 11:19 22.12.2019
5699 Clouds 23 1018 60 16093 6.7 100 10:57 22.12.2019
5700 Clouds 23 1018 60 16093 6.7 100 10:57 22.12.2019
5701 Clouds 23 1018 64 16093 7.2 100 10:38 22.12.2019
5702 Clouds 23 1018 64 16093 7.2 100 10:19 22.12.2019
5703 Clouds 23 1018 64 16093 7.2 100 09:57 22.12.2019
5704 Clouds 23 1018 64 16093 7.7 100 09:39 22.12.2019
5705 Clouds 23 1018 64 16093 7.7 100 09:20 22.12.2019
5706 Clouds 23 1019 64 16093 7.7 100 08:45 22.12.2019
5707 Clouds 23 1019 64 16093 7.7 100 08:22 22.12.2019
5708 Clouds 23 1019 64 16093 7.7 90 07:44 22.12.2019
5709 Clouds 23 1019 64 16093 7.7 90 07:21 22.12.2019
5710 Rain 23 1019 64 16093 7.7 90 06:55 22.12.2019
5711 Rain 23 1020 64 16093 7.2 90 06:26 22.12.2019
5712 Rain 23 1021 73 16093 6.2 100 05:33 22.12.2019
5713 Clouds 23 1021 64 16093 7.7 90 04:55 22.12.2019
5714 Clouds 23 1021 69 16093 7.2 90 04:25 22.12.2019
5715 Clouds 23 1021 64 16093 8.2 90 02:46 22.12.2019
5716 Clouds 23 1021 64 16093 8.2 90 02:46 22.12.2019
5717 Clouds 23 1021 64 16093 8.2 90 02:21 22.12.2019
5718 Rain 23 1020 69 16093 7.2 100 01:31 22.12.2019
5719 Clouds 23 1020 69 16093 7.2 100 00:56 22.12.2019
5720 Clouds 23 1020 64 16093 6.7 100 00:36 22.12.2019
5721 Clouds 23 1020 64 16093 6.7 100 00:18 22.12.2019
5722 Rain 23 1020 64 16093 9.3 100 23:40 21.12.2019
5723 Rain 24 1020 64 16093 9.3 100 23:21 21.12.2019
5724 Rain 24 1020 65 16093 7.2 100 22:56 21.12.2019
5725 Rain 24 1020 65 16093 6.7 100 22:37 21.12.2019
5726 Rain 24 1020 65 16093 6.7 100 22:18 21.12.2019
5727 Rain 24 1020 65 16093 6.7 100 22:18 21.12.2019
5728 Clouds 24 1020 65 16093 6.7 100 21:54 21.12.2019
5729 Rain 24 1019 78 14484 5.7 90 21:36 21.12.2019
5730 Rain 24 1019 78 14484 5.7 90 21:18 21.12.2019
5731 Clouds 25 1019 65 16093 9.8 90 20:55 21.12.2019
5732 Rain 24 1019 69 14484 9.3 100 20:37 21.12.2019
5733 Rain 24 1019 69 14484 9.3 100 20:18 21.12.2019
5734 Rain 24 1019 69 14484 9.3 100 19:55 21.12.2019
5735 Clouds 24 1020 65 16093 11.3 90 19:36 21.12.2019
5736 Clouds 25 1020 65 16093 11.3 90 19:18 21.12.2019
5737 Clouds 24 1021 69 16093 9.8 80 18:40 21.12.2019
5738 Clouds 25 1021 61 16093 11.8 90 18:22 21.12.2019
5739 Clouds 25 1021 61 16093 11.8 90 17:56 21.12.2019
5740 Rain 25 1023 73 16093 10.8 80 17:37 21.12.2019
5741 Rain 25 1023 73 16093 10.8 80 17:18 21.12.2019
5742 Rain 24 1022 78 16093 7.7 70 16:54 21.12.2019
5743 Rain 24 1023 78 12874 8.7 80 16:36 21.12.2019
5744 Rain 24 1023 78 12874 8.7 80 16:36 21.12.2019
5745 Rain 24 1023 78 12874 8.7 80 16:18 21.12.2019
5746 Rain 23 1023 78 12874 8.7 80 15:55 21.12.2019
5747 Rain 23 1024 88 16093 6.7 100 15:36 21.12.2019
5748 Rain 23 1023 78 16093 5.7 70 15:18 21.12.2019
5749 Rain 23 1023 78 16093 10.8 90 14:41 21.12.2019
5750 Rain 22 1023 83 6437 5.7 80 14:22 21.12.2019
5751 Rain 22 1022 69 16093 5.7 80 13:58 21.12.2019
5752 Rain 22 1022 88 14484 10.8 90 13:39 21.12.2019
5753 Rain 22 1022 88 16093 5.7 80 13:19 21.12.2019
5754 Rain 22 1022 78 14484 7.7 100 12:56 21.12.2019
5755 Rain 22 1022 78 14484 4.1 30 12:38 21.12.2019
5756 Rain 22 1022 83 12874 5.1 80 12:19 21.12.2019
5757 Rain 22 1021 83 16093 11.3 100 11:46 21.12.2019
5758 Rain 22 1021 78 16093 6.2 90 11:27 21.12.2019
5759 Rain 22 1021 78 16093 6.2 90 10:58 21.12.2019
5760 Rain 22 1021 83 2816 10.8 80 10:39 21.12.2019
5761 Rain 22 1021 83 6437 9.3 100 10:21 21.12.2019
5762 Rain 22 1021 83 6437 9.3 100 09:57 21.12.2019
5763 Rain 22 1022 83 16093 1.5 0 09:39 21.12.2019
5764 Rain 22 1022 83 16093 7.7 100 09:19 21.12.2019
5765 Rain 23 1022 78 16093 6.7 130 08:47 21.12.2019
5766 Rain 23 1022 78 16093 4.1 100 08:27 21.12.2019
5767 Rain 23 1021 83 16093 3.1 70 07:47 21.12.2019
5768 Rain 23 1022 78 14484 7.7 80 07:23 21.12.2019
5769 Rain 23 1022 78 14484 7.7 80 06:58 21.12.2019
5770 Rain 23 1022 78 9656 8.7 80 06:40 21.12.2019
5771 Rain 23 1022 78 16093 4.6 80 06:21 21.12.2019
5772 Rain 23 1022 73 14484 6.7 80 05:25 21.12.2019
5773 Rain 23 1022 69 16093 9.3 80 04:34 21.12.2019
5774 Rain 23 1022 69 16093 9.3 80 03:56 21.12.2019
5775 Clouds 23 1022 73 16093 4.6 60 02:25 21.12.2019
5776 Clouds 23 1021 69 16093 5.1 60 01:43 21.12.2019
5777 Clouds 23 1021 69 16093 5.1 60 01:24 21.12.2019
5778 Rain 23 1021 78 16093 5.1 40 00:40 21.12.2019
5779 Clouds 23 1022 73 16093 7.7 60 00:21 21.12.2019
5780 Clouds 23 1021 64 16093 5.1 50 23:39 20.12.2019
5781 Clouds 23 1021 64 16093 5.1 50 23:20 20.12.2019
5782 Clouds 23 1021 64 16093 5.1 50 22:59 20.12.2019
5783 Clouds 24 1021 64 16093 5.7 60 22:39 20.12.2019
5784 Clouds 24 1021 64 16093 5.7 60 22:18 20.12.2019
5785 Clouds 24 1021 64 16093 9.8 80 21:41 20.12.2019
5786 Clouds 24 1021 64 16093 9.8 80 21:21 20.12.2019
5787 Clouds 24 1020 78 16093 6.7 50 20:59 20.12.2019
5788 Clouds 24 1021 57 16093 7.7 50 20:38 20.12.2019
5789 Clouds 24 1021 57 16093 7.7 50 20:19 20.12.2019
5790 Clouds 24 1021 57 16093 7.7 50 19:56 20.12.2019
5791 Clouds 24 1020 78 16093 8.7 50 19:38 20.12.2019
5792 Clouds 24 1020 78 16093 8.7 50 19:18 20.12.2019
5793 Clouds 24 1022 64 16093 7.2 60 18:41 20.12.2019
5794 Clouds 23 1022 64 16093 7.2 60 18:22 20.12.2019
5795 Clouds 23 1022 64 16093 7.2 60 17:57 20.12.2019
5796 Clouds 23 1022 64 16093 7.2 60 17:57 20.12.2019
5797 Clouds 23 1023 64 16093 5.1 70 17:39 20.12.2019
5798 Clouds 23 1023 64 16093 5.1 70 17:39 20.12.2019
5799 Clouds 23 1023 64 16093 5.1 70 17:20 20.12.2019
5800 Rain 23 1024 69 9656 9.8 60 16:56 20.12.2019
5801 Rain 23 1023 73 16093 8.7 60 16:38 20.12.2019
5802 Rain 23 1023 73 16093 8.7 60 16:38 20.12.2019
5803 Rain 23 1023 73 16093 8.7 60 16:38 20.12.2019
5804 Rain 23 1023 73 16093 8.7 60 16:19 20.12.2019
5805 Rain 22 1022 78 16093 9.8 70 15:54 20.12.2019
5806 Rain 22 1022 78 16093 9.8 70 15:36 20.12.2019
5807 Rain 22 1023 69 16093 6.2 50 15:18 20.12.2019
5808 Clouds 22 1022 69 16093 6.7 50 14:42 20.12.2019
5809 Clouds 21 1022 78 16093 5.1 40 14:24 20.12.2019
5810 Clouds 21 1021 88 16093 5.7 50 13:57 20.12.2019
5811 Clouds 21 1021 88 16093 5.7 50 13:37 20.12.2019
5812 Rain 21 1022 83 16093 5.1 40 13:19 20.12.2019
5813 Rain 21 1021 83 16093 5.1 40 12:56 20.12.2019
5814 Rain 20 1020 94 16093 7.7 20 12:36 20.12.2019
5815 Rain 20 1021 94 9656 6.7 50 12:18 20.12.2019
5816 Rain 20 1021 83 4023 4.1 50 11:57 20.12.2019
5817 Rain 20 1021 83 4023 4.1 50 11:38 20.12.2019
5818 Rain 20 1021 83 4023 4.1 50 11:38 20.12.2019
5819 Rain 21 1020 78 11265 5.1 50 11:18 20.12.2019
5820 Rain 21 1020 78 11265 5.1 50 10:56 20.12.2019
5821 Rain 21 1019 83 16093 7.7 50 10:37 20.12.2019
5822 Rain 21 1021 83 16093 5.7 50 10:19 20.12.2019
5823 Rain 21 1020 83 16093 5.7 50 09:43 20.12.2019
5824 Rain 20 1020 77 8047 4.1 50 09:21 20.12.2019
5825 Rain 20 1020 88 16093 8.2 50 08:55 20.12.2019
5826 Rain 20 1020 94 16093 6.2 60 08:37 20.12.2019
5827 Rain 20 1021 82 9656 5.7 50 08:19 20.12.2019
5828 Rain 20 1021 77 9656 9.8 70 07:55 20.12.2019
5829 Rain 20 1019 88 16093 9.8 30 07:36 20.12.2019
5830 Rain 20 1021 77 16093 7.7 50 07:18 20.12.2019
5831 Clouds 20 1019 83 16093 9.3 40 06:43 20.12.2019
5832 Rain 20 1021 77 16093 5.1 50 06:25 20.12.2019
5833 Drizzle 20 1020 88 16093 9.8 40 05:47 20.12.2019
5834 Rain 20 1022 73 6437 9.8 70 04:59 20.12.2019
5835 Rain 20 1021 93 16093 5.1 60 03:49 20.12.2019
5836 Rain 20 1020 88 12874 8.2 20 02:55 20.12.2019
5837 Rain 20 1020 100 16093 5.7 60 01:59 20.12.2019
5838 Rain 20 1020 100 16093 5.7 60 01:35 20.12.2019
5839 Rain 20 1021 88 16093 3.1 50 00:55 20.12.2019
5840 Rain 19 1021 82 16093 5.1 40 00:35 20.12.2019
5841 Rain 19 1020 93 4023 6.2 50 23:58 19.12.2019
5842 Rain 19 1020 88 4023 6.7 40 23:40 19.12.2019
5843 Rain 19 1020 88 8047 5.1 50 23:19 19.12.2019
5844 Rain 20 1019 100 3219 6.7 40 22:40 19.12.2019
5845 Rain 20 1019 88 6437 2.1 40 22:22 19.12.2019
5846 Rain 20 1019 77 3219 8.7 60 21:57 19.12.2019
5847 Rain 20 1018 94 3219 7.2 40 21:39 19.12.2019
5848 Rain 20 1019 77 16093 8.2 60 21:19 19.12.2019
5849 Rain 20 1018 73 6437 7.7 60 20:57 19.12.2019
5850 Rain 21 1018 73 6437 7.7 60 20:37 19.12.2019
5851 Rain 21 1019 73 16093 6.7 60 20:19 19.12.2019
5852 Rain 21 1019 73 8047 9.3 50 19:58 19.12.2019
5853 Rain 21 1019 73 8047 9.3 50 19:58 19.12.2019
5854 Rain 21 1019 73 16093 8.2 60 19:39 19.12.2019
5855 Rain 21 1019 73 16093 8.2 60 19:19 19.12.2019
5856 Rain 21 1019 73 16093 8.2 60 19:19 19.12.2019
5857 Rain 21 1019 73 16093 8.2 60 19:19 19.12.2019
5858 Rain 21 1019 73 16093 8.2 60 19:19 19.12.2019
5859 Rain 21 1020 83 16093 6.2 60 18:57 19.12.2019
5860 Rain 21 1019 94 4023 6.2 60 18:39 19.12.2019
5861 Rain 21 1020 83 11265 5.7 50 18:19 19.12.2019
5862 Rain 20 1019 94 3017 7.7 40 17:55 19.12.2019
5863 Rain 20 1019 94 3017 7.7 40 17:37 19.12.2019
5864 Rain 20 1020 83 16093 5.7 60 17:18 19.12.2019
5865 Rain 20 1020 88 12874 2.6 340 16:56 19.12.2019
5866 Rain 20 1019 93 6437 3.1 330 16:37 19.12.2019
5867 Rain 19 1020 93 16093 4.1 20 16:19 19.12.2019
5868 Rain 19 1021 93 9656 3.6 330 15:56 19.12.2019
5869 Rain 19 1021 93 9656 3.6 330 15:37 19.12.2019
5870 Rain 19 1020 82 16093 2.6 0 15:19 19.12.2019
5871 Rain 19 1020 82 16093 2.6 0 15:18 19.12.2019
5872 Rain 18 1019 82 16093 2.1 0 14:43 19.12.2019
5873 Rain 17 1020 93 9656 4.1 340 14:20 19.12.2019
5874 Rain 17 1019 93 6437 4.6 340 13:59 19.12.2019
5875 Rain 17 1019 93 16093 3.1 20 13:38 19.12.2019
5876 Rain 17 1019 87 16093 4.6 330 13:19 19.12.2019
5877 Rain 17 1018 77 16093 4.1 340 12:57 19.12.2019
5878 Rain 16 1018 77 16093 4.1 340 12:39 19.12.2019
5879 Rain 16 1018 87 16093 5.7 350 12:19 19.12.2019
5880 Rain 16 1018 87 16093 5.7 360 11:58 19.12.2019
5881 Rain 16 1018 87 16093 5.7 360 11:40 19.12.2019
5882 Rain 16 1018 87 11265 4.1 340 11:18 19.12.2019
5883 Rain 16 1017 87 16093 3.6 340 10:58 19.12.2019
5884 Clouds 16 1017 82 16093 6.2 10 10:38 19.12.2019
5885 Rain 16 1017 82 16093 6.2 360 10:20 19.12.2019
5886 Rain 16 1017 82 6437 4.6 340 09:55 19.12.2019
5887 Rain 16 1017 82 6437 4.6 340 09:37 19.12.2019
5888 Rain 16 1017 82 6437 4.6 340 09:18 19.12.2019
5889 Rain 16 1017 77 16093 5.1 340 08:42 19.12.2019
5890 Rain 16 1017 82 16093 5.7 350 08:20 19.12.2019
5891 Rain 16 1017 82 16093 5.7 350 08:20 19.12.2019
5892 Rain 16 1017 82 16093 5.7 350 08:20 19.12.2019
5893 Clouds 17 1017 77 16093 5.7 340 07:59 19.12.2019
5894 Clouds 17 1017 77 16093 5.7 340 07:38 19.12.2019
5895 Rain 17 1017 77 16093 5.7 340 07:20 19.12.2019
5896 Rain 17 1017 87 16093 6.2 350 06:52 19.12.2019
5897 Rain 17 1017 87 16093 6.2 350 06:52 19.12.2019
5898 Rain 17 1017 87 16093 6.2 350 06:52 19.12.2019
5899 Rain 17 1018 72 16093 4.6 330 06:32 19.12.2019
5900 Rain 17 1018 82 14484 5.7 350 05:57 19.12.2019
5901 Rain 17 1018 82 14484 5.7 350 05:39 19.12.2019
5902 Rain 17 1018 82 14484 5.7 350 05:18 19.12.2019
5903 Clouds 18 1018 82 16093 5.1 340 03:46 19.12.2019
5904 Clouds 18 1016 77 16093 4.1 340 02:25 19.12.2019
5905 Clouds 19 1016 77 16093 4.1 350 01:24 19.12.2019
5906 Clouds 20 1016 77 16093 6.2 340 00:45 19.12.2019
5907 Clouds 20 1015 78 16093 5.1 340 00:25 19.12.2019
5908 Clouds 21 1015 83 16093 5.1 360 23:59 18.12.2019
5909 Clouds 21 1014 83 16093 6.2 350 23:41 18.12.2019
5910 Clouds 22 1014 73 16093 3.6 330 23:19 18.12.2019
5911 Clouds 22 1014 73 16093 4.6 10 22:56 18.12.2019
5912 Clouds 23 1014 83 16093 3.6 360 22:37 18.12.2019
5913 Clouds 23 1013 69 16093 4.1 340 22:19 18.12.2019
5914 Clouds 23 1013 73 16093 3.6 350 21:57 18.12.2019
5915 Clouds 24 1014 69 16093 4.6 340 21:39 18.12.2019
5916 Clouds 24 1013 69 16093 4.6 330 21:19 18.12.2019
5917 Clouds 25 1013 78 11265 4.6 340 20:55 18.12.2019
5918 Clouds 25 1013 69 16093 4.1 350 20:37 18.12.2019
5919 Clouds 25 1013 69 16093 4.1 350 20:37 18.12.2019
5920 Clouds 24 1013 69 16093 4.1 350 20:19 18.12.2019
5921 Clouds 25 1013 83 16093 4.1 330 19:55 18.12.2019
5922 Clouds 25 1013 83 16093 4.1 330 19:37 18.12.2019
5923 Clouds 25 1013 69 16093 3.1 0 19:18 18.12.2019
5924 Clouds 25 1013 78 16093 4.1 290 18:45 18.12.2019
5925 Clouds 25 1014 65 16093 3.1 300 18:25 18.12.2019
5926 Clouds 25 1014 78 11265 6.2 310 17:57 18.12.2019
5927 Clouds 25 1014 73 16093 3.1 0 17:39 18.12.2019
5928 Clouds 24 1014 73 16093 3.1 0 17:20 18.12.2019
5929 Clouds 24 1014 73 16093 3.1 0 17:20 18.12.2019
5930 Clouds 24 1015 83 16093 2.6 310 16:57 18.12.2019
5931 Clouds 24 1015 83 16093 2.6 310 16:39 18.12.2019
5932 Clouds 23 1015 83 16093 2.6 310 16:20 18.12.2019
5933 Clouds 23 1015 83 16093 2.6 310 15:56 18.12.2019
5934 Rain 22 1015 88 16093 3.1 300 15:37 18.12.2019
5935 Clouds 22 1015 88 16093 2.6 270 15:19 18.12.2019
5936 Clouds 22 1013 78 16093 1.5 0 14:42 18.12.2019
5937 Clouds 22 1013 78 16093 1.5 0 14:22 18.12.2019
5938 Clouds 22 1013 78 16093 1.5 0 13:57 18.12.2019
5939 Clouds 22 1013 83 16093 2.6 280 13:39 18.12.2019
5940 Clouds 22 1013 78 16093 2.1 300 13:20 18.12.2019
5941 Clouds 22 1013 78 16093 2.1 300 12:59 18.12.2019
5942 Mist 23 1013 94 9656 3.1 280 12:39 18.12.2019
5943 Clouds 23 1013 100 16093 4.6 290 12:20 18.12.2019
5944 Mist 23 1013 88 8047 2.6 280 11:56 18.12.2019
5945 Clouds 23 1012 94 16093 2.1 240 11:38 18.12.2019
5946 Clouds 23 1012 94 16093 2.1 240 11:38 18.12.2019
5947 Clouds 23 1012 94 16093 5.63 195 11:19 18.12.2019
5948 Clouds 23 1011 88 16093 5.63 195 10:57 18.12.2019
5949 Clouds 23 1011 88 16093 5.63 195 10:39 18.12.2019
5950 Clouds 23 1011 88 16093 5.63 195 10:20 18.12.2019
5951 Clouds 23 1011 88 16093 5.63 195 09:57 18.12.2019
5952 Rain 23 1012 83 6437 4.6 150 09:19 18.12.2019
5953 Clouds 23 1013 94 16093 5.63 195 08:42 18.12.2019
5954 Clouds 23 1012 100 14484 5.68 192 08:24 18.12.2019
5955 Clouds 23 1012 100 14484 6.32 188 08:24 18.12.2019
5956 Clouds 23 1012 94 16093 6.32 188 07:56 18.12.2019
5957 Clouds 23 1012 94 16093 2.1 160 07:38 18.12.2019
5958 Clouds 23 1012 83 16093 6.32 188 07:19 18.12.2019
5959 Clouds 24 1011 100 16093 1.5 140 06:50 18.12.2019
5960 Clouds 24 1013 83 16093 2.1 140 06:22 18.12.2019
5961 Clouds 24 1013 100 16093 2.1 130 05:30 18.12.2019
5962 Clouds 25 1013 78 16093 3.1 150 03:45 18.12.2019
5963 Clouds 25 1014 78 16093 2.6 150 02:43 18.12.2019
5964 Clouds 25 1014 78 16093 2.6 150 02:25 18.12.2019
5965 Clouds 25 1013 78 16093 3.1 0 01:43 18.12.2019
5966 Clouds 25 1013 78 16093 3.1 0 01:24 18.12.2019
5967 Clouds 26 1013 74 16093 3.6 150 00:42 18.12.2019
5968 Clouds 26 1013 74 16093 3.6 150 00:24 18.12.2019
5969 Clouds 26 1013 74 16093 3.6 150 00:24 18.12.2019
5970 Clouds 26 1013 74 16093 3.6 150 23:58 17.12.2019
5971 Clouds 26 1013 69 16093 4.1 140 23:39 17.12.2019
5972 Clouds 27 1013 69 16093 4.1 140 23:20 17.12.2019
5973 Clouds 27 1013 69 16093 4.1 140 22:57 17.12.2019
5974 Clouds 27 1014 65 16093 6.2 160 22:38 17.12.2019
5975 Clouds 28 1014 65 16093 6.2 160 22:19 17.12.2019
5976 Clouds 28 1014 61 16093 5.1 170 21:57 17.12.2019
5977 Clouds 28 1014 61 16093 6.2 150 21:38 17.12.2019
5978 Clouds 28 1014 61 16093 6.2 150 21:19 17.12.2019
5979 Clouds 28 1014 61 16093 6.2 150 20:58 17.12.2019
5980 Clouds 28 1014 62 16093 6.7 130 20:39 17.12.2019
5981 Clouds 29 1014 62 16093 6.7 130 20:18 17.12.2019
5982 Clouds 29 1014 62 16093 6.7 130 19:56 17.12.2019
5983 Clouds 29 1014 65 16093 7.7 140 19:38 17.12.2019
5984 Clouds 29 1014 65 16093 7.7 140 19:19 17.12.2019
5985 Clouds 28 1014 65 16093 7.7 140 18:55 17.12.2019
5986 Clouds 29 1014 69 16093 5.1 170 18:37 17.12.2019
5987 Clouds 29 1016 65 16093 8.2 130 18:19 17.12.2019
5988 Clouds 28 1017 69 16093 5.1 140 17:42 17.12.2019
5989 Clouds 28 1017 69 16093 5.1 140 17:42 17.12.2019
5990 Clouds 28 1017 69 16093 5.1 140 17:42 17.12.2019
5991 Clouds 28 1017 69 16093 5.1 140 17:42 17.12.2019
5992 Clouds 28 1017 69 16093 5.1 140 17:21 17.12.2019
5993 Clouds 28 1017 74 16093 5.7 130 16:57 17.12.2019
5994 Clouds 28 1017 65 16093 7.2 120 16:38 17.12.2019
5995 Clouds 28 1017 65 16093 7.2 120 16:19 17.12.2019
5996 Clouds 28 1017 65 16093 7.2 120 15:59 17.12.2019
5997 Clouds 27 1017 74 16093 5.7 140 15:38 17.12.2019
5998 Clouds 27 1017 74 16093 5.7 140 15:19 17.12.2019
5999 Clouds 27 1017 74 16093 5.7 140 14:56 17.12.2019
6000 Clouds 26 1017 78 16093 4.6 130 14:38 17.12.2019
6001 Clouds 26 1017 78 16093 4.6 130 14:19 17.12.2019
6002 Clouds 26 1017 78 16093 4.6 130 14:19 17.12.2019
6003 Clouds 25 1017 78 16093 4.6 130 13:56 17.12.2019
6004 Clouds 25 1017 83 16093 5.7 140 13:38 17.12.2019
6005 Clouds 25 1017 78 16093 5.1 120 13:19 17.12.2019
6006 Clouds 25 1017 78 16093 5.1 120 12:56 17.12.2019
6007 Clouds 25 1017 83 16093 3.6 130 12:37 17.12.2019
6008 Clouds 25 1017 83 16093 3.6 130 12:18 17.12.2019
6009 Clouds 25 1017 83 16093 3.6 130 11:56 17.12.2019
6010 Clouds 25 1016 78 16093 4.6 130 11:36 17.12.2019
6011 Clouds 25 1016 78 16093 4.6 130 11:18 17.12.2019
6012 Clouds 25 1016 78 16093 4.6 130 11:18 17.12.2019
6013 Clouds 25 1016 78 14484 5.7 140 10:55 17.12.2019
6014 Clouds 25 1016 78 14484 5.7 140 10:37 17.12.2019
6015 Clouds 25 1016 78 16093 5.7 130 10:18 17.12.2019
6016 Clouds 25 1017 83 16093 5.7 140 09:42 17.12.2019
6017 Clouds 25 1017 78 16093 6.7 140 09:21 17.12.2019
6018 Clouds 25 1016 78 16093 5.1 120 08:58 17.12.2019
6019 Clouds 25 1017 83 16093 5.7 130 08:39 17.12.2019
6020 Clouds 25 1017 83 16093 5.1 130 08:21 17.12.2019
6021 Clouds 26 1017 78 16093 5.7 120 07:57 17.12.2019
6022 Clouds 26 1017 78 16093 5.7 120 07:39 17.12.2019
6023 Clouds 26 1017 78 16093 5.7 120 07:19 17.12.2019
6024 Clouds 26 1018 78 16093 5.7 120 06:36 17.12.2019
6025 Clouds 26 1018 78 16093 5.7 120 06:18 17.12.2019
6026 Clouds 26 1018 83 16093 6.7 120 05:38 17.12.2019
6027 Clouds 26 1019 83 16093 6.7 110 04:48 17.12.2019
6028 Rain 26 1019 83 16093 5.7 120 03:31 17.12.2019
6029 Clouds 26 1019 78 16093 5.7 110 01:58 17.12.2019
6030 Clouds 26 1019 78 16093 4.6 100 01:21 17.12.2019
6031 Rain 25 1018 88 16093 4.1 100 00:39 17.12.2019
6032 Rain 25 1018 88 16093 4.1 100 00:39 17.12.2019
6033 Rain 26 1018 88 16093 4.1 100 00:21 17.12.2019
6034 Clouds 26 1018 88 16093 3.6 60 23:43 16.12.2019
6035 Clouds 26 1019 78 16093 4.6 90 23:20 16.12.2019
6036 Clouds 26 1019 69 16093 5.1 80 22:58 16.12.2019
6037 Clouds 26 1018 83 16093 3.6 70 22:38 16.12.2019
6038 Clouds 26 1018 83 16093 3.6 70 22:20 16.12.2019
6039 Clouds 27 1019 69 16093 6.2 100 21:57 16.12.2019
6040 Clouds 27 1019 69 16093 6.7 110 21:38 16.12.2019
6041 Clouds 27 1019 65 16093 6.2 100 21:20 16.12.2019
6042 Clouds 27 1019 65 16093 6.2 100 20:58 16.12.2019
6043 Clouds 27 1019 69 16093 6.2 100 20:39 16.12.2019
6044 Clouds 27 1019 74 16093 7.2 100 20:19 16.12.2019
6045 Clouds 28 1019 61 16093 6.2 110 19:56 16.12.2019
6046 Clouds 28 1019 58 16093 7.7 110 19:37 16.12.2019
6047 Clouds 28 1019 58 16093 7.7 110 19:19 16.12.2019
6048 Clouds 28 1019 58 16093 7.7 110 18:58 16.12.2019
6049 Clouds 28 1020 65 16093 7.2 120 18:40 16.12.2019
6050 Clouds 28 1020 65 16093 7.2 120 18:20 16.12.2019
6051 Clouds 28 1020 65 16093 7.2 120 17:58 16.12.2019
6052 Clouds 28 1021 65 16093 7.7 100 17:39 16.12.2019
6053 Clouds 27 1021 65 16093 7.7 100 17:21 16.12.2019
6054 Clouds 27 1021 69 16093 8.7 110 16:57 16.12.2019
6055 Clouds 27 1021 69 16093 6.7 110 16:38 16.12.2019
6056 Clouds 27 1021 69 16093 6.7 110 16:19 16.12.2019
6057 Clouds 27 1021 69 16093 6.7 110 15:58 16.12.2019
6058 Clouds 26 1021 69 16093 5.7 90 15:38 16.12.2019
6059 Clouds 26 1021 69 16093 5.7 90 15:20 16.12.2019
6060 Clouds 26 1021 69 16093 5.7 90 14:57 16.12.2019
6061 Clouds 25 1021 78 16093 4.1 90 14:37 16.12.2019
6062 Clouds 24 1021 78 16093 4.1 90 14:19 16.12.2019
6063 Clouds 24 1021 78 16093 4.1 90 14:19 16.12.2019
6064 Clouds 23 1021 78 16093 4.1 90 13:56 16.12.2019
6065 Clouds 23 1021 78 16093 4.1 90 13:56 16.12.2019
6066 Clouds 23 1021 78 16093 3.6 90 13:37 16.12.2019
6067 Clouds 23 1021 78 16093 3.6 90 13:37 16.12.2019
6068 Clouds 23 1021 78 16093 3.6 90 13:19 16.12.2019
6069 Clouds 22 1021 73 16093 2.6 120 12:57 16.12.2019
6070 Clouds 23 1021 78 16093 3.6 90 12:57 16.12.2019
6071 Clouds 22 1020 78 16093 3.1 90 12:39 16.12.2019
6072 Clouds 22 1020 78 16093 3.1 90 12:18 16.12.2019
6073 Clouds 22 1020 78 16093 3.1 90 11:58 16.12.2019
6074 Clouds 22 1020 78 16093 3.1 80 11:40 16.12.2019
6075 Clouds 22 1020 78 16093 3.1 80 11:20 16.12.2019
6076 Clouds 22 1020 78 16093 3.1 80 11:20 16.12.2019
6077 Clouds 22 1020 78 16093 3.1 80 10:56 16.12.2019
6078 Clouds 23 1020 73 16093 4.1 100 10:37 16.12.2019
6079 Clouds 23 1020 73 16093 4.1 100 10:19 16.12.2019
6080 Clouds 23 1019 83 16093 4.1 90 09:45 16.12.2019
6081 Clouds 23 1020 73 16093 4.6 100 09:26 16.12.2019
6082 Clouds 23 1020 69 16093 4.6 100 08:41 16.12.2019
6083 Clouds 23 1020 69 16093 4.6 100 08:21 16.12.2019
6084 Clouds 24 1020 69 16093 4.6 100 07:59 16.12.2019
6085 Clouds 24 1020 73 16093 6.7 110 07:41 16.12.2019
6086 Clouds 24 1020 73 16093 6.7 110 07:20 16.12.2019
6087 Clouds 24 1020 64 16093 4.6 90 06:41 16.12.2019
6088 Clouds 24 1020 64 16093 4.6 90 06:22 16.12.2019
6089 Clouds 23 1021 69 16093 3.6 90 05:47 16.12.2019
6090 Clouds 23 1021 69 16093 3.6 90 05:29 16.12.2019
6091 Clouds 23 1021 61 16093 3.6 70 03:41 16.12.2019
6092 Clouds 23 1020 64 16093 3.6 90 01:58 16.12.2019
6093 Clouds 23 1020 64 16093 4.6 90 01:40 16.12.2019
6094 Clouds 23 1020 61 16093 4.1 100 00:42 16.12.2019
6095 Clouds 24 1020 61 16093 4.1 100 00:23 16.12.2019
6096 Clouds 24 1020 61 16093 4.1 100 23:58 15.12.2019
6097 Clouds 25 1019 54 16093 4.1 70 23:38 15.12.2019
6098 Clouds 25 1019 54 16093 4.1 70 23:19 15.12.2019
6099 Clouds 25 1019 54 16093 4.1 70 22:55 15.12.2019
6100 Clouds 26 1019 54 16093 3.6 80 22:37 15.12.2019
6101 Clouds 26 1019 54 16093 3.6 80 22:18 15.12.2019
6102 Clouds 26 1019 54 16093 3.6 80 21:55 15.12.2019
6103 Clouds 26 1019 51 16093 4.6 80 21:37 15.12.2019
6104 Clouds 26 1019 51 16093 4.6 80 21:19 15.12.2019
6105 Clouds 27 1019 51 16093 4.6 80 20:55 15.12.2019
6106 Clouds 27 1019 51 16093 5.1 90 20:37 15.12.2019
6107 Clouds 27 1019 51 16093 5.1 90 20:18 15.12.2019
6108 Clouds 27 1019 51 16093 5.1 90 19:56 15.12.2019
6109 Clouds 27 1019 51 16093 6.2 80 19:38 15.12.2019
6110 Clouds 27 1019 51 16093 6.2 80 19:18 15.12.2019
6111 Clouds 27 1019 51 16093 6.2 80 18:55 15.12.2019
6112 Clouds 27 1020 51 16093 4.6 80 18:37 15.12.2019
6113 Clouds 27 1020 51 16093 4.6 80 18:18 15.12.2019
6114 Clouds 26 1020 51 16093 5.1 90 17:55 15.12.2019
6115 Clouds 26 1020 61 16093 2.6 0 17:36 15.12.2019
6116 Clouds 25 1020 61 16093 2.6 0 17:18 15.12.2019
6117 Clouds 24 1021 64 16093 1.5 0 16:43 15.12.2019
6118 Clouds 23 1021 64 16093 1.5 0 16:23 15.12.2019
6119 Clouds 22 1021 64 16093 1.5 0 15:57 15.12.2019
6120 Clouds 20 1020 68 16093 2.1 40 15:39 15.12.2019
6121 Clouds 19 1020 68 16093 2.1 40 15:19 15.12.2019
6122 Clouds 18 1020 68 16093 2.1 40 14:56 15.12.2019
6123 Clouds 17 1020 72 16093 2.6 360 14:38 15.12.2019
6124 Clouds 17 1020 72 16093 2.6 360 14:38 15.12.2019
6125 Clouds 16 1020 72 16093 2.6 360 14:19 15.12.2019
6126 Clouds 15 1020 72 16093 2.6 360 13:59 15.12.2019
6127 Clear 15 1019 72 16093 2.6 360 13:39 15.12.2019
6128 Clear 14 1019 72 16093 2.6 360 13:20 15.12.2019
6129 Clear 15 1019 87 16093 2.1 310 12:57 15.12.2019
6130 Clear 15 1018 77 16093 2.1 350 12:39 15.12.2019
6131 Clear 15 1018 77 16093 2.1 350 12:21 15.12.2019
6132 Clear 15 1018 77 16093 2.1 350 11:59 15.12.2019
6133 Clear 15 1017 77 16093 2.1 360 11:38 15.12.2019
6134 Clear 15 1017 77 16093 2.1 360 11:19 15.12.2019
6135 Clear 15 1017 72 16093 2.1 340 10:56 15.12.2019
6136 Clear 16 1017 72 16093 2.1 340 10:37 15.12.2019
6137 Clear 16 1017 72 16093 2.1 340 10:19 15.12.2019
6138 Clear 16 1017 72 16093 2.1 340 09:57 15.12.2019
6139 Clear 16 1017 77 16093 1.5 330 09:37 15.12.2019
6140 Clear 16 1017 77 16093 1.5 330 09:19 15.12.2019
6141 Clear 17 1017 77 16093 1.5 280 08:42 15.12.2019
6142 Clear 17 1017 77 16093 1.5 280 08:23 15.12.2019
6143 Clear 17 1017 77 16093 1.5 280 07:57 15.12.2019
6144 Clear 17 1016 68 16093 2.6 0 07:38 15.12.2019
6145 Clear 18 1016 68 16093 2.6 0 06:59 15.12.2019
6146 Clear 18 1017 72 16093 3.6 320 06:24 15.12.2019
6147 Clear 19 1016 64 16093 3.6 320 05:42 15.12.2019
6148 Clear 19 1016 64 16093 3.6 320 05:20 15.12.2019
6149 Clear 21 1016 68 16093 3.6 310 04:19 15.12.2019
6150 Clear 23 1014 60 16093 3.1 280 02:49 15.12.2019
6151 Clear 23 1014 60 16093 3.1 280 02:30 15.12.2019
6152 Clouds 23 1013 61 16093 3.6 260 01:40 15.12.2019
6153 Clouds 24 1013 61 16093 3.6 260 01:18 15.12.2019
6154 Clouds 25 1012 61 16093 5.1 270 00:47 15.12.2019
6155 Clouds 25 1012 61 16093 5.1 270 00:47 15.12.2019
6156 Clouds 25 1012 61 16093 5.1 270 00:29 15.12.2019
6157 Clouds 26 1012 61 16093 5.7 260 23:41 14.12.2019
6158 Clouds 26 1012 61 16093 5.7 260 23:22 14.12.2019
6159 Clouds 27 1012 61 16093 5.7 260 22:59 14.12.2019
6160 Clouds 27 1011 54 16093 4.6 270 22:41 14.12.2019
6161 Clouds 27 1011 54 16093 4.6 270 22:22 14.12.2019
6162 Clouds 27 1011 54 16093 4.6 270 21:57 14.12.2019
6163 Clouds 27 1011 54 16093 6.2 260 21:38 14.12.2019
6164 Clouds 27 1011 54 16093 6.2 260 21:19 14.12.2019
6165 Clouds 27 1011 54 16093 6.2 260 21:19 14.12.2019
6166 Clouds 27 1011 54 16093 6.2 260 20:59 14.12.2019
6167 Clouds 27 1011 54 16093 7.2 250 20:40 14.12.2019
6168 Clouds 27 1011 54 16093 7.2 250 20:20 14.12.2019
6169 Clouds 28 1011 54 16093 7.2 250 19:57 14.12.2019
6170 Clouds 29 1011 51 16093 8.7 240 19:38 14.12.2019
6171 Clouds 29 1011 51 16093 8.7 240 19:20 14.12.2019
6172 Clouds 29 1011 51 16093 8.7 240 18:56 14.12.2019
6173 Clouds 29 1012 54 16093 8.2 250 18:38 14.12.2019
6174 Clouds 29 1012 54 16093 8.2 250 18:38 14.12.2019
6175 Clouds 29 1012 54 16093 8.2 250 18:19 14.12.2019
6176 Clouds 28 1011 70 16093 6.2 220 17:44 14.12.2019
6177 Clouds 28 1012 65 16093 6.7 250 17:24 14.12.2019
6178 Clouds 27 1012 65 16093 6.7 250 16:59 14.12.2019
6179 Clouds 27 1012 69 16093 5.7 240 16:40 14.12.2019
6180 Clouds 27 1012 69 16093 5.7 240 16:19 14.12.2019
6181 Clouds 26 1012 69 16093 5.1 230 15:43 14.12.2019
6182 Clouds 25 1012 69 16093 5.1 230 15:25 14.12.2019
6183 Clouds 24 1012 69 16093 5.1 230 14:59 14.12.2019
6184 Clouds 24 1012 78 16093 3.6 220 14:39 14.12.2019
6185 Clouds 23 1012 78 16093 3.6 220 14:20 14.12.2019
6186 Clouds 22 1012 78 16093 3.6 220 13:58 14.12.2019
6187 Clouds 21 1011 88 16093 3.1 190 13:39 14.12.2019
6188 Clouds 21 1011 88 16093 3.1 190 13:19 14.12.2019
6189 Clouds 21 1011 88 16093 3.1 190 12:56 14.12.2019
6190 Clouds 21 1011 83 16093 2.1 150 12:37 14.12.2019
6191 Clouds 21 1011 83 16093 2.1 150 12:19 14.12.2019
6192 Clouds 20 1011 88 16093 7.51 218 11:56 14.12.2019
6193 Clouds 20 1011 88 16093 7.52 215 11:37 14.12.2019
6194 Clouds 20 1011 88 16093 6.03 227 11:18 14.12.2019
6195 Clouds 20 1011 88 16093 6.23 219 10:55 14.12.2019
6196 Clouds 20 1011 88 16093 6.03 227 10:55 14.12.2019
6197 Clouds 20 1012 83 16093 6.23 219 10:37 14.12.2019
6198 Clouds 20 1012 83 16093 6.23 219 10:19 14.12.2019
6199 Clouds 21 1012 83 16093 6.03 227 09:41 14.12.2019
6200 Clouds 21 1012 83 16093 6.23 219 09:21 14.12.2019
6201 Clouds 21 1012 83 16093 6.03 227 08:56 14.12.2019
6202 Clouds 22 1011 78 16093 2.6 290 08:37 14.12.2019
6203 Clouds 22 1011 78 16093 2.6 290 08:18 14.12.2019
6204 Clouds 22 1010 78 16093 2.1 170 07:40 14.12.2019
6205 Clouds 23 1010 78 16093 2.1 170 07:20 14.12.2019
6206 Clouds 23 1010 78 16093 2.6 170 06:42 14.12.2019
6207 Clouds 23 1010 78 16093 2.6 170 06:22 14.12.2019
6208 Clouds 23 1011 78 16093 3.6 160 05:35 14.12.2019
6209 Clouds 23 1013 69 16093 3.1 220 03:34 14.12.2019
6210 Clear 23 1013 78 16093 2.6 250 02:23 14.12.2019
6211 Clear 23 1013 73 16093 3.1 240 01:44 14.12.2019
6212 Clouds 24 1012 73 16093 3.6 240 00:58 14.12.2019
6213 Clear 24 1013 69 16093 3.6 260 00:40 14.12.2019
6214 Clear 24 1013 69 16093 3.6 260 00:19 14.12.2019
6215 Clear 25 1013 61 16093 4.6 250 23:41 13.12.2019
6216 Clear 25 1013 61 16093 4.6 250 23:41 13.12.2019
6217 Clouds 26 1013 54 16093 3.6 220 23:19 13.12.2019
6218 Clouds 26 1013 54 16093 3.6 220 22:56 13.12.2019
6219 Clouds 26 1012 54 16093 4.1 240 22:37 13.12.2019
6220 Clouds 26 1012 54 16093 4.1 240 22:18 13.12.2019
6221 Clouds 27 1012 61 16093 5.1 200 21:44 13.12.2019
6222 Clouds 27 1012 61 16093 5.1 200 21:22 13.12.2019
6223 Clouds 27 1012 61 16093 5.1 200 20:59 13.12.2019
6224 Clouds 27 1013 61 16093 3.6 160 20:39 13.12.2019
6225 Clouds 27 1013 58 16093 4.6 210 20:20 13.12.2019
6226 Clouds 27 1014 69 16093 4.1 170 19:56 13.12.2019
6227 Clouds 27 1014 69 16093 4.1 170 19:38 13.12.2019
6228 Clouds 27 1014 69 16093 4.1 170 19:19 13.12.2019
6229 Clouds 27 1014 69 16093 4.1 150 18:55 13.12.2019
6230 Clouds 27 1015 69 16093 4.1 150 18:36 13.12.2019
6231 Clouds 27 1015 69 16093 4.1 150 18:18 13.12.2019
6232 Clouds 27 1015 69 16093 3.6 140 17:40 13.12.2019
6233 Clouds 27 1016 69 16093 4.1 150 17:19 13.12.2019
6234 Clouds 27 1016 78 16093 2.6 140 16:57 13.12.2019
6235 Clouds 27 1016 78 16093 2.6 140 16:57 13.12.2019
6236 Clouds 26 1016 78 16093 2.6 140 16:38 13.12.2019
6237 Clouds 26 1016 74 16093 3.6 130 16:20 13.12.2019
6238 Clouds 25 1016 78 16093 2.6 110 15:43 13.12.2019
6239 Clouds 25 1016 78 16093 2.6 110 15:22 13.12.2019
6240 Clouds 24 1016 74 11265 6.7 130 14:57 13.12.2019
6241 Clouds 24 1016 88 16093 2.1 110 14:39 13.12.2019
6242 Clouds 23 1016 88 16093 2.1 110 14:20 13.12.2019
6243 Clouds 23 1016 83 16093 1.5 110 13:44 13.12.2019
6244 Clouds 22 1016 83 16093 1.5 110 13:26 13.12.2019
6245 Rain 23 1016 78 16093 3.6 110 12:59 13.12.2019
6246 Rain 23 1016 78 16093 3.6 110 12:41 13.12.2019
6247 Rain 23 1016 78 16093 3.6 110 12:19 13.12.2019
6248 Clouds 23 1016 78 16093 3.6 110 11:45 13.12.2019
6249 Clouds 23 1016 78 16093 3.6 110 11:27 13.12.2019
6250 Clouds 23 1016 73 11265 4.6 120 10:58 13.12.2019
6251 Clouds 23 1016 78 16093 3.1 120 10:40 13.12.2019
6252 Clouds 23 1016 78 16093 3.1 120 10:21 13.12.2019
6253 Rain 23 1017 73 16093 4.1 110 09:43 13.12.2019
6254 Rain 23 1017 73 16093 4.1 110 09:22 13.12.2019
6255 Rain 23 1017 83 16093 2.1 130 08:59 13.12.2019
6256 Rain 23 1017 83 16093 2.1 130 08:40 13.12.2019
6257 Rain 23 1017 83 16093 2.1 130 08:22 13.12.2019
6258 Clouds 23 1018 73 16093 2.1 100 07:43 13.12.2019
6259 Clouds 23 1018 73 16093 2.1 100 07:20 13.12.2019
6260 Clouds 23 1019 64 16093 3.1 80 06:50 13.12.2019
6261 Clouds 23 1019 64 16093 3.1 80 06:28 13.12.2019
6262 Clouds 23 1019 69 16093 4.1 90 05:43 13.12.2019
6263 Clouds 23 1019 69 16093 4.1 90 05:20 13.12.2019
6264 Rain 23 1020 73 16093 3.1 90 04:33 13.12.2019
6265 Rain 23 1020 69 16093 4.1 100 03:29 13.12.2019
6266 Rain 23 1020 73 16093 2.6 110 02:32 13.12.2019
6267 Rain 23 1020 73 16093 2.6 110 02:32 13.12.2019
6268 Rain 23 1020 78 9656 5.1 70 01:40 13.12.2019
6269 Clouds 24 1020 78 16093 2.6 110 00:51 13.12.2019
6270 Clouds 24 1020 73 16093 3.6 120 00:32 13.12.2019
6271 Rain 25 1019 61 16093 6.2 100 23:47 12.12.2019
6272 Rain 25 1019 61 16093 6.2 100 23:47 12.12.2019
6273 Rain 25 1019 61 16093 6.2 100 23:27 12.12.2019
6274 Clouds 26 1020 65 16093 5.1 120 22:59 12.12.2019
6275 Clouds 26 1020 65 16093 5.1 120 22:41 12.12.2019
6276 Clouds 26 1020 65 16093 5.1 120 22:41 12.12.2019
6277 Clouds 26 1019 61 16093 5.1 120 22:22 12.12.2019
6278 Clouds 26 1020 61 16093 6.2 120 21:56 12.12.2019
6279 Clouds 26 1020 61 16093 6.2 120 21:56 12.12.2019
6280 Clouds 26 1020 61 16093 6.2 120 21:38 12.12.2019
6281 Clouds 27 1020 65 16093 5.1 120 21:20 12.12.2019
6282 Clouds 26 1020 65 16093 5.1 140 20:59 12.12.2019
6283 Clouds 26 1020 61 16093 5.1 100 20:41 12.12.2019
6284 Clouds 26 1020 61 16093 5.1 100 20:23 12.12.2019
6285 Rain 26 1021 74 16093 2.6 80 19:59 12.12.2019
6286 Rain 26 1021 74 16093 2.6 80 19:59 12.12.2019
6287 Rain 26 1021 74 16093 2.6 80 19:40 12.12.2019
6288 Rain 26 1021 74 16093 2.6 80 19:21 12.12.2019
6289 Rain 25 1021 78 16093 4.6 80 18:57 12.12.2019
6290 Rain 25 1021 78 16093 4.6 80 18:57 12.12.2019
6291 Rain 25 1021 78 16093 4.6 80 18:38 12.12.2019
6292 Rain 25 1022 83 16093 2.6 70 18:20 12.12.2019
6293 Rain 24 1023 88 16093 3.1 70 17:57 12.12.2019
6294 Rain 24 1023 88 6437 5.1 100 17:38 12.12.2019
6295 Rain 23 1023 88 6437 5.1 100 17:20 12.12.2019
6296 Rain 23 1022 100 16093 3.6 310 16:56 12.12.2019
6297 Rain 23 1022 100 16093 3.6 310 16:37 12.12.2019
6298 Rain 23 1023 83 16093 1.5 50 16:19 12.12.2019
6299 Rain 23 1023 94 16093 2.1 270 15:54 12.12.2019
6300 Rain 23 1023 94 16093 2.1 270 15:36 12.12.2019
6301 Rain 23 1023 88 16093 4.1 130 15:18 12.12.2019
6302 Rain 22 1023 88 4023 2.6 40 14:38 12.12.2019
6303 Rain 22 1023 88 4023 2.6 40 14:38 12.12.2019
6304 Rain 22 1022 94 8047 2.6 50 14:20 12.12.2019
6305 Rain 22 1022 88 9656 4.1 40 13:57 12.12.2019
6306 Rain 22 1022 88 9656 4.1 40 13:39 12.12.2019
6307 Rain 22 1022 88 16093 2.6 360 13:21 12.12.2019
6308 Rain 22 1022 94 16093 2.6 350 12:57 12.12.2019
6309 Rain 22 1022 94 16093 2.1 340 12:38 12.12.2019
6310 Rain 22 1022 94 4828 3.1 30 12:20 12.12.2019
6311 Rain 22 1021 94 11265 4.6 20 11:55 12.12.2019
6312 Rain 22 1021 100 14484 1.5 20 11:37 12.12.2019
6313 Rain 22 1021 88 16093 1.5 360 11:19 12.12.2019
6314 Rain 22 1021 100 11265 3.1 360 10:54 12.12.2019
6315 Rain 22 1021 94 16093 3.6 360 10:36 12.12.2019
6316 Rain 22 1021 100 16093 3.6 10 10:18 12.12.2019
6317 Rain 22 1021 100 16093 2.1 10 09:41 12.12.2019
6318 Rain 22 1021 88 16093 2.6 330 09:23 12.12.2019
6319 Rain 22 1022 94 16093 2.6 320 08:56 12.12.2019
6320 Rain 22 1022 94 16093 2.6 320 08:38 12.12.2019
6321 Rain 22 1022 94 16093 2.6 320 08:38 12.12.2019
6322 Rain 22 1022 88 16093 1.5 340 08:19 12.12.2019
6323 Rain 22 1022 88 16093 6.79 56 07:42 12.12.2019
6324 Rain 22 1022 88 16093 6.79 56 07:24 12.12.2019
6325 Rain 23 1021 94 16093 2.6 20 06:48 12.12.2019
6326 Rain 23 1022 94 11265 5.1 20 06:30 12.12.2019
6327 Rain 23 1023 88 16093 6.79 56 05:36 12.12.2019
6328 Rain 23 1023 83 11265 2.6 70 04:51 12.12.2019
6329 Rain 23 1023 83 11265 2.6 70 04:51 12.12.2019
6330 Rain 23 1022 94 16093 2.1 10 03:20 12.12.2019
6331 Rain 24 1022 94 2414 2.6 40 02:37 12.12.2019
6332 Rain 24 1022 83 16093 1.5 310 02:19 12.12.2019
6333 Clouds 24 1021 88 16093 3.43 95 01:37 12.12.2019
6334 Clouds 24 1021 88 16093 3.43 95 01:18 12.12.2019
6335 Rain 25 1021 78 16093 1.5 80 00:40 12.12.2019
6336 Rain 25 1021 78 16093 1.5 80 00:19 12.12.2019
6337 Rain 25 1021 73 11265 2.1 40 23:44 11.12.2019
6338 Clouds 26 1021 65 16093 3.83 117 23:20 11.12.2019
6339 Rain 26 1021 73 16093 3.6 70 22:57 11.12.2019
6340 Clouds 26 1020 78 16093 3.1 90 22:38 11.12.2019
6341 Clouds 26 1021 65 16093 2.6 340 22:19 11.12.2019
6342 Rain 27 1021 69 16093 2.6 270 21:57 11.12.2019
6343 Rain 27 1021 69 16093 2.6 270 21:37 11.12.2019
6344 Rain 27 1021 69 16093 5.7 360 21:19 11.12.2019
6345 Thunderstorm 27 1021 69 16093 4.1 130 20:56 11.12.2019
6346 Thunderstorm 27 1021 69 16093 4.1 130 20:37 11.12.2019
6347 Thunderstorm 27 1021 69 16093 4.1 130 20:37 11.12.2019
6348 Clouds 28 1020 65 16093 4.6 120 20:19 11.12.2019
6349 Haze 28 1021 74 9656 2.1 270 19:57 11.12.2019
6350 Clouds 29 1021 62 16093 5.1 150 19:38 11.12.2019
6351 Clouds 29 1021 62 16093 5.1 150 19:18 11.12.2019
6352 Clouds 29 1021 69 16093 4.1 160 18:40 11.12.2019
6353 Clouds 29 1021 69 16093 4.1 160 18:21 11.12.2019
6354 Haze 29 1022 69 9656 5.1 160 17:57 11.12.2019
6355 Haze 29 1022 69 9656 5.1 160 17:57 11.12.2019
6356 Clouds 29 1022 69 16093 4.6 140 17:39 11.12.2019
6357 Clouds 28 1022 69 16093 4.6 140 17:18 11.12.2019
6358 Clouds 28 1022 74 16093 6.2 150 16:57 11.12.2019
6359 Clouds 28 1022 74 16093 6.2 150 16:57 11.12.2019
6360 Clouds 28 1022 74 16093 6.2 150 16:38 11.12.2019
6361 Clouds 28 1022 74 16093 6.2 150 16:38 11.12.2019
6362 Clouds 28 1022 74 16093 4.6 140 16:20 11.12.2019
6363 Clouds 28 1022 78 16093 4.1 160 15:59 11.12.2019
6364 Clouds 27 1022 78 16093 4.1 160 15:39 11.12.2019
6365 Clouds 27 1022 74 16093 4.1 130 15:21 11.12.2019
6366 Clouds 26 1021 83 16093 2.6 130 14:56 11.12.2019
6367 Rain 25 1021 83 16093 2.6 130 14:37 11.12.2019
6368 Rain 25 1021 83 16093 2.6 130 14:19 11.12.2019
6369 Clouds 24 1021 83 16093 2.1 150 13:55 11.12.2019
6370 Rain 24 1021 83 16093 2.1 130 13:36 11.12.2019
6371 Rain 24 1021 83 16093 2.1 130 13:18 11.12.2019
6372 Rain 24 1020 100 16093 1.5 110 12:55 11.12.2019
6373 Rain 24 1020 100 16093 1.5 110 12:37 11.12.2019
6374 Rain 24 1020 83 16093 2.6 130 12:18 11.12.2019
6375 Rain 24 1020 88 16093 2.1 130 11:56 11.12.2019
6376 Rain 24 1020 94 4828 5.69 136 11:37 11.12.2019
6377 Rain 24 1020 94 4828 5.7 141 11:18 11.12.2019
6378 Clouds 24 1020 94 16093 5.7 141 10:44 11.12.2019
6379 Clouds 24 1020 94 16093 1.5 0 10:25 11.12.2019
6380 Clouds 24 1020 94 16093 2.1 140 09:58 11.12.2019
6381 Clouds 24 1020 88 16093 2.6 180 09:38 11.12.2019
6382 Clouds 24 1020 94 16093 2.1 140 09:20 11.12.2019
6383 Clouds 24 1020 94 16093 2.1 130 08:56 11.12.2019
6384 Clouds 25 1020 83 16093 2.6 140 08:37 11.12.2019
6385 Clouds 25 1020 83 16093 2.6 140 08:18 11.12.2019
6386 Mist 25 1020 83 8047 4.6 150 07:45 11.12.2019
6387 Clouds 24 1020 83 16093 3.6 120 07:25 11.12.2019
6388 Clouds 24 1020 88 16093 2.6 120 06:47 11.12.2019
6389 Clouds 24 1020 88 16093 1.5 130 06:25 11.12.2019
6390 Clouds 25 1021 94 16093 5.04 149 05:58 11.12.2019
6391 Clouds 25 1020 83 16093 3.6 130 05:37 11.12.2019
6392 Clouds 25 1021 94 16093 2.1 120 04:55 11.12.2019
6393 Clouds 25 1020 83 16093 3.1 110 03:41 11.12.2019
6394 Clouds 25 1020 83 16093 3.6 110 02:40 11.12.2019
6395 Clouds 25 1020 83 16093 3.1 110 01:23 11.12.2019
6396 Clouds 26 1020 83 16093 3.1 130 00:46 11.12.2019
6397 Clouds 26 1019 78 16093 3.6 130 00:21 11.12.2019
6398 Clouds 26 1019 83 16093 5.7 110 23:46 10.12.2019
6399 Clouds 26 1018 74 16093 5.7 140 23:28 10.12.2019
6400 Clouds 27 1018 74 16093 4.6 130 22:57 10.12.2019
6401 Clouds 27 1018 74 16093 4.6 130 22:39 10.12.2019
6402 Clouds 27 1018 74 16093 4.6 130 22:21 10.12.2019
6403 Clouds 28 1018 69 16093 4.6 130 21:55 10.12.2019
6404 Clouds 28 1018 69 16093 4.6 130 21:37 10.12.2019
6405 Clouds 28 1018 69 16093 4.6 130 21:19 10.12.2019
6406 Haze 28 1018 69 8047 5.7 140 20:56 10.12.2019
6407 Clouds 28 1018 69 16093 6.7 120 20:37 10.12.2019
6408 Clouds 28 1018 69 16093 6.7 120 20:37 10.12.2019
6409 Clouds 28 1018 69 16093 6.7 120 20:19 10.12.2019
6410 Clouds 28 1018 69 16093 6.7 120 20:19 10.12.2019
6411 Clouds 28 1019 69 16093 5.7 140 19:54 10.12.2019
6412 Clouds 28 1019 69 16093 5.7 140 19:36 10.12.2019
6413 Clouds 29 1019 69 16093 7.2 120 19:18 10.12.2019
6414 Clouds 29 1020 66 16093 6.7 150 18:40 10.12.2019
6415 Clouds 28 1020 66 16093 6.7 150 18:20 10.12.2019
6416 Clouds 28 1020 69 16093 6.7 130 17:58 10.12.2019
6417 Clouds 28 1020 69 16093 6.7 130 17:39 10.12.2019
6418 Clouds 28 1020 69 16093 6.7 130 17:20 10.12.2019
6419 Clouds 28 1021 69 16093 6.7 130 16:43 10.12.2019
6420 Clouds 28 1021 69 16093 7.2 120 16:21 10.12.2019
6421 Clouds 28 1021 69 16093 7.2 120 16:21 10.12.2019
6422 Clouds 27 1020 74 16093 7.7 130 15:59 10.12.2019
6423 Clouds 27 1020 74 16093 7.7 130 15:38 10.12.2019
6424 Clouds 27 1020 74 16093 5.7 120 15:18 10.12.2019
6425 Clouds 26 1020 78 16093 6.2 120 14:56 10.12.2019
6426 Clouds 26 1020 78 16093 6.2 120 14:37 10.12.2019
6427 Clouds 26 1020 78 16093 6.2 120 14:37 10.12.2019
6428 Clouds 25 1020 78 16093 3.6 130 14:19 10.12.2019
6429 Clouds 25 1020 88 16093 1.5 180 13:56 10.12.2019
6430 Clouds 24 1019 83 16093 2.6 120 13:38 10.12.2019
6431 Clouds 24 1019 83 16093 2.6 120 13:19 10.12.2019
6432 Clouds 24 1019 78 16093 4.1 110 12:45 10.12.2019
6433 Clouds 24 1019 78 16093 4.1 110 12:45 10.12.2019
6434 Clouds 24 1019 83 16093 3.6 110 12:25 10.12.2019
6435 Clouds 24 1019 83 16093 2.1 120 11:45 10.12.2019
6436 Clouds 24 1019 83 16093 2.1 120 11:25 10.12.2019
6437 Clouds 24 1019 83 16093 4.6 110 10:58 10.12.2019
6438 Clouds 24 1019 83 16093 4.6 110 10:40 10.12.2019
6439 Clouds 24 1019 83 16093 4.6 110 10:22 10.12.2019
6440 Clouds 24 1019 83 16093 3.1 110 09:56 10.12.2019
6441 Clouds 24 1019 83 16093 3.1 110 09:56 10.12.2019
6442 Clouds 24 1019 83 16093 3.1 110 09:38 10.12.2019
6443 Clouds 24 1019 83 16093 3.1 110 09:38 10.12.2019
6444 Clouds 24 1019 83 16093 3.1 110 09:20 10.12.2019
6445 Clouds 24 1019 83 16093 3.6 110 08:57 10.12.2019
6446 Clouds 24 1019 83 16093 3.6 110 08:38 10.12.2019
6447 Clouds 24 1019 83 16093 3.6 110 08:19 10.12.2019
6448 Clouds 24 1019 94 16093 2.6 110 07:44 10.12.2019
6449 Clouds 24 1019 83 16093 3.6 110 07:26 10.12.2019
6450 Clouds 24 1019 83 16093 3.6 110 07:26 10.12.2019
6451 Haze 24 1019 78 9656 5.7 140 06:49 10.12.2019
6452 Clouds 24 1020 83 16093 3.1 110 06:24 10.12.2019
6453 Rain 24 1020 78 16093 3.6 110 05:55 10.12.2019
6454 Rain 24 1020 78 16093 3.6 110 05:19 10.12.2019
6455 Clouds 24 1020 78 16093 3.1 110 03:54 10.12.2019
6456 Clouds 24 1019 74 16093 5.7 120 02:48 10.12.2019
6457 Clouds 24 1019 78 16093 4.1 110 01:54 10.12.2019
6458 Clouds 24 1019 78 16093 4.1 110 01:26 10.12.2019
6459 Clear 24 1019 78 16093 4.1 110 00:51 10.12.2019
6460 Clear 25 1019 78 16093 4.1 110 00:24 10.12.2019
6461 Clouds 25 1018 65 16093 4.6 110 23:55 09.12.2019
6462 Clouds 25 1018 65 16093 4.6 110 23:36 09.12.2019
6463 Clouds 26 1018 65 16093 4.6 110 23:18 09.12.2019
6464 Clouds 26 1018 61 16093 5.7 110 22:54 09.12.2019
6465 Clouds 26 1018 61 16093 5.7 110 22:36 09.12.2019
6466 Clouds 26 1018 61 16093 5.7 110 22:18 09.12.2019
6467 Clouds 27 1018 74 16093 4.6 90 21:54 09.12.2019
6468 Clouds 27 1018 74 16093 4.6 90 21:36 09.12.2019
6469 Clouds 27 1018 61 16093 6.2 110 21:18 09.12.2019
6470 Clouds 27 1018 54 16093 6.2 110 20:54 09.12.2019
6471 Clouds 27 1018 54 16093 6.2 110 20:36 09.12.2019
6472 Clouds 27 1018 54 16093 6.2 110 20:18 09.12.2019
6473 Clouds 27 1018 65 16093 5.7 100 19:54 09.12.2019
6474 Clouds 28 1019 54 16093 5.1 110 19:36 09.12.2019
6475 Clouds 28 1019 54 16093 5.1 110 19:18 09.12.2019
6476 Clouds 28 1020 54 16093 6.2 110 18:40 09.12.2019
6477 Clouds 28 1020 54 16093 6.2 110 18:20 09.12.2019
6478 Clouds 28 1020 54 16093 6.2 110 18:20 09.12.2019
6479 Clouds 27 1020 57 16093 5.1 100 17:59 09.12.2019
6480 Clouds 27 1020 57 16093 5.1 100 17:41 09.12.2019
6481 Clouds 27 1020 57 16093 5.1 100 17:21 09.12.2019
6482 Clouds 27 1021 57 16093 5.1 120 16:58 09.12.2019
6483 Clouds 27 1021 57 16093 5.1 120 16:39 09.12.2019
6484 Clouds 27 1021 57 16093 5.7 100 16:21 09.12.2019
6485 Clouds 26 1021 65 16093 3.6 120 15:57 09.12.2019
6486 Clouds 26 1021 65 16093 3.6 120 15:38 09.12.2019
6487 Clouds 26 1021 65 16093 3.6 120 15:38 09.12.2019
6488 Clouds 25 1021 65 16093 3.6 120 15:19 09.12.2019
6489 Clouds 23 1020 73 16093 5.58 121 14:59 09.12.2019
6490 Clouds 22 1020 73 16093 5.58 121 14:41 09.12.2019
6491 Clouds 21 1020 73 16093 4.35 122 14:18 09.12.2019
6492 Clouds 20 1020 82 16093 1.5 30 13:56 09.12.2019
6493 Clouds 19 1020 82 16093 1.5 30 13:37 09.12.2019
6494 Clouds 18 1020 82 16093 1.5 30 13:19 09.12.2019
6495 Clouds 18 1020 93 16093 4.57 121 12:55 09.12.2019
6496 Clouds 18 1020 77 16093 4.57 121 12:36 09.12.2019
6497 Clouds 18 1020 77 16093 4.57 121 12:18 09.12.2019
6498 Clouds 18 1019 82 16093 4.57 121 11:40 09.12.2019
6499 Clouds 18 1019 82 16093 4.94 112 11:22 09.12.2019
6500 Clouds 18 1019 82 16093 4.94 112 10:59 09.12.2019
6501 Clouds 19 1019 82 16093 4.94 112 10:39 09.12.2019
6502 Clouds 18 1019 82 16093 4.94 112 10:19 09.12.2019
6503 Mist 18 1019 100 4828 4.94 112 09:55 09.12.2019
6504 Mist 19 1019 100 4828 4.94 112 09:36 09.12.2019
6505 Clear 19 1019 100 16093 4.94 112 09:18 09.12.2019
6506 Mist 19 1019 100 4828 4.94 112 08:40 09.12.2019
6507 Clouds 20 1019 68 16093 2.1 110 08:22 09.12.2019
6508 Clouds 20 1020 64 16093 3.1 100 07:52 09.12.2019
6509 Clouds 20 1020 64 16093 3.1 100 07:34 09.12.2019
6510 Clouds 21 1020 64 16093 2.6 110 06:59 09.12.2019
6511 Clouds 21 1020 64 16093 2.6 110 06:32 09.12.2019
6512 Clouds 21 1020 64 16093 2.6 110 05:51 09.12.2019
6513 Clouds 22 1020 64 16093 2.6 110 05:25 09.12.2019
6514 Clouds 22 1021 64 16093 3.1 100 04:28 09.12.2019
6515 Clouds 22 1020 60 16093 4.6 90 02:46 09.12.2019
6516 Clouds 22 1020 57 16093 4.6 90 01:48 09.12.2019
6517 Clouds 23 1020 57 16093 4.6 90 01:28 09.12.2019
6518 Clear 23 1020 64 16093 3.6 100 00:39 09.12.2019
6519 Clouds 23 1020 53 16093 5.7 100 00:19 09.12.2019
6520 Clouds 24 1020 64 16093 6.2 70 23:39 08.12.2019
6521 Clouds 24 1020 64 16093 6.2 70 23:20 08.12.2019
6522 Clouds 25 1019 61 16093 4.6 90 22:56 08.12.2019
6523 Clouds 25 1019 61 16093 4.6 90 22:38 08.12.2019
6524 Clouds 25 1020 54 16093 4.6 80 22:18 08.12.2019
6525 Rain 25 1019 57 16093 5.7 90 21:57 08.12.2019
6526 Rain 25 1019 57 16093 5.7 90 21:38 08.12.2019
6527 Rain 25 1019 57 16093 5.7 90 21:19 08.12.2019
6528 Rain 25 1019 69 16093 5.7 100 20:57 08.12.2019
6529 Rain 26 1019 69 16093 5.7 100 20:38 08.12.2019
6530 Rain 26 1019 65 16093 7.7 110 20:19 08.12.2019
6531 Clouds 26 1020 54 16093 5.7 50 19:57 08.12.2019
6532 Clouds 26 1020 54 16093 5.7 50 19:39 08.12.2019
6533 Clouds 26 1020 54 16093 5.7 50 19:21 08.12.2019
6534 Clouds 26 1021 54 16093 5.7 90 18:55 08.12.2019
6535 Clouds 27 1021 54 16093 5.7 90 18:36 08.12.2019
6536 Clouds 27 1021 54 16093 5.7 90 18:18 08.12.2019
6537 Clouds 26 1021 57 16093 3.6 100 17:56 08.12.2019
6538 Clouds 26 1021 57 16093 3.6 100 17:37 08.12.2019
6539 Clouds 26 1021 57 16093 3.6 100 17:19 08.12.2019
6540 Clouds 26 1022 57 16093 3.6 100 16:55 08.12.2019
6541 Clouds 26 1022 57 16093 3.6 100 16:37 08.12.2019
6542 Clouds 25 1022 57 16093 3.6 100 16:19 08.12.2019
6543 Clouds 25 1021 64 16093 1.5 60 15:38 08.12.2019
6544 Clouds 24 1021 64 16093 1.5 60 15:19 08.12.2019
6545 Clouds 22 1021 68 16093 1.5 20 14:59 08.12.2019
6546 Clouds 21 1021 68 16093 1.5 20 14:39 08.12.2019
6547 Clouds 21 1021 68 16093 1.5 20 14:21 08.12.2019
6548 Clouds 20 1021 72 16093 2.1 360 13:57 08.12.2019
6549 Clouds 19 1021 72 16093 2.1 360 13:38 08.12.2019
6550 Clouds 19 1021 72 16093 2.1 360 13:20 08.12.2019
6551 Clouds 19 1020 72 16093 5.14 85 12:54 08.12.2019
6552 Clouds 19 1020 72 16093 5.14 85 12:36 08.12.2019
6553 Clouds 18 1020 72 16093 5.14 85 12:18 08.12.2019
6554 Clouds 18 1020 88 16093 5.14 85 11:39 08.12.2019
6555 Clouds 18 1020 88 16093 5.14 85 11:39 08.12.2019
6556 Clouds 18 1020 88 16093 4.82 84 11:20 08.12.2019
6557 Clouds 18 1019 72 16093 4.82 84 10:59 08.12.2019
6558 Clouds 18 1019 72 16093 4.82 84 10:38 08.12.2019
6559 Clouds 18 1019 72 16093 4.82 84 10:20 08.12.2019
6560 Clouds 18 1020 72 16093 4.82 84 09:57 08.12.2019
6561 Clouds 18 1020 72 16093 4.82 84 09:57 08.12.2019
6562 Clouds 18 1020 72 16093 4.82 84 09:38 08.12.2019
6563 Clouds 18 1020 72 16093 4.82 84 09:19 08.12.2019
6564 Clouds 18 1020 77 16093 1.5 340 08:58 08.12.2019
6565 Clouds 18 1020 77 16093 1.5 340 08:37 08.12.2019
6566 Clouds 18 1020 77 16093 1.5 340 08:19 08.12.2019
6567 Clear 18 1020 72 16093 5.07 71 07:43 08.12.2019
6568 Clear 18 1020 72 16093 5.07 71 07:20 08.12.2019
6569 Clouds 18 1020 64 16093 2.1 350 06:50 08.12.2019
6570 Clouds 18 1020 64 16093 2.1 350 06:22 08.12.2019
6571 Clouds 19 1021 64 16093 2.1 350 05:49 08.12.2019
6572 Clouds 18 1021 64 16093 2.1 350 05:18 08.12.2019
6573 Clouds 19 1021 68 16093 1.5 350 03:50 08.12.2019
6574 Clouds 19 1021 68 16093 1.5 350 03:23 08.12.2019
6575 Clear 20 1020 64 16093 5.18 61 02:39 08.12.2019
6576 Clouds 20 1020 60 16093 1.5 40 01:56 08.12.2019
6577 Clouds 21 1020 60 16093 1.5 40 01:23 08.12.2019
6578 Clouds 22 1020 56 16093 2.6 80 00:40 08.12.2019
6579 Clouds 22 1020 56 16093 2.6 80 00:21 08.12.2019
6580 Clouds 22 1020 56 16093 2.6 80 00:21 08.12.2019
6581 Clouds 23 1019 44 16093 2.6 60 23:41 07.12.2019
6582 Clouds 24 1019 44 16093 2.6 60 23:21 07.12.2019
6583 Clouds 24 1019 44 16093 2.6 60 23:21 07.12.2019
6584 Clouds 25 1019 44 16093 4.1 90 22:58 07.12.2019
6585 Clouds 25 1019 44 16093 4.1 90 22:40 07.12.2019
6586 Clouds 25 1019 44 16093 4.1 90 22:40 07.12.2019
6587 Clouds 25 1019 44 16093 4.1 90 22:40 07.12.2019
6588 Clouds 25 1019 44 16093 4.1 90 22:21 07.12.2019
6589 Clouds 26 1019 44 16093 4.1 110 21:56 07.12.2019
6590 Clouds 26 1019 44 16093 4.1 110 21:38 07.12.2019
6591 Clouds 26 1019 44 16093 4.1 110 21:19 07.12.2019
6592 Clouds 26 1019 39 16093 2.6 60 20:59 07.12.2019
6593 Clouds 26 1019 39 16093 2.6 60 20:37 07.12.2019
6594 Clouds 26 1019 39 16093 2.6 60 20:18 07.12.2019
6595 Clouds 26 1020 42 16093 3.1 60 19:56 07.12.2019
6596 Clouds 26 1020 42 16093 3.1 60 19:38 07.12.2019
6597 Clouds 26 1020 42 16093 3.1 60 19:20 07.12.2019
6598 Clouds 26 1021 44 16093 2.24 32 18:44 07.12.2019
6599 Clouds 26 1021 44 16093 2.24 32 18:20 07.12.2019
6600 Clouds 25 1022 50 16093 2.1 320 17:58 07.12.2019
6601 Clouds 25 1022 50 16093 2.1 320 17:40 07.12.2019
6602 Clouds 25 1022 50 16093 2.1 320 17:21 07.12.2019
6603 Clouds 24 1022 53 16093 1.5 360 16:57 07.12.2019
6604 Clouds 23 1022 53 16093 1.5 360 16:38 07.12.2019
6605 Clouds 23 1022 53 16093 1.5 360 16:20 07.12.2019
6606 Clouds 22 1022 60 16093 2.1 350 15:57 07.12.2019
6607 Clouds 21 1022 60 16093 2.1 350 15:38 07.12.2019
6608 Clouds 21 1022 60 16093 2.1 350 15:20 07.12.2019
6609 Clouds 18 1021 68 16093 3.7 341 14:42 07.12.2019
6610 Clouds 17 1021 68 16093 3.69 317 14:19 07.12.2019
6611 Clouds 16 1020 82 16093 1.5 360 13:56 07.12.2019
6612 Clouds 15 1020 82 16093 1.5 360 13:37 07.12.2019
6613 Clouds 15 1020 82 16093 1.5 360 13:19 07.12.2019
6614 Clouds 15 1020 82 16093 1.5 320 12:41 07.12.2019
6615 Clouds 15 1020 82 16093 1.5 320 12:23 07.12.2019
6616 Clouds 15 1019 87 16093 1.5 300 11:58 07.12.2019
6617 Clouds 15 1019 87 16093 1.5 300 11:40 07.12.2019
6618 Clouds 15 1019 87 16093 1.5 300 11:22 07.12.2019
6619 Clouds 15 1020 82 16093 2.31 274 10:39 07.12.2019
6620 Clouds 15 1020 82 16093 2.31 274 10:20 07.12.2019
6621 Clouds 15 1020 82 16093 2.31 274 09:58 07.12.2019
6622 Clouds 16 1020 82 16093 2.31 274 09:38 07.12.2019
6623 Clear 16 1020 87 16093 2.31 274 09:19 07.12.2019
6624 Clouds 16 1020 77 16093 1.5 270 08:43 07.12.2019
6625 Clouds 16 1020 77 16093 1.5 270 08:21 07.12.2019
6626 Clouds 16 1021 72 16093 1.5 290 07:47 07.12.2019
6627 Clouds 16 1021 72 16093 1.5 290 07:27 07.12.2019
6628 Clear 17 1022 82 16093 2.6 290 06:51 07.12.2019
6629 Clear 17 1022 82 16093 2.6 290 06:25 07.12.2019
6630 Clear 17 1022 77 16093 1.71 107 05:38 07.12.2019
6631 Clouds 18 1022 64 16093 1.75 116 04:19 07.12.2019
6632 Clouds 18 1022 72 16093 1.75 116 03:47 07.12.2019
6633 Clouds 19 1021 53 16093 1.5 160 02:22 07.12.2019
6634 Clear 20 1021 68 16093 3.59 101 01:35 07.12.2019
6635 Clouds 21 1020 56 16093 2.6 130 00:57 07.12.2019
6636 Clouds 22 1020 56 16093 2.6 130 00:21 07.12.2019
6637 Clouds 22 1020 49 16093 3.6 130 23:56 06.12.2019
6638 Clouds 23 1020 49 16093 3.6 130 23:38 06.12.2019
6639 Clouds 23 1020 49 16093 3.6 130 23:18 06.12.2019
6640 Clouds 24 1020 50 16093 2.6 170 22:39 06.12.2019
6641 Clouds 24 1020 50 16093 2.6 170 22:20 06.12.2019
6642 Clouds 25 1020 47 16093 4.1 140 21:58 06.12.2019
6643 Clouds 25 1020 47 16093 4.1 140 21:39 06.12.2019
6644 Clouds 25 1020 47 16093 4.1 140 21:20 06.12.2019
6645 Clouds 25 1020 44 16093 4.1 110 20:45 06.12.2019
6646 Clouds 25 1020 44 16093 4.1 110 20:25 06.12.2019
6647 Clouds 25 1020 41 16093 3.1 130 19:59 06.12.2019
6648 Clouds 25 1020 41 16093 3.1 130 19:40 06.12.2019
6649 Clouds 25 1020 41 16093 3.1 130 19:22 06.12.2019
6650 Clouds 25 1020 41 16093 3.1 130 19:22 06.12.2019
6651 Clouds 25 1020 41 16093 3.1 130 19:22 06.12.2019
6652 Clouds 25 1021 44 16093 4.1 100 18:58 06.12.2019
6653 Clouds 25 1021 44 16093 4.1 100 18:40 06.12.2019
6654 Clouds 25 1021 44 16093 4.1 100 18:20 06.12.2019
6655 Clouds 25 1022 50 16093 2.1 120 17:57 06.12.2019
6656 Clouds 25 1022 50 16093 2.1 120 17:39 06.12.2019
6657 Clouds 25 1022 50 16093 2.1 120 17:20 06.12.2019
6658 Clouds 23 1022 53 16093 2.1 30 16:56 06.12.2019
6659 Clouds 23 1022 53 16093 2.1 30 16:37 06.12.2019
6660 Clouds 22 1022 53 16093 2.1 30 16:18 06.12.2019
6661 Clouds 20 1022 56 16093 3.1 350 15:41 06.12.2019
6662 Clouds 19 1022 56 16093 3.1 350 15:21 06.12.2